<?xml version="1.0" encoding="UTF-8" standalone="no" ?>
<gpx xmlns="http://www.topografix.com/GPX/1/1" xmlns:xsi="http://www.w3.org/2001/XMLSchema-instance" xsi:schemaLocation="http://www.topografix.com/GPX/1/1 http://www.topografix.com/GPX/1/1/gpx.xsd" version="1.1" creator="VisuGPX - https://www.visugpx.com">
  <metadata>
    <name>Lyon - Givors</name>
    <desc><![CDATA[une boucle par Pascal69 - cyclocrampons -
]]></desc>
  </metadata>
  <trk>
    <name><![CDATA[Après TAF CycloCrampons]]></name>
    <cmt><![CDATA[avec pascal69 & xtian
retour by night à la frontale

34°C vent du sud 40-50 km/h  début un peu dur !]]></cmt>
    <trkseg>
      <trkpt lat="45.74262" lon="4.87887">
        <ele>194.32373046875</ele>
        <time>2010-08-26T15:47:33Z</time>
      </trkpt>
      <trkpt lat="45.7426" lon="4.87894">
        <ele>191.43957519531</ele>
        <time>2010-08-26T15:47:35Z</time>
      </trkpt>
      <trkpt lat="45.74258" lon="4.87904">
        <ele>194.32373046875</ele>
        <time>2010-08-26T15:47:37Z</time>
      </trkpt>
      <trkpt lat="45.74257" lon="4.8791">
        <ele>193.84301757812</ele>
        <time>2010-08-26T15:47:38Z</time>
      </trkpt>
      <trkpt lat="45.74246" lon="4.87959">
        <ele>193.84301757812</ele>
        <time>2010-08-26T15:47:46Z</time>
      </trkpt>
      <trkpt lat="45.74244" lon="4.87972">
        <ele>194.32373046875</ele>
        <time>2010-08-26T15:47:48Z</time>
      </trkpt>
      <trkpt lat="45.74233" lon="4.87995">
        <ele>194.32373046875</ele>
        <time>2010-08-26T15:47:53Z</time>
      </trkpt>
      <trkpt lat="45.7423" lon="4.87995">
        <ele>194.32373046875</ele>
        <time>2010-08-26T15:47:54Z</time>
      </trkpt>
      <trkpt lat="45.74218" lon="4.87992">
        <ele>193.3623046875</ele>
        <time>2010-08-26T15:47:57Z</time>
      </trkpt>
      <trkpt lat="45.74187" lon="4.87984">
        <ele>191.92028808594</ele>
        <time>2010-08-26T15:48:04Z</time>
      </trkpt>
      <trkpt lat="45.74142" lon="4.87969">
        <ele>192.40112304688</ele>
        <time>2010-08-26T15:48:13Z</time>
      </trkpt>
      <trkpt lat="45.74125" lon="4.87953">
        <ele>192.40112304688</ele>
        <time>2010-08-26T15:48:18Z</time>
      </trkpt>
      <trkpt lat="45.74107" lon="4.8793">
        <ele>191.92028808594</ele>
        <time>2010-08-26T15:48:23Z</time>
      </trkpt>
      <trkpt lat="45.74086" lon="4.87886">
        <ele>190.958984375</ele>
        <time>2010-08-26T15:48:31Z</time>
      </trkpt>
      <trkpt lat="45.74073" lon="4.87893">
        <ele>191.43957519531</ele>
        <time>2010-08-26T15:48:35Z</time>
      </trkpt>
      <trkpt lat="45.74041" lon="4.87921">
        <ele>190.958984375</ele>
        <time>2010-08-26T15:48:42Z</time>
      </trkpt>
      <trkpt lat="45.74027" lon="4.87933">
        <ele>191.92028808594</ele>
        <time>2010-08-26T15:48:45Z</time>
      </trkpt>
      <trkpt lat="45.74004" lon="4.87954">
        <ele>190.958984375</ele>
        <time>2010-08-26T15:48:50Z</time>
      </trkpt>
      <trkpt lat="45.73989" lon="4.87966">
        <ele>190.47839355469</ele>
        <time>2010-08-26T15:48:53Z</time>
      </trkpt>
      <trkpt lat="45.73962" lon="4.87989">
        <ele>190.47839355469</ele>
        <time>2010-08-26T15:48:58Z</time>
      </trkpt>
      <trkpt lat="45.73936" lon="4.88011">
        <ele>190.958984375</ele>
        <time>2010-08-26T15:49:03Z</time>
      </trkpt>
      <trkpt lat="45.73911" lon="4.88032">
        <ele>190.958984375</ele>
        <time>2010-08-26T15:49:08Z</time>
      </trkpt>
      <trkpt lat="45.73877" lon="4.88063">
        <ele>192.40112304688</ele>
        <time>2010-08-26T15:49:15Z</time>
      </trkpt>
      <trkpt lat="45.73852" lon="4.88083">
        <ele>191.92028808594</ele>
        <time>2010-08-26T15:49:20Z</time>
      </trkpt>
      <trkpt lat="45.73848" lon="4.88087">
        <ele>191.92028808594</ele>
        <time>2010-08-26T15:49:21Z</time>
      </trkpt>
      <trkpt lat="45.73824" lon="4.88107">
        <ele>191.43957519531</ele>
        <time>2010-08-26T15:49:26Z</time>
      </trkpt>
      <trkpt lat="45.73804" lon="4.88123">
        <ele>191.92028808594</ele>
        <time>2010-08-26T15:49:30Z</time>
      </trkpt>
      <trkpt lat="45.73774" lon="4.88147">
        <ele>192.88171386719</ele>
        <time>2010-08-26T15:49:36Z</time>
      </trkpt>
      <trkpt lat="45.73732" lon="4.88181">
        <ele>191.43957519531</ele>
        <time>2010-08-26T15:49:44Z</time>
      </trkpt>
      <trkpt lat="45.73719" lon="4.88189">
        <ele>191.92028808594</ele>
        <time>2010-08-26T15:49:46Z</time>
      </trkpt>
      <trkpt lat="45.73698" lon="4.88205">
        <ele>193.3623046875</ele>
        <time>2010-08-26T15:49:50Z</time>
      </trkpt>
      <trkpt lat="45.73684" lon="4.88219">
        <ele>192.40112304688</ele>
        <time>2010-08-26T15:49:53Z</time>
      </trkpt>
      <trkpt lat="45.73669" lon="4.88233">
        <ele>192.88171386719</ele>
        <time>2010-08-26T15:49:56Z</time>
      </trkpt>
      <trkpt lat="45.73636" lon="4.88263">
        <ele>192.88171386719</ele>
        <time>2010-08-26T15:50:03Z</time>
      </trkpt>
      <trkpt lat="45.73604" lon="4.88291">
        <ele>192.88171386719</ele>
        <time>2010-08-26T15:50:10Z</time>
      </trkpt>
      <trkpt lat="45.73589" lon="4.88298">
        <ele>192.88171386719</ele>
        <time>2010-08-26T15:50:13Z</time>
      </trkpt>
      <trkpt lat="45.73571" lon="4.88289">
        <ele>193.3623046875</ele>
        <time>2010-08-26T15:50:17Z</time>
      </trkpt>
      <trkpt lat="45.73553" lon="4.88272">
        <ele>192.88171386719</ele>
        <time>2010-08-26T15:50:21Z</time>
      </trkpt>
      <trkpt lat="45.73529" lon="4.88251">
        <ele>192.88171386719</ele>
        <time>2010-08-26T15:50:26Z</time>
      </trkpt>
      <trkpt lat="45.73519" lon="4.88241">
        <ele>192.88171386719</ele>
        <time>2010-08-26T15:50:30Z</time>
      </trkpt>
      <trkpt lat="45.73512" lon="4.88233">
        <ele>192.40112304688</ele>
        <time>2010-08-26T15:50:35Z</time>
      </trkpt>
      <trkpt lat="45.73512" lon="4.88233">
        <ele>192.40112304688</ele>
        <time>2010-08-26T15:50:40Z</time>
      </trkpt>
      <trkpt lat="45.73508" lon="4.88228">
        <ele>192.40112304688</ele>
        <time>2010-08-26T15:50:47Z</time>
      </trkpt>
      <trkpt lat="45.73494" lon="4.88223">
        <ele>192.88171386719</ele>
        <time>2010-08-26T15:50:51Z</time>
      </trkpt>
      <trkpt lat="45.73482" lon="4.88225">
        <ele>193.3623046875</ele>
        <time>2010-08-26T15:50:54Z</time>
      </trkpt>
      <trkpt lat="45.73466" lon="4.88233">
        <ele>193.84301757812</ele>
        <time>2010-08-26T15:50:58Z</time>
      </trkpt>
      <trkpt lat="45.73457" lon="4.88236">
        <ele>193.84301757812</ele>
        <time>2010-08-26T15:51:00Z</time>
      </trkpt>
      <trkpt lat="45.73418" lon="4.88251">
        <ele>195.28491210938</ele>
        <time>2010-08-26T15:51:08Z</time>
      </trkpt>
      <trkpt lat="45.73388" lon="4.88261">
        <ele>195.28491210938</ele>
        <time>2010-08-26T15:51:14Z</time>
      </trkpt>
      <trkpt lat="45.73378" lon="4.88263">
        <ele>198.1689453125</ele>
        <time>2010-08-26T15:51:16Z</time>
      </trkpt>
      <trkpt lat="45.73374" lon="4.88263">
        <ele>193.3623046875</ele>
        <time>2010-08-26T15:51:17Z</time>
      </trkpt>
      <trkpt lat="45.7337" lon="4.88261">
        <ele>194.80432128906</ele>
        <time>2010-08-26T15:51:18Z</time>
      </trkpt>
      <trkpt lat="45.73361" lon="4.88254">
        <ele>195.28491210938</ele>
        <time>2010-08-26T15:51:20Z</time>
      </trkpt>
      <trkpt lat="45.73354" lon="4.88247">
        <ele>193.84301757812</ele>
        <time>2010-08-26T15:51:22Z</time>
      </trkpt>
      <trkpt lat="45.7333" lon="4.8822">
        <ele>191.43957519531</ele>
        <time>2010-08-26T15:51:28Z</time>
      </trkpt>
      <trkpt lat="45.733" lon="4.88185">
        <ele>192.40112304688</ele>
        <time>2010-08-26T15:51:36Z</time>
      </trkpt>
      <trkpt lat="45.73296" lon="4.88181">
        <ele>192.40112304688</ele>
        <time>2010-08-26T15:51:37Z</time>
      </trkpt>
      <trkpt lat="45.73281" lon="4.88168">
        <ele>192.88171386719</ele>
        <time>2010-08-26T15:51:41Z</time>
      </trkpt>
      <trkpt lat="45.73264" lon="4.88149">
        <ele>192.88171386719</ele>
        <time>2010-08-26T15:51:48Z</time>
      </trkpt>
      <trkpt lat="45.73262" lon="4.88145">
        <ele>190.47839355469</ele>
        <time>2010-08-26T15:51:52Z</time>
      </trkpt>
      <trkpt lat="45.73263" lon="4.88142">
        <ele>191.92028808594</ele>
        <time>2010-08-26T15:51:59Z</time>
      </trkpt>
      <trkpt lat="45.73264" lon="4.88141">
        <ele>191.43957519531</ele>
        <time>2010-08-26T15:52:31Z</time>
      </trkpt>
      <trkpt lat="45.73249" lon="4.88122">
        <ele>191.43957519531</ele>
        <time>2010-08-26T15:52:37Z</time>
      </trkpt>
      <trkpt lat="45.73226" lon="4.88097">
        <ele>190.47839355469</ele>
        <time>2010-08-26T15:52:42Z</time>
      </trkpt>
      <trkpt lat="45.73186" lon="4.88051">
        <ele>192.40112304688</ele>
        <time>2010-08-26T15:52:50Z</time>
      </trkpt>
      <trkpt lat="45.73161" lon="4.88022">
        <ele>192.40112304688</ele>
        <time>2010-08-26T15:52:55Z</time>
      </trkpt>
      <trkpt lat="45.73129" lon="4.87987">
        <ele>191.43957519531</ele>
        <time>2010-08-26T15:53:01Z</time>
      </trkpt>
      <trkpt lat="45.73115" lon="4.8799">
        <ele>193.84301757812</ele>
        <time>2010-08-26T15:53:04Z</time>
      </trkpt>
      <trkpt lat="45.73107" lon="4.88002">
        <ele>193.84301757812</ele>
        <time>2010-08-26T15:53:06Z</time>
      </trkpt>
      <trkpt lat="45.73098" lon="4.88024">
        <ele>191.43957519531</ele>
        <time>2010-08-26T15:53:09Z</time>
      </trkpt>
      <trkpt lat="45.73071" lon="4.88098">
        <ele>192.88171386719</ele>
        <time>2010-08-26T15:53:19Z</time>
      </trkpt>
      <trkpt lat="45.73043" lon="4.88168">
        <ele>192.88171386719</ele>
        <time>2010-08-26T15:53:29Z</time>
      </trkpt>
      <trkpt lat="45.73038" lon="4.88182">
        <ele>194.32373046875</ele>
        <time>2010-08-26T15:53:31Z</time>
      </trkpt>
      <trkpt lat="45.73029" lon="4.8821">
        <ele>192.40112304688</ele>
        <time>2010-08-26T15:53:35Z</time>
      </trkpt>
      <trkpt lat="45.73016" lon="4.88218">
        <ele>191.92028808594</ele>
        <time>2010-08-26T15:53:38Z</time>
      </trkpt>
      <trkpt lat="45.73009" lon="4.88216">
        <ele>193.3623046875</ele>
        <time>2010-08-26T15:53:39Z</time>
      </trkpt>
      <trkpt lat="45.72955" lon="4.88192">
        <ele>193.3623046875</ele>
        <time>2010-08-26T15:53:48Z</time>
      </trkpt>
      <trkpt lat="45.72921" lon="4.88179">
        <ele>192.40112304688</ele>
        <time>2010-08-26T15:53:54Z</time>
      </trkpt>
      <trkpt lat="45.72878" lon="4.88167">
        <ele>192.40112304688</ele>
        <time>2010-08-26T15:54:02Z</time>
      </trkpt>
      <trkpt lat="45.7286" lon="4.88161">
        <ele>191.92028808594</ele>
        <time>2010-08-26T15:54:07Z</time>
      </trkpt>
      <trkpt lat="45.72854" lon="4.88158">
        <ele>191.43957519531</ele>
        <time>2010-08-26T15:54:11Z</time>
      </trkpt>
      <trkpt lat="45.72851" lon="4.88157">
        <ele>192.40112304688</ele>
        <time>2010-08-26T15:54:12Z</time>
      </trkpt>
      <trkpt lat="45.72836" lon="4.88166">
        <ele>191.92028808594</ele>
        <time>2010-08-26T15:54:16Z</time>
      </trkpt>
      <trkpt lat="45.72834" lon="4.88171">
        <ele>191.92028808594</ele>
        <time>2010-08-26T15:54:17Z</time>
      </trkpt>
      <trkpt lat="45.72815" lon="4.88216">
        <ele>192.88171386719</ele>
        <time>2010-08-26T15:54:24Z</time>
      </trkpt>
      <trkpt lat="45.72796" lon="4.8827">
        <ele>192.88171386719</ele>
        <time>2010-08-26T15:54:31Z</time>
      </trkpt>
      <trkpt lat="45.72783" lon="4.88299">
        <ele>191.92028808594</ele>
        <time>2010-08-26T15:54:35Z</time>
      </trkpt>
      <trkpt lat="45.72762" lon="4.88361">
        <ele>192.40112304688</ele>
        <time>2010-08-26T15:54:43Z</time>
      </trkpt>
      <trkpt lat="45.72757" lon="4.88373">
        <ele>191.92028808594</ele>
        <time>2010-08-26T15:54:45Z</time>
      </trkpt>
      <trkpt lat="45.72752" lon="4.88387">
        <ele>192.40112304688</ele>
        <time>2010-08-26T15:54:47Z</time>
      </trkpt>
      <trkpt lat="45.72732" lon="4.88436">
        <ele>191.92028808594</ele>
        <time>2010-08-26T15:54:54Z</time>
      </trkpt>
      <trkpt lat="45.72706" lon="4.88498">
        <ele>191.92028808594</ele>
        <time>2010-08-26T15:55:02Z</time>
      </trkpt>
      <trkpt lat="45.7268" lon="4.88556">
        <ele>193.3623046875</ele>
        <time>2010-08-26T15:55:10Z</time>
      </trkpt>
      <trkpt lat="45.72641" lon="4.88627">
        <ele>192.88171386719</ele>
        <time>2010-08-26T15:55:21Z</time>
      </trkpt>
      <trkpt lat="45.72623" lon="4.88664">
        <ele>191.92028808594</ele>
        <time>2010-08-26T15:55:27Z</time>
      </trkpt>
      <trkpt lat="45.72614" lon="4.88683">
        <ele>191.92028808594</ele>
        <time>2010-08-26T15:55:31Z</time>
      </trkpt>
      <trkpt lat="45.72611" lon="4.88689">
        <ele>192.40112304688</ele>
        <time>2010-08-26T15:55:36Z</time>
      </trkpt>
      <trkpt lat="45.7261" lon="4.88691">
        <ele>192.88171386719</ele>
        <time>2010-08-26T15:55:45Z</time>
      </trkpt>
      <trkpt lat="45.72609" lon="4.88692">
        <ele>191.43957519531</ele>
        <time>2010-08-26T15:55:50Z</time>
      </trkpt>
      <trkpt lat="45.72603" lon="4.887">
        <ele>191.43957519531</ele>
        <time>2010-08-26T15:55:54Z</time>
      </trkpt>
      <trkpt lat="45.72599" lon="4.88708">
        <ele>192.40112304688</ele>
        <time>2010-08-26T15:55:56Z</time>
      </trkpt>
      <trkpt lat="45.7258" lon="4.88717">
        <ele>193.3623046875</ele>
        <time>2010-08-26T15:56:00Z</time>
      </trkpt>
      <trkpt lat="45.72548" lon="4.8872">
        <ele>192.88171386719</ele>
        <time>2010-08-26T15:56:06Z</time>
      </trkpt>
      <trkpt lat="45.72543" lon="4.88721">
        <ele>192.88171386719</ele>
        <time>2010-08-26T15:56:07Z</time>
      </trkpt>
      <trkpt lat="45.72503" lon="4.88724">
        <ele>192.40112304688</ele>
        <time>2010-08-26T15:56:15Z</time>
      </trkpt>
      <trkpt lat="45.72471" lon="4.88726">
        <ele>193.3623046875</ele>
        <time>2010-08-26T15:56:21Z</time>
      </trkpt>
      <trkpt lat="45.72435" lon="4.88728">
        <ele>192.40112304688</ele>
        <time>2010-08-26T15:56:28Z</time>
      </trkpt>
      <trkpt lat="45.724" lon="4.88734">
        <ele>192.88171386719</ele>
        <time>2010-08-26T15:56:35Z</time>
      </trkpt>
      <trkpt lat="45.72371" lon="4.88737">
        <ele>192.40112304688</ele>
        <time>2010-08-26T15:56:41Z</time>
      </trkpt>
      <trkpt lat="45.72337" lon="4.8874">
        <ele>192.40112304688</ele>
        <time>2010-08-26T15:56:48Z</time>
      </trkpt>
      <trkpt lat="45.72327" lon="4.88741">
        <ele>192.40112304688</ele>
        <time>2010-08-26T15:56:50Z</time>
      </trkpt>
      <trkpt lat="45.72309" lon="4.88739">
        <ele>191.92028808594</ele>
        <time>2010-08-26T15:56:53Z</time>
      </trkpt>
      <trkpt lat="45.72263" lon="4.88741">
        <ele>190.958984375</ele>
        <time>2010-08-26T15:57:00Z</time>
      </trkpt>
      <trkpt lat="45.72221" lon="4.88741">
        <ele>190.47839355469</ele>
        <time>2010-08-26T15:57:07Z</time>
      </trkpt>
      <trkpt lat="45.7221" lon="4.8875">
        <ele>189.51696777344</ele>
        <time>2010-08-26T15:57:10Z</time>
      </trkpt>
      <trkpt lat="45.72186" lon="4.88784">
        <ele>190.47839355469</ele>
        <time>2010-08-26T15:57:13Z</time>
      </trkpt>
      <trkpt lat="45.72173" lon="4.88774">
        <ele>190.958984375</ele>
        <time>2010-08-26T15:57:17Z</time>
      </trkpt>
      <trkpt lat="45.72162" lon="4.88765">
        <ele>192.88171386719</ele>
        <time>2010-08-26T15:57:20Z</time>
      </trkpt>
      <trkpt lat="45.72158" lon="4.88764">
        <ele>192.88171386719</ele>
        <time>2010-08-26T15:57:21Z</time>
      </trkpt>
      <trkpt lat="45.72142" lon="4.88761">
        <ele>195.765625</ele>
        <time>2010-08-26T15:57:26Z</time>
      </trkpt>
      <trkpt lat="45.72123" lon="4.8876">
        <ele>194.80432128906</ele>
        <time>2010-08-26T15:57:31Z</time>
      </trkpt>
      <trkpt lat="45.72084" lon="4.88762">
        <ele>194.80432128906</ele>
        <time>2010-08-26T15:57:39Z</time>
      </trkpt>
      <trkpt lat="45.72042" lon="4.88764">
        <ele>195.765625</ele>
        <time>2010-08-26T15:57:48Z</time>
      </trkpt>
      <trkpt lat="45.72038" lon="4.88764">
        <ele>195.765625</ele>
        <time>2010-08-26T15:57:49Z</time>
      </trkpt>
      <trkpt lat="45.72024" lon="4.88779">
        <ele>193.84301757812</ele>
        <time>2010-08-26T15:57:53Z</time>
      </trkpt>
      <trkpt lat="45.71994" lon="4.88825">
        <ele>194.80432128906</ele>
        <time>2010-08-26T15:58:02Z</time>
      </trkpt>
      <trkpt lat="45.71977" lon="4.88848">
        <ele>194.32373046875</ele>
        <time>2010-08-26T15:58:07Z</time>
      </trkpt>
      <trkpt lat="45.7196" lon="4.8887">
        <ele>193.84301757812</ele>
        <time>2010-08-26T15:58:13Z</time>
      </trkpt>
      <trkpt lat="45.71947" lon="4.88867">
        <ele>196.72692871094</ele>
        <time>2010-08-26T15:58:17Z</time>
      </trkpt>
      <trkpt lat="45.71944" lon="4.88865">
        <ele>195.28491210938</ele>
        <time>2010-08-26T15:58:18Z</time>
      </trkpt>
      <trkpt lat="45.71934" lon="4.88849">
        <ele>193.84301757812</ele>
        <time>2010-08-26T15:58:23Z</time>
      </trkpt>
      <trkpt lat="45.71929" lon="4.88841">
        <ele>193.84301757812</ele>
        <time>2010-08-26T15:58:25Z</time>
      </trkpt>
      <trkpt lat="45.7192" lon="4.88825">
        <ele>193.84301757812</ele>
        <time>2010-08-26T15:58:28Z</time>
      </trkpt>
      <trkpt lat="45.71889" lon="4.88774">
        <ele>195.28491210938</ele>
        <time>2010-08-26T15:58:37Z</time>
      </trkpt>
      <trkpt lat="45.71883" lon="4.88765">
        <ele>195.28491210938</ele>
        <time>2010-08-26T15:58:39Z</time>
      </trkpt>
      <trkpt lat="45.71872" lon="4.88759">
        <ele>193.84301757812</ele>
        <time>2010-08-26T15:58:42Z</time>
      </trkpt>
      <trkpt lat="45.71865" lon="4.88759">
        <ele>193.84301757812</ele>
        <time>2010-08-26T15:58:44Z</time>
      </trkpt>
      <trkpt lat="45.71855" lon="4.8875">
        <ele>193.84301757812</ele>
        <time>2010-08-26T15:58:48Z</time>
      </trkpt>
      <trkpt lat="45.71845" lon="4.88756">
        <ele>194.32373046875</ele>
        <time>2010-08-26T15:58:51Z</time>
      </trkpt>
      <trkpt lat="45.71841" lon="4.88758">
        <ele>195.28491210938</ele>
        <time>2010-08-26T15:58:52Z</time>
      </trkpt>
      <trkpt lat="45.71805" lon="4.88762">
        <ele>194.80432128906</ele>
        <time>2010-08-26T15:58:59Z</time>
      </trkpt>
      <trkpt lat="45.7176" lon="4.88769">
        <ele>195.28491210938</ele>
        <time>2010-08-26T15:59:08Z</time>
      </trkpt>
      <trkpt lat="45.7173" lon="4.88772">
        <ele>195.28491210938</ele>
        <time>2010-08-26T15:59:14Z</time>
      </trkpt>
      <trkpt lat="45.71689" lon="4.88776">
        <ele>195.28491210938</ele>
        <time>2010-08-26T15:59:22Z</time>
      </trkpt>
      <trkpt lat="45.7166" lon="4.88783">
        <ele>195.765625</ele>
        <time>2010-08-26T15:59:28Z</time>
      </trkpt>
      <trkpt lat="45.71635" lon="4.8879">
        <ele>195.765625</ele>
        <time>2010-08-26T15:59:33Z</time>
      </trkpt>
      <trkpt lat="45.71605" lon="4.88795">
        <ele>196.24633789062</ele>
        <time>2010-08-26T15:59:39Z</time>
      </trkpt>
      <trkpt lat="45.716" lon="4.88794">
        <ele>196.24633789062</ele>
        <time>2010-08-26T15:59:40Z</time>
      </trkpt>
      <trkpt lat="45.71585" lon="4.88795">
        <ele>197.20751953125</ele>
        <time>2010-08-26T15:59:43Z</time>
      </trkpt>
      <trkpt lat="45.71556" lon="4.88796">
        <ele>196.24633789062</ele>
        <time>2010-08-26T15:59:50Z</time>
      </trkpt>
      <trkpt lat="45.71554" lon="4.88795">
        <ele>195.28491210938</ele>
        <time>2010-08-26T15:59:54Z</time>
      </trkpt>
      <trkpt lat="45.71548" lon="4.88795">
        <ele>195.765625</ele>
        <time>2010-08-26T15:59:59Z</time>
      </trkpt>
      <trkpt lat="45.71532" lon="4.88796">
        <ele>196.72692871094</ele>
        <time>2010-08-26T16:00:04Z</time>
      </trkpt>
      <trkpt lat="45.71513" lon="4.88798">
        <ele>196.24633789062</ele>
        <time>2010-08-26T16:00:09Z</time>
      </trkpt>
      <trkpt lat="45.71505" lon="4.88798">
        <ele>195.765625</ele>
        <time>2010-08-26T16:00:11Z</time>
      </trkpt>
      <trkpt lat="45.71474" lon="4.88801">
        <ele>197.20751953125</ele>
        <time>2010-08-26T16:00:17Z</time>
      </trkpt>
      <trkpt lat="45.71439" lon="4.88804">
        <ele>197.20751953125</ele>
        <time>2010-08-26T16:00:24Z</time>
      </trkpt>
      <trkpt lat="45.71404" lon="4.88806">
        <ele>196.72692871094</ele>
        <time>2010-08-26T16:00:31Z</time>
      </trkpt>
      <trkpt lat="45.71373" lon="4.88807">
        <ele>197.20751953125</ele>
        <time>2010-08-26T16:00:37Z</time>
      </trkpt>
      <trkpt lat="45.71344" lon="4.88808">
        <ele>197.20751953125</ele>
        <time>2010-08-26T16:00:43Z</time>
      </trkpt>
      <trkpt lat="45.71315" lon="4.88808">
        <ele>199.13012695312</ele>
        <time>2010-08-26T16:00:49Z</time>
      </trkpt>
      <trkpt lat="45.71305" lon="4.88808">
        <ele>196.72692871094</ele>
        <time>2010-08-26T16:00:51Z</time>
      </trkpt>
      <trkpt lat="45.71267" lon="4.88804">
        <ele>197.20751953125</ele>
        <time>2010-08-26T16:00:59Z</time>
      </trkpt>
      <trkpt lat="45.71223" lon="4.88798">
        <ele>197.20751953125</ele>
        <time>2010-08-26T16:01:08Z</time>
      </trkpt>
      <trkpt lat="45.71183" lon="4.88788">
        <ele>197.20751953125</ele>
        <time>2010-08-26T16:01:16Z</time>
      </trkpt>
      <trkpt lat="45.71148" lon="4.88779">
        <ele>198.1689453125</ele>
        <time>2010-08-26T16:01:23Z</time>
      </trkpt>
      <trkpt lat="45.71103" lon="4.88767">
        <ele>198.1689453125</ele>
        <time>2010-08-26T16:01:32Z</time>
      </trkpt>
      <trkpt lat="45.71066" lon="4.88758">
        <ele>197.20751953125</ele>
        <time>2010-08-26T16:01:40Z</time>
      </trkpt>
      <trkpt lat="45.71026" lon="4.88748">
        <ele>197.20751953125</ele>
        <time>2010-08-26T16:01:48Z</time>
      </trkpt>
      <trkpt lat="45.70989" lon="4.88739">
        <ele>198.1689453125</ele>
        <time>2010-08-26T16:01:56Z</time>
      </trkpt>
      <trkpt lat="45.70955" lon="4.88731">
        <ele>198.1689453125</ele>
        <time>2010-08-26T16:02:03Z</time>
      </trkpt>
      <trkpt lat="45.70918" lon="4.88719">
        <ele>198.1689453125</ele>
        <time>2010-08-26T16:02:11Z</time>
      </trkpt>
      <trkpt lat="45.70892" lon="4.88712">
        <ele>198.1689453125</ele>
        <time>2010-08-26T16:02:17Z</time>
      </trkpt>
      <trkpt lat="45.70858" lon="4.88702">
        <ele>198.1689453125</ele>
        <time>2010-08-26T16:02:25Z</time>
      </trkpt>
      <trkpt lat="45.70836" lon="4.8869">
        <ele>198.1689453125</ele>
        <time>2010-08-26T16:02:30Z</time>
      </trkpt>
      <trkpt lat="45.70826" lon="4.88678">
        <ele>198.1689453125</ele>
        <time>2010-08-26T16:02:33Z</time>
      </trkpt>
      <trkpt lat="45.7081" lon="4.88679">
        <ele>198.64953613281</ele>
        <time>2010-08-26T16:02:37Z</time>
      </trkpt>
      <trkpt lat="45.70799" lon="4.88691">
        <ele>198.64953613281</ele>
        <time>2010-08-26T16:02:40Z</time>
      </trkpt>
      <trkpt lat="45.70776" lon="4.88707">
        <ele>198.64953613281</ele>
        <time>2010-08-26T16:02:45Z</time>
      </trkpt>
      <trkpt lat="45.70729" lon="4.88729">
        <ele>200.09167480469</ele>
        <time>2010-08-26T16:02:55Z</time>
      </trkpt>
      <trkpt lat="45.70704" lon="4.88737">
        <ele>200.572265625</ele>
        <time>2010-08-26T16:03:01Z</time>
      </trkpt>
      <trkpt lat="45.70671" lon="4.88741">
        <ele>201.53356933594</ele>
        <time>2010-08-26T16:03:09Z</time>
      </trkpt>
      <trkpt lat="45.70663" lon="4.88742">
        <ele>202.01428222656</ele>
        <time>2010-08-26T16:03:11Z</time>
      </trkpt>
      <trkpt lat="45.70625" lon="4.8874">
        <ele>202.97546386719</ele>
        <time>2010-08-26T16:03:20Z</time>
      </trkpt>
      <trkpt lat="45.70603" lon="4.8874">
        <ele>202.97546386719</ele>
        <time>2010-08-26T16:03:25Z</time>
      </trkpt>
      <trkpt lat="45.70565" lon="4.88744">
        <ele>205.85949707031</ele>
        <time>2010-08-26T16:03:34Z</time>
      </trkpt>
      <trkpt lat="45.70524" lon="4.88745">
        <ele>204.41748046875</ele>
        <time>2010-08-26T16:03:44Z</time>
      </trkpt>
      <trkpt lat="45.70498" lon="4.88745">
        <ele>205.37878417969</ele>
        <time>2010-08-26T16:03:50Z</time>
      </trkpt>
      <trkpt lat="45.70459" lon="4.88744">
        <ele>204.89807128906</ele>
        <time>2010-08-26T16:03:58Z</time>
      </trkpt>
      <trkpt lat="45.70418" lon="4.88744">
        <ele>205.37878417969</ele>
        <time>2010-08-26T16:04:06Z</time>
      </trkpt>
      <trkpt lat="45.70412" lon="4.88744">
        <ele>205.37878417969</ele>
        <time>2010-08-26T16:04:07Z</time>
      </trkpt>
      <trkpt lat="45.70376" lon="4.88743">
        <ele>204.41748046875</ele>
        <time>2010-08-26T16:04:14Z</time>
      </trkpt>
      <trkpt lat="45.70355" lon="4.88745">
        <ele>203.93688964844</ele>
        <time>2010-08-26T16:04:18Z</time>
      </trkpt>
      <trkpt lat="45.70321" lon="4.88743">
        <ele>204.41748046875</ele>
        <time>2010-08-26T16:04:25Z</time>
      </trkpt>
      <trkpt lat="45.70288" lon="4.88743">
        <ele>204.41748046875</ele>
        <time>2010-08-26T16:04:32Z</time>
      </trkpt>
      <trkpt lat="45.70266" lon="4.88743">
        <ele>204.89807128906</ele>
        <time>2010-08-26T16:04:37Z</time>
      </trkpt>
      <trkpt lat="45.70235" lon="4.88744">
        <ele>203.93688964844</ele>
        <time>2010-08-26T16:04:44Z</time>
      </trkpt>
      <trkpt lat="45.70198" lon="4.88745">
        <ele>204.41748046875</ele>
        <time>2010-08-26T16:04:53Z</time>
      </trkpt>
      <trkpt lat="45.70162" lon="4.88743">
        <ele>205.37878417969</ele>
        <time>2010-08-26T16:05:00Z</time>
      </trkpt>
      <trkpt lat="45.70123" lon="4.88744">
        <ele>205.37878417969</ele>
        <time>2010-08-26T16:05:08Z</time>
      </trkpt>
      <trkpt lat="45.70078" lon="4.88743">
        <ele>205.37878417969</ele>
        <time>2010-08-26T16:05:17Z</time>
      </trkpt>
      <trkpt lat="45.70033" lon="4.88742">
        <ele>205.85949707031</ele>
        <time>2010-08-26T16:05:26Z</time>
      </trkpt>
      <trkpt lat="45.69998" lon="4.88744">
        <ele>205.85949707031</ele>
        <time>2010-08-26T16:05:33Z</time>
      </trkpt>
      <trkpt lat="45.69964" lon="4.88743">
        <ele>206.34008789062</ele>
        <time>2010-08-26T16:05:40Z</time>
      </trkpt>
      <trkpt lat="45.6992" lon="4.88744">
        <ele>204.89807128906</ele>
        <time>2010-08-26T16:05:49Z</time>
      </trkpt>
      <trkpt lat="45.69881" lon="4.88745">
        <ele>203.93688964844</ele>
        <time>2010-08-26T16:05:57Z</time>
      </trkpt>
      <trkpt lat="45.69855" lon="4.88746">
        <ele>204.89807128906</ele>
        <time>2010-08-26T16:06:02Z</time>
      </trkpt>
      <trkpt lat="45.69811" lon="4.88748">
        <ele>206.34008789062</ele>
        <time>2010-08-26T16:06:11Z</time>
      </trkpt>
      <trkpt lat="45.69801" lon="4.88748">
        <ele>206.34008789062</ele>
        <time>2010-08-26T16:06:13Z</time>
      </trkpt>
      <trkpt lat="45.69761" lon="4.88747">
        <ele>205.37878417969</ele>
        <time>2010-08-26T16:06:21Z</time>
      </trkpt>
      <trkpt lat="45.69756" lon="4.88747">
        <ele>205.37878417969</ele>
        <time>2010-08-26T16:06:22Z</time>
      </trkpt>
      <trkpt lat="45.69717" lon="4.88747">
        <ele>204.89807128906</ele>
        <time>2010-08-26T16:06:30Z</time>
      </trkpt>
      <trkpt lat="45.69706" lon="4.88738">
        <ele>203.45617675781</ele>
        <time>2010-08-26T16:06:33Z</time>
      </trkpt>
      <trkpt lat="45.69703" lon="4.88734">
        <ele>203.45617675781</ele>
        <time>2010-08-26T16:06:34Z</time>
      </trkpt>
      <trkpt lat="45.69691" lon="4.88714">
        <ele>200.572265625</ele>
        <time>2010-08-26T16:06:38Z</time>
      </trkpt>
      <trkpt lat="45.69685" lon="4.88671">
        <ele>200.572265625</ele>
        <time>2010-08-26T16:06:43Z</time>
      </trkpt>
      <trkpt lat="45.69679" lon="4.88603">
        <ele>198.64953613281</ele>
        <time>2010-08-26T16:06:49Z</time>
      </trkpt>
      <trkpt lat="45.69668" lon="4.88523">
        <ele>198.1689453125</ele>
        <time>2010-08-26T16:06:57Z</time>
      </trkpt>
      <trkpt lat="45.69659" lon="4.88459">
        <ele>198.1689453125</ele>
        <time>2010-08-26T16:07:04Z</time>
      </trkpt>
      <trkpt lat="45.69648" lon="4.88403">
        <ele>197.68823242188</ele>
        <time>2010-08-26T16:07:11Z</time>
      </trkpt>
      <trkpt lat="45.69645" lon="4.8838">
        <ele>197.68823242188</ele>
        <time>2010-08-26T16:07:14Z</time>
      </trkpt>
      <trkpt lat="45.69631" lon="4.88377">
        <ele>198.1689453125</ele>
        <time>2010-08-26T16:07:17Z</time>
      </trkpt>
      <trkpt lat="45.69625" lon="4.8838">
        <ele>198.64953613281</ele>
        <time>2010-08-26T16:07:18Z</time>
      </trkpt>
      <trkpt lat="45.69582" lon="4.88386">
        <ele>198.1689453125</ele>
        <time>2010-08-26T16:07:25Z</time>
      </trkpt>
      <trkpt lat="45.69547" lon="4.88383">
        <ele>198.64953613281</ele>
        <time>2010-08-26T16:07:31Z</time>
      </trkpt>
      <trkpt lat="45.6951" lon="4.88377">
        <ele>198.64953613281</ele>
        <time>2010-08-26T16:07:38Z</time>
      </trkpt>
      <trkpt lat="45.69481" lon="4.88371">
        <ele>198.64953613281</ele>
        <time>2010-08-26T16:07:43Z</time>
      </trkpt>
      <trkpt lat="45.6945" lon="4.88364">
        <ele>199.13012695312</ele>
        <time>2010-08-26T16:07:49Z</time>
      </trkpt>
      <trkpt lat="45.69437" lon="4.88363">
        <ele>199.13012695312</ele>
        <time>2010-08-26T16:07:52Z</time>
      </trkpt>
      <trkpt lat="45.69412" lon="4.88353">
        <ele>199.13012695312</ele>
        <time>2010-08-26T16:07:57Z</time>
      </trkpt>
      <trkpt lat="45.69377" lon="4.88333">
        <ele>200.09167480469</ele>
        <time>2010-08-26T16:08:04Z</time>
      </trkpt>
      <trkpt lat="45.69351" lon="4.88316">
        <ele>200.572265625</ele>
        <time>2010-08-26T16:08:10Z</time>
      </trkpt>
      <trkpt lat="45.69339" lon="4.88307">
        <ele>200.572265625</ele>
        <time>2010-08-26T16:08:13Z</time>
      </trkpt>
      <trkpt lat="45.69331" lon="4.88301">
        <ele>201.05285644531</ele>
        <time>2010-08-26T16:08:15Z</time>
      </trkpt>
      <trkpt lat="45.69287" lon="4.88269">
        <ele>202.01428222656</ele>
        <time>2010-08-26T16:08:25Z</time>
      </trkpt>
      <trkpt lat="45.69263" lon="4.8825">
        <ele>202.01428222656</ele>
        <time>2010-08-26T16:08:31Z</time>
      </trkpt>
      <trkpt lat="45.69226" lon="4.88225">
        <ele>201.05285644531</ele>
        <time>2010-08-26T16:08:39Z</time>
      </trkpt>
      <trkpt lat="45.69202" lon="4.88209">
        <ele>201.53356933594</ele>
        <time>2010-08-26T16:08:44Z</time>
      </trkpt>
      <trkpt lat="45.69179" lon="4.88194">
        <ele>202.01428222656</ele>
        <time>2010-08-26T16:08:49Z</time>
      </trkpt>
      <trkpt lat="45.69152" lon="4.88175">
        <ele>202.97546386719</ele>
        <time>2010-08-26T16:08:55Z</time>
      </trkpt>
      <trkpt lat="45.69139" lon="4.88167">
        <ele>202.01428222656</ele>
        <time>2010-08-26T16:08:59Z</time>
      </trkpt>
      <trkpt lat="45.69135" lon="4.88163">
        <ele>201.53356933594</ele>
        <time>2010-08-26T16:09:04Z</time>
      </trkpt>
      <trkpt lat="45.69136" lon="4.88163">
        <ele>202.01428222656</ele>
        <time>2010-08-26T16:09:17Z</time>
      </trkpt>
      <trkpt lat="45.69136" lon="4.88164">
        <ele>201.53356933594</ele>
        <time>2010-08-26T16:09:36Z</time>
      </trkpt>
      <trkpt lat="45.69131" lon="4.8816">
        <ele>202.01428222656</ele>
        <time>2010-08-26T16:09:45Z</time>
      </trkpt>
      <trkpt lat="45.69117" lon="4.88155">
        <ele>202.49487304688</ele>
        <time>2010-08-26T16:09:49Z</time>
      </trkpt>
      <trkpt lat="45.69079" lon="4.88127">
        <ele>202.49487304688</ele>
        <time>2010-08-26T16:09:58Z</time>
      </trkpt>
      <trkpt lat="45.69044" lon="4.88096">
        <ele>202.97546386719</ele>
        <time>2010-08-26T16:10:07Z</time>
      </trkpt>
      <trkpt lat="45.69022" lon="4.88075">
        <ele>202.01428222656</ele>
        <time>2010-08-26T16:10:13Z</time>
      </trkpt>
      <trkpt lat="45.68985" lon="4.88036">
        <ele>203.45617675781</ele>
        <time>2010-08-26T16:10:23Z</time>
      </trkpt>
      <trkpt lat="45.68982" lon="4.88032">
        <ele>203.45617675781</ele>
        <time>2010-08-26T16:10:24Z</time>
      </trkpt>
      <trkpt lat="45.68958" lon="4.87995">
        <ele>203.45617675781</ele>
        <time>2010-08-26T16:10:32Z</time>
      </trkpt>
      <trkpt lat="45.68929" lon="4.87947">
        <ele>202.97546386719</ele>
        <time>2010-08-26T16:10:42Z</time>
      </trkpt>
      <trkpt lat="45.68908" lon="4.8791">
        <ele>202.97546386719</ele>
        <time>2010-08-26T16:10:50Z</time>
      </trkpt>
      <trkpt lat="45.68893" lon="4.87879">
        <ele>202.01428222656</ele>
        <time>2010-08-26T16:10:56Z</time>
      </trkpt>
      <trkpt lat="45.68887" lon="4.87853">
        <ele>202.49487304688</ele>
        <time>2010-08-26T16:11:00Z</time>
      </trkpt>
      <trkpt lat="45.68885" lon="4.8779">
        <ele>204.89807128906</ele>
        <time>2010-08-26T16:11:09Z</time>
      </trkpt>
      <trkpt lat="45.6888" lon="4.87767">
        <ele>204.89807128906</ele>
        <time>2010-08-26T16:11:13Z</time>
      </trkpt>
      <trkpt lat="45.68864" lon="4.8774">
        <ele>204.41748046875</ele>
        <time>2010-08-26T16:11:18Z</time>
      </trkpt>
      <trkpt lat="45.68858" lon="4.87688">
        <ele>204.89807128906</ele>
        <time>2010-08-26T16:11:25Z</time>
      </trkpt>
      <trkpt lat="45.68855" lon="4.8762">
        <ele>204.89807128906</ele>
        <time>2010-08-26T16:11:34Z</time>
      </trkpt>
      <trkpt lat="45.68851" lon="4.87547">
        <ele>206.82067871094</ele>
        <time>2010-08-26T16:11:43Z</time>
      </trkpt>
      <trkpt lat="45.68848" lon="4.87499">
        <ele>207.30139160156</ele>
        <time>2010-08-26T16:11:49Z</time>
      </trkpt>
      <trkpt lat="45.68843" lon="4.87469">
        <ele>206.82067871094</ele>
        <time>2010-08-26T16:11:53Z</time>
      </trkpt>
      <trkpt lat="45.68829" lon="4.87459">
        <ele>208.26281738281</ele>
        <time>2010-08-26T16:11:57Z</time>
      </trkpt>
      <trkpt lat="45.68818" lon="4.87461">
        <ele>206.82067871094</ele>
        <time>2010-08-26T16:11:59Z</time>
      </trkpt>
      <trkpt lat="45.68764" lon="4.87463">
        <ele>205.37878417969</ele>
        <time>2010-08-26T16:12:07Z</time>
      </trkpt>
      <trkpt lat="45.68721" lon="4.87463">
        <ele>205.37878417969</ele>
        <time>2010-08-26T16:12:14Z</time>
      </trkpt>
      <trkpt lat="45.68683" lon="4.87456">
        <ele>207.30139160156</ele>
        <time>2010-08-26T16:12:21Z</time>
      </trkpt>
      <trkpt lat="45.68648" lon="4.8744">
        <ele>209.22412109375</ele>
        <time>2010-08-26T16:12:28Z</time>
      </trkpt>
      <trkpt lat="45.68613" lon="4.87421">
        <ele>208.26281738281</ele>
        <time>2010-08-26T16:12:35Z</time>
      </trkpt>
      <trkpt lat="45.68576" lon="4.87392">
        <ele>207.78210449219</ele>
        <time>2010-08-26T16:12:42Z</time>
      </trkpt>
      <trkpt lat="45.68552" lon="4.8736">
        <ele>205.37878417969</ele>
        <time>2010-08-26T16:12:47Z</time>
      </trkpt>
      <trkpt lat="45.68511" lon="4.87301">
        <ele>203.45617675781</ele>
        <time>2010-08-26T16:12:55Z</time>
      </trkpt>
      <trkpt lat="45.68502" lon="4.87287">
        <ele>204.89807128906</ele>
        <time>2010-08-26T16:12:57Z</time>
      </trkpt>
      <trkpt lat="45.68475" lon="4.87247">
        <ele>205.37878417969</ele>
        <time>2010-08-26T16:13:04Z</time>
      </trkpt>
      <trkpt lat="45.68444" lon="4.87202">
        <ele>203.93688964844</ele>
        <time>2010-08-26T16:13:12Z</time>
      </trkpt>
      <trkpt lat="45.6842" lon="4.87166">
        <ele>204.89807128906</ele>
        <time>2010-08-26T16:13:19Z</time>
      </trkpt>
      <trkpt lat="45.68402" lon="4.8715">
        <ele>204.41748046875</ele>
        <time>2010-08-26T16:13:24Z</time>
      </trkpt>
      <trkpt lat="45.68384" lon="4.87134">
        <ele>204.89807128906</ele>
        <time>2010-08-26T16:13:29Z</time>
      </trkpt>
      <trkpt lat="45.68354" lon="4.87094">
        <ele>205.37878417969</ele>
        <time>2010-08-26T16:13:37Z</time>
      </trkpt>
      <trkpt lat="45.68324" lon="4.8707">
        <ele>205.85949707031</ele>
        <time>2010-08-26T16:13:46Z</time>
      </trkpt>
      <trkpt lat="45.68306" lon="4.87068">
        <ele>207.30139160156</ele>
        <time>2010-08-26T16:13:51Z</time>
      </trkpt>
      <trkpt lat="45.68283" lon="4.87071">
        <ele>207.30139160156</ele>
        <time>2010-08-26T16:13:58Z</time>
      </trkpt>
      <trkpt lat="45.68264" lon="4.87076">
        <ele>208.26281738281</ele>
        <time>2010-08-26T16:14:04Z</time>
      </trkpt>
      <trkpt lat="45.68248" lon="4.8708">
        <ele>209.70483398438</ele>
        <time>2010-08-26T16:14:09Z</time>
      </trkpt>
      <trkpt lat="45.68225" lon="4.87085">
        <ele>210.18542480469</ele>
        <time>2010-08-26T16:14:16Z</time>
      </trkpt>
      <trkpt lat="45.682" lon="4.87089">
        <ele>209.70483398438</ele>
        <time>2010-08-26T16:14:23Z</time>
      </trkpt>
      <trkpt lat="45.68179" lon="4.87093">
        <ele>208.74340820312</ele>
        <time>2010-08-26T16:14:29Z</time>
      </trkpt>
      <trkpt lat="45.68151" lon="4.87099">
        <ele>210.18542480469</ele>
        <time>2010-08-26T16:14:36Z</time>
      </trkpt>
      <trkpt lat="45.6813" lon="4.87102">
        <ele>209.70483398438</ele>
        <time>2010-08-26T16:14:41Z</time>
      </trkpt>
      <trkpt lat="45.68105" lon="4.87107">
        <ele>211.14672851562</ele>
        <time>2010-08-26T16:14:47Z</time>
      </trkpt>
      <trkpt lat="45.68083" lon="4.8711">
        <ele>212.10803222656</ele>
        <time>2010-08-26T16:14:53Z</time>
      </trkpt>
      <trkpt lat="45.68064" lon="4.87114">
        <ele>210.666015625</ele>
        <time>2010-08-26T16:14:58Z</time>
      </trkpt>
      <trkpt lat="45.68047" lon="4.87117">
        <ele>212.10803222656</ele>
        <time>2010-08-26T16:15:03Z</time>
      </trkpt>
      <trkpt lat="45.68022" lon="4.87121">
        <ele>212.58862304688</ele>
        <time>2010-08-26T16:15:09Z</time>
      </trkpt>
      <trkpt lat="45.6799" lon="4.87126">
        <ele>212.10803222656</ele>
        <time>2010-08-26T16:15:17Z</time>
      </trkpt>
      <trkpt lat="45.67965" lon="4.87131">
        <ele>213.55004882812</ele>
        <time>2010-08-26T16:15:24Z</time>
      </trkpt>
      <trkpt lat="45.67935" lon="4.87138">
        <ele>214.51123046875</ele>
        <time>2010-08-26T16:15:32Z</time>
      </trkpt>
      <trkpt lat="45.6791" lon="4.87143">
        <ele>215.47265625</ele>
        <time>2010-08-26T16:15:39Z</time>
      </trkpt>
      <trkpt lat="45.67882" lon="4.87147">
        <ele>215.95324707031</ele>
        <time>2010-08-26T16:15:47Z</time>
      </trkpt>
      <trkpt lat="45.67867" lon="4.87138">
        <ele>216.43395996094</ele>
        <time>2010-08-26T16:15:52Z</time>
      </trkpt>
      <trkpt lat="45.67847" lon="4.87139">
        <ele>216.43395996094</ele>
        <time>2010-08-26T16:15:57Z</time>
      </trkpt>
      <trkpt lat="45.67824" lon="4.87142">
        <ele>216.43395996094</ele>
        <time>2010-08-26T16:16:03Z</time>
      </trkpt>
      <trkpt lat="45.67786" lon="4.87145">
        <ele>217.39538574219</ele>
        <time>2010-08-26T16:16:13Z</time>
      </trkpt>
      <trkpt lat="45.67757" lon="4.87149">
        <ele>218.35656738281</ele>
        <time>2010-08-26T16:16:21Z</time>
      </trkpt>
      <trkpt lat="45.67728" lon="4.87153">
        <ele>219.79858398438</ele>
        <time>2010-08-26T16:16:29Z</time>
      </trkpt>
      <trkpt lat="45.67697" lon="4.87157">
        <ele>219.79858398438</ele>
        <time>2010-08-26T16:16:38Z</time>
      </trkpt>
      <trkpt lat="45.67691" lon="4.87176">
        <ele>220.75988769531</ele>
        <time>2010-08-26T16:16:42Z</time>
      </trkpt>
      <trkpt lat="45.67692" lon="4.87187">
        <ele>220.27917480469</ele>
        <time>2010-08-26T16:16:44Z</time>
      </trkpt>
      <trkpt lat="45.67683" lon="4.87196">
        <ele>221.24060058594</ele>
        <time>2010-08-26T16:16:48Z</time>
      </trkpt>
      <trkpt lat="45.67651" lon="4.87197">
        <ele>222.68249511719</ele>
        <time>2010-08-26T16:16:57Z</time>
      </trkpt>
      <trkpt lat="45.67629" lon="4.87199">
        <ele>223.16320800781</ele>
        <time>2010-08-26T16:17:04Z</time>
      </trkpt>
      <trkpt lat="45.67622" lon="4.87199">
        <ele>224.12451171875</ele>
        <time>2010-08-26T16:17:06Z</time>
      </trkpt>
      <trkpt lat="45.67595" lon="4.872">
        <ele>225.56652832031</ele>
        <time>2010-08-26T16:17:14Z</time>
      </trkpt>
      <trkpt lat="45.67573" lon="4.87201">
        <ele>227.48913574219</ele>
        <time>2010-08-26T16:17:21Z</time>
      </trkpt>
      <trkpt lat="45.67558" lon="4.87203">
        <ele>228.45043945312</ele>
        <time>2010-08-26T16:17:26Z</time>
      </trkpt>
      <trkpt lat="45.67539" lon="4.87202">
        <ele>228.45043945312</ele>
        <time>2010-08-26T16:17:33Z</time>
      </trkpt>
      <trkpt lat="45.67535" lon="4.87198">
        <ele>229.41174316406</ele>
        <time>2010-08-26T16:17:35Z</time>
      </trkpt>
      <trkpt lat="45.67533" lon="4.87184">
        <ele>228.93115234375</ele>
        <time>2010-08-26T16:17:38Z</time>
      </trkpt>
      <trkpt lat="45.6753" lon="4.87161">
        <ele>229.89233398438</ele>
        <time>2010-08-26T16:17:42Z</time>
      </trkpt>
      <trkpt lat="45.67529" lon="4.87144">
        <ele>229.41174316406</ele>
        <time>2010-08-26T16:17:45Z</time>
      </trkpt>
      <trkpt lat="45.67528" lon="4.87126">
        <ele>230.85375976562</ele>
        <time>2010-08-26T16:17:48Z</time>
      </trkpt>
      <trkpt lat="45.67527" lon="4.87114">
        <ele>229.41174316406</ele>
        <time>2010-08-26T16:17:50Z</time>
      </trkpt>
      <trkpt lat="45.67524" lon="4.87109">
        <ele>229.41174316406</ele>
        <time>2010-08-26T16:17:51Z</time>
      </trkpt>
      <trkpt lat="45.67514" lon="4.87104">
        <ele>229.41174316406</ele>
        <time>2010-08-26T16:17:54Z</time>
      </trkpt>
      <trkpt lat="45.6751" lon="4.87104">
        <ele>228.93115234375</ele>
        <time>2010-08-26T16:17:55Z</time>
      </trkpt>
      <trkpt lat="45.67479" lon="4.87107">
        <ele>230.373046875</ele>
        <time>2010-08-26T16:18:04Z</time>
      </trkpt>
      <trkpt lat="45.67452" lon="4.87109">
        <ele>230.85375976562</ele>
        <time>2010-08-26T16:18:13Z</time>
      </trkpt>
      <trkpt lat="45.67443" lon="4.87112">
        <ele>232.77648925781</ele>
        <time>2010-08-26T16:18:17Z</time>
      </trkpt>
      <trkpt lat="45.67435" lon="4.8711">
        <ele>233.25708007812</ele>
        <time>2010-08-26T16:18:21Z</time>
      </trkpt>
      <trkpt lat="45.67434" lon="4.87102">
        <ele>230.373046875</ele>
        <time>2010-08-26T16:18:24Z</time>
      </trkpt>
      <trkpt lat="45.67437" lon="4.87093">
        <ele>230.373046875</ele>
        <time>2010-08-26T16:18:26Z</time>
      </trkpt>
      <trkpt lat="45.67444" lon="4.87062">
        <ele>231.33435058594</ele>
        <time>2010-08-26T16:18:32Z</time>
      </trkpt>
      <trkpt lat="45.67448" lon="4.87045">
        <ele>233.73767089844</ele>
        <time>2010-08-26T16:18:35Z</time>
      </trkpt>
      <trkpt lat="45.6745" lon="4.87028">
        <ele>232.29577636719</ele>
        <time>2010-08-26T16:18:38Z</time>
      </trkpt>
      <trkpt lat="45.67453" lon="4.86967">
        <ele>231.81494140625</ele>
        <time>2010-08-26T16:18:48Z</time>
      </trkpt>
      <trkpt lat="45.67454" lon="4.8694">
        <ele>232.29577636719</ele>
        <time>2010-08-26T16:18:52Z</time>
      </trkpt>
      <trkpt lat="45.67453" lon="4.86888">
        <ele>231.81494140625</ele>
        <time>2010-08-26T16:19:00Z</time>
      </trkpt>
      <trkpt lat="45.6745" lon="4.86823">
        <ele>233.25708007812</ele>
        <time>2010-08-26T16:19:09Z</time>
      </trkpt>
      <trkpt lat="45.67447" lon="4.86758">
        <ele>231.33435058594</ele>
        <time>2010-08-26T16:19:18Z</time>
      </trkpt>
      <trkpt lat="45.67444" lon="4.86702">
        <ele>231.81494140625</ele>
        <time>2010-08-26T16:19:25Z</time>
      </trkpt>
      <trkpt lat="45.67439" lon="4.86646">
        <ele>232.29577636719</ele>
        <time>2010-08-26T16:19:33Z</time>
      </trkpt>
      <trkpt lat="45.67434" lon="4.866">
        <ele>231.81494140625</ele>
        <time>2010-08-26T16:19:40Z</time>
      </trkpt>
      <trkpt lat="45.67432" lon="4.86595">
        <ele>232.29577636719</ele>
        <time>2010-08-26T16:19:41Z</time>
      </trkpt>
      <trkpt lat="45.67416" lon="4.8659">
        <ele>232.77648925781</ele>
        <time>2010-08-26T16:19:46Z</time>
      </trkpt>
      <trkpt lat="45.67407" lon="4.86597">
        <ele>231.33435058594</ele>
        <time>2010-08-26T16:19:49Z</time>
      </trkpt>
      <trkpt lat="45.67392" lon="4.86603">
        <ele>234.21838378906</ele>
        <time>2010-08-26T16:19:53Z</time>
      </trkpt>
      <trkpt lat="45.67376" lon="4.8661">
        <ele>232.77648925781</ele>
        <time>2010-08-26T16:19:58Z</time>
      </trkpt>
      <trkpt lat="45.67373" lon="4.8661">
        <ele>233.25708007812</ele>
        <time>2010-08-26T16:20:00Z</time>
      </trkpt>
      <trkpt lat="45.67372" lon="4.86616">
        <ele>234.21838378906</ele>
        <time>2010-08-26T16:20:05Z</time>
      </trkpt>
      <trkpt lat="45.67382" lon="4.86625">
        <ele>235.66027832031</ele>
        <time>2010-08-26T16:20:10Z</time>
      </trkpt>
      <trkpt lat="45.67387" lon="4.86645">
        <ele>234.21838378906</ele>
        <time>2010-08-26T16:20:14Z</time>
      </trkpt>
      <trkpt lat="45.67381" lon="4.8666">
        <ele>234.69909667969</ele>
        <time>2010-08-26T16:20:18Z</time>
      </trkpt>
      <trkpt lat="45.67371" lon="4.86675">
        <ele>233.73767089844</ele>
        <time>2010-08-26T16:20:22Z</time>
      </trkpt>
      <trkpt lat="45.6737" lon="4.8668">
        <ele>234.21838378906</ele>
        <time>2010-08-26T16:20:23Z</time>
      </trkpt>
      <trkpt lat="45.6737" lon="4.86706">
        <ele>234.69909667969</ele>
        <time>2010-08-26T16:20:27Z</time>
      </trkpt>
      <trkpt lat="45.67373" lon="4.86733">
        <ele>234.21838378906</ele>
        <time>2010-08-26T16:20:32Z</time>
      </trkpt>
      <trkpt lat="45.67371" lon="4.86742">
        <ele>233.73767089844</ele>
        <time>2010-08-26T16:20:35Z</time>
      </trkpt>
      <trkpt lat="45.67365" lon="4.86755">
        <ele>233.25708007812</ele>
        <time>2010-08-26T16:20:38Z</time>
      </trkpt>
      <trkpt lat="45.67359" lon="4.86766">
        <ele>235.66027832031</ele>
        <time>2010-08-26T16:20:41Z</time>
      </trkpt>
      <trkpt lat="45.67357" lon="4.86776">
        <ele>235.1796875</ele>
        <time>2010-08-26T16:20:43Z</time>
      </trkpt>
      <trkpt lat="45.67342" lon="4.86793">
        <ele>235.1796875</ele>
        <time>2010-08-26T16:20:48Z</time>
      </trkpt>
      <trkpt lat="45.67336" lon="4.86813">
        <ele>236.14099121094</ele>
        <time>2010-08-26T16:20:52Z</time>
      </trkpt>
      <trkpt lat="45.67336" lon="4.8682">
        <ele>236.14099121094</ele>
        <time>2010-08-26T16:20:53Z</time>
      </trkpt>
      <trkpt lat="45.67337" lon="4.86833">
        <ele>236.14099121094</ele>
        <time>2010-08-26T16:20:55Z</time>
      </trkpt>
      <trkpt lat="45.67337" lon="4.86868">
        <ele>235.66027832031</ele>
        <time>2010-08-26T16:21:01Z</time>
      </trkpt>
      <trkpt lat="45.67339" lon="4.86897">
        <ele>236.62170410156</ele>
        <time>2010-08-26T16:21:06Z</time>
      </trkpt>
      <trkpt lat="45.67342" lon="4.86937">
        <ele>236.14099121094</ele>
        <time>2010-08-26T16:21:12Z</time>
      </trkpt>
      <trkpt lat="45.67344" lon="4.86961">
        <ele>236.62170410156</ele>
        <time>2010-08-26T16:21:15Z</time>
      </trkpt>
      <trkpt lat="45.6734" lon="4.86996">
        <ele>237.10229492188</ele>
        <time>2010-08-26T16:21:20Z</time>
      </trkpt>
      <trkpt lat="45.67322" lon="4.87015">
        <ele>236.14099121094</ele>
        <time>2010-08-26T16:21:25Z</time>
      </trkpt>
      <trkpt lat="45.67318" lon="4.87017">
        <ele>236.62170410156</ele>
        <time>2010-08-26T16:21:26Z</time>
      </trkpt>
      <trkpt lat="45.67298" lon="4.87024">
        <ele>236.62170410156</ele>
        <time>2010-08-26T16:21:30Z</time>
      </trkpt>
      <trkpt lat="45.6727" lon="4.87025">
        <ele>236.62170410156</ele>
        <time>2010-08-26T16:21:34Z</time>
      </trkpt>
      <trkpt lat="45.67256" lon="4.87018">
        <ele>237.58288574219</ele>
        <time>2010-08-26T16:21:38Z</time>
      </trkpt>
      <trkpt lat="45.67251" lon="4.8702">
        <ele>237.58288574219</ele>
        <time>2010-08-26T16:21:39Z</time>
      </trkpt>
      <trkpt lat="45.67234" lon="4.8702">
        <ele>236.62170410156</ele>
        <time>2010-08-26T16:21:44Z</time>
      </trkpt>
      <trkpt lat="45.67212" lon="4.87011">
        <ele>237.10229492188</ele>
        <time>2010-08-26T16:21:49Z</time>
      </trkpt>
      <trkpt lat="45.67198" lon="4.87002">
        <ele>238.06359863281</ele>
        <time>2010-08-26T16:21:53Z</time>
      </trkpt>
      <trkpt lat="45.67177" lon="4.86987">
        <ele>238.54431152344</ele>
        <time>2010-08-26T16:21:58Z</time>
      </trkpt>
      <trkpt lat="45.67173" lon="4.86984">
        <ele>238.54431152344</ele>
        <time>2010-08-26T16:21:59Z</time>
      </trkpt>
      <trkpt lat="45.67158" lon="4.86982">
        <ele>237.58288574219</ele>
        <time>2010-08-26T16:22:02Z</time>
      </trkpt>
      <trkpt lat="45.67152" lon="4.87012">
        <ele>234.69909667969</ele>
        <time>2010-08-26T16:22:07Z</time>
      </trkpt>
      <trkpt lat="45.67152" lon="4.87021">
        <ele>234.21838378906</ele>
        <time>2010-08-26T16:22:08Z</time>
      </trkpt>
      <trkpt lat="45.67145" lon="4.8706">
        <ele>232.29577636719</ele>
        <time>2010-08-26T16:22:12Z</time>
      </trkpt>
      <trkpt lat="45.67137" lon="4.87074">
        <ele>231.81494140625</ele>
        <time>2010-08-26T16:22:15Z</time>
      </trkpt>
      <trkpt lat="45.67133" lon="4.87077">
        <ele>231.81494140625</ele>
        <time>2010-08-26T16:22:16Z</time>
      </trkpt>
      <trkpt lat="45.67125" lon="4.87082">
        <ele>231.33435058594</ele>
        <time>2010-08-26T16:22:18Z</time>
      </trkpt>
      <trkpt lat="45.67108" lon="4.87089">
        <ele>229.41174316406</ele>
        <time>2010-08-26T16:22:23Z</time>
      </trkpt>
      <trkpt lat="45.67096" lon="4.87103">
        <ele>227.48913574219</ele>
        <time>2010-08-26T16:22:28Z</time>
      </trkpt>
      <trkpt lat="45.67094" lon="4.87103">
        <ele>227.9697265625</ele>
        <time>2010-08-26T16:22:33Z</time>
      </trkpt>
      <trkpt lat="45.67095" lon="4.87095">
        <ele>227.9697265625</ele>
        <time>2010-08-26T16:22:38Z</time>
      </trkpt>
      <trkpt lat="45.67094" lon="4.87093">
        <ele>227.9697265625</ele>
        <time>2010-08-26T16:22:41Z</time>
      </trkpt>
      <trkpt lat="45.67086" lon="4.87091">
        <ele>227.48913574219</ele>
        <time>2010-08-26T16:22:46Z</time>
      </trkpt>
      <trkpt lat="45.67078" lon="4.87096">
        <ele>226.52783203125</ele>
        <time>2010-08-26T16:22:50Z</time>
      </trkpt>
      <trkpt lat="45.67075" lon="4.87095">
        <ele>225.56652832031</ele>
        <time>2010-08-26T16:22:51Z</time>
      </trkpt>
      <trkpt lat="45.6707" lon="4.87093">
        <ele>223.16320800781</ele>
        <time>2010-08-26T16:22:53Z</time>
      </trkpt>
      <trkpt lat="45.67057" lon="4.87098">
        <ele>223.16320800781</ele>
        <time>2010-08-26T16:22:57Z</time>
      </trkpt>
      <trkpt lat="45.67051" lon="4.87126">
        <ele>223.16320800781</ele>
        <time>2010-08-26T16:23:03Z</time>
      </trkpt>
      <trkpt lat="45.67047" lon="4.87178">
        <ele>224.12451171875</ele>
        <time>2010-08-26T16:23:11Z</time>
      </trkpt>
      <trkpt lat="45.67055" lon="4.87219">
        <ele>224.12451171875</ele>
        <time>2010-08-26T16:23:17Z</time>
      </trkpt>
      <trkpt lat="45.67058" lon="4.87233">
        <ele>224.60522460938</ele>
        <time>2010-08-26T16:23:19Z</time>
      </trkpt>
      <trkpt lat="45.67059" lon="4.87262">
        <ele>224.60522460938</ele>
        <time>2010-08-26T16:23:23Z</time>
      </trkpt>
      <trkpt lat="45.67049" lon="4.87331">
        <ele>225.0859375</ele>
        <time>2010-08-26T16:23:33Z</time>
      </trkpt>
      <trkpt lat="45.67046" lon="4.8735">
        <ele>225.56652832031</ele>
        <time>2010-08-26T16:23:36Z</time>
      </trkpt>
      <trkpt lat="45.67038" lon="4.87407">
        <ele>226.04711914062</ele>
        <time>2010-08-26T16:23:45Z</time>
      </trkpt>
      <trkpt lat="45.67034" lon="4.87453">
        <ele>226.52783203125</ele>
        <time>2010-08-26T16:23:52Z</time>
      </trkpt>
      <trkpt lat="45.6703" lon="4.87493">
        <ele>226.52783203125</ele>
        <time>2010-08-26T16:23:58Z</time>
      </trkpt>
      <trkpt lat="45.67023" lon="4.87545">
        <ele>226.52783203125</ele>
        <time>2010-08-26T16:24:06Z</time>
      </trkpt>
      <trkpt lat="45.6702" lon="4.87572">
        <ele>227.48913574219</ele>
        <time>2010-08-26T16:24:11Z</time>
      </trkpt>
      <trkpt lat="45.67002" lon="4.87577">
        <ele>224.12451171875</ele>
        <time>2010-08-26T16:24:16Z</time>
      </trkpt>
      <trkpt lat="45.66992" lon="4.87574">
        <ele>223.64379882812</ele>
        <time>2010-08-26T16:24:18Z</time>
      </trkpt>
      <trkpt lat="45.66982" lon="4.87571">
        <ele>222.20178222656</ele>
        <time>2010-08-26T16:24:20Z</time>
      </trkpt>
      <trkpt lat="45.6695" lon="4.87563">
        <ele>219.79858398438</ele>
        <time>2010-08-26T16:24:25Z</time>
      </trkpt>
      <trkpt lat="45.66903" lon="4.87553">
        <ele>218.35656738281</ele>
        <time>2010-08-26T16:24:33Z</time>
      </trkpt>
      <trkpt lat="45.66848" lon="4.87539">
        <ele>216.43395996094</ele>
        <time>2010-08-26T16:24:43Z</time>
      </trkpt>
      <trkpt lat="45.66843" lon="4.87539">
        <ele>217.8759765625</ele>
        <time>2010-08-26T16:24:44Z</time>
      </trkpt>
      <trkpt lat="45.66825" lon="4.8755">
        <ele>217.39538574219</ele>
        <time>2010-08-26T16:24:48Z</time>
      </trkpt>
      <trkpt lat="45.66823" lon="4.87558">
        <ele>217.39538574219</ele>
        <time>2010-08-26T16:24:49Z</time>
      </trkpt>
      <trkpt lat="45.66816" lon="4.87605">
        <ele>217.8759765625</ele>
        <time>2010-08-26T16:24:55Z</time>
      </trkpt>
      <trkpt lat="45.66807" lon="4.87631">
        <ele>217.8759765625</ele>
        <time>2010-08-26T16:24:59Z</time>
      </trkpt>
      <trkpt lat="45.66792" lon="4.87633">
        <ele>217.39538574219</ele>
        <time>2010-08-26T16:25:02Z</time>
      </trkpt>
      <trkpt lat="45.66786" lon="4.87631">
        <ele>216.91467285156</ele>
        <time>2010-08-26T16:25:03Z</time>
      </trkpt>
      <trkpt lat="45.66739" lon="4.87617">
        <ele>216.91467285156</ele>
        <time>2010-08-26T16:25:12Z</time>
      </trkpt>
      <trkpt lat="45.66696" lon="4.87606">
        <ele>216.91467285156</ele>
        <time>2010-08-26T16:25:20Z</time>
      </trkpt>
      <trkpt lat="45.6665" lon="4.87593">
        <ele>217.39538574219</ele>
        <time>2010-08-26T16:25:29Z</time>
      </trkpt>
      <trkpt lat="45.66636" lon="4.87588">
        <ele>218.83728027344</ele>
        <time>2010-08-26T16:25:32Z</time>
      </trkpt>
      <trkpt lat="45.66619" lon="4.87573">
        <ele>218.83728027344</ele>
        <time>2010-08-26T16:25:36Z</time>
      </trkpt>
      <trkpt lat="45.66605" lon="4.87552">
        <ele>218.83728027344</ele>
        <time>2010-08-26T16:25:40Z</time>
      </trkpt>
      <trkpt lat="45.66575" lon="4.87515">
        <ele>219.31799316406</ele>
        <time>2010-08-26T16:25:48Z</time>
      </trkpt>
      <trkpt lat="45.66556" lon="4.8749">
        <ele>220.27917480469</ele>
        <time>2010-08-26T16:25:54Z</time>
      </trkpt>
      <trkpt lat="45.6655" lon="4.87458">
        <ele>219.79858398438</ele>
        <time>2010-08-26T16:25:59Z</time>
      </trkpt>
      <trkpt lat="45.66555" lon="4.87389">
        <ele>219.79858398438</ele>
        <time>2010-08-26T16:26:08Z</time>
      </trkpt>
      <trkpt lat="45.66561" lon="4.873">
        <ele>218.83728027344</ele>
        <time>2010-08-26T16:26:18Z</time>
      </trkpt>
      <trkpt lat="45.66554" lon="4.87267">
        <ele>218.35656738281</ele>
        <time>2010-08-26T16:26:22Z</time>
      </trkpt>
      <trkpt lat="45.66544" lon="4.87259">
        <ele>217.39538574219</ele>
        <time>2010-08-26T16:26:24Z</time>
      </trkpt>
      <trkpt lat="45.66504" lon="4.87239">
        <ele>217.39538574219</ele>
        <time>2010-08-26T16:26:32Z</time>
      </trkpt>
      <trkpt lat="45.66463" lon="4.8722">
        <ele>217.8759765625</ele>
        <time>2010-08-26T16:26:40Z</time>
      </trkpt>
      <trkpt lat="45.66421" lon="4.872">
        <ele>218.83728027344</ele>
        <time>2010-08-26T16:26:49Z</time>
      </trkpt>
      <trkpt lat="45.66385" lon="4.87185">
        <ele>220.27917480469</ele>
        <time>2010-08-26T16:26:57Z</time>
      </trkpt>
      <trkpt lat="45.66344" lon="4.87168">
        <ele>220.75988769531</ele>
        <time>2010-08-26T16:27:06Z</time>
      </trkpt>
      <trkpt lat="45.66312" lon="4.87152">
        <ele>221.72119140625</ele>
        <time>2010-08-26T16:27:13Z</time>
      </trkpt>
      <trkpt lat="45.66269" lon="4.87132">
        <ele>223.16320800781</ele>
        <time>2010-08-26T16:27:23Z</time>
      </trkpt>
      <trkpt lat="45.66264" lon="4.87131">
        <ele>222.68249511719</ele>
        <time>2010-08-26T16:27:24Z</time>
      </trkpt>
      <trkpt lat="45.66251" lon="4.87111">
        <ele>222.20178222656</ele>
        <time>2010-08-26T16:27:28Z</time>
      </trkpt>
      <trkpt lat="45.66251" lon="4.87098">
        <ele>221.72119140625</ele>
        <time>2010-08-26T16:27:30Z</time>
      </trkpt>
      <trkpt lat="45.66251" lon="4.87038">
        <ele>220.27917480469</ele>
        <time>2010-08-26T16:27:38Z</time>
      </trkpt>
      <trkpt lat="45.66252" lon="4.87009">
        <ele>220.27917480469</ele>
        <time>2010-08-26T16:27:42Z</time>
      </trkpt>
      <trkpt lat="45.66245" lon="4.86991">
        <ele>220.27917480469</ele>
        <time>2010-08-26T16:27:46Z</time>
      </trkpt>
      <trkpt lat="45.66241" lon="4.8699">
        <ele>220.27917480469</ele>
        <time>2010-08-26T16:27:47Z</time>
      </trkpt>
      <trkpt lat="45.66212" lon="4.86989">
        <ele>221.72119140625</ele>
        <time>2010-08-26T16:27:54Z</time>
      </trkpt>
      <trkpt lat="45.66181" lon="4.86984">
        <ele>222.68249511719</ele>
        <time>2010-08-26T16:28:02Z</time>
      </trkpt>
      <trkpt lat="45.66173" lon="4.86983">
        <ele>224.12451171875</ele>
        <time>2010-08-26T16:28:04Z</time>
      </trkpt>
      <trkpt lat="45.66137" lon="4.86977">
        <ele>225.0859375</ele>
        <time>2010-08-26T16:28:14Z</time>
      </trkpt>
      <trkpt lat="45.66111" lon="4.86973">
        <ele>226.52783203125</ele>
        <time>2010-08-26T16:28:22Z</time>
      </trkpt>
      <trkpt lat="45.6608" lon="4.8697">
        <ele>227.48913574219</ele>
        <time>2010-08-26T16:28:31Z</time>
      </trkpt>
      <trkpt lat="45.66053" lon="4.86969">
        <ele>227.9697265625</ele>
        <time>2010-08-26T16:28:39Z</time>
      </trkpt>
      <trkpt lat="45.66025" lon="4.86968">
        <ele>227.48913574219</ele>
        <time>2010-08-26T16:28:47Z</time>
      </trkpt>
      <trkpt lat="45.66" lon="4.8697">
        <ele>227.9697265625</ele>
        <time>2010-08-26T16:28:54Z</time>
      </trkpt>
      <trkpt lat="45.65968" lon="4.86972">
        <ele>227.9697265625</ele>
        <time>2010-08-26T16:29:03Z</time>
      </trkpt>
      <trkpt lat="45.65953" lon="4.86972">
        <ele>227.9697265625</ele>
        <time>2010-08-26T16:29:07Z</time>
      </trkpt>
      <trkpt lat="45.65921" lon="4.86972">
        <ele>227.48913574219</ele>
        <time>2010-08-26T16:29:16Z</time>
      </trkpt>
      <trkpt lat="45.65895" lon="4.86973">
        <ele>227.48913574219</ele>
        <time>2010-08-26T16:29:23Z</time>
      </trkpt>
      <trkpt lat="45.65865" lon="4.86972">
        <ele>227.9697265625</ele>
        <time>2010-08-26T16:29:31Z</time>
      </trkpt>
      <trkpt lat="45.65828" lon="4.86972">
        <ele>227.9697265625</ele>
        <time>2010-08-26T16:29:41Z</time>
      </trkpt>
      <trkpt lat="45.65799" lon="4.86971">
        <ele>228.93115234375</ele>
        <time>2010-08-26T16:29:49Z</time>
      </trkpt>
      <trkpt lat="45.6576" lon="4.86969">
        <ele>228.93115234375</ele>
        <time>2010-08-26T16:29:59Z</time>
      </trkpt>
      <trkpt lat="45.65718" lon="4.86968">
        <ele>229.41174316406</ele>
        <time>2010-08-26T16:30:10Z</time>
      </trkpt>
      <trkpt lat="45.65685" lon="4.86967">
        <ele>229.41174316406</ele>
        <time>2010-08-26T16:30:19Z</time>
      </trkpt>
      <trkpt lat="45.65674" lon="4.86966">
        <ele>230.85375976562</ele>
        <time>2010-08-26T16:30:22Z</time>
      </trkpt>
      <trkpt lat="45.65645" lon="4.86959">
        <ele>231.33435058594</ele>
        <time>2010-08-26T16:30:30Z</time>
      </trkpt>
      <trkpt lat="45.65615" lon="4.86956">
        <ele>232.29577636719</ele>
        <time>2010-08-26T16:30:38Z</time>
      </trkpt>
      <trkpt lat="45.65583" lon="4.86954">
        <ele>234.69909667969</ele>
        <time>2010-08-26T16:30:47Z</time>
      </trkpt>
      <trkpt lat="45.65545" lon="4.86952">
        <ele>234.21838378906</ele>
        <time>2010-08-26T16:30:57Z</time>
      </trkpt>
      <trkpt lat="45.65518" lon="4.86946">
        <ele>234.21838378906</ele>
        <time>2010-08-26T16:31:04Z</time>
      </trkpt>
      <trkpt lat="45.65505" lon="4.86943">
        <ele>232.29577636719</ele>
        <time>2010-08-26T16:31:07Z</time>
      </trkpt>
      <trkpt lat="45.65457" lon="4.86931">
        <ele>232.77648925781</ele>
        <time>2010-08-26T16:31:18Z</time>
      </trkpt>
      <trkpt lat="45.65413" lon="4.86917">
        <ele>230.85375976562</ele>
        <time>2010-08-26T16:31:28Z</time>
      </trkpt>
      <trkpt lat="45.65373" lon="4.86904">
        <ele>230.85375976562</ele>
        <time>2010-08-26T16:31:37Z</time>
      </trkpt>
      <trkpt lat="45.65335" lon="4.8689">
        <ele>229.89233398438</ele>
        <time>2010-08-26T16:31:46Z</time>
      </trkpt>
      <trkpt lat="45.65326" lon="4.86886">
        <ele>229.41174316406</ele>
        <time>2010-08-26T16:31:48Z</time>
      </trkpt>
      <trkpt lat="45.65285" lon="4.86874">
        <ele>229.89233398438</ele>
        <time>2010-08-26T16:31:57Z</time>
      </trkpt>
      <trkpt lat="45.65248" lon="4.86863">
        <ele>229.41174316406</ele>
        <time>2010-08-26T16:32:06Z</time>
      </trkpt>
      <trkpt lat="45.65215" lon="4.86856">
        <ele>229.89233398438</ele>
        <time>2010-08-26T16:32:14Z</time>
      </trkpt>
      <trkpt lat="45.65181" lon="4.86852">
        <ele>230.85375976562</ele>
        <time>2010-08-26T16:32:22Z</time>
      </trkpt>
      <trkpt lat="45.65145" lon="4.86846">
        <ele>230.85375976562</ele>
        <time>2010-08-26T16:32:31Z</time>
      </trkpt>
      <trkpt lat="45.6511" lon="4.86841">
        <ele>231.81494140625</ele>
        <time>2010-08-26T16:32:40Z</time>
      </trkpt>
      <trkpt lat="45.65079" lon="4.86837">
        <ele>232.77648925781</ele>
        <time>2010-08-26T16:32:48Z</time>
      </trkpt>
      <trkpt lat="45.65042" lon="4.8683">
        <ele>232.29577636719</ele>
        <time>2010-08-26T16:32:57Z</time>
      </trkpt>
      <trkpt lat="45.65004" lon="4.86823">
        <ele>233.25708007812</ele>
        <time>2010-08-26T16:33:07Z</time>
      </trkpt>
      <trkpt lat="45.64982" lon="4.86822">
        <ele>233.73767089844</ele>
        <time>2010-08-26T16:33:14Z</time>
      </trkpt>
      <trkpt lat="45.64978" lon="4.86823">
        <ele>233.25708007812</ele>
        <time>2010-08-26T16:33:16Z</time>
      </trkpt>
      <trkpt lat="45.64968" lon="4.8681">
        <ele>232.77648925781</ele>
        <time>2010-08-26T16:33:23Z</time>
      </trkpt>
      <trkpt lat="45.64964" lon="4.86802">
        <ele>234.21838378906</ele>
        <time>2010-08-26T16:33:27Z</time>
      </trkpt>
      <trkpt lat="45.64961" lon="4.86782">
        <ele>233.25708007812</ele>
        <time>2010-08-26T16:33:33Z</time>
      </trkpt>
      <trkpt lat="45.64957" lon="4.86756">
        <ele>234.21838378906</ele>
        <time>2010-08-26T16:33:40Z</time>
      </trkpt>
      <trkpt lat="45.64954" lon="4.86725">
        <ele>234.21838378906</ele>
        <time>2010-08-26T16:33:47Z</time>
      </trkpt>
      <trkpt lat="45.64948" lon="4.86695">
        <ele>234.69909667969</ele>
        <time>2010-08-26T16:33:54Z</time>
      </trkpt>
      <trkpt lat="45.64941" lon="4.86668">
        <ele>235.1796875</ele>
        <time>2010-08-26T16:34:00Z</time>
      </trkpt>
      <trkpt lat="45.64929" lon="4.86636">
        <ele>235.66027832031</ele>
        <time>2010-08-26T16:34:08Z</time>
      </trkpt>
      <trkpt lat="45.64917" lon="4.86608">
        <ele>236.14099121094</ele>
        <time>2010-08-26T16:34:15Z</time>
      </trkpt>
      <trkpt lat="45.64906" lon="4.86581">
        <ele>236.62170410156</ele>
        <time>2010-08-26T16:34:21Z</time>
      </trkpt>
      <trkpt lat="45.64893" lon="4.8655">
        <ele>239.02490234375</ele>
        <time>2010-08-26T16:34:28Z</time>
      </trkpt>
      <trkpt lat="45.64881" lon="4.86523">
        <ele>239.50549316406</ele>
        <time>2010-08-26T16:34:34Z</time>
      </trkpt>
      <trkpt lat="45.64865" lon="4.86495">
        <ele>237.10229492188</ele>
        <time>2010-08-26T16:34:41Z</time>
      </trkpt>
      <trkpt lat="45.64845" lon="4.86473">
        <ele>238.06359863281</ele>
        <time>2010-08-26T16:34:48Z</time>
      </trkpt>
      <trkpt lat="45.64814" lon="4.86444">
        <ele>237.58288574219</ele>
        <time>2010-08-26T16:34:57Z</time>
      </trkpt>
      <trkpt lat="45.64789" lon="4.86422">
        <ele>239.02490234375</ele>
        <time>2010-08-26T16:35:04Z</time>
      </trkpt>
      <trkpt lat="45.64756" lon="4.86398">
        <ele>239.98620605469</ele>
        <time>2010-08-26T16:35:13Z</time>
      </trkpt>
      <trkpt lat="45.64728" lon="4.86372">
        <ele>240.94763183594</ele>
        <time>2010-08-26T16:35:21Z</time>
      </trkpt>
      <trkpt lat="45.64696" lon="4.86336">
        <ele>242.3896484375</ele>
        <time>2010-08-26T16:35:31Z</time>
      </trkpt>
      <trkpt lat="45.64676" lon="4.86302">
        <ele>242.3896484375</ele>
        <time>2010-08-26T16:35:38Z</time>
      </trkpt>
      <trkpt lat="45.64666" lon="4.86275">
        <ele>243.35083007812</ele>
        <time>2010-08-26T16:35:43Z</time>
      </trkpt>
      <trkpt lat="45.6465" lon="4.86231">
        <ele>242.87023925781</ele>
        <time>2010-08-26T16:35:51Z</time>
      </trkpt>
      <trkpt lat="45.64644" lon="4.86214">
        <ele>244.31225585938</ele>
        <time>2010-08-26T16:35:54Z</time>
      </trkpt>
      <trkpt lat="45.64622" lon="4.86158">
        <ele>244.31225585938</ele>
        <time>2010-08-26T16:36:04Z</time>
      </trkpt>
      <trkpt lat="45.646" lon="4.86109">
        <ele>242.87023925781</ele>
        <time>2010-08-26T16:36:13Z</time>
      </trkpt>
      <trkpt lat="45.64579" lon="4.86064">
        <ele>245.2734375</ele>
        <time>2010-08-26T16:36:21Z</time>
      </trkpt>
      <trkpt lat="45.64575" lon="4.86053">
        <ele>246.23486328125</ele>
        <time>2010-08-26T16:36:23Z</time>
      </trkpt>
      <trkpt lat="45.64563" lon="4.86007">
        <ele>244.31225585938</ele>
        <time>2010-08-26T16:36:30Z</time>
      </trkpt>
      <trkpt lat="45.6456" lon="4.85948">
        <ele>244.79284667969</ele>
        <time>2010-08-26T16:36:38Z</time>
      </trkpt>
      <trkpt lat="45.64561" lon="4.85889">
        <ele>243.35083007812</ele>
        <time>2010-08-26T16:36:46Z</time>
      </trkpt>
      <trkpt lat="45.64561" lon="4.85857">
        <ele>244.79284667969</ele>
        <time>2010-08-26T16:36:50Z</time>
      </trkpt>
      <trkpt lat="45.64558" lon="4.8578">
        <ele>244.79284667969</ele>
        <time>2010-08-26T16:37:00Z</time>
      </trkpt>
      <trkpt lat="45.64555" lon="4.85717">
        <ele>245.2734375</ele>
        <time>2010-08-26T16:37:09Z</time>
      </trkpt>
      <trkpt lat="45.64553" lon="4.85704">
        <ele>243.83154296875</ele>
        <time>2010-08-26T16:37:11Z</time>
      </trkpt>
      <trkpt lat="45.64545" lon="4.85662">
        <ele>246.71545410156</ele>
        <time>2010-08-26T16:37:18Z</time>
      </trkpt>
      <trkpt lat="45.64536" lon="4.85636">
        <ele>243.35083007812</ele>
        <time>2010-08-26T16:37:24Z</time>
      </trkpt>
      <trkpt lat="45.64534" lon="4.85631">
        <ele>243.83154296875</ele>
        <time>2010-08-26T16:37:27Z</time>
      </trkpt>
      <trkpt lat="45.64534" lon="4.85629">
        <ele>247.19604492188</ele>
        <time>2010-08-26T16:37:29Z</time>
      </trkpt>
      <trkpt lat="45.64533" lon="4.85627">
        <ele>245.2734375</ele>
        <time>2010-08-26T16:37:30Z</time>
      </trkpt>
      <trkpt lat="45.64523" lon="4.85614">
        <ele>245.75415039062</ele>
        <time>2010-08-26T16:37:35Z</time>
      </trkpt>
      <trkpt lat="45.64508" lon="4.85596">
        <ele>245.2734375</ele>
        <time>2010-08-26T16:37:41Z</time>
      </trkpt>
      <trkpt lat="45.64491" lon="4.85569">
        <ele>245.75415039062</ele>
        <time>2010-08-26T16:37:48Z</time>
      </trkpt>
      <trkpt lat="45.64467" lon="4.85524">
        <ele>245.2734375</ele>
        <time>2010-08-26T16:37:58Z</time>
      </trkpt>
      <trkpt lat="45.64449" lon="4.85482">
        <ele>244.79284667969</ele>
        <time>2010-08-26T16:38:06Z</time>
      </trkpt>
      <trkpt lat="45.64432" lon="4.85441">
        <ele>244.31225585938</ele>
        <time>2010-08-26T16:38:13Z</time>
      </trkpt>
      <trkpt lat="45.64415" lon="4.85388">
        <ele>242.87023925781</ele>
        <time>2010-08-26T16:38:21Z</time>
      </trkpt>
      <trkpt lat="45.64402" lon="4.85334">
        <ele>240.94763183594</ele>
        <time>2010-08-26T16:38:28Z</time>
      </trkpt>
      <trkpt lat="45.644" lon="4.85326">
        <ele>240.46704101562</ele>
        <time>2010-08-26T16:38:29Z</time>
      </trkpt>
      <trkpt lat="45.64394" lon="4.85292">
        <ele>242.3896484375</ele>
        <time>2010-08-26T16:38:33Z</time>
      </trkpt>
      <trkpt lat="45.64385" lon="4.85223">
        <ele>241.42822265625</ele>
        <time>2010-08-26T16:38:41Z</time>
      </trkpt>
      <trkpt lat="45.64379" lon="4.85174">
        <ele>242.3896484375</ele>
        <time>2010-08-26T16:38:47Z</time>
      </trkpt>
      <trkpt lat="45.64367" lon="4.85102">
        <ele>241.90893554688</ele>
        <time>2010-08-26T16:38:56Z</time>
      </trkpt>
      <trkpt lat="45.64351" lon="4.85041">
        <ele>242.87023925781</ele>
        <time>2010-08-26T16:39:04Z</time>
      </trkpt>
      <trkpt lat="45.64329" lon="4.8499">
        <ele>241.90893554688</ele>
        <time>2010-08-26T16:39:12Z</time>
      </trkpt>
      <trkpt lat="45.64311" lon="4.84963">
        <ele>245.2734375</ele>
        <time>2010-08-26T16:39:17Z</time>
      </trkpt>
      <trkpt lat="45.64288" lon="4.84936">
        <ele>243.35083007812</ele>
        <time>2010-08-26T16:39:23Z</time>
      </trkpt>
      <trkpt lat="45.64265" lon="4.84914">
        <ele>246.71545410156</ele>
        <time>2010-08-26T16:39:29Z</time>
      </trkpt>
      <trkpt lat="45.64262" lon="4.84911">
        <ele>246.23486328125</ele>
        <time>2010-08-26T16:39:30Z</time>
      </trkpt>
      <trkpt lat="45.64245" lon="4.84898">
        <ele>245.75415039062</ele>
        <time>2010-08-26T16:39:35Z</time>
      </trkpt>
      <trkpt lat="45.64239" lon="4.84891">
        <ele>247.6767578125</ele>
        <time>2010-08-26T16:39:37Z</time>
      </trkpt>
      <trkpt lat="45.64228" lon="4.84881">
        <ele>245.2734375</ele>
        <time>2010-08-26T16:39:40Z</time>
      </trkpt>
      <trkpt lat="45.64201" lon="4.84852">
        <ele>244.79284667969</ele>
        <time>2010-08-26T16:39:47Z</time>
      </trkpt>
      <trkpt lat="45.64193" lon="4.8484">
        <ele>244.31225585938</ele>
        <time>2010-08-26T16:39:49Z</time>
      </trkpt>
      <trkpt lat="45.64179" lon="4.84813">
        <ele>243.83154296875</ele>
        <time>2010-08-26T16:39:53Z</time>
      </trkpt>
      <trkpt lat="45.64157" lon="4.84765">
        <ele>239.98620605469</ele>
        <time>2010-08-26T16:39:59Z</time>
      </trkpt>
      <trkpt lat="45.64149" lon="4.84749">
        <ele>236.62170410156</ele>
        <time>2010-08-26T16:40:01Z</time>
      </trkpt>
      <trkpt lat="45.64141" lon="4.84733">
        <ele>235.1796875</ele>
        <time>2010-08-26T16:40:03Z</time>
      </trkpt>
      <trkpt lat="45.64107" lon="4.84659">
        <ele>234.21838378906</ele>
        <time>2010-08-26T16:40:11Z</time>
      </trkpt>
      <trkpt lat="45.64071" lon="4.84585">
        <ele>232.29577636719</ele>
        <time>2010-08-26T16:40:19Z</time>
      </trkpt>
      <trkpt lat="45.64038" lon="4.84516">
        <ele>231.81494140625</ele>
        <time>2010-08-26T16:40:27Z</time>
      </trkpt>
      <trkpt lat="45.64016" lon="4.8446">
        <ele>231.33435058594</ele>
        <time>2010-08-26T16:40:34Z</time>
      </trkpt>
      <trkpt lat="45.63994" lon="4.844">
        <ele>232.29577636719</ele>
        <time>2010-08-26T16:40:42Z</time>
      </trkpt>
      <trkpt lat="45.63978" lon="4.84354">
        <ele>234.69909667969</ele>
        <time>2010-08-26T16:40:49Z</time>
      </trkpt>
      <trkpt lat="45.63965" lon="4.84337">
        <ele>232.77648925781</ele>
        <time>2010-08-26T16:40:53Z</time>
      </trkpt>
      <trkpt lat="45.63954" lon="4.8434">
        <ele>232.29577636719</ele>
        <time>2010-08-26T16:40:56Z</time>
      </trkpt>
      <trkpt lat="45.63945" lon="4.84359">
        <ele>232.77648925781</ele>
        <time>2010-08-26T16:41:00Z</time>
      </trkpt>
      <trkpt lat="45.63935" lon="4.84365">
        <ele>232.77648925781</ele>
        <time>2010-08-26T16:41:03Z</time>
      </trkpt>
      <trkpt lat="45.63928" lon="4.84363">
        <ele>233.73767089844</ele>
        <time>2010-08-26T16:41:05Z</time>
      </trkpt>
      <trkpt lat="45.63896" lon="4.84355">
        <ele>234.21838378906</ele>
        <time>2010-08-26T16:41:15Z</time>
      </trkpt>
      <trkpt lat="45.63877" lon="4.84348">
        <ele>235.66027832031</ele>
        <time>2010-08-26T16:41:21Z</time>
      </trkpt>
      <trkpt lat="45.63849" lon="4.84342">
        <ele>237.10229492188</ele>
        <time>2010-08-26T16:41:29Z</time>
      </trkpt>
      <trkpt lat="45.63821" lon="4.84331">
        <ele>236.62170410156</ele>
        <time>2010-08-26T16:41:36Z</time>
      </trkpt>
      <trkpt lat="45.63788" lon="4.8431">
        <ele>236.14099121094</ele>
        <time>2010-08-26T16:41:44Z</time>
      </trkpt>
      <trkpt lat="45.63754" lon="4.84279">
        <ele>236.62170410156</ele>
        <time>2010-08-26T16:41:52Z</time>
      </trkpt>
      <trkpt lat="45.63736" lon="4.84263">
        <ele>235.1796875</ele>
        <time>2010-08-26T16:41:56Z</time>
      </trkpt>
      <trkpt lat="45.63723" lon="4.84252">
        <ele>233.25708007812</ele>
        <time>2010-08-26T16:41:59Z</time>
      </trkpt>
      <trkpt lat="45.63698" lon="4.84237">
        <ele>232.29577636719</ele>
        <time>2010-08-26T16:42:03Z</time>
      </trkpt>
      <trkpt lat="45.63665" lon="4.84219">
        <ele>228.93115234375</ele>
        <time>2010-08-26T16:42:08Z</time>
      </trkpt>
      <trkpt lat="45.63653" lon="4.84214">
        <ele>229.41174316406</ele>
        <time>2010-08-26T16:42:10Z</time>
      </trkpt>
      <trkpt lat="45.63642" lon="4.84198">
        <ele>226.52783203125</ele>
        <time>2010-08-26T16:42:14Z</time>
      </trkpt>
      <trkpt lat="45.63646" lon="4.84182">
        <ele>227.00854492188</ele>
        <time>2010-08-26T16:42:17Z</time>
      </trkpt>
      <trkpt lat="45.63646" lon="4.84167">
        <ele>228.45043945312</ele>
        <time>2010-08-26T16:42:20Z</time>
      </trkpt>
      <trkpt lat="45.63635" lon="4.84161">
        <ele>228.93115234375</ele>
        <time>2010-08-26T16:42:23Z</time>
      </trkpt>
      <trkpt lat="45.63597" lon="4.84154">
        <ele>228.93115234375</ele>
        <time>2010-08-26T16:42:31Z</time>
      </trkpt>
      <trkpt lat="45.63592" lon="4.84154">
        <ele>228.93115234375</ele>
        <time>2010-08-26T16:42:32Z</time>
      </trkpt>
      <trkpt lat="45.63584" lon="4.84151">
        <ele>228.93115234375</ele>
        <time>2010-08-26T16:42:34Z</time>
      </trkpt>
      <trkpt lat="45.63567" lon="4.84156">
        <ele>228.45043945312</ele>
        <time>2010-08-26T16:42:38Z</time>
      </trkpt>
      <trkpt lat="45.63565" lon="4.84161">
        <ele>228.45043945312</ele>
        <time>2010-08-26T16:42:39Z</time>
      </trkpt>
      <trkpt lat="45.63548" lon="4.84178">
        <ele>228.45043945312</ele>
        <time>2010-08-26T16:42:44Z</time>
      </trkpt>
      <trkpt lat="45.6354" lon="4.84177">
        <ele>229.89233398438</ele>
        <time>2010-08-26T16:42:46Z</time>
      </trkpt>
      <trkpt lat="45.635" lon="4.84166">
        <ele>230.85375976562</ele>
        <time>2010-08-26T16:42:56Z</time>
      </trkpt>
      <trkpt lat="45.63474" lon="4.84158">
        <ele>231.81494140625</ele>
        <time>2010-08-26T16:43:03Z</time>
      </trkpt>
      <trkpt lat="45.63435" lon="4.84148">
        <ele>231.33435058594</ele>
        <time>2010-08-26T16:43:13Z</time>
      </trkpt>
      <trkpt lat="45.63411" lon="4.84143">
        <ele>231.33435058594</ele>
        <time>2010-08-26T16:43:20Z</time>
      </trkpt>
      <trkpt lat="45.63385" lon="4.84138">
        <ele>231.33435058594</ele>
        <time>2010-08-26T16:43:27Z</time>
      </trkpt>
      <trkpt lat="45.63358" lon="4.84135">
        <ele>231.33435058594</ele>
        <time>2010-08-26T16:43:34Z</time>
      </trkpt>
      <trkpt lat="45.63351" lon="4.84132">
        <ele>231.33435058594</ele>
        <time>2010-08-26T16:43:36Z</time>
      </trkpt>
      <trkpt lat="45.63342" lon="4.8411">
        <ele>229.89233398438</ele>
        <time>2010-08-26T16:43:40Z</time>
      </trkpt>
      <trkpt lat="45.63334" lon="4.84071">
        <ele>228.93115234375</ele>
        <time>2010-08-26T16:43:45Z</time>
      </trkpt>
      <trkpt lat="45.63325" lon="4.84046">
        <ele>228.45043945312</ele>
        <time>2010-08-26T16:43:49Z</time>
      </trkpt>
      <trkpt lat="45.63308" lon="4.84012">
        <ele>229.89233398438</ele>
        <time>2010-08-26T16:43:57Z</time>
      </trkpt>
      <trkpt lat="45.63295" lon="4.83983">
        <ele>227.48913574219</ele>
        <time>2010-08-26T16:44:02Z</time>
      </trkpt>
      <trkpt lat="45.63286" lon="4.83964">
        <ele>225.56652832031</ele>
        <time>2010-08-26T16:44:05Z</time>
      </trkpt>
      <trkpt lat="45.63268" lon="4.83958">
        <ele>224.60522460938</ele>
        <time>2010-08-26T16:44:09Z</time>
      </trkpt>
      <trkpt lat="45.63246" lon="4.83963">
        <ele>223.16320800781</ele>
        <time>2010-08-26T16:44:13Z</time>
      </trkpt>
      <trkpt lat="45.6322" lon="4.83968">
        <ele>222.20178222656</ele>
        <time>2010-08-26T16:44:18Z</time>
      </trkpt>
      <trkpt lat="45.63202" lon="4.83964">
        <ele>220.75988769531</ele>
        <time>2010-08-26T16:44:22Z</time>
      </trkpt>
      <trkpt lat="45.63179" lon="4.8396">
        <ele>217.39538574219</ele>
        <time>2010-08-26T16:44:26Z</time>
      </trkpt>
      <trkpt lat="45.6316" lon="4.83955">
        <ele>213.55004882812</ele>
        <time>2010-08-26T16:44:29Z</time>
      </trkpt>
      <trkpt lat="45.63142" lon="4.83957">
        <ele>208.26281738281</ele>
        <time>2010-08-26T16:44:33Z</time>
      </trkpt>
      <trkpt lat="45.63134" lon="4.83959">
        <ele>204.89807128906</ele>
        <time>2010-08-26T16:44:35Z</time>
      </trkpt>
      <trkpt lat="45.63121" lon="4.83972">
        <ele>202.01428222656</ele>
        <time>2010-08-26T16:44:38Z</time>
      </trkpt>
      <trkpt lat="45.63108" lon="4.83966">
        <ele>199.13012695312</ele>
        <time>2010-08-26T16:44:42Z</time>
      </trkpt>
      <trkpt lat="45.63095" lon="4.83952">
        <ele>196.72692871094</ele>
        <time>2010-08-26T16:44:45Z</time>
      </trkpt>
      <trkpt lat="45.63089" lon="4.83948">
        <ele>196.24633789062</ele>
        <time>2010-08-26T16:44:46Z</time>
      </trkpt>
      <trkpt lat="45.63076" lon="4.83936">
        <ele>195.28491210938</ele>
        <time>2010-08-26T16:44:48Z</time>
      </trkpt>
      <trkpt lat="45.63062" lon="4.83916">
        <ele>193.84301757812</ele>
        <time>2010-08-26T16:44:51Z</time>
      </trkpt>
      <trkpt lat="45.63052" lon="4.83907">
        <ele>192.40112304688</ele>
        <time>2010-08-26T16:44:53Z</time>
      </trkpt>
      <trkpt lat="45.63049" lon="4.83892">
        <ele>190.47839355469</ele>
        <time>2010-08-26T16:44:55Z</time>
      </trkpt>
      <trkpt lat="45.63047" lon="4.83877">
        <ele>189.03637695312</ele>
        <time>2010-08-26T16:44:57Z</time>
      </trkpt>
      <trkpt lat="45.63034" lon="4.83867">
        <ele>186.15246582031</ele>
        <time>2010-08-26T16:45:01Z</time>
      </trkpt>
      <trkpt lat="45.63028" lon="4.83879">
        <ele>185.19116210938</ele>
        <time>2010-08-26T16:45:04Z</time>
      </trkpt>
      <trkpt lat="45.63028" lon="4.83892">
        <ele>182.78784179688</ele>
        <time>2010-08-26T16:45:06Z</time>
      </trkpt>
      <trkpt lat="45.63032" lon="4.83921">
        <ele>179.42321777344</ele>
        <time>2010-08-26T16:45:11Z</time>
      </trkpt>
      <trkpt lat="45.63039" lon="4.8393">
        <ele>178.94262695312</ele>
        <time>2010-08-26T16:45:15Z</time>
      </trkpt>
      <trkpt lat="45.63038" lon="4.83933">
        <ele>179.42321777344</ele>
        <time>2010-08-26T16:45:25Z</time>
      </trkpt>
      <trkpt lat="45.63039" lon="4.83936">
        <ele>178.94262695312</ele>
        <time>2010-08-26T16:45:36Z</time>
      </trkpt>
      <trkpt lat="45.63035" lon="4.83934">
        <ele>178.94262695312</ele>
        <time>2010-08-26T16:46:36Z</time>
      </trkpt>
      <trkpt lat="45.6304" lon="4.83933">
        <ele>179.90380859375</ele>
        <time>2010-08-26T16:46:56Z</time>
      </trkpt>
      <trkpt lat="45.63043" lon="4.83934">
        <ele>179.90380859375</ele>
        <time>2010-08-26T16:47:14Z</time>
      </trkpt>
      <trkpt lat="45.63044" lon="4.83936">
        <ele>180.38452148438</ele>
        <time>2010-08-26T16:47:29Z</time>
      </trkpt>
      <trkpt lat="45.63043" lon="4.83935">
        <ele>181.34582519531</ele>
        <time>2010-08-26T16:47:38Z</time>
      </trkpt>
      <trkpt lat="45.63044" lon="4.83932">
        <ele>180.38452148438</ele>
        <time>2010-08-26T16:47:53Z</time>
      </trkpt>
      <trkpt lat="45.63042" lon="4.83936">
        <ele>181.34582519531</ele>
        <time>2010-08-26T16:48:24Z</time>
      </trkpt>
      <trkpt lat="45.63042" lon="4.83937">
        <ele>181.34582519531</ele>
        <time>2010-08-26T16:48:46Z</time>
      </trkpt>
      <trkpt lat="45.63041" lon="4.83939">
        <ele>180.865234375</ele>
        <time>2010-08-26T16:48:56Z</time>
      </trkpt>
      <trkpt lat="45.63046" lon="4.83937">
        <ele>180.865234375</ele>
        <time>2010-08-26T16:49:10Z</time>
      </trkpt>
      <trkpt lat="45.63039" lon="4.83939">
        <ele>179.90380859375</ele>
        <time>2010-08-26T16:49:23Z</time>
      </trkpt>
      <trkpt lat="45.63037" lon="4.83939">
        <ele>180.865234375</ele>
        <time>2010-08-26T16:49:41Z</time>
      </trkpt>
      <trkpt lat="45.63042" lon="4.83936">
        <ele>180.865234375</ele>
        <time>2010-08-26T16:50:22Z</time>
      </trkpt>
      <trkpt lat="45.63037" lon="4.8394">
        <ele>179.90380859375</ele>
        <time>2010-08-26T16:50:53Z</time>
      </trkpt>
      <trkpt lat="45.63038" lon="4.83941">
        <ele>179.90380859375</ele>
        <time>2010-08-26T16:50:54Z</time>
      </trkpt>
      <trkpt lat="45.63043" lon="4.83951">
        <ele>180.38452148438</ele>
        <time>2010-08-26T16:51:00Z</time>
      </trkpt>
      <trkpt lat="45.63044" lon="4.83952">
        <ele>180.38452148438</ele>
        <time>2010-08-26T16:51:08Z</time>
      </trkpt>
      <trkpt lat="45.6305" lon="4.83963">
        <ele>180.38452148438</ele>
        <time>2010-08-26T16:51:14Z</time>
      </trkpt>
      <trkpt lat="45.6306" lon="4.83975">
        <ele>182.30712890625</ele>
        <time>2010-08-26T16:51:20Z</time>
      </trkpt>
      <trkpt lat="45.63071" lon="4.83988">
        <ele>182.78784179688</ele>
        <time>2010-08-26T16:51:26Z</time>
      </trkpt>
      <trkpt lat="45.6308" lon="4.84002">
        <ele>183.26843261719</ele>
        <time>2010-08-26T16:51:31Z</time>
      </trkpt>
      <trkpt lat="45.63092" lon="4.84018">
        <ele>182.78784179688</ele>
        <time>2010-08-26T16:51:36Z</time>
      </trkpt>
      <trkpt lat="45.63111" lon="4.84042">
        <ele>182.30712890625</ele>
        <time>2010-08-26T16:51:43Z</time>
      </trkpt>
      <trkpt lat="45.63123" lon="4.84058">
        <ele>181.34582519531</ele>
        <time>2010-08-26T16:51:48Z</time>
      </trkpt>
      <trkpt lat="45.63137" lon="4.8407">
        <ele>181.82641601562</ele>
        <time>2010-08-26T16:51:53Z</time>
      </trkpt>
      <trkpt lat="45.63155" lon="4.84071">
        <ele>182.30712890625</ele>
        <time>2010-08-26T16:51:58Z</time>
      </trkpt>
      <trkpt lat="45.63173" lon="4.84068">
        <ele>183.26843261719</ele>
        <time>2010-08-26T16:52:04Z</time>
      </trkpt>
      <trkpt lat="45.63193" lon="4.8407">
        <ele>184.71057128906</ele>
        <time>2010-08-26T16:52:11Z</time>
      </trkpt>
      <trkpt lat="45.6321" lon="4.84079">
        <ele>185.19116210938</ele>
        <time>2010-08-26T16:52:18Z</time>
      </trkpt>
      <trkpt lat="45.63223" lon="4.84093">
        <ele>184.22985839844</ele>
        <time>2010-08-26T16:52:24Z</time>
      </trkpt>
      <trkpt lat="45.63235" lon="4.8412">
        <ele>185.67175292969</ele>
        <time>2010-08-26T16:52:31Z</time>
      </trkpt>
      <trkpt lat="45.63246" lon="4.84149">
        <ele>186.15246582031</ele>
        <time>2010-08-26T16:52:37Z</time>
      </trkpt>
      <trkpt lat="45.63248" lon="4.84178">
        <ele>184.71057128906</ele>
        <time>2010-08-26T16:52:42Z</time>
      </trkpt>
      <trkpt lat="45.6325" lon="4.84225">
        <ele>184.71057128906</ele>
        <time>2010-08-26T16:52:49Z</time>
      </trkpt>
      <trkpt lat="45.63243" lon="4.8426">
        <ele>185.67175292969</ele>
        <time>2010-08-26T16:52:55Z</time>
      </trkpt>
      <trkpt lat="45.63232" lon="4.8429">
        <ele>184.22985839844</ele>
        <time>2010-08-26T16:53:01Z</time>
      </trkpt>
      <trkpt lat="45.63229" lon="4.84295">
        <ele>184.22985839844</ele>
        <time>2010-08-26T16:53:02Z</time>
      </trkpt>
      <trkpt lat="45.63212" lon="4.84324">
        <ele>180.38452148438</ele>
        <time>2010-08-26T16:53:08Z</time>
      </trkpt>
      <trkpt lat="45.63205" lon="4.84339">
        <ele>180.865234375</ele>
        <time>2010-08-26T16:53:10Z</time>
      </trkpt>
      <trkpt lat="45.63196" lon="4.84383">
        <ele>179.90380859375</ele>
        <time>2010-08-26T16:53:15Z</time>
      </trkpt>
      <trkpt lat="45.632" lon="4.84436">
        <ele>180.38452148438</ele>
        <time>2010-08-26T16:53:22Z</time>
      </trkpt>
      <trkpt lat="45.63209" lon="4.84474">
        <ele>179.42321777344</ele>
        <time>2010-08-26T16:53:28Z</time>
      </trkpt>
      <trkpt lat="45.63227" lon="4.84512">
        <ele>180.38452148438</ele>
        <time>2010-08-26T16:53:35Z</time>
      </trkpt>
      <trkpt lat="45.63243" lon="4.84545">
        <ele>180.38452148438</ele>
        <time>2010-08-26T16:53:41Z</time>
      </trkpt>
      <trkpt lat="45.63261" lon="4.8458">
        <ele>181.82641601562</ele>
        <time>2010-08-26T16:53:48Z</time>
      </trkpt>
      <trkpt lat="45.63275" lon="4.8461">
        <ele>183.26843261719</ele>
        <time>2010-08-26T16:53:54Z</time>
      </trkpt>
      <trkpt lat="45.63292" lon="4.84649">
        <ele>183.7490234375</ele>
        <time>2010-08-26T16:54:02Z</time>
      </trkpt>
      <trkpt lat="45.63295" lon="4.84659">
        <ele>182.78784179688</ele>
        <time>2010-08-26T16:54:04Z</time>
      </trkpt>
      <trkpt lat="45.63296" lon="4.84682">
        <ele>182.78784179688</ele>
        <time>2010-08-26T16:54:08Z</time>
      </trkpt>
      <trkpt lat="45.63287" lon="4.84694">
        <ele>182.78784179688</ele>
        <time>2010-08-26T16:54:11Z</time>
      </trkpt>
      <trkpt lat="45.6328" lon="4.847">
        <ele>182.30712890625</ele>
        <time>2010-08-26T16:54:13Z</time>
      </trkpt>
      <trkpt lat="45.63266" lon="4.84712">
        <ele>182.30712890625</ele>
        <time>2010-08-26T16:54:17Z</time>
      </trkpt>
      <trkpt lat="45.63268" lon="4.84733">
        <ele>182.30712890625</ele>
        <time>2010-08-26T16:54:21Z</time>
      </trkpt>
      <trkpt lat="45.6329" lon="4.84782">
        <ele>181.82641601562</ele>
        <time>2010-08-26T16:54:30Z</time>
      </trkpt>
      <trkpt lat="45.63295" lon="4.84793">
        <ele>181.34582519531</ele>
        <time>2010-08-26T16:54:32Z</time>
      </trkpt>
      <trkpt lat="45.63299" lon="4.84827">
        <ele>181.82641601562</ele>
        <time>2010-08-26T16:54:38Z</time>
      </trkpt>
      <trkpt lat="45.6332" lon="4.84858">
        <ele>180.38452148438</ele>
        <time>2010-08-26T16:54:46Z</time>
      </trkpt>
      <trkpt lat="45.63339" lon="4.84881">
        <ele>181.82641601562</ele>
        <time>2010-08-26T16:54:53Z</time>
      </trkpt>
      <trkpt lat="45.6334" lon="4.84904">
        <ele>181.34582519531</ele>
        <time>2010-08-26T16:54:58Z</time>
      </trkpt>
      <trkpt lat="45.63336" lon="4.84931">
        <ele>181.34582519531</ele>
        <time>2010-08-26T16:55:04Z</time>
      </trkpt>
      <trkpt lat="45.63329" lon="4.84936">
        <ele>181.34582519531</ele>
        <time>2010-08-26T16:55:07Z</time>
      </trkpt>
      <trkpt lat="45.63298" lon="4.84927">
        <ele>181.82641601562</ele>
        <time>2010-08-26T16:55:16Z</time>
      </trkpt>
      <trkpt lat="45.63283" lon="4.84932">
        <ele>181.82641601562</ele>
        <time>2010-08-26T16:55:21Z</time>
      </trkpt>
      <trkpt lat="45.63269" lon="4.84941">
        <ele>182.78784179688</ele>
        <time>2010-08-26T16:55:27Z</time>
      </trkpt>
      <trkpt lat="45.63264" lon="4.84945">
        <ele>184.71057128906</ele>
        <time>2010-08-26T16:55:30Z</time>
      </trkpt>
      <trkpt lat="45.6326" lon="4.84938">
        <ele>184.71057128906</ele>
        <time>2010-08-26T16:55:34Z</time>
      </trkpt>
      <trkpt lat="45.63247" lon="4.84906">
        <ele>185.19116210938</ele>
        <time>2010-08-26T16:55:42Z</time>
      </trkpt>
      <trkpt lat="45.63232" lon="4.84866">
        <ele>184.22985839844</ele>
        <time>2010-08-26T16:55:49Z</time>
      </trkpt>
      <trkpt lat="45.6321" lon="4.8481">
        <ele>184.71057128906</ele>
        <time>2010-08-26T16:55:59Z</time>
      </trkpt>
      <trkpt lat="45.63194" lon="4.8478">
        <ele>184.71057128906</ele>
        <time>2010-08-26T16:56:05Z</time>
      </trkpt>
      <trkpt lat="45.63187" lon="4.8476">
        <ele>184.71057128906</ele>
        <time>2010-08-26T16:56:10Z</time>
      </trkpt>
      <trkpt lat="45.63183" lon="4.84752">
        <ele>184.71057128906</ele>
        <time>2010-08-26T16:56:15Z</time>
      </trkpt>
      <trkpt lat="45.63176" lon="4.84754">
        <ele>185.19116210938</ele>
        <time>2010-08-26T16:56:20Z</time>
      </trkpt>
      <trkpt lat="45.63167" lon="4.84752">
        <ele>185.19116210938</ele>
        <time>2010-08-26T16:56:24Z</time>
      </trkpt>
      <trkpt lat="45.63147" lon="4.84743">
        <ele>185.19116210938</ele>
        <time>2010-08-26T16:56:31Z</time>
      </trkpt>
      <trkpt lat="45.63124" lon="4.84732">
        <ele>186.15246582031</ele>
        <time>2010-08-26T16:56:39Z</time>
      </trkpt>
      <trkpt lat="45.63099" lon="4.84716">
        <ele>185.67175292969</ele>
        <time>2010-08-26T16:56:47Z</time>
      </trkpt>
      <trkpt lat="45.63078" lon="4.847">
        <ele>187.59436035156</ele>
        <time>2010-08-26T16:56:55Z</time>
      </trkpt>
      <trkpt lat="45.63062" lon="4.84696">
        <ele>188.55578613281</ele>
        <time>2010-08-26T16:57:01Z</time>
      </trkpt>
      <trkpt lat="45.63053" lon="4.84693">
        <ele>189.51696777344</ele>
        <time>2010-08-26T16:57:05Z</time>
      </trkpt>
      <trkpt lat="45.63044" lon="4.84675">
        <ele>190.47839355469</ele>
        <time>2010-08-26T16:57:11Z</time>
      </trkpt>
      <trkpt lat="45.63036" lon="4.84643">
        <ele>190.47839355469</ele>
        <time>2010-08-26T16:57:19Z</time>
      </trkpt>
      <trkpt lat="45.63031" lon="4.84619">
        <ele>191.92028808594</ele>
        <time>2010-08-26T16:57:26Z</time>
      </trkpt>
      <trkpt lat="45.63024" lon="4.84598">
        <ele>194.32373046875</ele>
        <time>2010-08-26T16:57:33Z</time>
      </trkpt>
      <trkpt lat="45.63022" lon="4.84592">
        <ele>195.28491210938</ele>
        <time>2010-08-26T16:57:35Z</time>
      </trkpt>
      <trkpt lat="45.63015" lon="4.84574">
        <ele>196.72692871094</ele>
        <time>2010-08-26T16:57:42Z</time>
      </trkpt>
      <trkpt lat="45.63007" lon="4.84557">
        <ele>198.64953613281</ele>
        <time>2010-08-26T16:57:49Z</time>
      </trkpt>
      <trkpt lat="45.62994" lon="4.84544">
        <ele>199.61083984375</ele>
        <time>2010-08-26T16:57:56Z</time>
      </trkpt>
      <trkpt lat="45.62986" lon="4.84539">
        <ele>201.05285644531</ele>
        <time>2010-08-26T16:58:00Z</time>
      </trkpt>
      <trkpt lat="45.62973" lon="4.8453">
        <ele>202.01428222656</ele>
        <time>2010-08-26T16:58:08Z</time>
      </trkpt>
      <trkpt lat="45.62957" lon="4.84523">
        <ele>204.41748046875</ele>
        <time>2010-08-26T16:58:18Z</time>
      </trkpt>
      <trkpt lat="45.62945" lon="4.84517">
        <ele>207.30139160156</ele>
        <time>2010-08-26T16:58:26Z</time>
      </trkpt>
      <trkpt lat="45.62938" lon="4.84513">
        <ele>207.78210449219</ele>
        <time>2010-08-26T16:58:31Z</time>
      </trkpt>
      <trkpt lat="45.62932" lon="4.84511">
        <ele>207.78210449219</ele>
        <time>2010-08-26T16:58:35Z</time>
      </trkpt>
      <trkpt lat="45.62916" lon="4.84504">
        <ele>210.666015625</ele>
        <time>2010-08-26T16:58:45Z</time>
      </trkpt>
      <trkpt lat="45.62903" lon="4.84497">
        <ele>211.62744140625</ele>
        <time>2010-08-26T16:58:53Z</time>
      </trkpt>
      <trkpt lat="45.6289" lon="4.84489">
        <ele>212.58862304688</ele>
        <time>2010-08-26T16:59:01Z</time>
      </trkpt>
      <trkpt lat="45.62874" lon="4.8448">
        <ele>213.55004882812</ele>
        <time>2010-08-26T16:59:10Z</time>
      </trkpt>
      <trkpt lat="45.62854" lon="4.84467">
        <ele>215.47265625</ele>
        <time>2010-08-26T16:59:21Z</time>
      </trkpt>
      <trkpt lat="45.62837" lon="4.84456">
        <ele>214.99194335938</ele>
        <time>2010-08-26T16:59:30Z</time>
      </trkpt>
      <trkpt lat="45.62822" lon="4.84446">
        <ele>217.39538574219</ele>
        <time>2010-08-26T16:59:38Z</time>
      </trkpt>
      <trkpt lat="45.62801" lon="4.84431">
        <ele>217.8759765625</ele>
        <time>2010-08-26T16:59:49Z</time>
      </trkpt>
      <trkpt lat="45.62787" lon="4.84423">
        <ele>219.31799316406</ele>
        <time>2010-08-26T16:59:57Z</time>
      </trkpt>
      <trkpt lat="45.62774" lon="4.8442">
        <ele>220.75988769531</ele>
        <time>2010-08-26T17:00:04Z</time>
      </trkpt>
      <trkpt lat="45.62756" lon="4.84421">
        <ele>222.20178222656</ele>
        <time>2010-08-26T17:00:13Z</time>
      </trkpt>
      <trkpt lat="45.6274" lon="4.84421">
        <ele>224.12451171875</ele>
        <time>2010-08-26T17:00:21Z</time>
      </trkpt>
      <trkpt lat="45.62736" lon="4.84421">
        <ele>224.60522460938</ele>
        <time>2010-08-26T17:00:23Z</time>
      </trkpt>
      <trkpt lat="45.62721" lon="4.84422">
        <ele>227.48913574219</ele>
        <time>2010-08-26T17:00:31Z</time>
      </trkpt>
      <trkpt lat="45.62719" lon="4.84422">
        <ele>227.48913574219</ele>
        <time>2010-08-26T17:00:32Z</time>
      </trkpt>
      <trkpt lat="45.62711" lon="4.84415">
        <ele>228.45043945312</ele>
        <time>2010-08-26T17:00:38Z</time>
      </trkpt>
      <trkpt lat="45.62699" lon="4.84405">
        <ele>228.93115234375</ele>
        <time>2010-08-26T17:00:45Z</time>
      </trkpt>
      <trkpt lat="45.62683" lon="4.84401">
        <ele>229.41174316406</ele>
        <time>2010-08-26T17:00:52Z</time>
      </trkpt>
      <trkpt lat="45.62665" lon="4.84401">
        <ele>230.373046875</ele>
        <time>2010-08-26T17:01:00Z</time>
      </trkpt>
      <trkpt lat="45.6265" lon="4.84404">
        <ele>231.81494140625</ele>
        <time>2010-08-26T17:01:07Z</time>
      </trkpt>
      <trkpt lat="45.62637" lon="4.84407">
        <ele>230.373046875</ele>
        <time>2010-08-26T17:01:13Z</time>
      </trkpt>
      <trkpt lat="45.62613" lon="4.84415">
        <ele>231.81494140625</ele>
        <time>2010-08-26T17:01:23Z</time>
      </trkpt>
      <trkpt lat="45.6259" lon="4.84422">
        <ele>232.29577636719</ele>
        <time>2010-08-26T17:01:32Z</time>
      </trkpt>
      <trkpt lat="45.62579" lon="4.84417">
        <ele>233.73767089844</ele>
        <time>2010-08-26T17:01:37Z</time>
      </trkpt>
      <trkpt lat="45.62574" lon="4.84396">
        <ele>233.25708007812</ele>
        <time>2010-08-26T17:01:43Z</time>
      </trkpt>
      <trkpt lat="45.62566" lon="4.84362">
        <ele>233.25708007812</ele>
        <time>2010-08-26T17:01:51Z</time>
      </trkpt>
      <trkpt lat="45.62556" lon="4.84332">
        <ele>233.73767089844</ele>
        <time>2010-08-26T17:01:58Z</time>
      </trkpt>
      <trkpt lat="45.62546" lon="4.84332">
        <ele>233.73767089844</ele>
        <time>2010-08-26T17:02:02Z</time>
      </trkpt>
      <trkpt lat="45.62524" lon="4.84349">
        <ele>233.73767089844</ele>
        <time>2010-08-26T17:02:10Z</time>
      </trkpt>
      <trkpt lat="45.62506" lon="4.84363">
        <ele>234.21838378906</ele>
        <time>2010-08-26T17:02:17Z</time>
      </trkpt>
      <trkpt lat="45.6248" lon="4.84383">
        <ele>235.1796875</ele>
        <time>2010-08-26T17:02:28Z</time>
      </trkpt>
      <trkpt lat="45.62477" lon="4.84383">
        <ele>235.1796875</ele>
        <time>2010-08-26T17:02:29Z</time>
      </trkpt>
      <trkpt lat="45.62468" lon="4.84369">
        <ele>235.1796875</ele>
        <time>2010-08-26T17:02:34Z</time>
      </trkpt>
      <trkpt lat="45.62454" lon="4.84336">
        <ele>235.1796875</ele>
        <time>2010-08-26T17:02:42Z</time>
      </trkpt>
      <trkpt lat="45.62441" lon="4.84305">
        <ele>235.66027832031</ele>
        <time>2010-08-26T17:02:50Z</time>
      </trkpt>
      <trkpt lat="45.62431" lon="4.84275">
        <ele>235.66027832031</ele>
        <time>2010-08-26T17:02:57Z</time>
      </trkpt>
      <trkpt lat="45.6242" lon="4.84243">
        <ele>236.62170410156</ele>
        <time>2010-08-26T17:03:05Z</time>
      </trkpt>
      <trkpt lat="45.62405" lon="4.84208">
        <ele>236.62170410156</ele>
        <time>2010-08-26T17:03:14Z</time>
      </trkpt>
      <trkpt lat="45.62389" lon="4.84177">
        <ele>235.66027832031</ele>
        <time>2010-08-26T17:03:23Z</time>
      </trkpt>
      <trkpt lat="45.62381" lon="4.8416">
        <ele>238.06359863281</ele>
        <time>2010-08-26T17:03:28Z</time>
      </trkpt>
      <trkpt lat="45.62368" lon="4.8413">
        <ele>239.02490234375</ele>
        <time>2010-08-26T17:03:37Z</time>
      </trkpt>
      <trkpt lat="45.6236" lon="4.84113">
        <ele>239.98620605469</ele>
        <time>2010-08-26T17:03:42Z</time>
      </trkpt>
      <trkpt lat="45.62349" lon="4.84093">
        <ele>240.94763183594</ele>
        <time>2010-08-26T17:03:49Z</time>
      </trkpt>
      <trkpt lat="45.62339" lon="4.84085">
        <ele>241.90893554688</ele>
        <time>2010-08-26T17:03:54Z</time>
      </trkpt>
      <trkpt lat="45.62322" lon="4.84088">
        <ele>242.87023925781</ele>
        <time>2010-08-26T17:04:01Z</time>
      </trkpt>
      <trkpt lat="45.62299" lon="4.84095">
        <ele>244.31225585938</ele>
        <time>2010-08-26T17:04:11Z</time>
      </trkpt>
      <trkpt lat="45.62282" lon="4.84098">
        <ele>245.2734375</ele>
        <time>2010-08-26T17:04:18Z</time>
      </trkpt>
      <trkpt lat="45.62267" lon="4.84102">
        <ele>246.23486328125</ele>
        <time>2010-08-26T17:04:25Z</time>
      </trkpt>
      <trkpt lat="45.62252" lon="4.84106">
        <ele>247.19604492188</ele>
        <time>2010-08-26T17:04:32Z</time>
      </trkpt>
      <trkpt lat="45.6224" lon="4.84108">
        <ele>249.11877441406</ele>
        <time>2010-08-26T17:04:38Z</time>
      </trkpt>
      <trkpt lat="45.62225" lon="4.84105">
        <ele>250.56079101562</ele>
        <time>2010-08-26T17:04:45Z</time>
      </trkpt>
      <trkpt lat="45.62223" lon="4.84104">
        <ele>251.04138183594</ele>
        <time>2010-08-26T17:04:46Z</time>
      </trkpt>
      <trkpt lat="45.6221" lon="4.84093">
        <ele>252.00280761719</ele>
        <time>2010-08-26T17:04:52Z</time>
      </trkpt>
      <trkpt lat="45.62197" lon="4.84079">
        <ele>252.96398925781</ele>
        <time>2010-08-26T17:04:59Z</time>
      </trkpt>
      <trkpt lat="45.62186" lon="4.84067">
        <ele>253.92541503906</ele>
        <time>2010-08-26T17:05:05Z</time>
      </trkpt>
      <trkpt lat="45.62175" lon="4.84057">
        <ele>254.40600585938</ele>
        <time>2010-08-26T17:05:11Z</time>
      </trkpt>
      <trkpt lat="45.6216" lon="4.84041">
        <ele>255.84802246094</ele>
        <time>2010-08-26T17:05:20Z</time>
      </trkpt>
      <trkpt lat="45.62144" lon="4.84032">
        <ele>255.84802246094</ele>
        <time>2010-08-26T17:05:27Z</time>
      </trkpt>
      <trkpt lat="45.6213" lon="4.84036">
        <ele>257.77075195312</ele>
        <time>2010-08-26T17:05:34Z</time>
      </trkpt>
      <trkpt lat="45.62115" lon="4.84047">
        <ele>260.65454101562</ele>
        <time>2010-08-26T17:05:42Z</time>
      </trkpt>
      <trkpt lat="45.62099" lon="4.84054">
        <ele>260.65454101562</ele>
        <time>2010-08-26T17:05:50Z</time>
      </trkpt>
      <trkpt lat="45.62083" lon="4.84058">
        <ele>261.61596679688</ele>
        <time>2010-08-26T17:05:58Z</time>
      </trkpt>
      <trkpt lat="45.62066" lon="4.84064">
        <ele>263.53857421875</ele>
        <time>2010-08-26T17:06:07Z</time>
      </trkpt>
      <trkpt lat="45.62043" lon="4.84072">
        <ele>265.46130371094</ele>
        <time>2010-08-26T17:06:18Z</time>
      </trkpt>
      <trkpt lat="45.62026" lon="4.84076">
        <ele>266.42248535156</ele>
        <time>2010-08-26T17:06:26Z</time>
      </trkpt>
      <trkpt lat="45.62012" lon="4.8408">
        <ele>266.42248535156</ele>
        <time>2010-08-26T17:06:32Z</time>
      </trkpt>
      <trkpt lat="45.61995" lon="4.84093">
        <ele>267.38391113281</ele>
        <time>2010-08-26T17:06:41Z</time>
      </trkpt>
      <trkpt lat="45.61988" lon="4.84102">
        <ele>267.86450195312</ele>
        <time>2010-08-26T17:06:46Z</time>
      </trkpt>
      <trkpt lat="45.61973" lon="4.84118">
        <ele>268.82580566406</ele>
        <time>2010-08-26T17:06:54Z</time>
      </trkpt>
      <trkpt lat="45.61958" lon="4.84122">
        <ele>269.30651855469</ele>
        <time>2010-08-26T17:07:00Z</time>
      </trkpt>
      <trkpt lat="45.61948" lon="4.84121">
        <ele>268.82580566406</ele>
        <time>2010-08-26T17:07:05Z</time>
      </trkpt>
      <trkpt lat="45.61934" lon="4.84116">
        <ele>268.34509277344</ele>
        <time>2010-08-26T17:07:11Z</time>
      </trkpt>
      <trkpt lat="45.61928" lon="4.84111">
        <ele>269.787109375</ele>
        <time>2010-08-26T17:07:13Z</time>
      </trkpt>
      <trkpt lat="45.6192" lon="4.84101">
        <ele>270.26770019531</ele>
        <time>2010-08-26T17:07:18Z</time>
      </trkpt>
      <trkpt lat="45.61917" lon="4.8409">
        <ele>271.22912597656</ele>
        <time>2010-08-26T17:07:22Z</time>
      </trkpt>
      <trkpt lat="45.61909" lon="4.84068">
        <ele>274.11303710938</ele>
        <time>2010-08-26T17:07:29Z</time>
      </trkpt>
      <trkpt lat="45.61908" lon="4.84065">
        <ele>274.11303710938</ele>
        <time>2010-08-26T17:07:30Z</time>
      </trkpt>
      <trkpt lat="45.61891" lon="4.84039">
        <ele>275.07446289062</ele>
        <time>2010-08-26T17:07:40Z</time>
      </trkpt>
      <trkpt lat="45.61881" lon="4.84014">
        <ele>276.51635742188</ele>
        <time>2010-08-26T17:07:48Z</time>
      </trkpt>
      <trkpt lat="45.61877" lon="4.83983">
        <ele>275.07446289062</ele>
        <time>2010-08-26T17:07:55Z</time>
      </trkpt>
      <trkpt lat="45.61874" lon="4.83945">
        <ele>274.11303710938</ele>
        <time>2010-08-26T17:08:03Z</time>
      </trkpt>
      <trkpt lat="45.61873" lon="4.83932">
        <ele>273.15185546875</ele>
        <time>2010-08-26T17:08:05Z</time>
      </trkpt>
      <trkpt lat="45.61869" lon="4.83888">
        <ele>270.74841308594</ele>
        <time>2010-08-26T17:08:10Z</time>
      </trkpt>
      <trkpt lat="45.61866" lon="4.83844">
        <ele>269.30651855469</ele>
        <time>2010-08-26T17:08:14Z</time>
      </trkpt>
      <trkpt lat="45.61872" lon="4.83792">
        <ele>269.30651855469</ele>
        <time>2010-08-26T17:08:19Z</time>
      </trkpt>
      <trkpt lat="45.6188" lon="4.83725">
        <ele>269.787109375</ele>
        <time>2010-08-26T17:08:26Z</time>
      </trkpt>
      <trkpt lat="45.61878" lon="4.83697">
        <ele>268.34509277344</ele>
        <time>2010-08-26T17:08:29Z</time>
      </trkpt>
      <trkpt lat="45.61875" lon="4.83678">
        <ele>267.86450195312</ele>
        <time>2010-08-26T17:08:31Z</time>
      </trkpt>
      <trkpt lat="45.61859" lon="4.83619">
        <ele>268.82580566406</ele>
        <time>2010-08-26T17:08:38Z</time>
      </trkpt>
      <trkpt lat="45.61848" lon="4.83584">
        <ele>268.82580566406</ele>
        <time>2010-08-26T17:08:44Z</time>
      </trkpt>
      <trkpt lat="45.61834" lon="4.8354">
        <ele>269.787109375</ele>
        <time>2010-08-26T17:08:53Z</time>
      </trkpt>
      <trkpt lat="45.6182" lon="4.835">
        <ele>271.22912597656</ele>
        <time>2010-08-26T17:09:02Z</time>
      </trkpt>
      <trkpt lat="45.61807" lon="4.8347">
        <ele>271.70971679688</ele>
        <time>2010-08-26T17:09:10Z</time>
      </trkpt>
      <trkpt lat="45.61805" lon="4.83466">
        <ele>272.1904296875</ele>
        <time>2010-08-26T17:09:11Z</time>
      </trkpt>
      <trkpt lat="45.61792" lon="4.83436">
        <ele>273.63244628906</ele>
        <time>2010-08-26T17:09:19Z</time>
      </trkpt>
      <trkpt lat="45.61786" lon="4.83409">
        <ele>273.63244628906</ele>
        <time>2010-08-26T17:09:26Z</time>
      </trkpt>
      <trkpt lat="45.61782" lon="4.83381">
        <ele>275.55505371094</ele>
        <time>2010-08-26T17:09:33Z</time>
      </trkpt>
      <trkpt lat="45.61778" lon="4.83353">
        <ele>277.47766113281</ele>
        <time>2010-08-26T17:09:40Z</time>
      </trkpt>
      <trkpt lat="45.61777" lon="4.83345">
        <ele>278.43896484375</ele>
        <time>2010-08-26T17:09:42Z</time>
      </trkpt>
      <trkpt lat="45.61771" lon="4.8332">
        <ele>278.91967773438</ele>
        <time>2010-08-26T17:09:48Z</time>
      </trkpt>
      <trkpt lat="45.61766" lon="4.83291">
        <ele>280.36169433594</ele>
        <time>2010-08-26T17:09:55Z</time>
      </trkpt>
      <trkpt lat="45.61756" lon="4.83246">
        <ele>281.80358886719</ele>
        <time>2010-08-26T17:10:05Z</time>
      </trkpt>
      <trkpt lat="45.61748" lon="4.83212">
        <ele>281.32299804688</ele>
        <time>2010-08-26T17:10:13Z</time>
      </trkpt>
      <trkpt lat="45.61737" lon="4.83178">
        <ele>280.36169433594</ele>
        <time>2010-08-26T17:10:21Z</time>
      </trkpt>
      <trkpt lat="45.61724" lon="4.83149">
        <ele>280.36169433594</ele>
        <time>2010-08-26T17:10:28Z</time>
      </trkpt>
      <trkpt lat="45.61704" lon="4.83129">
        <ele>278.91967773438</ele>
        <time>2010-08-26T17:10:35Z</time>
      </trkpt>
      <trkpt lat="45.61682" lon="4.83117">
        <ele>278.43896484375</ele>
        <time>2010-08-26T17:10:41Z</time>
      </trkpt>
      <trkpt lat="45.61651" lon="4.83107">
        <ele>279.40026855469</ele>
        <time>2010-08-26T17:10:49Z</time>
      </trkpt>
      <trkpt lat="45.61623" lon="4.83086">
        <ele>279.40026855469</ele>
        <time>2010-08-26T17:10:57Z</time>
      </trkpt>
      <trkpt lat="45.616" lon="4.83067">
        <ele>280.36169433594</ele>
        <time>2010-08-26T17:11:05Z</time>
      </trkpt>
      <trkpt lat="45.61578" lon="4.83048">
        <ele>281.80358886719</ele>
        <time>2010-08-26T17:11:13Z</time>
      </trkpt>
      <trkpt lat="45.61556" lon="4.83027">
        <ele>281.80358886719</ele>
        <time>2010-08-26T17:11:21Z</time>
      </trkpt>
      <trkpt lat="45.61546" lon="4.83008">
        <ele>282.28430175781</ele>
        <time>2010-08-26T17:11:26Z</time>
      </trkpt>
      <trkpt lat="45.61539" lon="4.82969">
        <ele>280.36169433594</ele>
        <time>2010-08-26T17:11:35Z</time>
      </trkpt>
      <trkpt lat="45.61539" lon="4.82964">
        <ele>280.36169433594</ele>
        <time>2010-08-26T17:11:36Z</time>
      </trkpt>
      <trkpt lat="45.61535" lon="4.82929">
        <ele>280.36169433594</ele>
        <time>2010-08-26T17:11:43Z</time>
      </trkpt>
      <trkpt lat="45.61525" lon="4.82905">
        <ele>280.36169433594</ele>
        <time>2010-08-26T17:11:49Z</time>
      </trkpt>
      <trkpt lat="45.61512" lon="4.82871">
        <ele>281.80358886719</ele>
        <time>2010-08-26T17:11:57Z</time>
      </trkpt>
      <trkpt lat="45.61506" lon="4.82847">
        <ele>281.32299804688</ele>
        <time>2010-08-26T17:12:02Z</time>
      </trkpt>
      <trkpt lat="45.61493" lon="4.82842">
        <ele>280.36169433594</ele>
        <time>2010-08-26T17:12:06Z</time>
      </trkpt>
      <trkpt lat="45.6146" lon="4.82864">
        <ele>280.84240722656</ele>
        <time>2010-08-26T17:12:15Z</time>
      </trkpt>
      <trkpt lat="45.61444" lon="4.82876">
        <ele>278.91967773438</ele>
        <time>2010-08-26T17:12:19Z</time>
      </trkpt>
      <trkpt lat="45.61411" lon="4.82901">
        <ele>278.91967773438</ele>
        <time>2010-08-26T17:12:27Z</time>
      </trkpt>
      <trkpt lat="45.61407" lon="4.82903">
        <ele>278.91967773438</ele>
        <time>2010-08-26T17:12:28Z</time>
      </trkpt>
      <trkpt lat="45.61399" lon="4.82883">
        <ele>279.40026855469</ele>
        <time>2010-08-26T17:12:32Z</time>
      </trkpt>
      <trkpt lat="45.61388" lon="4.82832">
        <ele>277.95825195312</ele>
        <time>2010-08-26T17:12:40Z</time>
      </trkpt>
      <trkpt lat="45.61377" lon="4.82785">
        <ele>276.9970703125</ele>
        <time>2010-08-26T17:12:48Z</time>
      </trkpt>
      <trkpt lat="45.6136" lon="4.82729">
        <ele>276.03564453125</ele>
        <time>2010-08-26T17:12:58Z</time>
      </trkpt>
      <trkpt lat="45.61358" lon="4.82724">
        <ele>276.03564453125</ele>
        <time>2010-08-26T17:12:59Z</time>
      </trkpt>
      <trkpt lat="45.61357" lon="4.82718">
        <ele>276.51635742188</ele>
        <time>2010-08-26T17:13:00Z</time>
      </trkpt>
      <trkpt lat="45.61349" lon="4.82703">
        <ele>276.03564453125</ele>
        <time>2010-08-26T17:13:03Z</time>
      </trkpt>
      <trkpt lat="45.61338" lon="4.82692">
        <ele>277.95825195312</ele>
        <time>2010-08-26T17:13:06Z</time>
      </trkpt>
      <trkpt lat="45.61334" lon="4.82689">
        <ele>277.95825195312</ele>
        <time>2010-08-26T17:13:07Z</time>
      </trkpt>
      <trkpt lat="45.61302" lon="4.82673">
        <ele>276.9970703125</ele>
        <time>2010-08-26T17:13:15Z</time>
      </trkpt>
      <trkpt lat="45.61266" lon="4.82663">
        <ele>278.43896484375</ele>
        <time>2010-08-26T17:13:24Z</time>
      </trkpt>
      <trkpt lat="45.61232" lon="4.82644">
        <ele>277.47766113281</ele>
        <time>2010-08-26T17:13:33Z</time>
      </trkpt>
      <trkpt lat="45.61201" lon="4.82618">
        <ele>275.07446289062</ele>
        <time>2010-08-26T17:13:41Z</time>
      </trkpt>
      <trkpt lat="45.61197" lon="4.82613">
        <ele>275.07446289062</ele>
        <time>2010-08-26T17:13:42Z</time>
      </trkpt>
      <trkpt lat="45.6117" lon="4.82583">
        <ele>273.15185546875</ele>
        <time>2010-08-26T17:13:49Z</time>
      </trkpt>
      <trkpt lat="45.61166" lon="4.82578">
        <ele>273.63244628906</ele>
        <time>2010-08-26T17:13:50Z</time>
      </trkpt>
      <trkpt lat="45.61128" lon="4.82544">
        <ele>272.67114257812</ele>
        <time>2010-08-26T17:13:58Z</time>
      </trkpt>
      <trkpt lat="45.611" lon="4.82522">
        <ele>271.70971679688</ele>
        <time>2010-08-26T17:14:04Z</time>
      </trkpt>
      <trkpt lat="45.61063" lon="4.82488">
        <ele>269.787109375</ele>
        <time>2010-08-26T17:14:12Z</time>
      </trkpt>
      <trkpt lat="45.61036" lon="4.82454">
        <ele>269.30651855469</ele>
        <time>2010-08-26T17:14:19Z</time>
      </trkpt>
      <trkpt lat="45.61007" lon="4.82412">
        <ele>267.38391113281</ele>
        <time>2010-08-26T17:14:27Z</time>
      </trkpt>
      <trkpt lat="45.60992" lon="4.8239">
        <ele>265.46130371094</ele>
        <time>2010-08-26T17:14:32Z</time>
      </trkpt>
      <trkpt lat="45.60987" lon="4.82383">
        <ele>265.46130371094</ele>
        <time>2010-08-26T17:14:35Z</time>
      </trkpt>
      <trkpt lat="45.60991" lon="4.82372">
        <ele>265.94189453125</ele>
        <time>2010-08-26T17:14:40Z</time>
      </trkpt>
      <trkpt lat="45.60993" lon="4.8237">
        <ele>265.94189453125</ele>
        <time>2010-08-26T17:14:41Z</time>
      </trkpt>
      <trkpt lat="45.60996" lon="4.82367">
        <ele>266.90319824219</ele>
        <time>2010-08-26T17:14:42Z</time>
      </trkpt>
      <trkpt lat="45.61001" lon="4.82362">
        <ele>267.38391113281</ele>
        <time>2010-08-26T17:14:44Z</time>
      </trkpt>
      <trkpt lat="45.61021" lon="4.82339">
        <ele>270.74841308594</ele>
        <time>2010-08-26T17:14:52Z</time>
      </trkpt>
      <trkpt lat="45.61036" lon="4.82318">
        <ele>270.74841308594</ele>
        <time>2010-08-26T17:14:58Z</time>
      </trkpt>
      <trkpt lat="45.61053" lon="4.82284">
        <ele>272.1904296875</ele>
        <time>2010-08-26T17:15:06Z</time>
      </trkpt>
      <trkpt lat="45.61068" lon="4.82254">
        <ele>272.1904296875</ele>
        <time>2010-08-26T17:15:13Z</time>
      </trkpt>
      <trkpt lat="45.61087" lon="4.82221">
        <ele>271.22912597656</ele>
        <time>2010-08-26T17:15:20Z</time>
      </trkpt>
      <trkpt lat="45.61092" lon="4.82214">
        <ele>271.22912597656</ele>
        <time>2010-08-26T17:15:22Z</time>
      </trkpt>
      <trkpt lat="45.61095" lon="4.82201">
        <ele>271.22912597656</ele>
        <time>2010-08-26T17:15:27Z</time>
      </trkpt>
      <trkpt lat="45.61097" lon="4.822">
        <ele>271.22912597656</ele>
        <time>2010-08-26T17:15:28Z</time>
      </trkpt>
      <trkpt lat="45.61124" lon="4.82185">
        <ele>270.26770019531</ele>
        <time>2010-08-26T17:15:37Z</time>
      </trkpt>
      <trkpt lat="45.61126" lon="4.82184">
        <ele>270.26770019531</ele>
        <time>2010-08-26T17:15:38Z</time>
      </trkpt>
      <trkpt lat="45.61135" lon="4.82169">
        <ele>267.86450195312</ele>
        <time>2010-08-26T17:15:42Z</time>
      </trkpt>
      <trkpt lat="45.61151" lon="4.82142">
        <ele>264.49987792969</ele>
        <time>2010-08-26T17:15:46Z</time>
      </trkpt>
      <trkpt lat="45.61155" lon="4.82134">
        <ele>263.53857421875</ele>
        <time>2010-08-26T17:15:47Z</time>
      </trkpt>
      <trkpt lat="45.61167" lon="4.82121">
        <ele>261.13525390625</ele>
        <time>2010-08-26T17:15:50Z</time>
      </trkpt>
      <trkpt lat="45.61176" lon="4.82115">
        <ele>260.17395019531</ele>
        <time>2010-08-26T17:15:52Z</time>
      </trkpt>
      <trkpt lat="45.61187" lon="4.82105">
        <ele>259.21264648438</ele>
        <time>2010-08-26T17:15:55Z</time>
      </trkpt>
      <trkpt lat="45.61219" lon="4.82079">
        <ele>258.73193359375</ele>
        <time>2010-08-26T17:16:02Z</time>
      </trkpt>
      <trkpt lat="45.61224" lon="4.82074">
        <ele>258.25134277344</ele>
        <time>2010-08-26T17:16:04Z</time>
      </trkpt>
      <trkpt lat="45.61222" lon="4.82057">
        <ele>258.25134277344</ele>
        <time>2010-08-26T17:16:08Z</time>
      </trkpt>
      <trkpt lat="45.61211" lon="4.82022">
        <ele>257.2900390625</ele>
        <time>2010-08-26T17:16:15Z</time>
      </trkpt>
      <trkpt lat="45.61214" lon="4.82004">
        <ele>258.25134277344</ele>
        <time>2010-08-26T17:16:19Z</time>
      </trkpt>
      <trkpt lat="45.61229" lon="4.81969">
        <ele>256.32873535156</ele>
        <time>2010-08-26T17:16:26Z</time>
      </trkpt>
      <trkpt lat="45.61246" lon="4.81924">
        <ele>255.36730957031</ele>
        <time>2010-08-26T17:16:34Z</time>
      </trkpt>
      <trkpt lat="45.61259" lon="4.81888">
        <ele>254.88659667969</ele>
        <time>2010-08-26T17:16:40Z</time>
      </trkpt>
      <trkpt lat="45.61263" lon="4.81838">
        <ele>252.96398925781</ele>
        <time>2010-08-26T17:16:47Z</time>
      </trkpt>
      <trkpt lat="45.61265" lon="4.8178">
        <ele>252.4833984375</ele>
        <time>2010-08-26T17:16:55Z</time>
      </trkpt>
      <trkpt lat="45.61265" lon="4.81757">
        <ele>252.4833984375</ele>
        <time>2010-08-26T17:16:58Z</time>
      </trkpt>
      <trkpt lat="45.61259" lon="4.81734">
        <ele>252.4833984375</ele>
        <time>2010-08-26T17:17:02Z</time>
      </trkpt>
      <trkpt lat="45.61255" lon="4.81727">
        <ele>252.00280761719</ele>
        <time>2010-08-26T17:17:06Z</time>
      </trkpt>
      <trkpt lat="45.61253" lon="4.81725">
        <ele>252.4833984375</ele>
        <time>2010-08-26T17:17:12Z</time>
      </trkpt>
      <trkpt lat="45.61253" lon="4.81724">
        <ele>252.4833984375</ele>
        <time>2010-08-26T17:17:18Z</time>
      </trkpt>
      <trkpt lat="45.61253" lon="4.81724">
        <ele>252.00280761719</ele>
        <time>2010-08-26T17:17:20Z</time>
      </trkpt>
      <trkpt lat="45.61254" lon="4.81711">
        <ele>252.00280761719</ele>
        <time>2010-08-26T17:17:26Z</time>
      </trkpt>
      <trkpt lat="45.61253" lon="4.81703">
        <ele>251.52209472656</ele>
        <time>2010-08-26T17:17:32Z</time>
      </trkpt>
      <trkpt lat="45.61253" lon="4.81688">
        <ele>251.52209472656</ele>
        <time>2010-08-26T17:17:36Z</time>
      </trkpt>
      <trkpt lat="45.61256" lon="4.81666">
        <ele>248.63818359375</ele>
        <time>2010-08-26T17:17:42Z</time>
      </trkpt>
      <trkpt lat="45.61257" lon="4.81662">
        <ele>248.15759277344</ele>
        <time>2010-08-26T17:17:43Z</time>
      </trkpt>
      <trkpt lat="45.61257" lon="4.81641">
        <ele>249.59948730469</ele>
        <time>2010-08-26T17:17:47Z</time>
      </trkpt>
      <trkpt lat="45.61245" lon="4.81614">
        <ele>248.15759277344</ele>
        <time>2010-08-26T17:17:51Z</time>
      </trkpt>
      <trkpt lat="45.61235" lon="4.81599">
        <ele>248.15759277344</ele>
        <time>2010-08-26T17:17:53Z</time>
      </trkpt>
      <trkpt lat="45.61206" lon="4.81566">
        <ele>247.6767578125</ele>
        <time>2010-08-26T17:17:59Z</time>
      </trkpt>
      <trkpt lat="45.61197" lon="4.81555">
        <ele>246.71545410156</ele>
        <time>2010-08-26T17:18:01Z</time>
      </trkpt>
      <trkpt lat="45.61177" lon="4.8153">
        <ele>245.2734375</ele>
        <time>2010-08-26T17:18:05Z</time>
      </trkpt>
      <trkpt lat="45.61166" lon="4.81521">
        <ele>244.79284667969</ele>
        <time>2010-08-26T17:18:07Z</time>
      </trkpt>
      <trkpt lat="45.61154" lon="4.81513">
        <ele>243.83154296875</ele>
        <time>2010-08-26T17:18:10Z</time>
      </trkpt>
      <trkpt lat="45.61141" lon="4.81493">
        <ele>244.31225585938</ele>
        <time>2010-08-26T17:18:14Z</time>
      </trkpt>
      <trkpt lat="45.61132" lon="4.81463">
        <ele>241.42822265625</ele>
        <time>2010-08-26T17:18:18Z</time>
      </trkpt>
      <trkpt lat="45.61134" lon="4.81447">
        <ele>240.94763183594</ele>
        <time>2010-08-26T17:18:20Z</time>
      </trkpt>
      <trkpt lat="45.61149" lon="4.81416">
        <ele>239.50549316406</ele>
        <time>2010-08-26T17:18:26Z</time>
      </trkpt>
      <trkpt lat="45.61153" lon="4.81407">
        <ele>238.06359863281</ele>
        <time>2010-08-26T17:18:28Z</time>
      </trkpt>
      <trkpt lat="45.61164" lon="4.81409">
        <ele>237.10229492188</ele>
        <time>2010-08-26T17:18:33Z</time>
      </trkpt>
      <trkpt lat="45.61172" lon="4.8142">
        <ele>236.14099121094</ele>
        <time>2010-08-26T17:18:37Z</time>
      </trkpt>
      <trkpt lat="45.61177" lon="4.81422">
        <ele>236.14099121094</ele>
        <time>2010-08-26T17:18:38Z</time>
      </trkpt>
      <trkpt lat="45.612" lon="4.81435">
        <ele>233.73767089844</ele>
        <time>2010-08-26T17:18:42Z</time>
      </trkpt>
      <trkpt lat="45.61213" lon="4.81442">
        <ele>233.25708007812</ele>
        <time>2010-08-26T17:18:44Z</time>
      </trkpt>
      <trkpt lat="45.61226" lon="4.81454">
        <ele>233.25708007812</ele>
        <time>2010-08-26T17:18:48Z</time>
      </trkpt>
      <trkpt lat="45.61238" lon="4.81459">
        <ele>231.81494140625</ele>
        <time>2010-08-26T17:18:52Z</time>
      </trkpt>
      <trkpt lat="45.61242" lon="4.81461">
        <ele>231.33435058594</ele>
        <time>2010-08-26T17:18:53Z</time>
      </trkpt>
      <trkpt lat="45.61252" lon="4.81476">
        <ele>231.81494140625</ele>
        <time>2010-08-26T17:18:58Z</time>
      </trkpt>
      <trkpt lat="45.61261" lon="4.81482">
        <ele>229.89233398438</ele>
        <time>2010-08-26T17:19:01Z</time>
      </trkpt>
      <trkpt lat="45.61264" lon="4.81482">
        <ele>229.41174316406</ele>
        <time>2010-08-26T17:19:05Z</time>
      </trkpt>
      <trkpt lat="45.61264" lon="4.81482">
        <ele>229.41174316406</ele>
        <time>2010-08-26T17:19:06Z</time>
      </trkpt>
      <trkpt lat="45.61258" lon="4.81461">
        <ele>228.45043945312</ele>
        <time>2010-08-26T17:19:11Z</time>
      </trkpt>
      <trkpt lat="45.61253" lon="4.81447">
        <ele>226.52783203125</ele>
        <time>2010-08-26T17:19:13Z</time>
      </trkpt>
      <trkpt lat="45.61235" lon="4.81417">
        <ele>224.60522460938</ele>
        <time>2010-08-26T17:19:18Z</time>
      </trkpt>
      <trkpt lat="45.61228" lon="4.81393">
        <ele>223.16320800781</ele>
        <time>2010-08-26T17:19:21Z</time>
      </trkpt>
      <trkpt lat="45.61229" lon="4.81386">
        <ele>223.16320800781</ele>
        <time>2010-08-26T17:19:22Z</time>
      </trkpt>
      <trkpt lat="45.61232" lon="4.8137">
        <ele>222.68249511719</ele>
        <time>2010-08-26T17:19:24Z</time>
      </trkpt>
      <trkpt lat="45.61231" lon="4.81354">
        <ele>222.20178222656</ele>
        <time>2010-08-26T17:19:26Z</time>
      </trkpt>
      <trkpt lat="45.61223" lon="4.8133">
        <ele>217.39538574219</ele>
        <time>2010-08-26T17:19:29Z</time>
      </trkpt>
      <trkpt lat="45.61209" lon="4.81293">
        <ele>212.58862304688</ele>
        <time>2010-08-26T17:19:33Z</time>
      </trkpt>
      <trkpt lat="45.61203" lon="4.81275">
        <ele>210.666015625</ele>
        <time>2010-08-26T17:19:35Z</time>
      </trkpt>
      <trkpt lat="45.61193" lon="4.81259">
        <ele>208.74340820312</ele>
        <time>2010-08-26T17:19:38Z</time>
      </trkpt>
      <trkpt lat="45.61176" lon="4.8126">
        <ele>208.74340820312</ele>
        <time>2010-08-26T17:19:41Z</time>
      </trkpt>
      <trkpt lat="45.61156" lon="4.81253">
        <ele>208.74340820312</ele>
        <time>2010-08-26T17:19:46Z</time>
      </trkpt>
      <trkpt lat="45.61143" lon="4.81232">
        <ele>208.74340820312</ele>
        <time>2010-08-26T17:19:52Z</time>
      </trkpt>
      <trkpt lat="45.61142" lon="4.81216">
        <ele>207.78210449219</ele>
        <time>2010-08-26T17:19:56Z</time>
      </trkpt>
      <trkpt lat="45.61147" lon="4.812">
        <ele>206.82067871094</ele>
        <time>2010-08-26T17:19:59Z</time>
      </trkpt>
      <trkpt lat="45.61158" lon="4.81167">
        <ele>203.45617675781</ele>
        <time>2010-08-26T17:20:03Z</time>
      </trkpt>
      <trkpt lat="45.61174" lon="4.8113">
        <ele>199.13012695312</ele>
        <time>2010-08-26T17:20:07Z</time>
      </trkpt>
      <trkpt lat="45.61189" lon="4.81103">
        <ele>195.28491210938</ele>
        <time>2010-08-26T17:20:10Z</time>
      </trkpt>
      <trkpt lat="45.61204" lon="4.81074">
        <ele>191.92028808594</ele>
        <time>2010-08-26T17:20:13Z</time>
      </trkpt>
      <trkpt lat="45.61208" lon="4.81065">
        <ele>191.92028808594</ele>
        <time>2010-08-26T17:20:14Z</time>
      </trkpt>
      <trkpt lat="45.61214" lon="4.81046">
        <ele>189.03637695312</ele>
        <time>2010-08-26T17:20:18Z</time>
      </trkpt>
      <trkpt lat="45.61215" lon="4.81045">
        <ele>189.03637695312</ele>
        <time>2010-08-26T17:20:19Z</time>
      </trkpt>
      <trkpt lat="45.61216" lon="4.8104">
        <ele>188.55578613281</ele>
        <time>2010-08-26T17:20:24Z</time>
      </trkpt>
      <trkpt lat="45.61216" lon="4.81038">
        <ele>188.55578613281</ele>
        <time>2010-08-26T17:20:26Z</time>
      </trkpt>
      <trkpt lat="45.61212" lon="4.81031">
        <ele>189.51696777344</ele>
        <time>2010-08-26T17:20:32Z</time>
      </trkpt>
      <trkpt lat="45.61205" lon="4.81024">
        <ele>189.51696777344</ele>
        <time>2010-08-26T17:20:39Z</time>
      </trkpt>
      <trkpt lat="45.61195" lon="4.81007">
        <ele>190.47839355469</ele>
        <time>2010-08-26T17:20:45Z</time>
      </trkpt>
      <trkpt lat="45.61192" lon="4.81004">
        <ele>190.47839355469</ele>
        <time>2010-08-26T17:20:46Z</time>
      </trkpt>
      <trkpt lat="45.61169" lon="4.80993">
        <ele>191.43957519531</ele>
        <time>2010-08-26T17:20:53Z</time>
      </trkpt>
      <trkpt lat="45.61165" lon="4.80991">
        <ele>191.92028808594</ele>
        <time>2010-08-26T17:20:54Z</time>
      </trkpt>
      <trkpt lat="45.6115" lon="4.80999">
        <ele>192.40112304688</ele>
        <time>2010-08-26T17:20:58Z</time>
      </trkpt>
      <trkpt lat="45.61135" lon="4.81004">
        <ele>192.88171386719</ele>
        <time>2010-08-26T17:21:02Z</time>
      </trkpt>
      <trkpt lat="45.61111" lon="4.80999">
        <ele>194.32373046875</ele>
        <time>2010-08-26T17:21:08Z</time>
      </trkpt>
      <trkpt lat="45.6109" lon="4.80981">
        <ele>195.28491210938</ele>
        <time>2010-08-26T17:21:14Z</time>
      </trkpt>
      <trkpt lat="45.61087" lon="4.80977">
        <ele>195.28491210938</ele>
        <time>2010-08-26T17:21:15Z</time>
      </trkpt>
      <trkpt lat="45.61081" lon="4.80968">
        <ele>194.80432128906</ele>
        <time>2010-08-26T17:21:17Z</time>
      </trkpt>
      <trkpt lat="45.61061" lon="4.8093">
        <ele>192.40112304688</ele>
        <time>2010-08-26T17:21:23Z</time>
      </trkpt>
      <trkpt lat="45.61037" lon="4.80884">
        <ele>192.88171386719</ele>
        <time>2010-08-26T17:21:30Z</time>
      </trkpt>
      <trkpt lat="45.61021" lon="4.80854">
        <ele>193.3623046875</ele>
        <time>2010-08-26T17:21:36Z</time>
      </trkpt>
      <trkpt lat="45.61004" lon="4.8082">
        <ele>194.32373046875</ele>
        <time>2010-08-26T17:21:43Z</time>
      </trkpt>
      <trkpt lat="45.60986" lon="4.80794">
        <ele>194.80432128906</ele>
        <time>2010-08-26T17:21:50Z</time>
      </trkpt>
      <trkpt lat="45.60963" lon="4.8076">
        <ele>196.24633789062</ele>
        <time>2010-08-26T17:21:58Z</time>
      </trkpt>
      <trkpt lat="45.60944" lon="4.80731">
        <ele>195.28491210938</ele>
        <time>2010-08-26T17:22:05Z</time>
      </trkpt>
      <trkpt lat="45.60923" lon="4.80691">
        <ele>196.24633789062</ele>
        <time>2010-08-26T17:22:13Z</time>
      </trkpt>
      <trkpt lat="45.60906" lon="4.8066">
        <ele>196.24633789062</ele>
        <time>2010-08-26T17:22:19Z</time>
      </trkpt>
      <trkpt lat="45.60894" lon="4.80635">
        <ele>196.24633789062</ele>
        <time>2010-08-26T17:22:25Z</time>
      </trkpt>
      <trkpt lat="45.60885" lon="4.80625">
        <ele>197.20751953125</ele>
        <time>2010-08-26T17:22:29Z</time>
      </trkpt>
      <trkpt lat="45.60867" lon="4.80608">
        <ele>199.61083984375</ele>
        <time>2010-08-26T17:22:36Z</time>
      </trkpt>
      <trkpt lat="45.60866" lon="4.80605">
        <ele>199.61083984375</ele>
        <time>2010-08-26T17:22:37Z</time>
      </trkpt>
      <trkpt lat="45.60858" lon="4.80585">
        <ele>198.64953613281</ele>
        <time>2010-08-26T17:22:42Z</time>
      </trkpt>
      <trkpt lat="45.60851" lon="4.80568">
        <ele>199.61083984375</ele>
        <time>2010-08-26T17:22:46Z</time>
      </trkpt>
      <trkpt lat="45.60836" lon="4.80534">
        <ele>198.1689453125</ele>
        <time>2010-08-26T17:22:52Z</time>
      </trkpt>
      <trkpt lat="45.6082" lon="4.80507">
        <ele>199.61083984375</ele>
        <time>2010-08-26T17:22:58Z</time>
      </trkpt>
      <trkpt lat="45.60801" lon="4.80478">
        <ele>199.13012695312</ele>
        <time>2010-08-26T17:23:05Z</time>
      </trkpt>
      <trkpt lat="45.60799" lon="4.80473">
        <ele>198.64953613281</ele>
        <time>2010-08-26T17:23:06Z</time>
      </trkpt>
      <trkpt lat="45.60775" lon="4.80432">
        <ele>197.68823242188</ele>
        <time>2010-08-26T17:23:14Z</time>
      </trkpt>
      <trkpt lat="45.60757" lon="4.80409">
        <ele>197.68823242188</ele>
        <time>2010-08-26T17:23:19Z</time>
      </trkpt>
      <trkpt lat="45.60739" lon="4.80388">
        <ele>197.68823242188</ele>
        <time>2010-08-26T17:23:25Z</time>
      </trkpt>
      <trkpt lat="45.60727" lon="4.80369">
        <ele>196.72692871094</ele>
        <time>2010-08-26T17:23:29Z</time>
      </trkpt>
      <trkpt lat="45.60703" lon="4.80337">
        <ele>194.80432128906</ele>
        <time>2010-08-26T17:23:35Z</time>
      </trkpt>
      <trkpt lat="45.60687" lon="4.80318">
        <ele>196.72692871094</ele>
        <time>2010-08-26T17:23:40Z</time>
      </trkpt>
      <trkpt lat="45.6066" lon="4.80291">
        <ele>198.1689453125</ele>
        <time>2010-08-26T17:23:48Z</time>
      </trkpt>
      <trkpt lat="45.60634" lon="4.80262">
        <ele>200.572265625</ele>
        <time>2010-08-26T17:23:56Z</time>
      </trkpt>
      <trkpt lat="45.60609" lon="4.80233">
        <ele>202.01428222656</ele>
        <time>2010-08-26T17:24:04Z</time>
      </trkpt>
      <trkpt lat="45.60593" lon="4.80216">
        <ele>200.09167480469</ele>
        <time>2010-08-26T17:24:08Z</time>
      </trkpt>
      <trkpt lat="45.60573" lon="4.80194">
        <ele>199.13012695312</ele>
        <time>2010-08-26T17:24:13Z</time>
      </trkpt>
      <trkpt lat="45.60559" lon="4.80176">
        <ele>202.01428222656</ele>
        <time>2010-08-26T17:24:18Z</time>
      </trkpt>
      <trkpt lat="45.60541" lon="4.80159">
        <ele>203.93688964844</ele>
        <time>2010-08-26T17:24:25Z</time>
      </trkpt>
      <trkpt lat="45.6053" lon="4.80143">
        <ele>204.89807128906</ele>
        <time>2010-08-26T17:24:31Z</time>
      </trkpt>
      <trkpt lat="45.60519" lon="4.80124">
        <ele>204.41748046875</ele>
        <time>2010-08-26T17:24:36Z</time>
      </trkpt>
      <trkpt lat="45.60514" lon="4.80114">
        <ele>203.45617675781</ele>
        <time>2010-08-26T17:24:38Z</time>
      </trkpt>
      <trkpt lat="45.60491" lon="4.80079">
        <ele>200.09167480469</ele>
        <time>2010-08-26T17:24:44Z</time>
      </trkpt>
      <trkpt lat="45.60487" lon="4.80073">
        <ele>199.61083984375</ele>
        <time>2010-08-26T17:24:45Z</time>
      </trkpt>
      <trkpt lat="45.60468" lon="4.80045">
        <ele>198.64953613281</ele>
        <time>2010-08-26T17:24:49Z</time>
      </trkpt>
      <trkpt lat="45.60447" lon="4.80009">
        <ele>196.24633789062</ele>
        <time>2010-08-26T17:24:54Z</time>
      </trkpt>
      <trkpt lat="45.6044" lon="4.7999">
        <ele>192.40112304688</ele>
        <time>2010-08-26T17:24:57Z</time>
      </trkpt>
      <trkpt lat="45.60429" lon="4.79977">
        <ele>189.03637695312</ele>
        <time>2010-08-26T17:25:00Z</time>
      </trkpt>
      <trkpt lat="45.60424" lon="4.79972">
        <ele>188.55578613281</ele>
        <time>2010-08-26T17:25:01Z</time>
      </trkpt>
      <trkpt lat="45.60414" lon="4.79958">
        <ele>187.59436035156</ele>
        <time>2010-08-26T17:25:03Z</time>
      </trkpt>
      <trkpt lat="45.604" lon="4.79943">
        <ele>188.07507324219</ele>
        <time>2010-08-26T17:25:06Z</time>
      </trkpt>
      <trkpt lat="45.6039" lon="4.79935">
        <ele>188.07507324219</ele>
        <time>2010-08-26T17:25:08Z</time>
      </trkpt>
      <trkpt lat="45.60362" lon="4.79909">
        <ele>189.51696777344</ele>
        <time>2010-08-26T17:25:14Z</time>
      </trkpt>
      <trkpt lat="45.60343" lon="4.79896">
        <ele>189.99768066406</ele>
        <time>2010-08-26T17:25:19Z</time>
      </trkpt>
      <trkpt lat="45.60321" lon="4.79876">
        <ele>190.958984375</ele>
        <time>2010-08-26T17:25:26Z</time>
      </trkpt>
      <trkpt lat="45.60313" lon="4.7987">
        <ele>189.99768066406</ele>
        <time>2010-08-26T17:25:28Z</time>
      </trkpt>
      <trkpt lat="45.60304" lon="4.79865">
        <ele>189.03637695312</ele>
        <time>2010-08-26T17:25:30Z</time>
      </trkpt>
      <trkpt lat="45.60299" lon="4.79863">
        <ele>189.03637695312</ele>
        <time>2010-08-26T17:25:31Z</time>
      </trkpt>
      <trkpt lat="45.60282" lon="4.79867">
        <ele>189.99768066406</ele>
        <time>2010-08-26T17:25:35Z</time>
      </trkpt>
      <trkpt lat="45.60265" lon="4.79875">
        <ele>192.40112304688</ele>
        <time>2010-08-26T17:25:41Z</time>
      </trkpt>
      <trkpt lat="45.60249" lon="4.79878">
        <ele>192.88171386719</ele>
        <time>2010-08-26T17:25:46Z</time>
      </trkpt>
      <trkpt lat="45.60234" lon="4.79871">
        <ele>194.80432128906</ele>
        <time>2010-08-26T17:25:51Z</time>
      </trkpt>
      <trkpt lat="45.60218" lon="4.79854">
        <ele>194.80432128906</ele>
        <time>2010-08-26T17:25:57Z</time>
      </trkpt>
      <trkpt lat="45.60209" lon="4.79836">
        <ele>193.3623046875</ele>
        <time>2010-08-26T17:26:01Z</time>
      </trkpt>
      <trkpt lat="45.60194" lon="4.79819">
        <ele>191.92028808594</ele>
        <time>2010-08-26T17:26:05Z</time>
      </trkpt>
      <trkpt lat="45.60161" lon="4.79792">
        <ele>189.03637695312</ele>
        <time>2010-08-26T17:26:11Z</time>
      </trkpt>
      <trkpt lat="45.60119" lon="4.79763">
        <ele>187.59436035156</ele>
        <time>2010-08-26T17:26:18Z</time>
      </trkpt>
      <trkpt lat="45.60099" lon="4.79753">
        <ele>188.55578613281</ele>
        <time>2010-08-26T17:26:23Z</time>
      </trkpt>
      <trkpt lat="45.60087" lon="4.79745">
        <ele>187.11376953125</ele>
        <time>2010-08-26T17:26:28Z</time>
      </trkpt>
      <trkpt lat="45.60081" lon="4.79732">
        <ele>186.15246582031</ele>
        <time>2010-08-26T17:26:31Z</time>
      </trkpt>
      <trkpt lat="45.60064" lon="4.79703">
        <ele>186.15246582031</ele>
        <time>2010-08-26T17:26:37Z</time>
      </trkpt>
      <trkpt lat="45.60047" lon="4.79691">
        <ele>185.19116210938</ele>
        <time>2010-08-26T17:26:42Z</time>
      </trkpt>
      <trkpt lat="45.60023" lon="4.79672">
        <ele>185.19116210938</ele>
        <time>2010-08-26T17:26:47Z</time>
      </trkpt>
      <trkpt lat="45.59986" lon="4.7964">
        <ele>182.78784179688</ele>
        <time>2010-08-26T17:26:53Z</time>
      </trkpt>
      <trkpt lat="45.59941" lon="4.79602">
        <ele>181.34582519531</ele>
        <time>2010-08-26T17:27:00Z</time>
      </trkpt>
      <trkpt lat="45.59919" lon="4.79587">
        <ele>181.34582519531</ele>
        <time>2010-08-26T17:27:04Z</time>
      </trkpt>
      <trkpt lat="45.59885" lon="4.79556">
        <ele>181.82641601562</ele>
        <time>2010-08-26T17:27:11Z</time>
      </trkpt>
      <trkpt lat="45.59844" lon="4.79523">
        <ele>183.26843261719</ele>
        <time>2010-08-26T17:27:21Z</time>
      </trkpt>
      <trkpt lat="45.59816" lon="4.795">
        <ele>184.22985839844</ele>
        <time>2010-08-26T17:27:29Z</time>
      </trkpt>
      <trkpt lat="45.59801" lon="4.79487">
        <ele>184.22985839844</ele>
        <time>2010-08-26T17:27:34Z</time>
      </trkpt>
      <trkpt lat="45.59802" lon="4.79463">
        <ele>183.26843261719</ele>
        <time>2010-08-26T17:27:38Z</time>
      </trkpt>
      <trkpt lat="45.5982" lon="4.79423">
        <ele>181.82641601562</ele>
        <time>2010-08-26T17:27:45Z</time>
      </trkpt>
      <trkpt lat="45.59822" lon="4.79419">
        <ele>181.82641601562</ele>
        <time>2010-08-26T17:27:46Z</time>
      </trkpt>
      <trkpt lat="45.59827" lon="4.79413">
        <ele>180.865234375</ele>
        <time>2010-08-26T17:27:48Z</time>
      </trkpt>
      <trkpt lat="45.59828" lon="4.79399">
        <ele>179.90380859375</ele>
        <time>2010-08-26T17:27:51Z</time>
      </trkpt>
      <trkpt lat="45.59813" lon="4.7938">
        <ele>180.865234375</ele>
        <time>2010-08-26T17:27:55Z</time>
      </trkpt>
      <trkpt lat="45.59812" lon="4.79365">
        <ele>178.94262695312</ele>
        <time>2010-08-26T17:27:57Z</time>
      </trkpt>
      <trkpt lat="45.59818" lon="4.79342">
        <ele>175.57788085938</ele>
        <time>2010-08-26T17:28:00Z</time>
      </trkpt>
      <trkpt lat="45.59834" lon="4.79312">
        <ele>171.73266601562</ele>
        <time>2010-08-26T17:28:05Z</time>
      </trkpt>
      <trkpt lat="45.59827" lon="4.79296">
        <ele>171.25207519531</ele>
        <time>2010-08-26T17:28:10Z</time>
      </trkpt>
      <trkpt lat="45.59819" lon="4.79281">
        <ele>171.73266601562</ele>
        <time>2010-08-26T17:28:13Z</time>
      </trkpt>
      <trkpt lat="45.59815" lon="4.79277">
        <ele>172.69396972656</ele>
        <time>2010-08-26T17:28:14Z</time>
      </trkpt>
      <trkpt lat="45.59764" lon="4.79239">
        <ele>171.25207519531</ele>
        <time>2010-08-26T17:28:25Z</time>
      </trkpt>
      <trkpt lat="45.59718" lon="4.79207">
        <ele>170.77136230469</ele>
        <time>2010-08-26T17:28:34Z</time>
      </trkpt>
      <trkpt lat="45.59673" lon="4.79178">
        <ele>172.21325683594</ele>
        <time>2010-08-26T17:28:43Z</time>
      </trkpt>
      <trkpt lat="45.59638" lon="4.79161">
        <ele>171.25207519531</ele>
        <time>2010-08-26T17:28:50Z</time>
      </trkpt>
      <trkpt lat="45.59628" lon="4.79155">
        <ele>172.69396972656</ele>
        <time>2010-08-26T17:28:52Z</time>
      </trkpt>
      <trkpt lat="45.59586" lon="4.79132">
        <ele>171.25207519531</ele>
        <time>2010-08-26T17:29:01Z</time>
      </trkpt>
      <trkpt lat="45.5954" lon="4.79104">
        <ele>169.81005859375</ele>
        <time>2010-08-26T17:29:11Z</time>
      </trkpt>
      <trkpt lat="45.59512" lon="4.79088">
        <ele>169.32946777344</ele>
        <time>2010-08-26T17:29:17Z</time>
      </trkpt>
      <trkpt lat="45.59497" lon="4.79071">
        <ele>169.32946777344</ele>
        <time>2010-08-26T17:29:21Z</time>
      </trkpt>
      <trkpt lat="45.59496" lon="4.79066">
        <ele>167.40673828125</ele>
        <time>2010-08-26T17:29:22Z</time>
      </trkpt>
      <trkpt lat="45.59495" lon="4.79058">
        <ele>167.40673828125</ele>
        <time>2010-08-26T17:29:24Z</time>
      </trkpt>
      <trkpt lat="45.59484" lon="4.79047">
        <ele>168.84875488281</ele>
        <time>2010-08-26T17:29:29Z</time>
      </trkpt>
      <trkpt lat="45.59481" lon="4.79042">
        <ele>168.36804199219</ele>
        <time>2010-08-26T17:29:30Z</time>
      </trkpt>
      <trkpt lat="45.59462" lon="4.78998">
        <ele>168.84875488281</ele>
        <time>2010-08-26T17:29:39Z</time>
      </trkpt>
      <trkpt lat="45.59441" lon="4.78952">
        <ele>169.32946777344</ele>
        <time>2010-08-26T17:29:49Z</time>
      </trkpt>
      <trkpt lat="45.59417" lon="4.78904">
        <ele>170.29064941406</ele>
        <time>2010-08-26T17:29:59Z</time>
      </trkpt>
      <trkpt lat="45.59414" lon="4.78899">
        <ele>170.29064941406</ele>
        <time>2010-08-26T17:30:00Z</time>
      </trkpt>
      <trkpt lat="45.59396" lon="4.78877">
        <ele>169.32946777344</ele>
        <time>2010-08-26T17:30:06Z</time>
      </trkpt>
      <trkpt lat="45.59375" lon="4.7884">
        <ele>168.84875488281</ele>
        <time>2010-08-26T17:30:14Z</time>
      </trkpt>
      <trkpt lat="45.59356" lon="4.788">
        <ele>169.32946777344</ele>
        <time>2010-08-26T17:30:22Z</time>
      </trkpt>
      <trkpt lat="45.59332" lon="4.78751">
        <ele>169.81005859375</ele>
        <time>2010-08-26T17:30:32Z</time>
      </trkpt>
      <trkpt lat="45.59305" lon="4.78698">
        <ele>170.29064941406</ele>
        <time>2010-08-26T17:30:43Z</time>
      </trkpt>
      <trkpt lat="45.59288" lon="4.78665">
        <ele>169.32946777344</ele>
        <time>2010-08-26T17:30:50Z</time>
      </trkpt>
      <trkpt lat="45.59281" lon="4.7865">
        <ele>167.88732910156</ele>
        <time>2010-08-26T17:30:53Z</time>
      </trkpt>
      <trkpt lat="45.5926" lon="4.78608">
        <ele>167.88732910156</ele>
        <time>2010-08-26T17:31:02Z</time>
      </trkpt>
      <trkpt lat="45.59242" lon="4.78579">
        <ele>166.92602539062</ele>
        <time>2010-08-26T17:31:09Z</time>
      </trkpt>
      <trkpt lat="45.59223" lon="4.78542">
        <ele>167.40673828125</ele>
        <time>2010-08-26T17:31:17Z</time>
      </trkpt>
      <trkpt lat="45.59219" lon="4.78525">
        <ele>167.40673828125</ele>
        <time>2010-08-26T17:31:20Z</time>
      </trkpt>
      <trkpt lat="45.59211" lon="4.78494">
        <ele>169.32946777344</ele>
        <time>2010-08-26T17:31:25Z</time>
      </trkpt>
      <trkpt lat="45.59196" lon="4.78453">
        <ele>168.36804199219</ele>
        <time>2010-08-26T17:31:33Z</time>
      </trkpt>
      <trkpt lat="45.5918" lon="4.78418">
        <ele>167.88732910156</ele>
        <time>2010-08-26T17:31:40Z</time>
      </trkpt>
      <trkpt lat="45.59166" lon="4.78382">
        <ele>167.88732910156</ele>
        <time>2010-08-26T17:31:47Z</time>
      </trkpt>
      <trkpt lat="45.59145" lon="4.78324">
        <ele>169.81005859375</ele>
        <time>2010-08-26T17:31:58Z</time>
      </trkpt>
      <trkpt lat="45.59127" lon="4.78277">
        <ele>170.77136230469</ele>
        <time>2010-08-26T17:32:07Z</time>
      </trkpt>
      <trkpt lat="45.59121" lon="4.78264">
        <ele>167.40673828125</ele>
        <time>2010-08-26T17:32:09Z</time>
      </trkpt>
      <trkpt lat="45.59116" lon="4.78248">
        <ele>165.00341796875</ele>
        <time>2010-08-26T17:32:11Z</time>
      </trkpt>
      <trkpt lat="45.59094" lon="4.78194">
        <ele>164.52270507812</ele>
        <time>2010-08-26T17:32:19Z</time>
      </trkpt>
      <trkpt lat="45.5907" lon="4.78148">
        <ele>165.00341796875</ele>
        <time>2010-08-26T17:32:27Z</time>
      </trkpt>
      <trkpt lat="45.59045" lon="4.78106">
        <ele>165.00341796875</ele>
        <time>2010-08-26T17:32:35Z</time>
      </trkpt>
      <trkpt lat="45.59019" lon="4.78066">
        <ele>163.5615234375</ele>
        <time>2010-08-26T17:32:43Z</time>
      </trkpt>
      <trkpt lat="45.58995" lon="4.78026">
        <ele>166.4453125</ele>
        <time>2010-08-26T17:32:51Z</time>
      </trkpt>
      <trkpt lat="45.58977" lon="4.77995">
        <ele>164.52270507812</ele>
        <time>2010-08-26T17:32:57Z</time>
      </trkpt>
      <trkpt lat="45.58952" lon="4.77954">
        <ele>165.00341796875</ele>
        <time>2010-08-26T17:33:05Z</time>
      </trkpt>
      <trkpt lat="45.58928" lon="4.77917">
        <ele>165.00341796875</ele>
        <time>2010-08-26T17:33:13Z</time>
      </trkpt>
      <trkpt lat="45.58918" lon="4.77904">
        <ele>164.04211425781</ele>
        <time>2010-08-26T17:33:16Z</time>
      </trkpt>
      <trkpt lat="45.58902" lon="4.77894">
        <ele>163.5615234375</ele>
        <time>2010-08-26T17:33:20Z</time>
      </trkpt>
      <trkpt lat="45.58875" lon="4.7788">
        <ele>163.5615234375</ele>
        <time>2010-08-26T17:33:26Z</time>
      </trkpt>
      <trkpt lat="45.58871" lon="4.77878">
        <ele>163.5615234375</ele>
        <time>2010-08-26T17:33:27Z</time>
      </trkpt>
      <trkpt lat="45.58838" lon="4.7787">
        <ele>164.52270507812</ele>
        <time>2010-08-26T17:33:35Z</time>
      </trkpt>
      <trkpt lat="45.58807" lon="4.77867">
        <ele>163.5615234375</ele>
        <time>2010-08-26T17:33:42Z</time>
      </trkpt>
      <trkpt lat="45.58773" lon="4.77863">
        <ele>164.04211425781</ele>
        <time>2010-08-26T17:33:50Z</time>
      </trkpt>
      <trkpt lat="45.58738" lon="4.77858">
        <ele>163.5615234375</ele>
        <time>2010-08-26T17:33:58Z</time>
      </trkpt>
      <trkpt lat="45.58708" lon="4.77856">
        <ele>163.5615234375</ele>
        <time>2010-08-26T17:34:05Z</time>
      </trkpt>
      <trkpt lat="45.58673" lon="4.77854">
        <ele>164.04211425781</ele>
        <time>2010-08-26T17:34:13Z</time>
      </trkpt>
      <trkpt lat="45.58634" lon="4.77856">
        <ele>164.04211425781</ele>
        <time>2010-08-26T17:34:22Z</time>
      </trkpt>
      <trkpt lat="45.58595" lon="4.77859">
        <ele>164.52270507812</ele>
        <time>2010-08-26T17:34:31Z</time>
      </trkpt>
      <trkpt lat="45.58544" lon="4.7787">
        <ele>163.5615234375</ele>
        <time>2010-08-26T17:34:43Z</time>
      </trkpt>
      <trkpt lat="45.58536" lon="4.77872">
        <ele>163.5615234375</ele>
        <time>2010-08-26T17:34:45Z</time>
      </trkpt>
      <trkpt lat="45.58495" lon="4.77885">
        <ele>163.08081054688</ele>
        <time>2010-08-26T17:34:55Z</time>
      </trkpt>
      <trkpt lat="45.58462" lon="4.779">
        <ele>163.08081054688</ele>
        <time>2010-08-26T17:35:03Z</time>
      </trkpt>
      <trkpt lat="45.58426" lon="4.7792">
        <ele>163.08081054688</ele>
        <time>2010-08-26T17:35:12Z</time>
      </trkpt>
      <trkpt lat="45.58391" lon="4.77944">
        <ele>163.08081054688</ele>
        <time>2010-08-26T17:35:21Z</time>
      </trkpt>
      <trkpt lat="45.58356" lon="4.77969">
        <ele>163.08081054688</ele>
        <time>2010-08-26T17:35:30Z</time>
      </trkpt>
      <trkpt lat="45.58329" lon="4.77991">
        <ele>161.63891601562</ele>
        <time>2010-08-26T17:35:37Z</time>
      </trkpt>
      <trkpt lat="45.58295" lon="4.78023">
        <ele>162.11950683594</ele>
        <time>2010-08-26T17:35:46Z</time>
      </trkpt>
      <trkpt lat="45.58263" lon="4.78055">
        <ele>162.11950683594</ele>
        <time>2010-08-26T17:35:55Z</time>
      </trkpt>
      <trkpt lat="45.58241" lon="4.78074">
        <ele>163.08081054688</ele>
        <time>2010-08-26T17:36:02Z</time>
      </trkpt>
      <trkpt lat="45.58223" lon="4.78082">
        <ele>162.11950683594</ele>
        <time>2010-08-26T17:36:08Z</time>
      </trkpt>
      <trkpt lat="45.58218" lon="4.78088">
        <ele>161.63891601562</ele>
        <time>2010-08-26T17:36:10Z</time>
      </trkpt>
      <trkpt lat="45.58212" lon="4.78108">
        <ele>162.11950683594</ele>
        <time>2010-08-26T17:36:15Z</time>
      </trkpt>
      <trkpt lat="45.58215" lon="4.78121">
        <ele>163.08081054688</ele>
        <time>2010-08-26T17:36:19Z</time>
      </trkpt>
      <trkpt lat="45.58227" lon="4.78134">
        <ele>163.5615234375</ele>
        <time>2010-08-26T17:36:25Z</time>
      </trkpt>
      <trkpt lat="45.58243" lon="4.78146">
        <ele>163.08081054688</ele>
        <time>2010-08-26T17:36:31Z</time>
      </trkpt>
      <trkpt lat="45.58262" lon="4.7816">
        <ele>163.08081054688</ele>
        <time>2010-08-26T17:36:38Z</time>
      </trkpt>
      <trkpt lat="45.58278" lon="4.78174">
        <ele>165.00341796875</ele>
        <time>2010-08-26T17:36:45Z</time>
      </trkpt>
      <trkpt lat="45.58279" lon="4.78167">
        <ele>165.48413085938</ele>
        <time>2010-08-26T17:36:49Z</time>
      </trkpt>
      <trkpt lat="45.58268" lon="4.78153">
        <ele>165.00341796875</ele>
        <time>2010-08-26T17:36:56Z</time>
      </trkpt>
      <trkpt lat="45.58255" lon="4.78136">
        <ele>165.96472167969</ele>
        <time>2010-08-26T17:37:02Z</time>
      </trkpt>
      <trkpt lat="45.58236" lon="4.78107">
        <ele>165.96472167969</ele>
        <time>2010-08-26T17:37:11Z</time>
      </trkpt>
      <trkpt lat="45.58219" lon="4.78084">
        <ele>167.40673828125</ele>
        <time>2010-08-26T17:37:18Z</time>
      </trkpt>
      <trkpt lat="45.58205" lon="4.78064">
        <ele>169.32946777344</ele>
        <time>2010-08-26T17:37:24Z</time>
      </trkpt>
      <trkpt lat="45.58189" lon="4.78041">
        <ele>171.25207519531</ele>
        <time>2010-08-26T17:37:30Z</time>
      </trkpt>
      <trkpt lat="45.58171" lon="4.78017">
        <ele>170.29064941406</ele>
        <time>2010-08-26T17:37:36Z</time>
      </trkpt>
      <trkpt lat="45.58147" lon="4.77982">
        <ele>170.77136230469</ele>
        <time>2010-08-26T17:37:46Z</time>
      </trkpt>
      <trkpt lat="45.58128" lon="4.77955">
        <ele>170.29064941406</ele>
        <time>2010-08-26T17:37:53Z</time>
      </trkpt>
      <trkpt lat="45.58111" lon="4.77932">
        <ele>168.84875488281</ele>
        <time>2010-08-26T17:37:58Z</time>
      </trkpt>
      <trkpt lat="45.58085" lon="4.77895">
        <ele>168.36804199219</ele>
        <time>2010-08-26T17:38:06Z</time>
      </trkpt>
      <trkpt lat="45.58078" lon="4.77884">
        <ele>167.88732910156</ele>
        <time>2010-08-26T17:38:09Z</time>
      </trkpt>
      <trkpt lat="45.58082" lon="4.77865">
        <ele>166.92602539062</ele>
        <time>2010-08-26T17:38:13Z</time>
      </trkpt>
      <trkpt lat="45.58114" lon="4.77836">
        <ele>165.96472167969</ele>
        <time>2010-08-26T17:38:20Z</time>
      </trkpt>
      <trkpt lat="45.58154" lon="4.77808">
        <ele>165.00341796875</ele>
        <time>2010-08-26T17:38:27Z</time>
      </trkpt>
      <trkpt lat="45.58183" lon="4.77787">
        <ele>164.04211425781</ele>
        <time>2010-08-26T17:38:32Z</time>
      </trkpt>
      <trkpt lat="45.58213" lon="4.77765">
        <ele>164.04211425781</ele>
        <time>2010-08-26T17:38:38Z</time>
      </trkpt>
      <trkpt lat="45.58232" lon="4.77751">
        <ele>164.52270507812</ele>
        <time>2010-08-26T17:38:42Z</time>
      </trkpt>
      <trkpt lat="45.58241" lon="4.77744">
        <ele>163.5615234375</ele>
        <time>2010-08-26T17:38:44Z</time>
      </trkpt>
      <trkpt lat="45.58277" lon="4.7772">
        <ele>164.04211425781</ele>
        <time>2010-08-26T17:38:52Z</time>
      </trkpt>
      <trkpt lat="45.58318" lon="4.77699">
        <ele>165.00341796875</ele>
        <time>2010-08-26T17:39:01Z</time>
      </trkpt>
      <trkpt lat="45.58366" lon="4.77679">
        <ele>164.52270507812</ele>
        <time>2010-08-26T17:39:11Z</time>
      </trkpt>
      <trkpt lat="45.58406" lon="4.77661">
        <ele>165.00341796875</ele>
        <time>2010-08-26T17:39:19Z</time>
      </trkpt>
      <trkpt lat="45.58455" lon="4.77615">
        <ele>164.52270507812</ele>
        <time>2010-08-26T17:39:30Z</time>
      </trkpt>
      <trkpt lat="45.58495" lon="4.77571">
        <ele>164.04211425781</ele>
        <time>2010-08-26T17:39:40Z</time>
      </trkpt>
      <trkpt lat="45.58525" lon="4.77537">
        <ele>164.04211425781</ele>
        <time>2010-08-26T17:39:48Z</time>
      </trkpt>
      <trkpt lat="45.58556" lon="4.775">
        <ele>164.04211425781</ele>
        <time>2010-08-26T17:39:57Z</time>
      </trkpt>
      <trkpt lat="45.58575" lon="4.77478">
        <ele>163.5615234375</ele>
        <time>2010-08-26T17:40:03Z</time>
      </trkpt>
      <trkpt lat="45.58593" lon="4.77459">
        <ele>163.5615234375</ele>
        <time>2010-08-26T17:40:08Z</time>
      </trkpt>
      <trkpt lat="45.5861" lon="4.77456">
        <ele>163.5615234375</ele>
        <time>2010-08-26T17:40:12Z</time>
      </trkpt>
      <trkpt lat="45.58628" lon="4.77449">
        <ele>164.52270507812</ele>
        <time>2010-08-26T17:40:16Z</time>
      </trkpt>
      <trkpt lat="45.58647" lon="4.77432">
        <ele>164.52270507812</ele>
        <time>2010-08-26T17:40:21Z</time>
      </trkpt>
      <trkpt lat="45.58662" lon="4.77431">
        <ele>164.52270507812</ele>
        <time>2010-08-26T17:40:25Z</time>
      </trkpt>
      <trkpt lat="45.58679" lon="4.77437">
        <ele>165.00341796875</ele>
        <time>2010-08-26T17:40:30Z</time>
      </trkpt>
      <trkpt lat="45.58703" lon="4.77445">
        <ele>165.00341796875</ele>
        <time>2010-08-26T17:40:36Z</time>
      </trkpt>
      <trkpt lat="45.58712" lon="4.77466">
        <ele>165.00341796875</ele>
        <time>2010-08-26T17:40:40Z</time>
      </trkpt>
      <trkpt lat="45.58717" lon="4.7748">
        <ele>163.5615234375</ele>
        <time>2010-08-26T17:40:42Z</time>
      </trkpt>
      <trkpt lat="45.58726" lon="4.77492">
        <ele>162.11950683594</ele>
        <time>2010-08-26T17:40:44Z</time>
      </trkpt>
      <trkpt lat="45.58732" lon="4.77496">
        <ele>162.60009765625</ele>
        <time>2010-08-26T17:40:45Z</time>
      </trkpt>
      <trkpt lat="45.58746" lon="4.77503">
        <ele>160.67749023438</ele>
        <time>2010-08-26T17:40:47Z</time>
      </trkpt>
      <trkpt lat="45.58794" lon="4.77521">
        <ele>161.158203125</ele>
        <time>2010-08-26T17:40:55Z</time>
      </trkpt>
      <trkpt lat="45.58831" lon="4.77535">
        <ele>161.63891601562</ele>
        <time>2010-08-26T17:41:02Z</time>
      </trkpt>
      <trkpt lat="45.58878" lon="4.77553">
        <ele>161.158203125</ele>
        <time>2010-08-26T17:41:12Z</time>
      </trkpt>
      <trkpt lat="45.5892" lon="4.77569">
        <ele>161.63891601562</ele>
        <time>2010-08-26T17:41:21Z</time>
      </trkpt>
      <trkpt lat="45.5896" lon="4.77585">
        <ele>161.158203125</ele>
        <time>2010-08-26T17:41:30Z</time>
      </trkpt>
      <trkpt lat="45.58973" lon="4.77591">
        <ele>162.60009765625</ele>
        <time>2010-08-26T17:41:34Z</time>
      </trkpt>
      <trkpt lat="45.58985" lon="4.776">
        <ele>163.08081054688</ele>
        <time>2010-08-26T17:41:36Z</time>
      </trkpt>
      <trkpt lat="45.59" lon="4.77594">
        <ele>164.52270507812</ele>
        <time>2010-08-26T17:41:40Z</time>
      </trkpt>
      <trkpt lat="45.59002" lon="4.7759">
        <ele>164.52270507812</ele>
        <time>2010-08-26T17:41:41Z</time>
      </trkpt>
      <trkpt lat="45.59013" lon="4.77565">
        <ele>165.48413085938</ele>
        <time>2010-08-26T17:41:47Z</time>
      </trkpt>
      <trkpt lat="45.5902" lon="4.77536">
        <ele>166.4453125</ele>
        <time>2010-08-26T17:41:52Z</time>
      </trkpt>
      <trkpt lat="45.59026" lon="4.77509">
        <ele>166.4453125</ele>
        <time>2010-08-26T17:41:56Z</time>
      </trkpt>
      <trkpt lat="45.5903" lon="4.77497">
        <ele>165.96472167969</ele>
        <time>2010-08-26T17:41:58Z</time>
      </trkpt>
      <trkpt lat="45.59048" lon="4.77471">
        <ele>166.4453125</ele>
        <time>2010-08-26T17:42:03Z</time>
      </trkpt>
      <trkpt lat="45.59068" lon="4.77451">
        <ele>166.4453125</ele>
        <time>2010-08-26T17:42:08Z</time>
      </trkpt>
      <trkpt lat="45.59077" lon="4.77439">
        <ele>166.4453125</ele>
        <time>2010-08-26T17:42:11Z</time>
      </trkpt>
      <trkpt lat="45.59092" lon="4.77413">
        <ele>166.92602539062</ele>
        <time>2010-08-26T17:42:17Z</time>
      </trkpt>
      <trkpt lat="45.59092" lon="4.77396">
        <ele>165.48413085938</ele>
        <time>2010-08-26T17:42:20Z</time>
      </trkpt>
      <trkpt lat="45.5909" lon="4.77379">
        <ele>165.00341796875</ele>
        <time>2010-08-26T17:42:23Z</time>
      </trkpt>
      <trkpt lat="45.59088" lon="4.77339">
        <ele>164.52270507812</ele>
        <time>2010-08-26T17:42:30Z</time>
      </trkpt>
      <trkpt lat="45.59089" lon="4.77326">
        <ele>164.52270507812</ele>
        <time>2010-08-26T17:42:33Z</time>
      </trkpt>
      <trkpt lat="45.59103" lon="4.77317">
        <ele>165.48413085938</ele>
        <time>2010-08-26T17:42:39Z</time>
      </trkpt>
      <trkpt lat="45.59132" lon="4.77311">
        <ele>165.00341796875</ele>
        <time>2010-08-26T17:42:47Z</time>
      </trkpt>
      <trkpt lat="45.5916" lon="4.77301">
        <ele>166.4453125</ele>
        <time>2010-08-26T17:42:54Z</time>
      </trkpt>
      <trkpt lat="45.59187" lon="4.77291">
        <ele>165.96472167969</ele>
        <time>2010-08-26T17:43:00Z</time>
      </trkpt>
      <trkpt lat="45.59221" lon="4.77277">
        <ele>165.96472167969</ele>
        <time>2010-08-26T17:43:07Z</time>
      </trkpt>
      <trkpt lat="45.59257" lon="4.77272">
        <ele>166.4453125</ele>
        <time>2010-08-26T17:43:14Z</time>
      </trkpt>
      <trkpt lat="45.59288" lon="4.77281">
        <ele>166.4453125</ele>
        <time>2010-08-26T17:43:20Z</time>
      </trkpt>
      <trkpt lat="45.59319" lon="4.773">
        <ele>166.4453125</ele>
        <time>2010-08-26T17:43:27Z</time>
      </trkpt>
      <trkpt lat="45.59356" lon="4.77325">
        <ele>165.96472167969</ele>
        <time>2010-08-26T17:43:36Z</time>
      </trkpt>
      <trkpt lat="45.59368" lon="4.77335">
        <ele>167.40673828125</ele>
        <time>2010-08-26T17:43:39Z</time>
      </trkpt>
      <trkpt lat="45.59389" lon="4.7736">
        <ele>167.40673828125</ele>
        <time>2010-08-26T17:43:45Z</time>
      </trkpt>
      <trkpt lat="45.594" lon="4.77381">
        <ele>168.36804199219</ele>
        <time>2010-08-26T17:43:49Z</time>
      </trkpt>
      <trkpt lat="45.59424" lon="4.7743">
        <ele>167.88732910156</ele>
        <time>2010-08-26T17:43:58Z</time>
      </trkpt>
      <trkpt lat="45.59449" lon="4.77478">
        <ele>168.36804199219</ele>
        <time>2010-08-26T17:44:07Z</time>
      </trkpt>
      <trkpt lat="45.59475" lon="4.77531">
        <ele>168.36804199219</ele>
        <time>2010-08-26T17:44:16Z</time>
      </trkpt>
      <trkpt lat="45.59504" lon="4.7759">
        <ele>167.40673828125</ele>
        <time>2010-08-26T17:44:26Z</time>
      </trkpt>
      <trkpt lat="45.59526" lon="4.77646">
        <ele>166.92602539062</ele>
        <time>2010-08-26T17:44:35Z</time>
      </trkpt>
      <trkpt lat="45.59547" lon="4.77707">
        <ele>166.92602539062</ele>
        <time>2010-08-26T17:44:45Z</time>
      </trkpt>
      <trkpt lat="45.5956" lon="4.77758">
        <ele>166.92602539062</ele>
        <time>2010-08-26T17:44:53Z</time>
      </trkpt>
      <trkpt lat="45.59575" lon="4.7781">
        <ele>166.92602539062</ele>
        <time>2010-08-26T17:45:01Z</time>
      </trkpt>
      <trkpt lat="45.59593" lon="4.77875">
        <ele>166.4453125</ele>
        <time>2010-08-26T17:45:11Z</time>
      </trkpt>
      <trkpt lat="45.59611" lon="4.77917">
        <ele>166.4453125</ele>
        <time>2010-08-26T17:45:18Z</time>
      </trkpt>
      <trkpt lat="45.59632" lon="4.77961">
        <ele>166.92602539062</ele>
        <time>2010-08-26T17:45:26Z</time>
      </trkpt>
      <trkpt lat="45.59656" lon="4.78013">
        <ele>167.40673828125</ele>
        <time>2010-08-26T17:45:36Z</time>
      </trkpt>
      <trkpt lat="45.59677" lon="4.78054">
        <ele>166.92602539062</ele>
        <time>2010-08-26T17:45:44Z</time>
      </trkpt>
      <trkpt lat="45.59697" lon="4.78098">
        <ele>167.40673828125</ele>
        <time>2010-08-26T17:45:53Z</time>
      </trkpt>
      <trkpt lat="45.5971" lon="4.78108">
        <ele>167.40673828125</ele>
        <time>2010-08-26T17:45:56Z</time>
      </trkpt>
      <trkpt lat="45.59724" lon="4.78144">
        <ele>167.40673828125</ele>
        <time>2010-08-26T17:46:02Z</time>
      </trkpt>
      <trkpt lat="45.5975" lon="4.78192">
        <ele>167.40673828125</ele>
        <time>2010-08-26T17:46:11Z</time>
      </trkpt>
      <trkpt lat="45.59775" lon="4.78234">
        <ele>166.92602539062</ele>
        <time>2010-08-26T17:46:19Z</time>
      </trkpt>
      <trkpt lat="45.59785" lon="4.7825">
        <ele>168.36804199219</ele>
        <time>2010-08-26T17:46:22Z</time>
      </trkpt>
      <trkpt lat="45.59807" lon="4.78291">
        <ele>168.84875488281</ele>
        <time>2010-08-26T17:46:29Z</time>
      </trkpt>
      <trkpt lat="45.59833" lon="4.7835">
        <ele>167.88732910156</ele>
        <time>2010-08-26T17:46:37Z</time>
      </trkpt>
      <trkpt lat="45.59847" lon="4.78381">
        <ele>169.32946777344</ele>
        <time>2010-08-26T17:46:41Z</time>
      </trkpt>
      <trkpt lat="45.59868" lon="4.78427">
        <ele>165.96472167969</ele>
        <time>2010-08-26T17:46:47Z</time>
      </trkpt>
      <trkpt lat="45.59895" lon="4.78488">
        <ele>167.40673828125</ele>
        <time>2010-08-26T17:46:54Z</time>
      </trkpt>
      <trkpt lat="45.59919" lon="4.78527">
        <ele>167.88732910156</ele>
        <time>2010-08-26T17:46:59Z</time>
      </trkpt>
      <trkpt lat="45.59959" lon="4.78573">
        <ele>166.92602539062</ele>
        <time>2010-08-26T17:47:06Z</time>
      </trkpt>
      <trkpt lat="45.60015" lon="4.78621">
        <ele>166.92602539062</ele>
        <time>2010-08-26T17:47:14Z</time>
      </trkpt>
      <trkpt lat="45.60062" lon="4.78655">
        <ele>167.40673828125</ele>
        <time>2010-08-26T17:47:20Z</time>
      </trkpt>
      <trkpt lat="45.6012" lon="4.78703">
        <ele>166.92602539062</ele>
        <time>2010-08-26T17:47:27Z</time>
      </trkpt>
      <trkpt lat="45.60161" lon="4.78739">
        <ele>166.92602539062</ele>
        <time>2010-08-26T17:47:32Z</time>
      </trkpt>
      <trkpt lat="45.60189" lon="4.78766">
        <ele>167.88732910156</ele>
        <time>2010-08-26T17:47:36Z</time>
      </trkpt>
      <trkpt lat="45.60219" lon="4.78817">
        <ele>166.92602539062</ele>
        <time>2010-08-26T17:47:42Z</time>
      </trkpt>
      <trkpt lat="45.60238" lon="4.78874">
        <ele>166.4453125</ele>
        <time>2010-08-26T17:47:48Z</time>
      </trkpt>
      <trkpt lat="45.60273" lon="4.78951">
        <ele>166.4453125</ele>
        <time>2010-08-26T17:47:57Z</time>
      </trkpt>
      <trkpt lat="45.60291" lon="4.78987">
        <ele>167.40673828125</ele>
        <time>2010-08-26T17:48:02Z</time>
      </trkpt>
      <trkpt lat="45.60296" lon="4.78999">
        <ele>166.4453125</ele>
        <time>2010-08-26T17:48:04Z</time>
      </trkpt>
      <trkpt lat="45.603" lon="4.79021">
        <ele>167.40673828125</ele>
        <time>2010-08-26T17:48:08Z</time>
      </trkpt>
      <trkpt lat="45.60303" lon="4.79047">
        <ele>167.40673828125</ele>
        <time>2010-08-26T17:48:14Z</time>
      </trkpt>
      <trkpt lat="45.60313" lon="4.79066">
        <ele>166.92602539062</ele>
        <time>2010-08-26T17:48:19Z</time>
      </trkpt>
      <trkpt lat="45.6033" lon="4.79107">
        <ele>166.4453125</ele>
        <time>2010-08-26T17:48:26Z</time>
      </trkpt>
      <trkpt lat="45.6035" lon="4.79143">
        <ele>165.96472167969</ele>
        <time>2010-08-26T17:48:33Z</time>
      </trkpt>
      <trkpt lat="45.60355" lon="4.79151">
        <ele>166.4453125</ele>
        <time>2010-08-26T17:48:35Z</time>
      </trkpt>
      <trkpt lat="45.6037" lon="4.7917">
        <ele>165.96472167969</ele>
        <time>2010-08-26T17:48:40Z</time>
      </trkpt>
      <trkpt lat="45.60389" lon="4.79183">
        <ele>166.4453125</ele>
        <time>2010-08-26T17:48:45Z</time>
      </trkpt>
      <trkpt lat="45.60403" lon="4.79199">
        <ele>166.4453125</ele>
        <time>2010-08-26T17:48:49Z</time>
      </trkpt>
      <trkpt lat="45.60416" lon="4.7922">
        <ele>166.4453125</ele>
        <time>2010-08-26T17:48:53Z</time>
      </trkpt>
      <trkpt lat="45.60441" lon="4.79258">
        <ele>166.4453125</ele>
        <time>2010-08-26T17:49:01Z</time>
      </trkpt>
      <trkpt lat="45.6046" lon="4.79285">
        <ele>166.92602539062</ele>
        <time>2010-08-26T17:49:07Z</time>
      </trkpt>
      <trkpt lat="45.60479" lon="4.79311">
        <ele>166.4453125</ele>
        <time>2010-08-26T17:49:13Z</time>
      </trkpt>
      <trkpt lat="45.60488" lon="4.79325">
        <ele>165.00341796875</ele>
        <time>2010-08-26T17:49:16Z</time>
      </trkpt>
      <trkpt lat="45.60511" lon="4.79366">
        <ele>165.96472167969</ele>
        <time>2010-08-26T17:49:24Z</time>
      </trkpt>
      <trkpt lat="45.6053" lon="4.79395">
        <ele>165.48413085938</ele>
        <time>2010-08-26T17:49:30Z</time>
      </trkpt>
      <trkpt lat="45.60537" lon="4.79414">
        <ele>165.00341796875</ele>
        <time>2010-08-26T17:49:35Z</time>
      </trkpt>
      <trkpt lat="45.60535" lon="4.79429">
        <ele>165.00341796875</ele>
        <time>2010-08-26T17:49:39Z</time>
      </trkpt>
      <trkpt lat="45.60543" lon="4.7944">
        <ele>164.52270507812</ele>
        <time>2010-08-26T17:49:42Z</time>
      </trkpt>
      <trkpt lat="45.60565" lon="4.7946">
        <ele>165.96472167969</ele>
        <time>2010-08-26T17:49:49Z</time>
      </trkpt>
      <trkpt lat="45.6058" lon="4.79482">
        <ele>165.96472167969</ele>
        <time>2010-08-26T17:49:55Z</time>
      </trkpt>
      <trkpt lat="45.60573" lon="4.795">
        <ele>165.48413085938</ele>
        <time>2010-08-26T17:50:00Z</time>
      </trkpt>
      <trkpt lat="45.60572" lon="4.79514">
        <ele>165.48413085938</ele>
        <time>2010-08-26T17:50:04Z</time>
      </trkpt>
      <trkpt lat="45.60573" lon="4.79523">
        <ele>165.00341796875</ele>
        <time>2010-08-26T17:50:06Z</time>
      </trkpt>
      <trkpt lat="45.60587" lon="4.79556">
        <ele>165.48413085938</ele>
        <time>2010-08-26T17:50:13Z</time>
      </trkpt>
      <trkpt lat="45.60587" lon="4.79573">
        <ele>163.5615234375</ele>
        <time>2010-08-26T17:50:19Z</time>
      </trkpt>
      <trkpt lat="45.60587" lon="4.79577">
        <ele>163.08081054688</ele>
        <time>2010-08-26T17:50:20Z</time>
      </trkpt>
      <trkpt lat="45.60586" lon="4.79596">
        <ele>162.11950683594</ele>
        <time>2010-08-26T17:50:23Z</time>
      </trkpt>
      <trkpt lat="45.60585" lon="4.79621">
        <ele>160.19689941406</ele>
        <time>2010-08-26T17:50:26Z</time>
      </trkpt>
      <trkpt lat="45.60593" lon="4.79644">
        <ele>159.23547363281</ele>
        <time>2010-08-26T17:50:30Z</time>
      </trkpt>
      <trkpt lat="45.60602" lon="4.79647">
        <ele>159.71618652344</ele>
        <time>2010-08-26T17:50:33Z</time>
      </trkpt>
      <trkpt lat="45.60607" lon="4.79648">
        <ele>160.19689941406</ele>
        <time>2010-08-26T17:50:34Z</time>
      </trkpt>
      <trkpt lat="45.60632" lon="4.79666">
        <ele>160.67749023438</ele>
        <time>2010-08-26T17:50:40Z</time>
      </trkpt>
      <trkpt lat="45.6064" lon="4.79678">
        <ele>160.67749023438</ele>
        <time>2010-08-26T17:50:42Z</time>
      </trkpt>
      <trkpt lat="45.60654" lon="4.79696">
        <ele>160.67749023438</ele>
        <time>2010-08-26T17:50:45Z</time>
      </trkpt>
      <trkpt lat="45.60678" lon="4.79723">
        <ele>160.19689941406</ele>
        <time>2010-08-26T17:50:50Z</time>
      </trkpt>
      <trkpt lat="45.60705" lon="4.79754">
        <ele>160.67749023438</ele>
        <time>2010-08-26T17:50:55Z</time>
      </trkpt>
      <trkpt lat="45.60711" lon="4.7976">
        <ele>160.67749023438</ele>
        <time>2010-08-26T17:50:56Z</time>
      </trkpt>
      <trkpt lat="45.60735" lon="4.79777">
        <ele>160.67749023438</ele>
        <time>2010-08-26T17:51:00Z</time>
      </trkpt>
      <trkpt lat="45.60754" lon="4.79792">
        <ele>161.158203125</ele>
        <time>2010-08-26T17:51:03Z</time>
      </trkpt>
      <trkpt lat="45.60773" lon="4.79806">
        <ele>161.63891601562</ele>
        <time>2010-08-26T17:51:06Z</time>
      </trkpt>
      <trkpt lat="45.60786" lon="4.79812">
        <ele>160.67749023438</ele>
        <time>2010-08-26T17:51:08Z</time>
      </trkpt>
      <trkpt lat="45.60847" lon="4.79847">
        <ele>161.158203125</ele>
        <time>2010-08-26T17:51:17Z</time>
      </trkpt>
      <trkpt lat="45.6089" lon="4.79874">
        <ele>161.158203125</ele>
        <time>2010-08-26T17:51:24Z</time>
      </trkpt>
      <trkpt lat="45.60924" lon="4.79893">
        <ele>160.19689941406</ele>
        <time>2010-08-26T17:51:31Z</time>
      </trkpt>
      <trkpt lat="45.60956" lon="4.79909">
        <ele>159.71618652344</ele>
        <time>2010-08-26T17:51:39Z</time>
      </trkpt>
      <trkpt lat="45.60981" lon="4.79919">
        <ele>159.71618652344</ele>
        <time>2010-08-26T17:51:44Z</time>
      </trkpt>
      <trkpt lat="45.61013" lon="4.79929">
        <ele>160.19689941406</ele>
        <time>2010-08-26T17:51:49Z</time>
      </trkpt>
      <trkpt lat="45.61042" lon="4.79923">
        <ele>160.67749023438</ele>
        <time>2010-08-26T17:51:53Z</time>
      </trkpt>
      <trkpt lat="45.61076" lon="4.79923">
        <ele>161.63891601562</ele>
        <time>2010-08-26T17:51:58Z</time>
      </trkpt>
      <trkpt lat="45.61112" lon="4.7993">
        <ele>161.63891601562</ele>
        <time>2010-08-26T17:52:03Z</time>
      </trkpt>
      <trkpt lat="45.61133" lon="4.79935">
        <ele>162.11950683594</ele>
        <time>2010-08-26T17:52:06Z</time>
      </trkpt>
      <trkpt lat="45.61159" lon="4.79933">
        <ele>162.60009765625</ele>
        <time>2010-08-26T17:52:10Z</time>
      </trkpt>
      <trkpt lat="45.61188" lon="4.79929">
        <ele>162.60009765625</ele>
        <time>2010-08-26T17:52:15Z</time>
      </trkpt>
      <trkpt lat="45.61206" lon="4.79937">
        <ele>162.60009765625</ele>
        <time>2010-08-26T17:52:19Z</time>
      </trkpt>
      <trkpt lat="45.61238" lon="4.79957">
        <ele>161.63891601562</ele>
        <time>2010-08-26T17:52:28Z</time>
      </trkpt>
      <trkpt lat="45.61261" lon="4.79978">
        <ele>161.63891601562</ele>
        <time>2010-08-26T17:52:35Z</time>
      </trkpt>
      <trkpt lat="45.61279" lon="4.80003">
        <ele>161.63891601562</ele>
        <time>2010-08-26T17:52:42Z</time>
      </trkpt>
      <trkpt lat="45.61282" lon="4.80013">
        <ele>161.63891601562</ele>
        <time>2010-08-26T17:52:46Z</time>
      </trkpt>
      <trkpt lat="45.61281" lon="4.80014">
        <ele>161.63891601562</ele>
        <time>2010-08-26T17:52:48Z</time>
      </trkpt>
      <trkpt lat="45.61277" lon="4.8003">
        <ele>161.158203125</ele>
        <time>2010-08-26T17:52:54Z</time>
      </trkpt>
      <trkpt lat="45.61276" lon="4.80034">
        <ele>160.67749023438</ele>
        <time>2010-08-26T17:52:55Z</time>
      </trkpt>
      <trkpt lat="45.61275" lon="4.80046">
        <ele>159.71618652344</ele>
        <time>2010-08-26T17:52:57Z</time>
      </trkpt>
      <trkpt lat="45.61274" lon="4.80059">
        <ele>159.23547363281</ele>
        <time>2010-08-26T17:52:59Z</time>
      </trkpt>
      <trkpt lat="45.61285" lon="4.80069">
        <ele>159.71618652344</ele>
        <time>2010-08-26T17:53:04Z</time>
      </trkpt>
      <trkpt lat="45.61304" lon="4.80068">
        <ele>160.67749023438</ele>
        <time>2010-08-26T17:53:11Z</time>
      </trkpt>
      <trkpt lat="45.61318" lon="4.80075">
        <ele>160.67749023438</ele>
        <time>2010-08-26T17:53:16Z</time>
      </trkpt>
      <trkpt lat="45.61328" lon="4.80077">
        <ele>160.19689941406</ele>
        <time>2010-08-26T17:53:18Z</time>
      </trkpt>
      <trkpt lat="45.61366" lon="4.80082">
        <ele>160.19689941406</ele>
        <time>2010-08-26T17:53:25Z</time>
      </trkpt>
      <trkpt lat="45.61402" lon="4.80095">
        <ele>159.71618652344</ele>
        <time>2010-08-26T17:53:32Z</time>
      </trkpt>
      <trkpt lat="45.61433" lon="4.80108">
        <ele>159.71618652344</ele>
        <time>2010-08-26T17:53:39Z</time>
      </trkpt>
      <trkpt lat="45.61455" lon="4.80119">
        <ele>159.23547363281</ele>
        <time>2010-08-26T17:53:44Z</time>
      </trkpt>
      <trkpt lat="45.61472" lon="4.80126">
        <ele>159.23547363281</ele>
        <time>2010-08-26T17:53:47Z</time>
      </trkpt>
      <trkpt lat="45.61501" lon="4.80132">
        <ele>159.23547363281</ele>
        <time>2010-08-26T17:53:51Z</time>
      </trkpt>
      <trkpt lat="45.61527" lon="4.80144">
        <ele>160.67749023438</ele>
        <time>2010-08-26T17:53:55Z</time>
      </trkpt>
      <trkpt lat="45.61541" lon="4.80151">
        <ele>159.71618652344</ele>
        <time>2010-08-26T17:53:57Z</time>
      </trkpt>
      <trkpt lat="45.61553" lon="4.80161">
        <ele>159.71618652344</ele>
        <time>2010-08-26T17:53:59Z</time>
      </trkpt>
      <trkpt lat="45.61581" lon="4.80177">
        <ele>158.75476074219</ele>
        <time>2010-08-26T17:54:03Z</time>
      </trkpt>
      <trkpt lat="45.61612" lon="4.80194">
        <ele>159.71618652344</ele>
        <time>2010-08-26T17:54:07Z</time>
      </trkpt>
      <trkpt lat="45.61647" lon="4.80219">
        <ele>158.75476074219</ele>
        <time>2010-08-26T17:54:12Z</time>
      </trkpt>
      <trkpt lat="45.61679" lon="4.8024">
        <ele>159.71618652344</ele>
        <time>2010-08-26T17:54:17Z</time>
      </trkpt>
      <trkpt lat="45.61695" lon="4.80256">
        <ele>159.23547363281</ele>
        <time>2010-08-26T17:54:20Z</time>
      </trkpt>
      <trkpt lat="45.61708" lon="4.80266">
        <ele>159.23547363281</ele>
        <time>2010-08-26T17:54:22Z</time>
      </trkpt>
      <trkpt lat="45.61739" lon="4.80285">
        <ele>160.67749023438</ele>
        <time>2010-08-26T17:54:27Z</time>
      </trkpt>
      <trkpt lat="45.61757" lon="4.803">
        <ele>160.67749023438</ele>
        <time>2010-08-26T17:54:30Z</time>
      </trkpt>
      <trkpt lat="45.61771" lon="4.80313">
        <ele>160.67749023438</ele>
        <time>2010-08-26T17:54:34Z</time>
      </trkpt>
      <trkpt lat="45.61772" lon="4.80316">
        <ele>161.158203125</ele>
        <time>2010-08-26T17:54:35Z</time>
      </trkpt>
      <trkpt lat="45.61777" lon="4.80321">
        <ele>159.71618652344</ele>
        <time>2010-08-26T17:54:38Z</time>
      </trkpt>
      <trkpt lat="45.61782" lon="4.80327">
        <ele>159.23547363281</ele>
        <time>2010-08-26T17:54:40Z</time>
      </trkpt>
      <trkpt lat="45.618" lon="4.80335">
        <ele>160.19689941406</ele>
        <time>2010-08-26T17:54:44Z</time>
      </trkpt>
      <trkpt lat="45.61817" lon="4.80347">
        <ele>162.11950683594</ele>
        <time>2010-08-26T17:54:49Z</time>
      </trkpt>
      <trkpt lat="45.61828" lon="4.80364">
        <ele>160.67749023438</ele>
        <time>2010-08-26T17:54:53Z</time>
      </trkpt>
      <trkpt lat="45.61842" lon="4.80378">
        <ele>160.67749023438</ele>
        <time>2010-08-26T17:54:56Z</time>
      </trkpt>
      <trkpt lat="45.61862" lon="4.80404">
        <ele>160.67749023438</ele>
        <time>2010-08-26T17:55:01Z</time>
      </trkpt>
      <trkpt lat="45.61866" lon="4.80407">
        <ele>161.63891601562</ele>
        <time>2010-08-26T17:55:02Z</time>
      </trkpt>
      <trkpt lat="45.61872" lon="4.80413">
        <ele>160.67749023438</ele>
        <time>2010-08-26T17:55:04Z</time>
      </trkpt>
      <trkpt lat="45.6188" lon="4.8042">
        <ele>160.67749023438</ele>
        <time>2010-08-26T17:55:06Z</time>
      </trkpt>
      <trkpt lat="45.61898" lon="4.80438">
        <ele>159.71618652344</ele>
        <time>2010-08-26T17:55:10Z</time>
      </trkpt>
      <trkpt lat="45.61909" lon="4.80457">
        <ele>161.158203125</ele>
        <time>2010-08-26T17:55:14Z</time>
      </trkpt>
      <trkpt lat="45.61913" lon="4.80459">
        <ele>160.67749023438</ele>
        <time>2010-08-26T17:55:15Z</time>
      </trkpt>
      <trkpt lat="45.61931" lon="4.80465">
        <ele>162.11950683594</ele>
        <time>2010-08-26T17:55:20Z</time>
      </trkpt>
      <trkpt lat="45.61948" lon="4.80471">
        <ele>161.63891601562</ele>
        <time>2010-08-26T17:55:25Z</time>
      </trkpt>
      <trkpt lat="45.61965" lon="4.80475">
        <ele>161.63891601562</ele>
        <time>2010-08-26T17:55:29Z</time>
      </trkpt>
      <trkpt lat="45.61992" lon="4.80492">
        <ele>161.63891601562</ele>
        <time>2010-08-26T17:55:34Z</time>
      </trkpt>
      <trkpt lat="45.62014" lon="4.80504">
        <ele>161.63891601562</ele>
        <time>2010-08-26T17:55:39Z</time>
      </trkpt>
      <trkpt lat="45.62025" lon="4.80519">
        <ele>162.11950683594</ele>
        <time>2010-08-26T17:55:42Z</time>
      </trkpt>
      <trkpt lat="45.6203" lon="4.80524">
        <ele>161.158203125</ele>
        <time>2010-08-26T17:55:43Z</time>
      </trkpt>
      <trkpt lat="45.62046" lon="4.8054">
        <ele>161.63891601562</ele>
        <time>2010-08-26T17:55:46Z</time>
      </trkpt>
      <trkpt lat="45.62072" lon="4.80555">
        <ele>161.63891601562</ele>
        <time>2010-08-26T17:55:50Z</time>
      </trkpt>
      <trkpt lat="45.6209" lon="4.80566">
        <ele>162.11950683594</ele>
        <time>2010-08-26T17:55:53Z</time>
      </trkpt>
      <trkpt lat="45.62103" lon="4.80583">
        <ele>159.23547363281</ele>
        <time>2010-08-26T17:55:56Z</time>
      </trkpt>
      <trkpt lat="45.6211" lon="4.80585">
        <ele>159.23547363281</ele>
        <time>2010-08-26T17:55:57Z</time>
      </trkpt>
      <trkpt lat="45.62159" lon="4.80605">
        <ele>159.23547363281</ele>
        <time>2010-08-26T17:56:03Z</time>
      </trkpt>
      <trkpt lat="45.62193" lon="4.80621">
        <ele>159.23547363281</ele>
        <time>2010-08-26T17:56:07Z</time>
      </trkpt>
      <trkpt lat="45.62202" lon="4.80623">
        <ele>159.71618652344</ele>
        <time>2010-08-26T17:56:08Z</time>
      </trkpt>
      <trkpt lat="45.6222" lon="4.80623">
        <ele>159.71618652344</ele>
        <time>2010-08-26T17:56:10Z</time>
      </trkpt>
      <trkpt lat="45.62271" lon="4.80632">
        <ele>159.23547363281</ele>
        <time>2010-08-26T17:56:16Z</time>
      </trkpt>
      <trkpt lat="45.62314" lon="4.80639">
        <ele>158.27416992188</ele>
        <time>2010-08-26T17:56:21Z</time>
      </trkpt>
      <trkpt lat="45.62372" lon="4.80641">
        <ele>158.27416992188</ele>
        <time>2010-08-26T17:56:28Z</time>
      </trkpt>
      <trkpt lat="45.62389" lon="4.80646">
        <ele>159.23547363281</ele>
        <time>2010-08-26T17:56:30Z</time>
      </trkpt>
      <trkpt lat="45.62405" lon="4.80648">
        <ele>158.27416992188</ele>
        <time>2010-08-26T17:56:32Z</time>
      </trkpt>
      <trkpt lat="45.62429" lon="4.80645">
        <ele>158.75476074219</ele>
        <time>2010-08-26T17:56:35Z</time>
      </trkpt>
      <trkpt lat="45.62459" lon="4.80651">
        <ele>158.27416992188</ele>
        <time>2010-08-26T17:56:39Z</time>
      </trkpt>
      <trkpt lat="45.62477" lon="4.80655">
        <ele>158.75476074219</ele>
        <time>2010-08-26T17:56:42Z</time>
      </trkpt>
      <trkpt lat="45.6249" lon="4.80656">
        <ele>158.75476074219</ele>
        <time>2010-08-26T17:56:44Z</time>
      </trkpt>
      <trkpt lat="45.62524" lon="4.80645">
        <ele>158.75476074219</ele>
        <time>2010-08-26T17:56:49Z</time>
      </trkpt>
      <trkpt lat="45.6253" lon="4.80642">
        <ele>158.75476074219</ele>
        <time>2010-08-26T17:56:50Z</time>
      </trkpt>
      <trkpt lat="45.62556" lon="4.80648">
        <ele>158.27416992188</ele>
        <time>2010-08-26T17:56:54Z</time>
      </trkpt>
      <trkpt lat="45.62567" lon="4.80643">
        <ele>158.75476074219</ele>
        <time>2010-08-26T17:56:56Z</time>
      </trkpt>
      <trkpt lat="45.62574" lon="4.80638">
        <ele>158.75476074219</ele>
        <time>2010-08-26T17:56:57Z</time>
      </trkpt>
      <trkpt lat="45.62615" lon="4.80607">
        <ele>159.71618652344</ele>
        <time>2010-08-26T17:57:04Z</time>
      </trkpt>
      <trkpt lat="45.62633" lon="4.80603">
        <ele>161.63891601562</ele>
        <time>2010-08-26T17:57:08Z</time>
      </trkpt>
      <trkpt lat="45.62639" lon="4.80617">
        <ele>159.71618652344</ele>
        <time>2010-08-26T17:57:11Z</time>
      </trkpt>
      <trkpt lat="45.62651" lon="4.80634">
        <ele>158.27416992188</ele>
        <time>2010-08-26T17:57:14Z</time>
      </trkpt>
      <trkpt lat="45.62663" lon="4.80632">
        <ele>158.75476074219</ele>
        <time>2010-08-26T17:57:16Z</time>
      </trkpt>
      <trkpt lat="45.62686" lon="4.80611">
        <ele>159.71618652344</ele>
        <time>2010-08-26T17:57:21Z</time>
      </trkpt>
      <trkpt lat="45.6269" lon="4.80606">
        <ele>160.19689941406</ele>
        <time>2010-08-26T17:57:22Z</time>
      </trkpt>
      <trkpt lat="45.62709" lon="4.80602">
        <ele>159.71618652344</ele>
        <time>2010-08-26T17:57:26Z</time>
      </trkpt>
      <trkpt lat="45.62735" lon="4.80604">
        <ele>160.19689941406</ele>
        <time>2010-08-26T17:57:30Z</time>
      </trkpt>
      <trkpt lat="45.62768" lon="4.80617">
        <ele>158.27416992188</ele>
        <time>2010-08-26T17:57:35Z</time>
      </trkpt>
      <trkpt lat="45.62783" lon="4.80617">
        <ele>157.79357910156</ele>
        <time>2010-08-26T17:57:37Z</time>
      </trkpt>
      <trkpt lat="45.62808" lon="4.80611">
        <ele>158.75476074219</ele>
        <time>2010-08-26T17:57:41Z</time>
      </trkpt>
      <trkpt lat="45.62815" lon="4.80613">
        <ele>159.23547363281</ele>
        <time>2010-08-26T17:57:42Z</time>
      </trkpt>
      <trkpt lat="45.62829" lon="4.8062">
        <ele>158.75476074219</ele>
        <time>2010-08-26T17:57:44Z</time>
      </trkpt>
      <trkpt lat="45.62863" lon="4.80634">
        <ele>159.23547363281</ele>
        <time>2010-08-26T17:57:49Z</time>
      </trkpt>
      <trkpt lat="45.6287" lon="4.80636">
        <ele>158.75476074219</ele>
        <time>2010-08-26T17:57:50Z</time>
      </trkpt>
      <trkpt lat="45.62898" lon="4.80636">
        <ele>158.75476074219</ele>
        <time>2010-08-26T17:57:54Z</time>
      </trkpt>
      <trkpt lat="45.62922" lon="4.80633">
        <ele>158.75476074219</ele>
        <time>2010-08-26T17:57:58Z</time>
      </trkpt>
      <trkpt lat="45.62929" lon="4.80632">
        <ele>159.23547363281</ele>
        <time>2010-08-26T17:58:00Z</time>
      </trkpt>
      <trkpt lat="45.62935" lon="4.80633">
        <ele>159.23547363281</ele>
        <time>2010-08-26T17:58:06Z</time>
      </trkpt>
      <trkpt lat="45.62933" lon="4.80634">
        <ele>159.23547363281</ele>
        <time>2010-08-26T17:58:23Z</time>
      </trkpt>
      <trkpt lat="45.62933" lon="4.80634">
        <ele>159.71618652344</ele>
        <time>2010-08-26T17:58:32Z</time>
      </trkpt>
      <trkpt lat="45.62933" lon="4.80634">
        <ele>159.23547363281</ele>
        <time>2010-08-26T17:58:55Z</time>
      </trkpt>
      <trkpt lat="45.62932" lon="4.80633">
        <ele>158.75476074219</ele>
        <time>2010-08-26T17:59:53Z</time>
      </trkpt>
      <trkpt lat="45.62942" lon="4.80636">
        <ele>158.75476074219</ele>
        <time>2010-08-26T17:59:58Z</time>
      </trkpt>
      <trkpt lat="45.62951" lon="4.80635">
        <ele>158.75476074219</ele>
        <time>2010-08-26T18:00:00Z</time>
      </trkpt>
      <trkpt lat="45.6296" lon="4.80635">
        <ele>158.75476074219</ele>
        <time>2010-08-26T18:00:02Z</time>
      </trkpt>
      <trkpt lat="45.6299" lon="4.80626">
        <ele>159.23547363281</ele>
        <time>2010-08-26T18:00:07Z</time>
      </trkpt>
      <trkpt lat="45.62996" lon="4.80626">
        <ele>159.71618652344</ele>
        <time>2010-08-26T18:00:08Z</time>
      </trkpt>
      <trkpt lat="45.63023" lon="4.80626">
        <ele>160.67749023438</ele>
        <time>2010-08-26T18:00:13Z</time>
      </trkpt>
      <trkpt lat="45.63023" lon="4.8061">
        <ele>160.19689941406</ele>
        <time>2010-08-26T18:00:16Z</time>
      </trkpt>
      <trkpt lat="45.63015" lon="4.80592">
        <ele>161.63891601562</ele>
        <time>2010-08-26T18:00:19Z</time>
      </trkpt>
      <trkpt lat="45.63002" lon="4.80549">
        <ele>161.158203125</ele>
        <time>2010-08-26T18:00:25Z</time>
      </trkpt>
      <trkpt lat="45.62994" lon="4.80534">
        <ele>160.67749023438</ele>
        <time>2010-08-26T18:00:27Z</time>
      </trkpt>
      <trkpt lat="45.62985" lon="4.80503">
        <ele>160.67749023438</ele>
        <time>2010-08-26T18:00:32Z</time>
      </trkpt>
      <trkpt lat="45.62991" lon="4.80493">
        <ele>160.67749023438</ele>
        <time>2010-08-26T18:00:34Z</time>
      </trkpt>
      <trkpt lat="45.63005" lon="4.80459">
        <ele>162.60009765625</ele>
        <time>2010-08-26T18:00:40Z</time>
      </trkpt>
      <trkpt lat="45.63006" lon="4.80448">
        <ele>162.60009765625</ele>
        <time>2010-08-26T18:00:42Z</time>
      </trkpt>
      <trkpt lat="45.63014" lon="4.80426">
        <ele>163.5615234375</ele>
        <time>2010-08-26T18:00:46Z</time>
      </trkpt>
      <trkpt lat="45.63023" lon="4.80424">
        <ele>163.08081054688</ele>
        <time>2010-08-26T18:00:48Z</time>
      </trkpt>
      <trkpt lat="45.63052" lon="4.80427">
        <ele>163.08081054688</ele>
        <time>2010-08-26T18:00:55Z</time>
      </trkpt>
      <trkpt lat="45.63056" lon="4.80428">
        <ele>163.08081054688</ele>
        <time>2010-08-26T18:00:56Z</time>
      </trkpt>
      <trkpt lat="45.63069" lon="4.80442">
        <ele>161.158203125</ele>
        <time>2010-08-26T18:01:00Z</time>
      </trkpt>
      <trkpt lat="45.6307" lon="4.80469">
        <ele>159.71618652344</ele>
        <time>2010-08-26T18:01:03Z</time>
      </trkpt>
      <trkpt lat="45.63063" lon="4.80531">
        <ele>160.19689941406</ele>
        <time>2010-08-26T18:01:09Z</time>
      </trkpt>
      <trkpt lat="45.63068" lon="4.80564">
        <ele>160.67749023438</ele>
        <time>2010-08-26T18:01:12Z</time>
      </trkpt>
      <trkpt lat="45.63071" lon="4.80584">
        <ele>160.67749023438</ele>
        <time>2010-08-26T18:01:14Z</time>
      </trkpt>
      <trkpt lat="45.63087" lon="4.80617">
        <ele>160.19689941406</ele>
        <time>2010-08-26T18:01:18Z</time>
      </trkpt>
      <trkpt lat="45.63108" lon="4.80623">
        <ele>159.71618652344</ele>
        <time>2010-08-26T18:01:21Z</time>
      </trkpt>
      <trkpt lat="45.63138" lon="4.80615">
        <ele>159.23547363281</ele>
        <time>2010-08-26T18:01:25Z</time>
      </trkpt>
      <trkpt lat="45.63153" lon="4.80613">
        <ele>159.71618652344</ele>
        <time>2010-08-26T18:01:27Z</time>
      </trkpt>
      <trkpt lat="45.63208" lon="4.8062">
        <ele>158.75476074219</ele>
        <time>2010-08-26T18:01:34Z</time>
      </trkpt>
      <trkpt lat="45.63223" lon="4.80621">
        <ele>159.71618652344</ele>
        <time>2010-08-26T18:01:36Z</time>
      </trkpt>
      <trkpt lat="45.63251" lon="4.80618">
        <ele>159.71618652344</ele>
        <time>2010-08-26T18:01:40Z</time>
      </trkpt>
      <trkpt lat="45.63286" lon="4.8062">
        <ele>158.75476074219</ele>
        <time>2010-08-26T18:01:45Z</time>
      </trkpt>
      <trkpt lat="45.63298" lon="4.8064">
        <ele>159.23547363281</ele>
        <time>2010-08-26T18:01:48Z</time>
      </trkpt>
      <trkpt lat="45.63324" lon="4.80664">
        <ele>158.75476074219</ele>
        <time>2010-08-26T18:01:53Z</time>
      </trkpt>
      <trkpt lat="45.63345" lon="4.80662">
        <ele>159.23547363281</ele>
        <time>2010-08-26T18:01:56Z</time>
      </trkpt>
      <trkpt lat="45.63363" lon="4.80673">
        <ele>157.31286621094</ele>
        <time>2010-08-26T18:02:01Z</time>
      </trkpt>
      <trkpt lat="45.63379" lon="4.8068">
        <ele>157.79357910156</ele>
        <time>2010-08-26T18:02:04Z</time>
      </trkpt>
      <trkpt lat="45.63403" lon="4.80682">
        <ele>157.79357910156</ele>
        <time>2010-08-26T18:02:08Z</time>
      </trkpt>
      <trkpt lat="45.63423" lon="4.8069">
        <ele>157.79357910156</ele>
        <time>2010-08-26T18:02:11Z</time>
      </trkpt>
      <trkpt lat="45.63451" lon="4.80694">
        <ele>158.27416992188</ele>
        <time>2010-08-26T18:02:15Z</time>
      </trkpt>
      <trkpt lat="45.63487" lon="4.80712">
        <ele>159.23547363281</ele>
        <time>2010-08-26T18:02:21Z</time>
      </trkpt>
      <trkpt lat="45.63506" lon="4.80725">
        <ele>159.71618652344</ele>
        <time>2010-08-26T18:02:25Z</time>
      </trkpt>
      <trkpt lat="45.63521" lon="4.80723">
        <ele>159.71618652344</ele>
        <time>2010-08-26T18:02:29Z</time>
      </trkpt>
      <trkpt lat="45.63535" lon="4.80722">
        <ele>160.19689941406</ele>
        <time>2010-08-26T18:02:34Z</time>
      </trkpt>
      <trkpt lat="45.63548" lon="4.80733">
        <ele>159.71618652344</ele>
        <time>2010-08-26T18:02:38Z</time>
      </trkpt>
      <trkpt lat="45.63572" lon="4.80741">
        <ele>159.71618652344</ele>
        <time>2010-08-26T18:02:42Z</time>
      </trkpt>
      <trkpt lat="45.63579" lon="4.80742">
        <ele>159.71618652344</ele>
        <time>2010-08-26T18:02:43Z</time>
      </trkpt>
      <trkpt lat="45.63612" lon="4.80763">
        <ele>159.71618652344</ele>
        <time>2010-08-26T18:02:48Z</time>
      </trkpt>
      <trkpt lat="45.63625" lon="4.80773">
        <ele>159.71618652344</ele>
        <time>2010-08-26T18:02:50Z</time>
      </trkpt>
      <trkpt lat="45.63659" lon="4.80783">
        <ele>159.71618652344</ele>
        <time>2010-08-26T18:02:55Z</time>
      </trkpt>
      <trkpt lat="45.63678" lon="4.80791">
        <ele>159.71618652344</ele>
        <time>2010-08-26T18:02:58Z</time>
      </trkpt>
      <trkpt lat="45.63698" lon="4.80802">
        <ele>159.23547363281</ele>
        <time>2010-08-26T18:03:01Z</time>
      </trkpt>
      <trkpt lat="45.63719" lon="4.80815">
        <ele>158.75476074219</ele>
        <time>2010-08-26T18:03:04Z</time>
      </trkpt>
      <trkpt lat="45.63726" lon="4.80818">
        <ele>159.71618652344</ele>
        <time>2010-08-26T18:03:05Z</time>
      </trkpt>
      <trkpt lat="45.63754" lon="4.80828">
        <ele>159.71618652344</ele>
        <time>2010-08-26T18:03:09Z</time>
      </trkpt>
      <trkpt lat="45.63795" lon="4.80834">
        <ele>160.19689941406</ele>
        <time>2010-08-26T18:03:15Z</time>
      </trkpt>
      <trkpt lat="45.63819" lon="4.80842">
        <ele>159.23547363281</ele>
        <time>2010-08-26T18:03:19Z</time>
      </trkpt>
      <trkpt lat="45.63847" lon="4.80852">
        <ele>159.23547363281</ele>
        <time>2010-08-26T18:03:24Z</time>
      </trkpt>
      <trkpt lat="45.63876" lon="4.80859">
        <ele>160.19689941406</ele>
        <time>2010-08-26T18:03:29Z</time>
      </trkpt>
      <trkpt lat="45.63898" lon="4.80872">
        <ele>159.71618652344</ele>
        <time>2010-08-26T18:03:33Z</time>
      </trkpt>
      <trkpt lat="45.63919" lon="4.80884">
        <ele>159.71618652344</ele>
        <time>2010-08-26T18:03:37Z</time>
      </trkpt>
      <trkpt lat="45.63937" lon="4.80894">
        <ele>159.71618652344</ele>
        <time>2010-08-26T18:03:40Z</time>
      </trkpt>
      <trkpt lat="45.63961" lon="4.80908">
        <ele>159.23547363281</ele>
        <time>2010-08-26T18:03:45Z</time>
      </trkpt>
      <trkpt lat="45.63979" lon="4.80921">
        <ele>159.71618652344</ele>
        <time>2010-08-26T18:03:49Z</time>
      </trkpt>
      <trkpt lat="45.63984" lon="4.80927">
        <ele>159.23547363281</ele>
        <time>2010-08-26T18:03:50Z</time>
      </trkpt>
      <trkpt lat="45.63997" lon="4.80937">
        <ele>159.23547363281</ele>
        <time>2010-08-26T18:03:52Z</time>
      </trkpt>
      <trkpt lat="45.64028" lon="4.80956">
        <ele>159.23547363281</ele>
        <time>2010-08-26T18:03:57Z</time>
      </trkpt>
      <trkpt lat="45.64038" lon="4.80961">
        <ele>159.71618652344</ele>
        <time>2010-08-26T18:03:59Z</time>
      </trkpt>
      <trkpt lat="45.64057" lon="4.80977">
        <ele>159.71618652344</ele>
        <time>2010-08-26T18:04:03Z</time>
      </trkpt>
      <trkpt lat="45.64068" lon="4.80982">
        <ele>160.19689941406</ele>
        <time>2010-08-26T18:04:06Z</time>
      </trkpt>
      <trkpt lat="45.64086" lon="4.80995">
        <ele>159.71618652344</ele>
        <time>2010-08-26T18:04:10Z</time>
      </trkpt>
      <trkpt lat="45.64106" lon="4.8101">
        <ele>160.19689941406</ele>
        <time>2010-08-26T18:04:14Z</time>
      </trkpt>
      <trkpt lat="45.64125" lon="4.8103">
        <ele>160.19689941406</ele>
        <time>2010-08-26T18:04:18Z</time>
      </trkpt>
      <trkpt lat="45.64142" lon="4.81038">
        <ele>160.19689941406</ele>
        <time>2010-08-26T18:04:21Z</time>
      </trkpt>
      <trkpt lat="45.64173" lon="4.81064">
        <ele>160.67749023438</ele>
        <time>2010-08-26T18:04:27Z</time>
      </trkpt>
      <trkpt lat="45.64178" lon="4.81068">
        <ele>160.19689941406</ele>
        <time>2010-08-26T18:04:28Z</time>
      </trkpt>
      <trkpt lat="45.64206" lon="4.81096">
        <ele>160.19689941406</ele>
        <time>2010-08-26T18:04:34Z</time>
      </trkpt>
      <trkpt lat="45.64218" lon="4.81102">
        <ele>160.19689941406</ele>
        <time>2010-08-26T18:04:37Z</time>
      </trkpt>
      <trkpt lat="45.64228" lon="4.81103">
        <ele>160.19689941406</ele>
        <time>2010-08-26T18:04:40Z</time>
      </trkpt>
      <trkpt lat="45.64241" lon="4.81121">
        <ele>159.71618652344</ele>
        <time>2010-08-26T18:04:44Z</time>
      </trkpt>
      <trkpt lat="45.64261" lon="4.8114">
        <ele>159.23547363281</ele>
        <time>2010-08-26T18:04:48Z</time>
      </trkpt>
      <trkpt lat="45.64267" lon="4.81144">
        <ele>159.23547363281</ele>
        <time>2010-08-26T18:04:49Z</time>
      </trkpt>
      <trkpt lat="45.64285" lon="4.81157">
        <ele>159.23547363281</ele>
        <time>2010-08-26T18:04:52Z</time>
      </trkpt>
      <trkpt lat="45.64318" lon="4.81176">
        <ele>159.23547363281</ele>
        <time>2010-08-26T18:04:57Z</time>
      </trkpt>
      <trkpt lat="45.64333" lon="4.81186">
        <ele>158.27416992188</ele>
        <time>2010-08-26T18:05:00Z</time>
      </trkpt>
      <trkpt lat="45.64346" lon="4.81194">
        <ele>158.75476074219</ele>
        <time>2010-08-26T18:05:03Z</time>
      </trkpt>
      <trkpt lat="45.64354" lon="4.81202">
        <ele>158.75476074219</ele>
        <time>2010-08-26T18:05:05Z</time>
      </trkpt>
      <trkpt lat="45.64371" lon="4.81213">
        <ele>158.75476074219</ele>
        <time>2010-08-26T18:05:10Z</time>
      </trkpt>
      <trkpt lat="45.64375" lon="4.81215">
        <ele>158.75476074219</ele>
        <time>2010-08-26T18:05:11Z</time>
      </trkpt>
      <trkpt lat="45.64396" lon="4.81233">
        <ele>159.71618652344</ele>
        <time>2010-08-26T18:05:16Z</time>
      </trkpt>
      <trkpt lat="45.64405" lon="4.8124">
        <ele>159.23547363281</ele>
        <time>2010-08-26T18:05:18Z</time>
      </trkpt>
      <trkpt lat="45.64424" lon="4.81252">
        <ele>160.19689941406</ele>
        <time>2010-08-26T18:05:23Z</time>
      </trkpt>
      <trkpt lat="45.64437" lon="4.81268">
        <ele>159.71618652344</ele>
        <time>2010-08-26T18:05:27Z</time>
      </trkpt>
      <trkpt lat="45.64441" lon="4.81272">
        <ele>159.71618652344</ele>
        <time>2010-08-26T18:05:28Z</time>
      </trkpt>
      <trkpt lat="45.64455" lon="4.81283">
        <ele>160.67749023438</ele>
        <time>2010-08-26T18:05:31Z</time>
      </trkpt>
      <trkpt lat="45.64479" lon="4.81298">
        <ele>161.63891601562</ele>
        <time>2010-08-26T18:05:37Z</time>
      </trkpt>
      <trkpt lat="45.64506" lon="4.81319">
        <ele>161.63891601562</ele>
        <time>2010-08-26T18:05:44Z</time>
      </trkpt>
      <trkpt lat="45.64507" lon="4.81338">
        <ele>158.75476074219</ele>
        <time>2010-08-26T18:05:48Z</time>
      </trkpt>
      <trkpt lat="45.64507" lon="4.81353">
        <ele>158.27416992188</ele>
        <time>2010-08-26T18:05:50Z</time>
      </trkpt>
      <trkpt lat="45.64509" lon="4.81394">
        <ele>156.83215332031</ele>
        <time>2010-08-26T18:05:57Z</time>
      </trkpt>
      <trkpt lat="45.6451" lon="4.81402">
        <ele>157.31286621094</ele>
        <time>2010-08-26T18:06:02Z</time>
      </trkpt>
      <trkpt lat="45.64508" lon="4.81404">
        <ele>157.31286621094</ele>
        <time>2010-08-26T18:06:31Z</time>
      </trkpt>
      <trkpt lat="45.64505" lon="4.81402">
        <ele>156.83215332031</ele>
        <time>2010-08-26T18:08:14Z</time>
      </trkpt>
      <trkpt lat="45.64502" lon="4.81406">
        <ele>156.3515625</ele>
        <time>2010-08-26T18:09:15Z</time>
      </trkpt>
      <trkpt lat="45.64508" lon="4.81403">
        <ele>155.87097167969</ele>
        <time>2010-08-26T18:09:20Z</time>
      </trkpt>
      <trkpt lat="45.64509" lon="4.8139">
        <ele>155.39025878906</ele>
        <time>2010-08-26T18:09:24Z</time>
      </trkpt>
      <trkpt lat="45.64518" lon="4.81383">
        <ele>154.90954589844</ele>
        <time>2010-08-26T18:09:27Z</time>
      </trkpt>
      <trkpt lat="45.6452" lon="4.81383">
        <ele>154.90954589844</ele>
        <time>2010-08-26T18:09:28Z</time>
      </trkpt>
      <trkpt lat="45.6453" lon="4.81381">
        <ele>157.79357910156</ele>
        <time>2010-08-26T18:09:33Z</time>
      </trkpt>
      <trkpt lat="45.64536" lon="4.81379">
        <ele>160.67749023438</ele>
        <time>2010-08-26T18:09:36Z</time>
      </trkpt>
      <trkpt lat="45.64552" lon="4.8138">
        <ele>160.67749023438</ele>
        <time>2010-08-26T18:09:42Z</time>
      </trkpt>
      <trkpt lat="45.64571" lon="4.8138">
        <ele>160.19689941406</ele>
        <time>2010-08-26T18:09:47Z</time>
      </trkpt>
      <trkpt lat="45.64585" lon="4.81386">
        <ele>159.71618652344</ele>
        <time>2010-08-26T18:09:52Z</time>
      </trkpt>
      <trkpt lat="45.64596" lon="4.81391">
        <ele>159.71618652344</ele>
        <time>2010-08-26T18:09:56Z</time>
      </trkpt>
      <trkpt lat="45.64614" lon="4.81403">
        <ele>160.67749023438</ele>
        <time>2010-08-26T18:10:02Z</time>
      </trkpt>
      <trkpt lat="45.64631" lon="4.81411">
        <ele>160.67749023438</ele>
        <time>2010-08-26T18:10:07Z</time>
      </trkpt>
      <trkpt lat="45.64652" lon="4.8142">
        <ele>161.158203125</ele>
        <time>2010-08-26T18:10:13Z</time>
      </trkpt>
      <trkpt lat="45.64673" lon="4.8143">
        <ele>162.60009765625</ele>
        <time>2010-08-26T18:10:19Z</time>
      </trkpt>
      <trkpt lat="45.64687" lon="4.81439">
        <ele>163.5615234375</ele>
        <time>2010-08-26T18:10:23Z</time>
      </trkpt>
      <trkpt lat="45.64686" lon="4.81458">
        <ele>163.5615234375</ele>
        <time>2010-08-26T18:10:27Z</time>
      </trkpt>
      <trkpt lat="45.64681" lon="4.81466">
        <ele>164.04211425781</ele>
        <time>2010-08-26T18:10:29Z</time>
      </trkpt>
      <trkpt lat="45.64664" lon="4.81491">
        <ele>164.52270507812</ele>
        <time>2010-08-26T18:10:35Z</time>
      </trkpt>
      <trkpt lat="45.64638" lon="4.8153">
        <ele>165.00341796875</ele>
        <time>2010-08-26T18:10:44Z</time>
      </trkpt>
      <trkpt lat="45.64605" lon="4.81578">
        <ele>167.40673828125</ele>
        <time>2010-08-26T18:10:55Z</time>
      </trkpt>
      <trkpt lat="45.64587" lon="4.81605">
        <ele>169.32946777344</ele>
        <time>2010-08-26T18:11:01Z</time>
      </trkpt>
      <trkpt lat="45.64566" lon="4.81637">
        <ele>168.36804199219</ele>
        <time>2010-08-26T18:11:08Z</time>
      </trkpt>
      <trkpt lat="45.64537" lon="4.8168">
        <ele>167.40673828125</ele>
        <time>2010-08-26T18:11:16Z</time>
      </trkpt>
      <trkpt lat="45.645" lon="4.81733">
        <ele>166.4453125</ele>
        <time>2010-08-26T18:11:25Z</time>
      </trkpt>
      <trkpt lat="45.64468" lon="4.8178">
        <ele>165.00341796875</ele>
        <time>2010-08-26T18:11:32Z</time>
      </trkpt>
      <trkpt lat="45.64439" lon="4.8182">
        <ele>165.00341796875</ele>
        <time>2010-08-26T18:11:38Z</time>
      </trkpt>
      <trkpt lat="45.64426" lon="4.81838">
        <ele>164.52270507812</ele>
        <time>2010-08-26T18:11:41Z</time>
      </trkpt>
      <trkpt lat="45.64409" lon="4.81854">
        <ele>163.5615234375</ele>
        <time>2010-08-26T18:11:44Z</time>
      </trkpt>
      <trkpt lat="45.64365" lon="4.81889">
        <ele>163.08081054688</ele>
        <time>2010-08-26T18:11:52Z</time>
      </trkpt>
      <trkpt lat="45.6435" lon="4.81902">
        <ele>162.11950683594</ele>
        <time>2010-08-26T18:11:56Z</time>
      </trkpt>
      <trkpt lat="45.64348" lon="4.81905">
        <ele>162.11950683594</ele>
        <time>2010-08-26T18:11:57Z</time>
      </trkpt>
      <trkpt lat="45.64344" lon="4.81906">
        <ele>162.11950683594</ele>
        <time>2010-08-26T18:12:01Z</time>
      </trkpt>
      <trkpt lat="45.64343" lon="4.81905">
        <ele>162.11950683594</ele>
        <time>2010-08-26T18:12:15Z</time>
      </trkpt>
      <trkpt lat="45.64342" lon="4.81906">
        <ele>162.11950683594</ele>
        <time>2010-08-26T18:12:21Z</time>
      </trkpt>
      <trkpt lat="45.64342" lon="4.81906">
        <ele>161.158203125</ele>
        <time>2010-08-26T18:12:30Z</time>
      </trkpt>
      <trkpt lat="45.64336" lon="4.81917">
        <ele>161.158203125</ele>
        <time>2010-08-26T18:12:35Z</time>
      </trkpt>
      <trkpt lat="45.64331" lon="4.81921">
        <ele>161.158203125</ele>
        <time>2010-08-26T18:12:37Z</time>
      </trkpt>
      <trkpt lat="45.64317" lon="4.81926">
        <ele>161.158203125</ele>
        <time>2010-08-26T18:12:44Z</time>
      </trkpt>
      <trkpt lat="45.64312" lon="4.81919">
        <ele>161.158203125</ele>
        <time>2010-08-26T18:12:48Z</time>
      </trkpt>
      <trkpt lat="45.64304" lon="4.81893">
        <ele>162.11950683594</ele>
        <time>2010-08-26T18:12:54Z</time>
      </trkpt>
      <trkpt lat="45.64288" lon="4.81868">
        <ele>162.11950683594</ele>
        <time>2010-08-26T18:13:00Z</time>
      </trkpt>
      <trkpt lat="45.64278" lon="4.81854">
        <ele>161.63891601562</ele>
        <time>2010-08-26T18:13:03Z</time>
      </trkpt>
      <trkpt lat="45.64246" lon="4.81832">
        <ele>162.11950683594</ele>
        <time>2010-08-26T18:13:10Z</time>
      </trkpt>
      <trkpt lat="45.64236" lon="4.81826">
        <ele>161.63891601562</ele>
        <time>2010-08-26T18:13:12Z</time>
      </trkpt>
      <trkpt lat="45.64209" lon="4.81825">
        <ele>162.11950683594</ele>
        <time>2010-08-26T18:13:17Z</time>
      </trkpt>
      <trkpt lat="45.64186" lon="4.81821">
        <ele>161.63891601562</ele>
        <time>2010-08-26T18:13:21Z</time>
      </trkpt>
      <trkpt lat="45.64156" lon="4.81819">
        <ele>162.11950683594</ele>
        <time>2010-08-26T18:13:26Z</time>
      </trkpt>
      <trkpt lat="45.6413" lon="4.81802">
        <ele>161.63891601562</ele>
        <time>2010-08-26T18:13:31Z</time>
      </trkpt>
      <trkpt lat="45.64124" lon="4.8178">
        <ele>162.11950683594</ele>
        <time>2010-08-26T18:13:34Z</time>
      </trkpt>
      <trkpt lat="45.64125" lon="4.81772">
        <ele>162.11950683594</ele>
        <time>2010-08-26T18:13:35Z</time>
      </trkpt>
      <trkpt lat="45.64124" lon="4.81713">
        <ele>162.11950683594</ele>
        <time>2010-08-26T18:13:42Z</time>
      </trkpt>
      <trkpt lat="45.64119" lon="4.81647">
        <ele>162.11950683594</ele>
        <time>2010-08-26T18:13:50Z</time>
      </trkpt>
      <trkpt lat="45.64108" lon="4.81593">
        <ele>161.63891601562</ele>
        <time>2010-08-26T18:13:57Z</time>
      </trkpt>
      <trkpt lat="45.6409" lon="4.81555">
        <ele>162.11950683594</ele>
        <time>2010-08-26T18:14:03Z</time>
      </trkpt>
      <trkpt lat="45.64086" lon="4.81536">
        <ele>161.63891601562</ele>
        <time>2010-08-26T18:14:07Z</time>
      </trkpt>
      <trkpt lat="45.64097" lon="4.81525">
        <ele>160.67749023438</ele>
        <time>2010-08-26T18:14:12Z</time>
      </trkpt>
      <trkpt lat="45.64117" lon="4.81521">
        <ele>160.67749023438</ele>
        <time>2010-08-26T18:14:17Z</time>
      </trkpt>
      <trkpt lat="45.64143" lon="4.81519">
        <ele>160.67749023438</ele>
        <time>2010-08-26T18:14:22Z</time>
      </trkpt>
      <trkpt lat="45.64177" lon="4.81517">
        <ele>161.158203125</ele>
        <time>2010-08-26T18:14:28Z</time>
      </trkpt>
      <trkpt lat="45.64222" lon="4.81512">
        <ele>160.67749023438</ele>
        <time>2010-08-26T18:14:35Z</time>
      </trkpt>
      <trkpt lat="45.64245" lon="4.81507">
        <ele>160.67749023438</ele>
        <time>2010-08-26T18:14:39Z</time>
      </trkpt>
      <trkpt lat="45.64266" lon="4.81504">
        <ele>160.19689941406</ele>
        <time>2010-08-26T18:14:43Z</time>
      </trkpt>
      <trkpt lat="45.64273" lon="4.81494">
        <ele>159.23547363281</ele>
        <time>2010-08-26T18:14:46Z</time>
      </trkpt>
      <trkpt lat="45.64267" lon="4.81482">
        <ele>159.23547363281</ele>
        <time>2010-08-26T18:14:49Z</time>
      </trkpt>
      <trkpt lat="45.64258" lon="4.8147">
        <ele>158.27416992188</ele>
        <time>2010-08-26T18:14:52Z</time>
      </trkpt>
      <trkpt lat="45.64251" lon="4.81443">
        <ele>159.23547363281</ele>
        <time>2010-08-26T18:14:56Z</time>
      </trkpt>
      <trkpt lat="45.64248" lon="4.81427">
        <ele>159.23547363281</ele>
        <time>2010-08-26T18:14:58Z</time>
      </trkpt>
      <trkpt lat="45.64243" lon="4.81412">
        <ele>159.23547363281</ele>
        <time>2010-08-26T18:15:00Z</time>
      </trkpt>
      <trkpt lat="45.64221" lon="4.81381">
        <ele>158.27416992188</ele>
        <time>2010-08-26T18:15:05Z</time>
      </trkpt>
      <trkpt lat="45.64195" lon="4.81357">
        <ele>158.75476074219</ele>
        <time>2010-08-26T18:15:10Z</time>
      </trkpt>
      <trkpt lat="45.64183" lon="4.81339">
        <ele>158.27416992188</ele>
        <time>2010-08-26T18:15:13Z</time>
      </trkpt>
      <trkpt lat="45.64157" lon="4.81313">
        <ele>157.31286621094</ele>
        <time>2010-08-26T18:15:18Z</time>
      </trkpt>
      <trkpt lat="45.6414" lon="4.81305">
        <ele>157.31286621094</ele>
        <time>2010-08-26T18:15:21Z</time>
      </trkpt>
      <trkpt lat="45.64114" lon="4.813">
        <ele>158.27416992188</ele>
        <time>2010-08-26T18:15:26Z</time>
      </trkpt>
      <trkpt lat="45.64109" lon="4.81295">
        <ele>158.27416992188</ele>
        <time>2010-08-26T18:15:27Z</time>
      </trkpt>
      <trkpt lat="45.64094" lon="4.81281">
        <ele>158.75476074219</ele>
        <time>2010-08-26T18:15:30Z</time>
      </trkpt>
      <trkpt lat="45.64085" lon="4.8127">
        <ele>158.27416992188</ele>
        <time>2010-08-26T18:15:32Z</time>
      </trkpt>
      <trkpt lat="45.64075" lon="4.81259">
        <ele>158.27416992188</ele>
        <time>2010-08-26T18:15:34Z</time>
      </trkpt>
      <trkpt lat="45.64055" lon="4.8124">
        <ele>157.31286621094</ele>
        <time>2010-08-26T18:15:38Z</time>
      </trkpt>
      <trkpt lat="45.64039" lon="4.81227">
        <ele>156.83215332031</ele>
        <time>2010-08-26T18:15:41Z</time>
      </trkpt>
      <trkpt lat="45.64017" lon="4.8122">
        <ele>157.79357910156</ele>
        <time>2010-08-26T18:15:45Z</time>
      </trkpt>
      <trkpt lat="45.64013" lon="4.81217">
        <ele>158.27416992188</ele>
        <time>2010-08-26T18:15:46Z</time>
      </trkpt>
      <trkpt lat="45.63988" lon="4.81198">
        <ele>157.31286621094</ele>
        <time>2010-08-26T18:15:51Z</time>
      </trkpt>
      <trkpt lat="45.63966" lon="4.81189">
        <ele>157.79357910156</ele>
        <time>2010-08-26T18:15:55Z</time>
      </trkpt>
      <trkpt lat="45.63949" lon="4.81176">
        <ele>157.79357910156</ele>
        <time>2010-08-26T18:15:59Z</time>
      </trkpt>
      <trkpt lat="45.6394" lon="4.81168">
        <ele>157.31286621094</ele>
        <time>2010-08-26T18:16:01Z</time>
      </trkpt>
      <trkpt lat="45.6391" lon="4.81158">
        <ele>158.27416992188</ele>
        <time>2010-08-26T18:16:07Z</time>
      </trkpt>
      <trkpt lat="45.63893" lon="4.81157">
        <ele>159.71618652344</ele>
        <time>2010-08-26T18:16:11Z</time>
      </trkpt>
      <trkpt lat="45.63887" lon="4.81157">
        <ele>160.67749023438</ele>
        <time>2010-08-26T18:16:12Z</time>
      </trkpt>
      <trkpt lat="45.63862" lon="4.81144">
        <ele>158.75476074219</ele>
        <time>2010-08-26T18:16:17Z</time>
      </trkpt>
      <trkpt lat="45.63854" lon="4.81147">
        <ele>158.27416992188</ele>
        <time>2010-08-26T18:16:19Z</time>
      </trkpt>
      <trkpt lat="45.6385" lon="4.81169">
        <ele>158.27416992188</ele>
        <time>2010-08-26T18:16:22Z</time>
      </trkpt>
      <trkpt lat="45.63846" lon="4.812">
        <ele>157.79357910156</ele>
        <time>2010-08-26T18:16:26Z</time>
      </trkpt>
      <trkpt lat="45.6384" lon="4.81209">
        <ele>158.27416992188</ele>
        <time>2010-08-26T18:16:28Z</time>
      </trkpt>
      <trkpt lat="45.63832" lon="4.81218">
        <ele>158.27416992188</ele>
        <time>2010-08-26T18:16:32Z</time>
      </trkpt>
      <trkpt lat="45.63831" lon="4.81219">
        <ele>157.79357910156</ele>
        <time>2010-08-26T18:16:59Z</time>
      </trkpt>
      <trkpt lat="45.63834" lon="4.81236">
        <ele>158.27416992188</ele>
        <time>2010-08-26T18:17:05Z</time>
      </trkpt>
      <trkpt lat="45.63841" lon="4.8125">
        <ele>158.27416992188</ele>
        <time>2010-08-26T18:17:09Z</time>
      </trkpt>
      <trkpt lat="45.63842" lon="4.81271">
        <ele>157.79357910156</ele>
        <time>2010-08-26T18:17:13Z</time>
      </trkpt>
      <trkpt lat="45.63842" lon="4.81278">
        <ele>157.31286621094</ele>
        <time>2010-08-26T18:17:14Z</time>
      </trkpt>
      <trkpt lat="45.63844" lon="4.81293">
        <ele>156.3515625</ele>
        <time>2010-08-26T18:17:16Z</time>
      </trkpt>
      <trkpt lat="45.63857" lon="4.81309">
        <ele>157.31286621094</ele>
        <time>2010-08-26T18:17:19Z</time>
      </trkpt>
      <trkpt lat="45.6386" lon="4.81315">
        <ele>157.79357910156</ele>
        <time>2010-08-26T18:17:20Z</time>
      </trkpt>
      <trkpt lat="45.63873" lon="4.81336">
        <ele>157.79357910156</ele>
        <time>2010-08-26T18:17:24Z</time>
      </trkpt>
      <trkpt lat="45.6389" lon="4.81364">
        <ele>156.3515625</ele>
        <time>2010-08-26T18:17:29Z</time>
      </trkpt>
      <trkpt lat="45.63895" lon="4.81394">
        <ele>156.83215332031</ele>
        <time>2010-08-26T18:17:32Z</time>
      </trkpt>
      <trkpt lat="45.639" lon="4.81418">
        <ele>157.79357910156</ele>
        <time>2010-08-26T18:17:35Z</time>
      </trkpt>
      <trkpt lat="45.63905" lon="4.81434">
        <ele>158.27416992188</ele>
        <time>2010-08-26T18:17:37Z</time>
      </trkpt>
      <trkpt lat="45.63919" lon="4.81462">
        <ele>157.31286621094</ele>
        <time>2010-08-26T18:17:41Z</time>
      </trkpt>
      <trkpt lat="45.63925" lon="4.81477">
        <ele>158.75476074219</ele>
        <time>2010-08-26T18:17:43Z</time>
      </trkpt>
      <trkpt lat="45.6393" lon="4.8149">
        <ele>159.71618652344</ele>
        <time>2010-08-26T18:17:45Z</time>
      </trkpt>
      <trkpt lat="45.63938" lon="4.81508">
        <ele>161.158203125</ele>
        <time>2010-08-26T18:17:48Z</time>
      </trkpt>
      <trkpt lat="45.63945" lon="4.81532">
        <ele>160.67749023438</ele>
        <time>2010-08-26T18:17:52Z</time>
      </trkpt>
      <trkpt lat="45.63945" lon="4.81537">
        <ele>160.67749023438</ele>
        <time>2010-08-26T18:17:57Z</time>
      </trkpt>
      <trkpt lat="45.63943" lon="4.81538">
        <ele>160.67749023438</ele>
        <time>2010-08-26T18:18:30Z</time>
      </trkpt>
      <trkpt lat="45.63942" lon="4.81538">
        <ele>161.158203125</ele>
        <time>2010-08-26T18:18:34Z</time>
      </trkpt>
      <trkpt lat="45.63934" lon="4.81541">
        <ele>159.71618652344</ele>
        <time>2010-08-26T18:18:38Z</time>
      </trkpt>
      <trkpt lat="45.63929" lon="4.81544">
        <ele>159.71618652344</ele>
        <time>2010-08-26T18:18:39Z</time>
      </trkpt>
      <trkpt lat="45.6392" lon="4.81551">
        <ele>159.23547363281</ele>
        <time>2010-08-26T18:18:41Z</time>
      </trkpt>
      <trkpt lat="45.63904" lon="4.81559">
        <ele>158.75476074219</ele>
        <time>2010-08-26T18:18:44Z</time>
      </trkpt>
      <trkpt lat="45.63889" lon="4.81569">
        <ele>158.75476074219</ele>
        <time>2010-08-26T18:18:47Z</time>
      </trkpt>
      <trkpt lat="45.63871" lon="4.81575">
        <ele>158.27416992188</ele>
        <time>2010-08-26T18:18:51Z</time>
      </trkpt>
      <trkpt lat="45.63869" lon="4.81579">
        <ele>158.27416992188</ele>
        <time>2010-08-26T18:18:52Z</time>
      </trkpt>
      <trkpt lat="45.63858" lon="4.81596">
        <ele>159.23547363281</ele>
        <time>2010-08-26T18:18:57Z</time>
      </trkpt>
      <trkpt lat="45.63857" lon="4.81598">
        <ele>159.71618652344</ele>
        <time>2010-08-26T18:18:58Z</time>
      </trkpt>
      <trkpt lat="45.63855" lon="4.81603">
        <ele>159.23547363281</ele>
        <time>2010-08-26T18:19:03Z</time>
      </trkpt>
      <trkpt lat="45.63855" lon="4.81601">
        <ele>159.71618652344</ele>
        <time>2010-08-26T18:19:05Z</time>
      </trkpt>
      <trkpt lat="45.63863" lon="4.81592">
        <ele>158.75476074219</ele>
        <time>2010-08-26T18:19:10Z</time>
      </trkpt>
      <trkpt lat="45.63867" lon="4.81583">
        <ele>158.27416992188</ele>
        <time>2010-08-26T18:19:12Z</time>
      </trkpt>
      <trkpt lat="45.63867" lon="4.8156">
        <ele>158.27416992188</ele>
        <time>2010-08-26T18:19:16Z</time>
      </trkpt>
      <trkpt lat="45.63857" lon="4.81521">
        <ele>158.75476074219</ele>
        <time>2010-08-26T18:19:22Z</time>
      </trkpt>
      <trkpt lat="45.63845" lon="4.81481">
        <ele>158.75476074219</ele>
        <time>2010-08-26T18:19:28Z</time>
      </trkpt>
      <trkpt lat="45.63842" lon="4.81467">
        <ele>157.79357910156</ele>
        <time>2010-08-26T18:19:30Z</time>
      </trkpt>
      <trkpt lat="45.63832" lon="4.81425">
        <ele>158.75476074219</ele>
        <time>2010-08-26T18:19:37Z</time>
      </trkpt>
      <trkpt lat="45.6382" lon="4.8138">
        <ele>159.23547363281</ele>
        <time>2010-08-26T18:19:44Z</time>
      </trkpt>
      <trkpt lat="45.63806" lon="4.8134">
        <ele>158.27416992188</ele>
        <time>2010-08-26T18:19:50Z</time>
      </trkpt>
      <trkpt lat="45.63802" lon="4.81311">
        <ele>158.75476074219</ele>
        <time>2010-08-26T18:19:54Z</time>
      </trkpt>
      <trkpt lat="45.63799" lon="4.81305">
        <ele>159.23547363281</ele>
        <time>2010-08-26T18:19:55Z</time>
      </trkpt>
      <trkpt lat="45.63791" lon="4.81285">
        <ele>159.71618652344</ele>
        <time>2010-08-26T18:19:58Z</time>
      </trkpt>
      <trkpt lat="45.63771" lon="4.81256">
        <ele>159.23547363281</ele>
        <time>2010-08-26T18:20:03Z</time>
      </trkpt>
      <trkpt lat="45.63742" lon="4.81215">
        <ele>159.71618652344</ele>
        <time>2010-08-26T18:20:10Z</time>
      </trkpt>
      <trkpt lat="45.63721" lon="4.81193">
        <ele>159.71618652344</ele>
        <time>2010-08-26T18:20:14Z</time>
      </trkpt>
      <trkpt lat="45.63709" lon="4.81169">
        <ele>158.27416992188</ele>
        <time>2010-08-26T18:20:18Z</time>
      </trkpt>
      <trkpt lat="45.63701" lon="4.81164">
        <ele>157.31286621094</ele>
        <time>2010-08-26T18:20:21Z</time>
      </trkpt>
      <trkpt lat="45.63688" lon="4.81154">
        <ele>157.31286621094</ele>
        <time>2010-08-26T18:20:25Z</time>
      </trkpt>
      <trkpt lat="45.63675" lon="4.8114">
        <ele>157.79357910156</ele>
        <time>2010-08-26T18:20:30Z</time>
      </trkpt>
      <trkpt lat="45.63667" lon="4.81131">
        <ele>157.79357910156</ele>
        <time>2010-08-26T18:20:33Z</time>
      </trkpt>
      <trkpt lat="45.63659" lon="4.81125">
        <ele>158.27416992188</ele>
        <time>2010-08-26T18:20:37Z</time>
      </trkpt>
      <trkpt lat="45.63652" lon="4.81117">
        <ele>157.79357910156</ele>
        <time>2010-08-26T18:20:41Z</time>
      </trkpt>
      <trkpt lat="45.63641" lon="4.81108">
        <ele>158.27416992188</ele>
        <time>2010-08-26T18:20:45Z</time>
      </trkpt>
      <trkpt lat="45.63623" lon="4.81093">
        <ele>157.79357910156</ele>
        <time>2010-08-26T18:20:50Z</time>
      </trkpt>
      <trkpt lat="45.6362" lon="4.81091">
        <ele>158.27416992188</ele>
        <time>2010-08-26T18:20:51Z</time>
      </trkpt>
      <trkpt lat="45.63615" lon="4.81076">
        <ele>156.83215332031</ele>
        <time>2010-08-26T18:20:55Z</time>
      </trkpt>
      <trkpt lat="45.63613" lon="4.81075">
        <ele>158.27416992188</ele>
        <time>2010-08-26T18:20:59Z</time>
      </trkpt>
      <trkpt lat="45.6361" lon="4.81078">
        <ele>158.27416992188</ele>
        <time>2010-08-26T18:21:02Z</time>
      </trkpt>
      <trkpt lat="45.63607" lon="4.81078">
        <ele>157.79357910156</ele>
        <time>2010-08-26T18:21:07Z</time>
      </trkpt>
      <trkpt lat="45.63608" lon="4.81077">
        <ele>157.31286621094</ele>
        <time>2010-08-26T18:21:12Z</time>
      </trkpt>
      <trkpt lat="45.6361" lon="4.81074">
        <ele>157.31286621094</ele>
        <time>2010-08-26T18:21:15Z</time>
      </trkpt>
      <trkpt lat="45.63605" lon="4.81066">
        <ele>157.31286621094</ele>
        <time>2010-08-26T18:21:20Z</time>
      </trkpt>
      <trkpt lat="45.63604" lon="4.81063">
        <ele>157.31286621094</ele>
        <time>2010-08-26T18:21:21Z</time>
      </trkpt>
      <trkpt lat="45.63598" lon="4.81043">
        <ele>156.83215332031</ele>
        <time>2010-08-26T18:21:27Z</time>
      </trkpt>
      <trkpt lat="45.63597" lon="4.81025">
        <ele>156.3515625</ele>
        <time>2010-08-26T18:21:31Z</time>
      </trkpt>
      <trkpt lat="45.63596" lon="4.8102">
        <ele>155.87097167969</ele>
        <time>2010-08-26T18:21:32Z</time>
      </trkpt>
      <trkpt lat="45.63583" lon="4.81005">
        <ele>156.3515625</ele>
        <time>2010-08-26T18:21:36Z</time>
      </trkpt>
      <trkpt lat="45.63573" lon="4.81">
        <ele>155.87097167969</ele>
        <time>2010-08-26T18:21:38Z</time>
      </trkpt>
      <trkpt lat="45.63554" lon="4.80986">
        <ele>155.87097167969</ele>
        <time>2010-08-26T18:21:42Z</time>
      </trkpt>
      <trkpt lat="45.63535" lon="4.80971">
        <ele>154.90954589844</ele>
        <time>2010-08-26T18:21:47Z</time>
      </trkpt>
      <trkpt lat="45.63525" lon="4.80959">
        <ele>153.46765136719</ele>
        <time>2010-08-26T18:21:51Z</time>
      </trkpt>
      <trkpt lat="45.63514" lon="4.80949">
        <ele>152.98693847656</ele>
        <time>2010-08-26T18:21:54Z</time>
      </trkpt>
      <trkpt lat="45.63506" lon="4.80945">
        <ele>153.46765136719</ele>
        <time>2010-08-26T18:21:56Z</time>
      </trkpt>
      <trkpt lat="45.63493" lon="4.80941">
        <ele>153.94836425781</ele>
        <time>2010-08-26T18:21:59Z</time>
      </trkpt>
      <trkpt lat="45.63475" lon="4.80933">
        <ele>153.94836425781</ele>
        <time>2010-08-26T18:22:03Z</time>
      </trkpt>
      <trkpt lat="45.63448" lon="4.80927">
        <ele>152.98693847656</ele>
        <time>2010-08-26T18:22:09Z</time>
      </trkpt>
      <trkpt lat="45.63414" lon="4.80915">
        <ele>153.46765136719</ele>
        <time>2010-08-26T18:22:17Z</time>
      </trkpt>
      <trkpt lat="45.6339" lon="4.80911">
        <ele>152.98693847656</ele>
        <time>2010-08-26T18:22:23Z</time>
      </trkpt>
      <trkpt lat="45.63378" lon="4.80909">
        <ele>153.46765136719</ele>
        <time>2010-08-26T18:22:26Z</time>
      </trkpt>
      <trkpt lat="45.6335" lon="4.80899">
        <ele>153.46765136719</ele>
        <time>2010-08-26T18:22:33Z</time>
      </trkpt>
      <trkpt lat="45.63341" lon="4.80897">
        <ele>153.46765136719</ele>
        <time>2010-08-26T18:22:35Z</time>
      </trkpt>
      <trkpt lat="45.63323" lon="4.80893">
        <ele>153.46765136719</ele>
        <time>2010-08-26T18:22:39Z</time>
      </trkpt>
      <trkpt lat="45.63301" lon="4.80889">
        <ele>153.46765136719</ele>
        <time>2010-08-26T18:22:44Z</time>
      </trkpt>
      <trkpt lat="45.63281" lon="4.80881">
        <ele>153.46765136719</ele>
        <time>2010-08-26T18:22:49Z</time>
      </trkpt>
      <trkpt lat="45.63268" lon="4.80879">
        <ele>153.46765136719</ele>
        <time>2010-08-26T18:22:52Z</time>
      </trkpt>
      <trkpt lat="45.63237" lon="4.80871">
        <ele>153.46765136719</ele>
        <time>2010-08-26T18:23:00Z</time>
      </trkpt>
      <trkpt lat="45.63214" lon="4.80868">
        <ele>153.46765136719</ele>
        <time>2010-08-26T18:23:06Z</time>
      </trkpt>
      <trkpt lat="45.63177" lon="4.80861">
        <ele>154.42895507812</ele>
        <time>2010-08-26T18:23:15Z</time>
      </trkpt>
      <trkpt lat="45.63145" lon="4.80858">
        <ele>153.46765136719</ele>
        <time>2010-08-26T18:23:23Z</time>
      </trkpt>
      <trkpt lat="45.63113" lon="4.80855">
        <ele>154.42895507812</ele>
        <time>2010-08-26T18:23:31Z</time>
      </trkpt>
      <trkpt lat="45.63088" lon="4.80856">
        <ele>155.39025878906</ele>
        <time>2010-08-26T18:23:37Z</time>
      </trkpt>
      <trkpt lat="45.6305" lon="4.80855">
        <ele>154.42895507812</ele>
        <time>2010-08-26T18:23:46Z</time>
      </trkpt>
      <trkpt lat="45.63037" lon="4.80854">
        <ele>154.42895507812</ele>
        <time>2010-08-26T18:23:49Z</time>
      </trkpt>
      <trkpt lat="45.63012" lon="4.80855">
        <ele>153.94836425781</ele>
        <time>2010-08-26T18:23:55Z</time>
      </trkpt>
      <trkpt lat="45.62972" lon="4.80855">
        <ele>154.42895507812</ele>
        <time>2010-08-26T18:24:04Z</time>
      </trkpt>
      <trkpt lat="45.62963" lon="4.80858">
        <ele>154.90954589844</ele>
        <time>2010-08-26T18:24:08Z</time>
      </trkpt>
      <trkpt lat="45.62963" lon="4.8086">
        <ele>153.94836425781</ele>
        <time>2010-08-26T18:24:27Z</time>
      </trkpt>
      <trkpt lat="45.62964" lon="4.80863">
        <ele>154.90954589844</ele>
        <time>2010-08-26T18:25:13Z</time>
      </trkpt>
      <trkpt lat="45.62966" lon="4.80858">
        <ele>154.42895507812</ele>
        <time>2010-08-26T18:26:07Z</time>
      </trkpt>
      <trkpt lat="45.62968" lon="4.80878">
        <ele>155.87097167969</ele>
        <time>2010-08-26T18:26:14Z</time>
      </trkpt>
      <trkpt lat="45.62968" lon="4.80912">
        <ele>156.83215332031</ele>
        <time>2010-08-26T18:26:21Z</time>
      </trkpt>
      <trkpt lat="45.62974" lon="4.80945">
        <ele>157.31286621094</ele>
        <time>2010-08-26T18:26:28Z</time>
      </trkpt>
      <trkpt lat="45.62986" lon="4.80968">
        <ele>156.83215332031</ele>
        <time>2010-08-26T18:26:34Z</time>
      </trkpt>
      <trkpt lat="45.6299" lon="4.80973">
        <ele>156.83215332031</ele>
        <time>2010-08-26T18:26:38Z</time>
      </trkpt>
      <trkpt lat="45.6299" lon="4.80974">
        <ele>156.83215332031</ele>
        <time>2010-08-26T18:26:39Z</time>
      </trkpt>
      <trkpt lat="45.62994" lon="4.80987">
        <ele>157.31286621094</ele>
        <time>2010-08-26T18:26:45Z</time>
      </trkpt>
      <trkpt lat="45.63005" lon="4.81018">
        <ele>156.3515625</ele>
        <time>2010-08-26T18:26:53Z</time>
      </trkpt>
      <trkpt lat="45.63018" lon="4.81049">
        <ele>156.3515625</ele>
        <time>2010-08-26T18:27:00Z</time>
      </trkpt>
      <trkpt lat="45.6303" lon="4.81078">
        <ele>156.3515625</ele>
        <time>2010-08-26T18:27:06Z</time>
      </trkpt>
      <trkpt lat="45.63045" lon="4.81113">
        <ele>155.87097167969</ele>
        <time>2010-08-26T18:27:13Z</time>
      </trkpt>
      <trkpt lat="45.63063" lon="4.81154">
        <ele>156.83215332031</ele>
        <time>2010-08-26T18:27:21Z</time>
      </trkpt>
      <trkpt lat="45.63078" lon="4.8119">
        <ele>157.79357910156</ele>
        <time>2010-08-26T18:27:28Z</time>
      </trkpt>
      <trkpt lat="45.6309" lon="4.8122">
        <ele>157.31286621094</ele>
        <time>2010-08-26T18:27:34Z</time>
      </trkpt>
      <trkpt lat="45.63105" lon="4.8125">
        <ele>158.27416992188</ele>
        <time>2010-08-26T18:27:41Z</time>
      </trkpt>
      <trkpt lat="45.63118" lon="4.81263">
        <ele>158.27416992188</ele>
        <time>2010-08-26T18:27:46Z</time>
      </trkpt>
      <trkpt lat="45.63126" lon="4.8127">
        <ele>158.27416992188</ele>
        <time>2010-08-26T18:27:50Z</time>
      </trkpt>
      <trkpt lat="45.63137" lon="4.81275">
        <ele>158.75476074219</ele>
        <time>2010-08-26T18:27:54Z</time>
      </trkpt>
      <trkpt lat="45.63143" lon="4.81279">
        <ele>159.71618652344</ele>
        <time>2010-08-26T18:27:56Z</time>
      </trkpt>
      <trkpt lat="45.6316" lon="4.8129">
        <ele>161.158203125</ele>
        <time>2010-08-26T18:28:02Z</time>
      </trkpt>
      <trkpt lat="45.63179" lon="4.81302">
        <ele>162.11950683594</ele>
        <time>2010-08-26T18:28:08Z</time>
      </trkpt>
      <trkpt lat="45.63198" lon="4.81313">
        <ele>161.63891601562</ele>
        <time>2010-08-26T18:28:13Z</time>
      </trkpt>
      <trkpt lat="45.6322" lon="4.81327">
        <ele>161.63891601562</ele>
        <time>2010-08-26T18:28:18Z</time>
      </trkpt>
      <trkpt lat="45.63251" lon="4.81349">
        <ele>161.158203125</ele>
        <time>2010-08-26T18:28:25Z</time>
      </trkpt>
      <trkpt lat="45.63255" lon="4.81351">
        <ele>161.158203125</ele>
        <time>2010-08-26T18:28:26Z</time>
      </trkpt>
      <trkpt lat="45.63273" lon="4.81363">
        <ele>160.67749023438</ele>
        <time>2010-08-26T18:28:30Z</time>
      </trkpt>
      <trkpt lat="45.63281" lon="4.81368">
        <ele>160.67749023438</ele>
        <time>2010-08-26T18:28:32Z</time>
      </trkpt>
      <trkpt lat="45.63311" lon="4.81383">
        <ele>160.67749023438</ele>
        <time>2010-08-26T18:28:39Z</time>
      </trkpt>
      <trkpt lat="45.63329" lon="4.81393">
        <ele>160.67749023438</ele>
        <time>2010-08-26T18:28:43Z</time>
      </trkpt>
      <trkpt lat="45.63353" lon="4.81408">
        <ele>160.67749023438</ele>
        <time>2010-08-26T18:28:49Z</time>
      </trkpt>
      <trkpt lat="45.63376" lon="4.81423">
        <ele>160.67749023438</ele>
        <time>2010-08-26T18:28:55Z</time>
      </trkpt>
      <trkpt lat="45.63395" lon="4.81435">
        <ele>161.158203125</ele>
        <time>2010-08-26T18:29:00Z</time>
      </trkpt>
      <trkpt lat="45.63417" lon="4.81452">
        <ele>161.63891601562</ele>
        <time>2010-08-26T18:29:06Z</time>
      </trkpt>
      <trkpt lat="45.63433" lon="4.81464">
        <ele>161.63891601562</ele>
        <time>2010-08-26T18:29:11Z</time>
      </trkpt>
      <trkpt lat="45.63451" lon="4.81475">
        <ele>161.158203125</ele>
        <time>2010-08-26T18:29:16Z</time>
      </trkpt>
      <trkpt lat="45.63475" lon="4.81488">
        <ele>161.158203125</ele>
        <time>2010-08-26T18:29:22Z</time>
      </trkpt>
      <trkpt lat="45.63496" lon="4.81499">
        <ele>160.67749023438</ele>
        <time>2010-08-26T18:29:27Z</time>
      </trkpt>
      <trkpt lat="45.6351" lon="4.81511">
        <ele>161.158203125</ele>
        <time>2010-08-26T18:29:31Z</time>
      </trkpt>
      <trkpt lat="45.6353" lon="4.81532">
        <ele>161.63891601562</ele>
        <time>2010-08-26T18:29:37Z</time>
      </trkpt>
      <trkpt lat="45.63544" lon="4.81544">
        <ele>161.158203125</ele>
        <time>2010-08-26T18:29:41Z</time>
      </trkpt>
      <trkpt lat="45.63547" lon="4.81547">
        <ele>161.63891601562</ele>
        <time>2010-08-26T18:29:42Z</time>
      </trkpt>
      <trkpt lat="45.63567" lon="4.81567">
        <ele>160.67749023438</ele>
        <time>2010-08-26T18:29:48Z</time>
      </trkpt>
      <trkpt lat="45.63571" lon="4.81567">
        <ele>159.71618652344</ele>
        <time>2010-08-26T18:29:49Z</time>
      </trkpt>
      <trkpt lat="45.63598" lon="4.81582">
        <ele>159.71618652344</ele>
        <time>2010-08-26T18:29:54Z</time>
      </trkpt>
      <trkpt lat="45.63609" lon="4.81588">
        <ele>160.67749023438</ele>
        <time>2010-08-26T18:29:56Z</time>
      </trkpt>
      <trkpt lat="45.63643" lon="4.81613">
        <ele>161.63891601562</ele>
        <time>2010-08-26T18:30:03Z</time>
      </trkpt>
      <trkpt lat="45.63667" lon="4.8163">
        <ele>161.63891601562</ele>
        <time>2010-08-26T18:30:07Z</time>
      </trkpt>
      <trkpt lat="45.63696" lon="4.81654">
        <ele>161.63891601562</ele>
        <time>2010-08-26T18:30:12Z</time>
      </trkpt>
      <trkpt lat="45.63717" lon="4.81675">
        <ele>161.63891601562</ele>
        <time>2010-08-26T18:30:16Z</time>
      </trkpt>
      <trkpt lat="45.63744" lon="4.81695">
        <ele>160.67749023438</ele>
        <time>2010-08-26T18:30:21Z</time>
      </trkpt>
      <trkpt lat="45.63775" lon="4.81719">
        <ele>160.67749023438</ele>
        <time>2010-08-26T18:30:27Z</time>
      </trkpt>
      <trkpt lat="45.63795" lon="4.81735">
        <ele>160.67749023438</ele>
        <time>2010-08-26T18:30:31Z</time>
      </trkpt>
      <trkpt lat="45.63822" lon="4.81755">
        <ele>160.67749023438</ele>
        <time>2010-08-26T18:30:36Z</time>
      </trkpt>
      <trkpt lat="45.63857" lon="4.81776">
        <ele>161.158203125</ele>
        <time>2010-08-26T18:30:42Z</time>
      </trkpt>
      <trkpt lat="45.6389" lon="4.81795">
        <ele>162.60009765625</ele>
        <time>2010-08-26T18:30:47Z</time>
      </trkpt>
      <trkpt lat="45.63924" lon="4.81821">
        <ele>162.11950683594</ele>
        <time>2010-08-26T18:30:52Z</time>
      </trkpt>
      <trkpt lat="45.63957" lon="4.81857">
        <ele>162.11950683594</ele>
        <time>2010-08-26T18:30:57Z</time>
      </trkpt>
      <trkpt lat="45.6399" lon="4.8189">
        <ele>162.60009765625</ele>
        <time>2010-08-26T18:31:02Z</time>
      </trkpt>
      <trkpt lat="45.64023" lon="4.81922">
        <ele>162.11950683594</ele>
        <time>2010-08-26T18:31:07Z</time>
      </trkpt>
      <trkpt lat="45.64042" lon="4.81938">
        <ele>161.63891601562</ele>
        <time>2010-08-26T18:31:10Z</time>
      </trkpt>
      <trkpt lat="45.64053" lon="4.81943">
        <ele>161.158203125</ele>
        <time>2010-08-26T18:31:12Z</time>
      </trkpt>
      <trkpt lat="45.64069" lon="4.81957">
        <ele>161.158203125</ele>
        <time>2010-08-26T18:31:17Z</time>
      </trkpt>
      <trkpt lat="45.64071" lon="4.81958">
        <ele>161.63891601562</ele>
        <time>2010-08-26T18:31:21Z</time>
      </trkpt>
      <trkpt lat="45.64071" lon="4.81958">
        <ele>161.63891601562</ele>
        <time>2010-08-26T18:31:22Z</time>
      </trkpt>
      <trkpt lat="45.64061" lon="4.81952">
        <ele>161.63891601562</ele>
        <time>2010-08-26T18:31:27Z</time>
      </trkpt>
      <trkpt lat="45.64045" lon="4.81942">
        <ele>160.67749023438</ele>
        <time>2010-08-26T18:31:33Z</time>
      </trkpt>
      <trkpt lat="45.64042" lon="4.81944">
        <ele>160.19689941406</ele>
        <time>2010-08-26T18:31:35Z</time>
      </trkpt>
      <trkpt lat="45.6404" lon="4.81949">
        <ele>160.67749023438</ele>
        <time>2010-08-26T18:31:42Z</time>
      </trkpt>
      <trkpt lat="45.64041" lon="4.81948">
        <ele>161.158203125</ele>
        <time>2010-08-26T18:32:00Z</time>
      </trkpt>
      <trkpt lat="45.64042" lon="4.81947">
        <ele>161.63891601562</ele>
        <time>2010-08-26T18:32:01Z</time>
      </trkpt>
      <trkpt lat="45.64046" lon="4.81941">
        <ele>161.158203125</ele>
        <time>2010-08-26T18:32:05Z</time>
      </trkpt>
      <trkpt lat="45.64054" lon="4.81944">
        <ele>161.63891601562</ele>
        <time>2010-08-26T18:32:09Z</time>
      </trkpt>
      <trkpt lat="45.64068" lon="4.81958">
        <ele>161.63891601562</ele>
        <time>2010-08-26T18:32:14Z</time>
      </trkpt>
      <trkpt lat="45.6408" lon="4.81977">
        <ele>162.11950683594</ele>
        <time>2010-08-26T18:32:18Z</time>
      </trkpt>
      <trkpt lat="45.64106" lon="4.82004">
        <ele>161.158203125</ele>
        <time>2010-08-26T18:32:24Z</time>
      </trkpt>
      <trkpt lat="45.6414" lon="4.82031">
        <ele>161.63891601562</ele>
        <time>2010-08-26T18:32:31Z</time>
      </trkpt>
      <trkpt lat="45.6415" lon="4.82038">
        <ele>160.19689941406</ele>
        <time>2010-08-26T18:32:33Z</time>
      </trkpt>
      <trkpt lat="45.64161" lon="4.82044">
        <ele>159.71618652344</ele>
        <time>2010-08-26T18:32:35Z</time>
      </trkpt>
      <trkpt lat="45.64184" lon="4.82041">
        <ele>159.23547363281</ele>
        <time>2010-08-26T18:32:39Z</time>
      </trkpt>
      <trkpt lat="45.64218" lon="4.82011">
        <ele>159.23547363281</ele>
        <time>2010-08-26T18:32:45Z</time>
      </trkpt>
      <trkpt lat="45.64243" lon="4.81992">
        <ele>159.23547363281</ele>
        <time>2010-08-26T18:32:50Z</time>
      </trkpt>
      <trkpt lat="45.64275" lon="4.81967">
        <ele>159.23547363281</ele>
        <time>2010-08-26T18:32:56Z</time>
      </trkpt>
      <trkpt lat="45.64293" lon="4.81951">
        <ele>158.75476074219</ele>
        <time>2010-08-26T18:33:00Z</time>
      </trkpt>
      <trkpt lat="45.6431" lon="4.81935">
        <ele>159.23547363281</ele>
        <time>2010-08-26T18:33:04Z</time>
      </trkpt>
      <trkpt lat="45.64336" lon="4.81917">
        <ele>160.19689941406</ele>
        <time>2010-08-26T18:33:10Z</time>
      </trkpt>
      <trkpt lat="45.64343" lon="4.8191">
        <ele>160.67749023438</ele>
        <time>2010-08-26T18:33:13Z</time>
      </trkpt>
      <trkpt lat="45.64346" lon="4.81907">
        <ele>160.19689941406</ele>
        <time>2010-08-26T18:33:19Z</time>
      </trkpt>
      <trkpt lat="45.64347" lon="4.81907">
        <ele>160.67749023438</ele>
        <time>2010-08-26T18:33:23Z</time>
      </trkpt>
      <trkpt lat="45.64357" lon="4.81901">
        <ele>159.71618652344</ele>
        <time>2010-08-26T18:33:29Z</time>
      </trkpt>
      <trkpt lat="45.6436" lon="4.81902">
        <ele>160.19689941406</ele>
        <time>2010-08-26T18:33:32Z</time>
      </trkpt>
      <trkpt lat="45.64366" lon="4.81895">
        <ele>160.67749023438</ele>
        <time>2010-08-26T18:33:36Z</time>
      </trkpt>
      <trkpt lat="45.64377" lon="4.81885">
        <ele>160.67749023438</ele>
        <time>2010-08-26T18:33:43Z</time>
      </trkpt>
      <trkpt lat="45.6438" lon="4.81884">
        <ele>160.67749023438</ele>
        <time>2010-08-26T18:33:49Z</time>
      </trkpt>
      <trkpt lat="45.64383" lon="4.81882">
        <ele>160.67749023438</ele>
        <time>2010-08-26T18:33:55Z</time>
      </trkpt>
      <trkpt lat="45.64383" lon="4.8188">
        <ele>160.19689941406</ele>
        <time>2010-08-26T18:34:02Z</time>
      </trkpt>
      <trkpt lat="45.64386" lon="4.81877">
        <ele>160.67749023438</ele>
        <time>2010-08-26T18:34:09Z</time>
      </trkpt>
      <trkpt lat="45.64392" lon="4.81873">
        <ele>161.63891601562</ele>
        <time>2010-08-26T18:34:15Z</time>
      </trkpt>
      <trkpt lat="45.64404" lon="4.81862">
        <ele>162.11950683594</ele>
        <time>2010-08-26T18:34:21Z</time>
      </trkpt>
      <trkpt lat="45.64421" lon="4.81847">
        <ele>163.08081054688</ele>
        <time>2010-08-26T18:34:27Z</time>
      </trkpt>
      <trkpt lat="45.64429" lon="4.81844">
        <ele>162.11950683594</ele>
        <time>2010-08-26T18:34:32Z</time>
      </trkpt>
      <trkpt lat="45.64431" lon="4.81847">
        <ele>162.11950683594</ele>
        <time>2010-08-26T18:34:38Z</time>
      </trkpt>
      <trkpt lat="45.64431" lon="4.81845">
        <ele>161.63891601562</ele>
        <time>2010-08-26T18:35:03Z</time>
      </trkpt>
      <trkpt lat="45.64439" lon="4.81841">
        <ele>162.11950683594</ele>
        <time>2010-08-26T18:35:07Z</time>
      </trkpt>
      <trkpt lat="45.64442" lon="4.81837">
        <ele>162.11950683594</ele>
        <time>2010-08-26T18:35:08Z</time>
      </trkpt>
      <trkpt lat="45.64465" lon="4.81794">
        <ele>163.08081054688</ele>
        <time>2010-08-26T18:35:17Z</time>
      </trkpt>
      <trkpt lat="45.64481" lon="4.8177">
        <ele>163.08081054688</ele>
        <time>2010-08-26T18:35:22Z</time>
      </trkpt>
      <trkpt lat="45.64505" lon="4.81736">
        <ele>164.52270507812</ele>
        <time>2010-08-26T18:35:30Z</time>
      </trkpt>
      <trkpt lat="45.64529" lon="4.817">
        <ele>166.4453125</ele>
        <time>2010-08-26T18:35:38Z</time>
      </trkpt>
      <trkpt lat="45.6456" lon="4.81655">
        <ele>167.40673828125</ele>
        <time>2010-08-26T18:35:48Z</time>
      </trkpt>
      <trkpt lat="45.64594" lon="4.81606">
        <ele>165.96472167969</ele>
        <time>2010-08-26T18:35:58Z</time>
      </trkpt>
      <trkpt lat="45.64624" lon="4.8156">
        <ele>164.04211425781</ele>
        <time>2010-08-26T18:36:06Z</time>
      </trkpt>
      <trkpt lat="45.64658" lon="4.8151">
        <ele>163.5615234375</ele>
        <time>2010-08-26T18:36:14Z</time>
      </trkpt>
      <trkpt lat="45.64693" lon="4.8146">
        <ele>161.63891601562</ele>
        <time>2010-08-26T18:36:22Z</time>
      </trkpt>
      <trkpt lat="45.64708" lon="4.8144">
        <ele>161.158203125</ele>
        <time>2010-08-26T18:36:26Z</time>
      </trkpt>
      <trkpt lat="45.64724" lon="4.81442">
        <ele>161.158203125</ele>
        <time>2010-08-26T18:36:30Z</time>
      </trkpt>
      <trkpt lat="45.64743" lon="4.81452">
        <ele>159.23547363281</ele>
        <time>2010-08-26T18:36:35Z</time>
      </trkpt>
      <trkpt lat="45.64744" lon="4.81454">
        <ele>159.23547363281</ele>
        <time>2010-08-26T18:36:37Z</time>
      </trkpt>
      <trkpt lat="45.64742" lon="4.81469">
        <ele>159.23547363281</ele>
        <time>2010-08-26T18:36:42Z</time>
      </trkpt>
      <trkpt lat="45.64745" lon="4.81479">
        <ele>159.23547363281</ele>
        <time>2010-08-26T18:36:46Z</time>
      </trkpt>
      <trkpt lat="45.64754" lon="4.81494">
        <ele>159.71618652344</ele>
        <time>2010-08-26T18:36:53Z</time>
      </trkpt>
      <trkpt lat="45.64758" lon="4.81519">
        <ele>160.67749023438</ele>
        <time>2010-08-26T18:36:58Z</time>
      </trkpt>
      <trkpt lat="45.64766" lon="4.81558">
        <ele>159.71618652344</ele>
        <time>2010-08-26T18:37:05Z</time>
      </trkpt>
      <trkpt lat="45.64769" lon="4.81584">
        <ele>160.19689941406</ele>
        <time>2010-08-26T18:37:09Z</time>
      </trkpt>
      <trkpt lat="45.64778" lon="4.8161">
        <ele>159.71618652344</ele>
        <time>2010-08-26T18:37:14Z</time>
      </trkpt>
      <trkpt lat="45.64806" lon="4.81622">
        <ele>159.23547363281</ele>
        <time>2010-08-26T18:37:21Z</time>
      </trkpt>
      <trkpt lat="45.6481" lon="4.81623">
        <ele>158.27416992188</ele>
        <time>2010-08-26T18:37:22Z</time>
      </trkpt>
      <trkpt lat="45.64828" lon="4.81628">
        <ele>157.31286621094</ele>
        <time>2010-08-26T18:37:26Z</time>
      </trkpt>
      <trkpt lat="45.64838" lon="4.81631">
        <ele>157.79357910156</ele>
        <time>2010-08-26T18:37:29Z</time>
      </trkpt>
      <trkpt lat="45.64838" lon="4.81636">
        <ele>157.31286621094</ele>
        <time>2010-08-26T18:37:30Z</time>
      </trkpt>
      <trkpt lat="45.64843" lon="4.81652">
        <ele>158.27416992188</ele>
        <time>2010-08-26T18:37:35Z</time>
      </trkpt>
      <trkpt lat="45.64843" lon="4.81653">
        <ele>158.27416992188</ele>
        <time>2010-08-26T18:37:40Z</time>
      </trkpt>
      <trkpt lat="45.64841" lon="4.81654">
        <ele>158.75476074219</ele>
        <time>2010-08-26T18:37:50Z</time>
      </trkpt>
      <trkpt lat="45.64841" lon="4.81656">
        <ele>158.75476074219</ele>
        <time>2010-08-26T18:38:02Z</time>
      </trkpt>
      <trkpt lat="45.6484" lon="4.81657">
        <ele>158.27416992188</ele>
        <time>2010-08-26T18:38:04Z</time>
      </trkpt>
      <trkpt lat="45.6484" lon="4.81661">
        <ele>158.27416992188</ele>
        <time>2010-08-26T18:38:09Z</time>
      </trkpt>
      <trkpt lat="45.64839" lon="4.81673">
        <ele>158.75476074219</ele>
        <time>2010-08-26T18:38:13Z</time>
      </trkpt>
      <trkpt lat="45.64838" lon="4.81695">
        <ele>158.27416992188</ele>
        <time>2010-08-26T18:38:17Z</time>
      </trkpt>
      <trkpt lat="45.6485" lon="4.81735">
        <ele>157.79357910156</ele>
        <time>2010-08-26T18:38:23Z</time>
      </trkpt>
      <trkpt lat="45.64861" lon="4.81768">
        <ele>157.31286621094</ele>
        <time>2010-08-26T18:38:28Z</time>
      </trkpt>
      <trkpt lat="45.64857" lon="4.81798">
        <ele>156.3515625</ele>
        <time>2010-08-26T18:38:32Z</time>
      </trkpt>
      <trkpt lat="45.64851" lon="4.8182">
        <ele>157.79357910156</ele>
        <time>2010-08-26T18:38:35Z</time>
      </trkpt>
      <trkpt lat="45.64846" lon="4.81833">
        <ele>158.27416992188</ele>
        <time>2010-08-26T18:38:37Z</time>
      </trkpt>
      <trkpt lat="45.64835" lon="4.81861">
        <ele>158.27416992188</ele>
        <time>2010-08-26T18:38:41Z</time>
      </trkpt>
      <trkpt lat="45.64832" lon="4.81886">
        <ele>158.75476074219</ele>
        <time>2010-08-26T18:38:45Z</time>
      </trkpt>
      <trkpt lat="45.64825" lon="4.81903">
        <ele>158.27416992188</ele>
        <time>2010-08-26T18:38:48Z</time>
      </trkpt>
      <trkpt lat="45.64817" lon="4.81934">
        <ele>155.87097167969</ele>
        <time>2010-08-26T18:38:52Z</time>
      </trkpt>
      <trkpt lat="45.64819" lon="4.81943">
        <ele>155.87097167969</ele>
        <time>2010-08-26T18:38:53Z</time>
      </trkpt>
      <trkpt lat="45.64822" lon="4.81952">
        <ele>155.87097167969</ele>
        <time>2010-08-26T18:38:54Z</time>
      </trkpt>
      <trkpt lat="45.64829" lon="4.81968">
        <ele>155.87097167969</ele>
        <time>2010-08-26T18:38:56Z</time>
      </trkpt>
      <trkpt lat="45.64853" lon="4.82011">
        <ele>155.87097167969</ele>
        <time>2010-08-26T18:39:02Z</time>
      </trkpt>
      <trkpt lat="45.64889" lon="4.8207">
        <ele>155.87097167969</ele>
        <time>2010-08-26T18:39:11Z</time>
      </trkpt>
      <trkpt lat="45.64907" lon="4.82106">
        <ele>155.87097167969</ele>
        <time>2010-08-26T18:39:16Z</time>
      </trkpt>
      <trkpt lat="45.64923" lon="4.82135">
        <ele>156.83215332031</ele>
        <time>2010-08-26T18:39:20Z</time>
      </trkpt>
      <trkpt lat="45.64938" lon="4.82167">
        <ele>156.3515625</ele>
        <time>2010-08-26T18:39:24Z</time>
      </trkpt>
      <trkpt lat="45.64948" lon="4.82199">
        <ele>156.3515625</ele>
        <time>2010-08-26T18:39:28Z</time>
      </trkpt>
      <trkpt lat="45.64976" lon="4.82253">
        <ele>154.90954589844</ele>
        <time>2010-08-26T18:39:35Z</time>
      </trkpt>
      <trkpt lat="45.6501" lon="4.823">
        <ele>154.90954589844</ele>
        <time>2010-08-26T18:39:42Z</time>
      </trkpt>
      <trkpt lat="45.65047" lon="4.82344">
        <ele>155.39025878906</ele>
        <time>2010-08-26T18:39:49Z</time>
      </trkpt>
      <trkpt lat="45.65083" lon="4.82371">
        <ele>155.39025878906</ele>
        <time>2010-08-26T18:39:55Z</time>
      </trkpt>
      <trkpt lat="45.65093" lon="4.82377">
        <ele>155.39025878906</ele>
        <time>2010-08-26T18:39:57Z</time>
      </trkpt>
      <trkpt lat="45.65105" lon="4.82399">
        <ele>155.39025878906</ele>
        <time>2010-08-26T18:40:01Z</time>
      </trkpt>
      <trkpt lat="45.65115" lon="4.82437">
        <ele>155.87097167969</ele>
        <time>2010-08-26T18:40:06Z</time>
      </trkpt>
      <trkpt lat="45.65129" lon="4.82462">
        <ele>155.39025878906</ele>
        <time>2010-08-26T18:40:10Z</time>
      </trkpt>
      <trkpt lat="45.65143" lon="4.82478">
        <ele>155.39025878906</ele>
        <time>2010-08-26T18:40:13Z</time>
      </trkpt>
      <trkpt lat="45.65173" lon="4.82493">
        <ele>156.83215332031</ele>
        <time>2010-08-26T18:40:19Z</time>
      </trkpt>
      <trkpt lat="45.65177" lon="4.82493">
        <ele>157.31286621094</ele>
        <time>2010-08-26T18:40:20Z</time>
      </trkpt>
      <trkpt lat="45.65195" lon="4.82493">
        <ele>157.79357910156</ele>
        <time>2010-08-26T18:40:24Z</time>
      </trkpt>
      <trkpt lat="45.652" lon="4.82495">
        <ele>157.31286621094</ele>
        <time>2010-08-26T18:40:25Z</time>
      </trkpt>
      <trkpt lat="45.65225" lon="4.82496">
        <ele>157.79357910156</ele>
        <time>2010-08-26T18:40:30Z</time>
      </trkpt>
      <trkpt lat="45.65255" lon="4.82485">
        <ele>158.27416992188</ele>
        <time>2010-08-26T18:40:36Z</time>
      </trkpt>
      <trkpt lat="45.65264" lon="4.82481">
        <ele>158.27416992188</ele>
        <time>2010-08-26T18:40:38Z</time>
      </trkpt>
      <trkpt lat="45.65284" lon="4.82477">
        <ele>158.27416992188</ele>
        <time>2010-08-26T18:40:42Z</time>
      </trkpt>
      <trkpt lat="45.653" lon="4.8248">
        <ele>158.27416992188</ele>
        <time>2010-08-26T18:40:46Z</time>
      </trkpt>
      <trkpt lat="45.65305" lon="4.82486">
        <ele>158.27416992188</ele>
        <time>2010-08-26T18:40:51Z</time>
      </trkpt>
      <trkpt lat="45.65306" lon="4.82486">
        <ele>158.27416992188</ele>
        <time>2010-08-26T18:40:58Z</time>
      </trkpt>
      <trkpt lat="45.65308" lon="4.82487">
        <ele>157.79357910156</ele>
        <time>2010-08-26T18:41:06Z</time>
      </trkpt>
      <trkpt lat="45.6531" lon="4.82484">
        <ele>158.27416992188</ele>
        <time>2010-08-26T18:41:14Z</time>
      </trkpt>
      <trkpt lat="45.65318" lon="4.82482">
        <ele>157.31286621094</ele>
        <time>2010-08-26T18:41:20Z</time>
      </trkpt>
      <trkpt lat="45.65319" lon="4.82483">
        <ele>156.83215332031</ele>
        <time>2010-08-26T18:41:23Z</time>
      </trkpt>
      <trkpt lat="45.65329" lon="4.82488">
        <ele>156.83215332031</ele>
        <time>2010-08-26T18:41:28Z</time>
      </trkpt>
      <trkpt lat="45.65337" lon="4.82488">
        <ele>158.27416992188</ele>
        <time>2010-08-26T18:41:31Z</time>
      </trkpt>
      <trkpt lat="45.65348" lon="4.82486">
        <ele>159.23547363281</ele>
        <time>2010-08-26T18:41:36Z</time>
      </trkpt>
      <trkpt lat="45.65358" lon="4.82477">
        <ele>159.71618652344</ele>
        <time>2010-08-26T18:41:40Z</time>
      </trkpt>
      <trkpt lat="45.65362" lon="4.82471">
        <ele>159.23547363281</ele>
        <time>2010-08-26T18:41:42Z</time>
      </trkpt>
      <trkpt lat="45.65377" lon="4.82465">
        <ele>159.71618652344</ele>
        <time>2010-08-26T18:41:47Z</time>
      </trkpt>
      <trkpt lat="45.6538" lon="4.82462">
        <ele>159.23547363281</ele>
        <time>2010-08-26T18:41:48Z</time>
      </trkpt>
      <trkpt lat="45.65389" lon="4.82462">
        <ele>159.23547363281</ele>
        <time>2010-08-26T18:41:52Z</time>
      </trkpt>
      <trkpt lat="45.65401" lon="4.82452">
        <ele>159.71618652344</ele>
        <time>2010-08-26T18:41:56Z</time>
      </trkpt>
      <trkpt lat="45.65413" lon="4.82451">
        <ele>159.23547363281</ele>
        <time>2010-08-26T18:42:00Z</time>
      </trkpt>
      <trkpt lat="45.65418" lon="4.82452">
        <ele>158.27416992188</ele>
        <time>2010-08-26T18:42:02Z</time>
      </trkpt>
      <trkpt lat="45.65426" lon="4.82447">
        <ele>158.75476074219</ele>
        <time>2010-08-26T18:42:05Z</time>
      </trkpt>
      <trkpt lat="45.6543" lon="4.82444">
        <ele>159.23547363281</ele>
        <time>2010-08-26T18:42:07Z</time>
      </trkpt>
      <trkpt lat="45.65435" lon="4.82443">
        <ele>159.71618652344</ele>
        <time>2010-08-26T18:42:09Z</time>
      </trkpt>
      <trkpt lat="45.65441" lon="4.82438">
        <ele>160.19689941406</ele>
        <time>2010-08-26T18:42:11Z</time>
      </trkpt>
      <trkpt lat="45.65463" lon="4.82437">
        <ele>160.19689941406</ele>
        <time>2010-08-26T18:42:16Z</time>
      </trkpt>
      <trkpt lat="45.65475" lon="4.82447">
        <ele>159.71618652344</ele>
        <time>2010-08-26T18:42:20Z</time>
      </trkpt>
      <trkpt lat="45.65483" lon="4.82454">
        <ele>159.71618652344</ele>
        <time>2010-08-26T18:42:24Z</time>
      </trkpt>
      <trkpt lat="45.65487" lon="4.82468">
        <ele>157.79357910156</ele>
        <time>2010-08-26T18:42:28Z</time>
      </trkpt>
      <trkpt lat="45.65501" lon="4.82481">
        <ele>156.83215332031</ele>
        <time>2010-08-26T18:42:31Z</time>
      </trkpt>
      <trkpt lat="45.65542" lon="4.82509">
        <ele>157.31286621094</ele>
        <time>2010-08-26T18:42:38Z</time>
      </trkpt>
      <trkpt lat="45.65583" lon="4.82542">
        <ele>157.79357910156</ele>
        <time>2010-08-26T18:42:45Z</time>
      </trkpt>
      <trkpt lat="45.65625" lon="4.82573">
        <ele>157.79357910156</ele>
        <time>2010-08-26T18:42:52Z</time>
      </trkpt>
      <trkpt lat="45.65639" lon="4.8259">
        <ele>157.31286621094</ele>
        <time>2010-08-26T18:42:55Z</time>
      </trkpt>
      <trkpt lat="45.65654" lon="4.82621">
        <ele>157.31286621094</ele>
        <time>2010-08-26T18:43:00Z</time>
      </trkpt>
      <trkpt lat="45.65657" lon="4.82634">
        <ele>157.31286621094</ele>
        <time>2010-08-26T18:43:04Z</time>
      </trkpt>
      <trkpt lat="45.65659" lon="4.82676">
        <ele>157.31286621094</ele>
        <time>2010-08-26T18:43:11Z</time>
      </trkpt>
      <trkpt lat="45.65662" lon="4.82731">
        <ele>157.31286621094</ele>
        <time>2010-08-26T18:43:19Z</time>
      </trkpt>
      <trkpt lat="45.65665" lon="4.82752">
        <ele>158.27416992188</ele>
        <time>2010-08-26T18:43:23Z</time>
      </trkpt>
      <trkpt lat="45.65666" lon="4.82763">
        <ele>159.23547363281</ele>
        <time>2010-08-26T18:43:27Z</time>
      </trkpt>
      <trkpt lat="45.65666" lon="4.82766">
        <ele>158.75476074219</ele>
        <time>2010-08-26T18:43:28Z</time>
      </trkpt>
      <trkpt lat="45.6567" lon="4.82783">
        <ele>158.27416992188</ele>
        <time>2010-08-26T18:43:34Z</time>
      </trkpt>
      <trkpt lat="45.65679" lon="4.82801">
        <ele>158.27416992188</ele>
        <time>2010-08-26T18:43:40Z</time>
      </trkpt>
      <trkpt lat="45.65695" lon="4.82817">
        <ele>158.27416992188</ele>
        <time>2010-08-26T18:43:46Z</time>
      </trkpt>
      <trkpt lat="45.65701" lon="4.82822">
        <ele>157.79357910156</ele>
        <time>2010-08-26T18:43:48Z</time>
      </trkpt>
      <trkpt lat="45.65713" lon="4.82826">
        <ele>157.31286621094</ele>
        <time>2010-08-26T18:43:51Z</time>
      </trkpt>
      <trkpt lat="45.65736" lon="4.82834">
        <ele>156.83215332031</ele>
        <time>2010-08-26T18:43:56Z</time>
      </trkpt>
      <trkpt lat="45.65752" lon="4.82837">
        <ele>156.83215332031</ele>
        <time>2010-08-26T18:43:59Z</time>
      </trkpt>
      <trkpt lat="45.65781" lon="4.82849">
        <ele>157.31286621094</ele>
        <time>2010-08-26T18:44:04Z</time>
      </trkpt>
      <trkpt lat="45.65793" lon="4.82853">
        <ele>156.83215332031</ele>
        <time>2010-08-26T18:44:06Z</time>
      </trkpt>
      <trkpt lat="45.65825" lon="4.82855">
        <ele>156.83215332031</ele>
        <time>2010-08-26T18:44:11Z</time>
      </trkpt>
      <trkpt lat="45.65836" lon="4.82855">
        <ele>156.83215332031</ele>
        <time>2010-08-26T18:44:13Z</time>
      </trkpt>
      <trkpt lat="45.65857" lon="4.82856">
        <ele>156.3515625</ele>
        <time>2010-08-26T18:44:17Z</time>
      </trkpt>
      <trkpt lat="45.65872" lon="4.82853">
        <ele>156.83215332031</ele>
        <time>2010-08-26T18:44:21Z</time>
      </trkpt>
      <trkpt lat="45.65875" lon="4.82851">
        <ele>156.3515625</ele>
        <time>2010-08-26T18:44:22Z</time>
      </trkpt>
      <trkpt lat="45.65886" lon="4.82849">
        <ele>156.83215332031</ele>
        <time>2010-08-26T18:44:25Z</time>
      </trkpt>
      <trkpt lat="45.65904" lon="4.82857">
        <ele>156.83215332031</ele>
        <time>2010-08-26T18:44:29Z</time>
      </trkpt>
      <trkpt lat="45.65923" lon="4.82861">
        <ele>157.79357910156</ele>
        <time>2010-08-26T18:44:33Z</time>
      </trkpt>
      <trkpt lat="45.6595" lon="4.82861">
        <ele>157.79357910156</ele>
        <time>2010-08-26T18:44:38Z</time>
      </trkpt>
      <trkpt lat="45.65974" lon="4.82867">
        <ele>157.79357910156</ele>
        <time>2010-08-26T18:44:42Z</time>
      </trkpt>
      <trkpt lat="45.6599" lon="4.82869">
        <ele>156.83215332031</ele>
        <time>2010-08-26T18:44:45Z</time>
      </trkpt>
      <trkpt lat="45.6601" lon="4.8288">
        <ele>157.31286621094</ele>
        <time>2010-08-26T18:44:50Z</time>
      </trkpt>
      <trkpt lat="45.66012" lon="4.82883">
        <ele>156.83215332031</ele>
        <time>2010-08-26T18:44:51Z</time>
      </trkpt>
      <trkpt lat="45.66023" lon="4.82881">
        <ele>158.27416992188</ele>
        <time>2010-08-26T18:44:56Z</time>
      </trkpt>
      <trkpt lat="45.66042" lon="4.82882">
        <ele>156.83215332031</ele>
        <time>2010-08-26T18:45:01Z</time>
      </trkpt>
      <trkpt lat="45.66052" lon="4.82879">
        <ele>157.79357910156</ele>
        <time>2010-08-26T18:45:05Z</time>
      </trkpt>
      <trkpt lat="45.66069" lon="4.82874">
        <ele>157.31286621094</ele>
        <time>2010-08-26T18:45:10Z</time>
      </trkpt>
      <trkpt lat="45.66082" lon="4.82874">
        <ele>157.31286621094</ele>
        <time>2010-08-26T18:45:14Z</time>
      </trkpt>
      <trkpt lat="45.66098" lon="4.82884">
        <ele>157.31286621094</ele>
        <time>2010-08-26T18:45:19Z</time>
      </trkpt>
      <trkpt lat="45.66113" lon="4.8289">
        <ele>157.79357910156</ele>
        <time>2010-08-26T18:45:24Z</time>
      </trkpt>
      <trkpt lat="45.66127" lon="4.82885">
        <ele>158.27416992188</ele>
        <time>2010-08-26T18:45:28Z</time>
      </trkpt>
      <trkpt lat="45.66144" lon="4.82884">
        <ele>158.27416992188</ele>
        <time>2010-08-26T18:45:33Z</time>
      </trkpt>
      <trkpt lat="45.66165" lon="4.82888">
        <ele>159.23547363281</ele>
        <time>2010-08-26T18:45:38Z</time>
      </trkpt>
      <trkpt lat="45.66178" lon="4.82887">
        <ele>158.75476074219</ele>
        <time>2010-08-26T18:45:42Z</time>
      </trkpt>
      <trkpt lat="45.66192" lon="4.82887">
        <ele>158.27416992188</ele>
        <time>2010-08-26T18:45:46Z</time>
      </trkpt>
      <trkpt lat="45.66203" lon="4.82892">
        <ele>158.75476074219</ele>
        <time>2010-08-26T18:45:51Z</time>
      </trkpt>
      <trkpt lat="45.66205" lon="4.82892">
        <ele>158.27416992188</ele>
        <time>2010-08-26T18:45:52Z</time>
      </trkpt>
      <trkpt lat="45.66225" lon="4.82893">
        <ele>158.27416992188</ele>
        <time>2010-08-26T18:45:57Z</time>
      </trkpt>
      <trkpt lat="45.66246" lon="4.82899">
        <ele>158.75476074219</ele>
        <time>2010-08-26T18:46:02Z</time>
      </trkpt>
      <trkpt lat="45.66255" lon="4.82902">
        <ele>158.75476074219</ele>
        <time>2010-08-26T18:46:04Z</time>
      </trkpt>
      <trkpt lat="45.66265" lon="4.82896">
        <ele>159.71618652344</ele>
        <time>2010-08-26T18:46:08Z</time>
      </trkpt>
      <trkpt lat="45.66268" lon="4.82894">
        <ele>160.19689941406</ele>
        <time>2010-08-26T18:46:09Z</time>
      </trkpt>
      <trkpt lat="45.66282" lon="4.82897">
        <ele>159.71618652344</ele>
        <time>2010-08-26T18:46:14Z</time>
      </trkpt>
      <trkpt lat="45.66287" lon="4.82904">
        <ele>160.19689941406</ele>
        <time>2010-08-26T18:46:17Z</time>
      </trkpt>
      <trkpt lat="45.66293" lon="4.82909">
        <ele>159.23547363281</ele>
        <time>2010-08-26T18:46:20Z</time>
      </trkpt>
      <trkpt lat="45.66306" lon="4.8291">
        <ele>159.71618652344</ele>
        <time>2010-08-26T18:46:25Z</time>
      </trkpt>
      <trkpt lat="45.66307" lon="4.82909">
        <ele>158.75476074219</ele>
        <time>2010-08-26T18:46:31Z</time>
      </trkpt>
      <trkpt lat="45.66309" lon="4.82909">
        <ele>159.71618652344</ele>
        <time>2010-08-26T18:46:37Z</time>
      </trkpt>
      <trkpt lat="45.66311" lon="4.82909">
        <ele>160.19689941406</ele>
        <time>2010-08-26T18:46:43Z</time>
      </trkpt>
      <trkpt lat="45.66311" lon="4.82911">
        <ele>159.71618652344</ele>
        <time>2010-08-26T18:46:47Z</time>
      </trkpt>
      <trkpt lat="45.66321" lon="4.82914">
        <ele>159.23547363281</ele>
        <time>2010-08-26T18:46:54Z</time>
      </trkpt>
      <trkpt lat="45.66331" lon="4.82915">
        <ele>159.71618652344</ele>
        <time>2010-08-26T18:46:59Z</time>
      </trkpt>
      <trkpt lat="45.66345" lon="4.82916">
        <ele>159.71618652344</ele>
        <time>2010-08-26T18:47:04Z</time>
      </trkpt>
      <trkpt lat="45.66354" lon="4.8292">
        <ele>158.27416992188</ele>
        <time>2010-08-26T18:47:08Z</time>
      </trkpt>
      <trkpt lat="45.66357" lon="4.82921">
        <ele>158.27416992188</ele>
        <time>2010-08-26T18:47:14Z</time>
      </trkpt>
      <trkpt lat="45.66358" lon="4.82922">
        <ele>158.75476074219</ele>
        <time>2010-08-26T18:47:19Z</time>
      </trkpt>
      <trkpt lat="45.66361" lon="4.82922">
        <ele>158.75476074219</ele>
        <time>2010-08-26T18:47:23Z</time>
      </trkpt>
      <trkpt lat="45.66368" lon="4.8292">
        <ele>159.23547363281</ele>
        <time>2010-08-26T18:47:28Z</time>
      </trkpt>
      <trkpt lat="45.66379" lon="4.82922">
        <ele>159.23547363281</ele>
        <time>2010-08-26T18:47:34Z</time>
      </trkpt>
      <trkpt lat="45.66387" lon="4.82917">
        <ele>158.75476074219</ele>
        <time>2010-08-26T18:47:38Z</time>
      </trkpt>
      <trkpt lat="45.66413" lon="4.82909">
        <ele>159.23547363281</ele>
        <time>2010-08-26T18:47:44Z</time>
      </trkpt>
      <trkpt lat="45.66417" lon="4.82908">
        <ele>159.23547363281</ele>
        <time>2010-08-26T18:47:45Z</time>
      </trkpt>
      <trkpt lat="45.66441" lon="4.82918">
        <ele>158.75476074219</ele>
        <time>2010-08-26T18:47:51Z</time>
      </trkpt>
      <trkpt lat="45.66449" lon="4.82921">
        <ele>159.71618652344</ele>
        <time>2010-08-26T18:47:53Z</time>
      </trkpt>
      <trkpt lat="45.66461" lon="4.82932">
        <ele>160.19689941406</ele>
        <time>2010-08-26T18:47:57Z</time>
      </trkpt>
      <trkpt lat="45.66475" lon="4.82937">
        <ele>159.71618652344</ele>
        <time>2010-08-26T18:48:01Z</time>
      </trkpt>
      <trkpt lat="45.66488" lon="4.8294">
        <ele>160.19689941406</ele>
        <time>2010-08-26T18:48:06Z</time>
      </trkpt>
      <trkpt lat="45.66488" lon="4.8294">
        <ele>160.19689941406</ele>
        <time>2010-08-26T18:48:10Z</time>
      </trkpt>
      <trkpt lat="45.66491" lon="4.8294">
        <ele>160.19689941406</ele>
        <time>2010-08-26T18:48:17Z</time>
      </trkpt>
      <trkpt lat="45.66492" lon="4.82941">
        <ele>159.71618652344</ele>
        <time>2010-08-26T18:48:23Z</time>
      </trkpt>
      <trkpt lat="45.66492" lon="4.82941">
        <ele>160.19689941406</ele>
        <time>2010-08-26T18:48:42Z</time>
      </trkpt>
      <trkpt lat="45.66493" lon="4.82942">
        <ele>159.23547363281</ele>
        <time>2010-08-26T18:49:00Z</time>
      </trkpt>
      <trkpt lat="45.66496" lon="4.82942">
        <ele>159.71618652344</ele>
        <time>2010-08-26T18:49:03Z</time>
      </trkpt>
      <trkpt lat="45.66508" lon="4.8295">
        <ele>160.19689941406</ele>
        <time>2010-08-26T18:49:08Z</time>
      </trkpt>
      <trkpt lat="45.66513" lon="4.82951">
        <ele>160.67749023438</ele>
        <time>2010-08-26T18:49:10Z</time>
      </trkpt>
      <trkpt lat="45.66528" lon="4.82948">
        <ele>161.63891601562</ele>
        <time>2010-08-26T18:49:16Z</time>
      </trkpt>
      <trkpt lat="45.66541" lon="4.82943">
        <ele>162.11950683594</ele>
        <time>2010-08-26T18:49:21Z</time>
      </trkpt>
      <trkpt lat="45.6655" lon="4.82949">
        <ele>162.60009765625</ele>
        <time>2010-08-26T18:49:27Z</time>
      </trkpt>
      <trkpt lat="45.66551" lon="4.8295">
        <ele>162.11950683594</ele>
        <time>2010-08-26T18:49:33Z</time>
      </trkpt>
      <trkpt lat="45.66553" lon="4.8295">
        <ele>162.11950683594</ele>
        <time>2010-08-26T18:49:37Z</time>
      </trkpt>
      <trkpt lat="45.66561" lon="4.82947">
        <ele>162.60009765625</ele>
        <time>2010-08-26T18:49:43Z</time>
      </trkpt>
      <trkpt lat="45.66576" lon="4.82949">
        <ele>162.11950683594</ele>
        <time>2010-08-26T18:49:48Z</time>
      </trkpt>
      <trkpt lat="45.66597" lon="4.82954">
        <ele>162.60009765625</ele>
        <time>2010-08-26T18:49:54Z</time>
      </trkpt>
      <trkpt lat="45.66625" lon="4.82958">
        <ele>163.08081054688</ele>
        <time>2010-08-26T18:50:01Z</time>
      </trkpt>
      <trkpt lat="45.66648" lon="4.82964">
        <ele>162.11950683594</ele>
        <time>2010-08-26T18:50:07Z</time>
      </trkpt>
      <trkpt lat="45.66675" lon="4.82975">
        <ele>162.60009765625</ele>
        <time>2010-08-26T18:50:14Z</time>
      </trkpt>
      <trkpt lat="45.66689" lon="4.82977">
        <ele>163.08081054688</ele>
        <time>2010-08-26T18:50:17Z</time>
      </trkpt>
      <trkpt lat="45.6671" lon="4.82987">
        <ele>163.08081054688</ele>
        <time>2010-08-26T18:50:22Z</time>
      </trkpt>
      <trkpt lat="45.66733" lon="4.82998">
        <ele>162.60009765625</ele>
        <time>2010-08-26T18:50:27Z</time>
      </trkpt>
      <trkpt lat="45.66743" lon="4.82999">
        <ele>162.11950683594</ele>
        <time>2010-08-26T18:50:29Z</time>
      </trkpt>
      <trkpt lat="45.66759" lon="4.83006">
        <ele>162.11950683594</ele>
        <time>2010-08-26T18:50:33Z</time>
      </trkpt>
      <trkpt lat="45.66768" lon="4.83011">
        <ele>161.158203125</ele>
        <time>2010-08-26T18:50:35Z</time>
      </trkpt>
      <trkpt lat="45.66801" lon="4.83025">
        <ele>159.71618652344</ele>
        <time>2010-08-26T18:50:41Z</time>
      </trkpt>
      <trkpt lat="45.66806" lon="4.83027">
        <ele>160.19689941406</ele>
        <time>2010-08-26T18:50:42Z</time>
      </trkpt>
      <trkpt lat="45.66822" lon="4.8303">
        <ele>159.23547363281</ele>
        <time>2010-08-26T18:50:45Z</time>
      </trkpt>
      <trkpt lat="45.66833" lon="4.83031">
        <ele>159.23547363281</ele>
        <time>2010-08-26T18:50:47Z</time>
      </trkpt>
      <trkpt lat="45.66862" lon="4.83034">
        <ele>160.19689941406</ele>
        <time>2010-08-26T18:50:53Z</time>
      </trkpt>
      <trkpt lat="45.66885" lon="4.83041">
        <ele>159.71618652344</ele>
        <time>2010-08-26T18:50:57Z</time>
      </trkpt>
      <trkpt lat="45.66903" lon="4.83046">
        <ele>159.71618652344</ele>
        <time>2010-08-26T18:51:00Z</time>
      </trkpt>
      <trkpt lat="45.66934" lon="4.83054">
        <ele>160.19689941406</ele>
        <time>2010-08-26T18:51:06Z</time>
      </trkpt>
      <trkpt lat="45.66973" lon="4.83067">
        <ele>160.19689941406</ele>
        <time>2010-08-26T18:51:14Z</time>
      </trkpt>
      <trkpt lat="45.67012" lon="4.83076">
        <ele>160.19689941406</ele>
        <time>2010-08-26T18:51:22Z</time>
      </trkpt>
      <trkpt lat="45.67036" lon="4.8308">
        <ele>159.71618652344</ele>
        <time>2010-08-26T18:51:27Z</time>
      </trkpt>
      <trkpt lat="45.67049" lon="4.83086">
        <ele>160.19689941406</ele>
        <time>2010-08-26T18:51:30Z</time>
      </trkpt>
      <trkpt lat="45.67068" lon="4.83091">
        <ele>159.71618652344</ele>
        <time>2010-08-26T18:51:34Z</time>
      </trkpt>
      <trkpt lat="45.67089" lon="4.83105">
        <ele>160.19689941406</ele>
        <time>2010-08-26T18:51:39Z</time>
      </trkpt>
      <trkpt lat="45.67113" lon="4.83108">
        <ele>159.23547363281</ele>
        <time>2010-08-26T18:51:44Z</time>
      </trkpt>
      <trkpt lat="45.67133" lon="4.83115">
        <ele>159.71618652344</ele>
        <time>2010-08-26T18:51:48Z</time>
      </trkpt>
      <trkpt lat="45.67154" lon="4.8312">
        <ele>159.71618652344</ele>
        <time>2010-08-26T18:51:52Z</time>
      </trkpt>
      <trkpt lat="45.67172" lon="4.83121">
        <ele>160.19689941406</ele>
        <time>2010-08-26T18:51:56Z</time>
      </trkpt>
      <trkpt lat="45.67181" lon="4.83121">
        <ele>160.19689941406</ele>
        <time>2010-08-26T18:51:58Z</time>
      </trkpt>
      <trkpt lat="45.67202" lon="4.83117">
        <ele>160.67749023438</ele>
        <time>2010-08-26T18:52:03Z</time>
      </trkpt>
      <trkpt lat="45.67212" lon="4.8313">
        <ele>160.19689941406</ele>
        <time>2010-08-26T18:52:07Z</time>
      </trkpt>
      <trkpt lat="45.67223" lon="4.83142">
        <ele>160.19689941406</ele>
        <time>2010-08-26T18:52:10Z</time>
      </trkpt>
      <trkpt lat="45.67247" lon="4.83151">
        <ele>159.71618652344</ele>
        <time>2010-08-26T18:52:15Z</time>
      </trkpt>
      <trkpt lat="45.67268" lon="4.83153">
        <ele>159.71618652344</ele>
        <time>2010-08-26T18:52:20Z</time>
      </trkpt>
      <trkpt lat="45.67275" lon="4.83161">
        <ele>159.23547363281</ele>
        <time>2010-08-26T18:52:22Z</time>
      </trkpt>
      <trkpt lat="45.67295" lon="4.83182">
        <ele>160.19689941406</ele>
        <time>2010-08-26T18:52:27Z</time>
      </trkpt>
      <trkpt lat="45.67299" lon="4.83185">
        <ele>160.67749023438</ele>
        <time>2010-08-26T18:52:28Z</time>
      </trkpt>
      <trkpt lat="45.6732" lon="4.83199">
        <ele>160.19689941406</ele>
        <time>2010-08-26T18:52:34Z</time>
      </trkpt>
      <trkpt lat="45.67342" lon="4.8321">
        <ele>160.19689941406</ele>
        <time>2010-08-26T18:52:40Z</time>
      </trkpt>
      <trkpt lat="45.67366" lon="4.83216">
        <ele>159.71618652344</ele>
        <time>2010-08-26T18:52:46Z</time>
      </trkpt>
      <trkpt lat="45.67383" lon="4.83219">
        <ele>159.71618652344</ele>
        <time>2010-08-26T18:52:51Z</time>
      </trkpt>
      <trkpt lat="45.67396" lon="4.83219">
        <ele>159.71618652344</ele>
        <time>2010-08-26T18:52:56Z</time>
      </trkpt>
      <trkpt lat="45.67403" lon="4.83228">
        <ele>159.23547363281</ele>
        <time>2010-08-26T18:53:00Z</time>
      </trkpt>
      <trkpt lat="45.67418" lon="4.8324">
        <ele>159.71618652344</ele>
        <time>2010-08-26T18:53:05Z</time>
      </trkpt>
      <trkpt lat="45.67441" lon="4.83248">
        <ele>160.19689941406</ele>
        <time>2010-08-26T18:53:11Z</time>
      </trkpt>
      <trkpt lat="45.6747" lon="4.83264">
        <ele>161.158203125</ele>
        <time>2010-08-26T18:53:18Z</time>
      </trkpt>
      <trkpt lat="45.67495" lon="4.83281">
        <ele>160.67749023438</ele>
        <time>2010-08-26T18:53:25Z</time>
      </trkpt>
      <trkpt lat="45.67522" lon="4.83289">
        <ele>161.158203125</ele>
        <time>2010-08-26T18:53:31Z</time>
      </trkpt>
      <trkpt lat="45.67542" lon="4.83295">
        <ele>161.158203125</ele>
        <time>2010-08-26T18:53:35Z</time>
      </trkpt>
      <trkpt lat="45.67554" lon="4.83301">
        <ele>161.63891601562</ele>
        <time>2010-08-26T18:53:38Z</time>
      </trkpt>
      <trkpt lat="45.67572" lon="4.83312">
        <ele>161.158203125</ele>
        <time>2010-08-26T18:53:42Z</time>
      </trkpt>
      <trkpt lat="45.67592" lon="4.8332">
        <ele>161.158203125</ele>
        <time>2010-08-26T18:53:46Z</time>
      </trkpt>
      <trkpt lat="45.67615" lon="4.83318">
        <ele>160.67749023438</ele>
        <time>2010-08-26T18:53:51Z</time>
      </trkpt>
      <trkpt lat="45.6763" lon="4.83303">
        <ele>160.67749023438</ele>
        <time>2010-08-26T18:53:55Z</time>
      </trkpt>
      <trkpt lat="45.67634" lon="4.8329">
        <ele>160.67749023438</ele>
        <time>2010-08-26T18:53:57Z</time>
      </trkpt>
      <trkpt lat="45.67648" lon="4.83266">
        <ele>161.158203125</ele>
        <time>2010-08-26T18:54:02Z</time>
      </trkpt>
      <trkpt lat="45.67671" lon="4.83245">
        <ele>162.11950683594</ele>
        <time>2010-08-26T18:54:09Z</time>
      </trkpt>
      <trkpt lat="45.67679" lon="4.83233">
        <ele>162.11950683594</ele>
        <time>2010-08-26T18:54:12Z</time>
      </trkpt>
      <trkpt lat="45.67694" lon="4.83212">
        <ele>162.60009765625</ele>
        <time>2010-08-26T18:54:17Z</time>
      </trkpt>
      <trkpt lat="45.67709" lon="4.83205">
        <ele>162.11950683594</ele>
        <time>2010-08-26T18:54:21Z</time>
      </trkpt>
      <trkpt lat="45.67717" lon="4.83205">
        <ele>163.08081054688</ele>
        <time>2010-08-26T18:54:23Z</time>
      </trkpt>
      <trkpt lat="45.67756" lon="4.83212">
        <ele>164.52270507812</ele>
        <time>2010-08-26T18:54:33Z</time>
      </trkpt>
      <trkpt lat="45.67768" lon="4.83216">
        <ele>164.04211425781</ele>
        <time>2010-08-26T18:54:36Z</time>
      </trkpt>
      <trkpt lat="45.67786" lon="4.83231">
        <ele>164.04211425781</ele>
        <time>2010-08-26T18:54:42Z</time>
      </trkpt>
      <trkpt lat="45.67788" lon="4.83234">
        <ele>164.04211425781</ele>
        <time>2010-08-26T18:54:46Z</time>
      </trkpt>
      <trkpt lat="45.67791" lon="4.83235">
        <ele>164.04211425781</ele>
        <time>2010-08-26T18:54:53Z</time>
      </trkpt>
      <trkpt lat="45.67792" lon="4.83235">
        <ele>164.52270507812</ele>
        <time>2010-08-26T18:54:58Z</time>
      </trkpt>
      <trkpt lat="45.67804" lon="4.8324">
        <ele>164.52270507812</ele>
        <time>2010-08-26T18:55:04Z</time>
      </trkpt>
      <trkpt lat="45.67819" lon="4.83242">
        <ele>165.00341796875</ele>
        <time>2010-08-26T18:55:09Z</time>
      </trkpt>
      <trkpt lat="45.67828" lon="4.83245">
        <ele>164.04211425781</ele>
        <time>2010-08-26T18:55:14Z</time>
      </trkpt>
      <trkpt lat="45.67833" lon="4.83254">
        <ele>162.60009765625</ele>
        <time>2010-08-26T18:55:17Z</time>
      </trkpt>
      <trkpt lat="45.67845" lon="4.83255">
        <ele>162.60009765625</ele>
        <time>2010-08-26T18:55:21Z</time>
      </trkpt>
      <trkpt lat="45.67851" lon="4.83252">
        <ele>162.60009765625</ele>
        <time>2010-08-26T18:55:23Z</time>
      </trkpt>
      <trkpt lat="45.67867" lon="4.83247">
        <ele>162.11950683594</ele>
        <time>2010-08-26T18:55:30Z</time>
      </trkpt>
      <trkpt lat="45.67876" lon="4.83233">
        <ele>162.11950683594</ele>
        <time>2010-08-26T18:55:35Z</time>
      </trkpt>
      <trkpt lat="45.6788" lon="4.83227">
        <ele>162.60009765625</ele>
        <time>2010-08-26T18:55:37Z</time>
      </trkpt>
      <trkpt lat="45.67899" lon="4.83201">
        <ele>162.60009765625</ele>
        <time>2010-08-26T18:55:44Z</time>
      </trkpt>
      <trkpt lat="45.67908" lon="4.83184">
        <ele>162.60009765625</ele>
        <time>2010-08-26T18:55:49Z</time>
      </trkpt>
      <trkpt lat="45.67913" lon="4.83173">
        <ele>162.60009765625</ele>
        <time>2010-08-26T18:55:53Z</time>
      </trkpt>
      <trkpt lat="45.67921" lon="4.8318">
        <ele>163.08081054688</ele>
        <time>2010-08-26T18:55:58Z</time>
      </trkpt>
      <trkpt lat="45.6793" lon="4.83182">
        <ele>163.08081054688</ele>
        <time>2010-08-26T18:56:02Z</time>
      </trkpt>
      <trkpt lat="45.67955" lon="4.8316">
        <ele>164.04211425781</ele>
        <time>2010-08-26T18:56:10Z</time>
      </trkpt>
      <trkpt lat="45.67977" lon="4.83143">
        <ele>164.52270507812</ele>
        <time>2010-08-26T18:56:17Z</time>
      </trkpt>
      <trkpt lat="45.67997" lon="4.83133">
        <ele>164.52270507812</ele>
        <time>2010-08-26T18:56:23Z</time>
      </trkpt>
      <trkpt lat="45.68016" lon="4.8313">
        <ele>164.52270507812</ele>
        <time>2010-08-26T18:56:28Z</time>
      </trkpt>
      <trkpt lat="45.68037" lon="4.83128">
        <ele>165.48413085938</ele>
        <time>2010-08-26T18:56:33Z</time>
      </trkpt>
      <trkpt lat="45.68056" lon="4.8312">
        <ele>165.00341796875</ele>
        <time>2010-08-26T18:56:38Z</time>
      </trkpt>
      <trkpt lat="45.6807" lon="4.83115">
        <ele>165.00341796875</ele>
        <time>2010-08-26T18:56:41Z</time>
      </trkpt>
      <trkpt lat="45.68087" lon="4.83108">
        <ele>165.00341796875</ele>
        <time>2010-08-26T18:56:45Z</time>
      </trkpt>
      <trkpt lat="45.68113" lon="4.83105">
        <ele>165.00341796875</ele>
        <time>2010-08-26T18:56:51Z</time>
      </trkpt>
      <trkpt lat="45.68126" lon="4.83106">
        <ele>165.48413085938</ele>
        <time>2010-08-26T18:56:54Z</time>
      </trkpt>
      <trkpt lat="45.68159" lon="4.83112">
        <ele>165.48413085938</ele>
        <time>2010-08-26T18:57:01Z</time>
      </trkpt>
      <trkpt lat="45.68187" lon="4.83118">
        <ele>165.48413085938</ele>
        <time>2010-08-26T18:57:07Z</time>
      </trkpt>
      <trkpt lat="45.68211" lon="4.83123">
        <ele>165.48413085938</ele>
        <time>2010-08-26T18:57:13Z</time>
      </trkpt>
      <trkpt lat="45.68235" lon="4.83128">
        <ele>165.48413085938</ele>
        <time>2010-08-26T18:57:19Z</time>
      </trkpt>
      <trkpt lat="45.68265" lon="4.83133">
        <ele>165.96472167969</ele>
        <time>2010-08-26T18:57:26Z</time>
      </trkpt>
      <trkpt lat="45.68287" lon="4.83137">
        <ele>165.96472167969</ele>
        <time>2010-08-26T18:57:31Z</time>
      </trkpt>
      <trkpt lat="45.68319" lon="4.83141">
        <ele>165.48413085938</ele>
        <time>2010-08-26T18:57:38Z</time>
      </trkpt>
      <trkpt lat="45.68349" lon="4.83145">
        <ele>165.48413085938</ele>
        <time>2010-08-26T18:57:45Z</time>
      </trkpt>
      <trkpt lat="45.68373" lon="4.8315">
        <ele>165.96472167969</ele>
        <time>2010-08-26T18:57:51Z</time>
      </trkpt>
      <trkpt lat="45.68399" lon="4.83155">
        <ele>165.96472167969</ele>
        <time>2010-08-26T18:57:58Z</time>
      </trkpt>
      <trkpt lat="45.68403" lon="4.83158">
        <ele>165.96472167969</ele>
        <time>2010-08-26T18:57:59Z</time>
      </trkpt>
      <trkpt lat="45.68406" lon="4.83172">
        <ele>166.4453125</ele>
        <time>2010-08-26T18:58:03Z</time>
      </trkpt>
      <trkpt lat="45.68403" lon="4.83189">
        <ele>166.92602539062</ele>
        <time>2010-08-26T18:58:08Z</time>
      </trkpt>
      <trkpt lat="45.68404" lon="4.83195">
        <ele>167.40673828125</ele>
        <time>2010-08-26T18:58:09Z</time>
      </trkpt>
      <trkpt lat="45.68401" lon="4.83236">
        <ele>166.92602539062</ele>
        <time>2010-08-26T18:58:16Z</time>
      </trkpt>
      <trkpt lat="45.68396" lon="4.83276">
        <ele>166.92602539062</ele>
        <time>2010-08-26T18:58:24Z</time>
      </trkpt>
      <trkpt lat="45.68397" lon="4.83285">
        <ele>166.4453125</ele>
        <time>2010-08-26T18:58:26Z</time>
      </trkpt>
      <trkpt lat="45.68408" lon="4.83296">
        <ele>165.48413085938</ele>
        <time>2010-08-26T18:58:30Z</time>
      </trkpt>
      <trkpt lat="45.68443" lon="4.83325">
        <ele>164.52270507812</ele>
        <time>2010-08-26T18:58:38Z</time>
      </trkpt>
      <trkpt lat="45.68473" lon="4.83341">
        <ele>165.00341796875</ele>
        <time>2010-08-26T18:58:45Z</time>
      </trkpt>
      <trkpt lat="45.68499" lon="4.83353">
        <ele>165.48413085938</ele>
        <time>2010-08-26T18:58:51Z</time>
      </trkpt>
      <trkpt lat="45.68521" lon="4.83366">
        <ele>166.4453125</ele>
        <time>2010-08-26T18:58:57Z</time>
      </trkpt>
      <trkpt lat="45.68548" lon="4.83381">
        <ele>166.4453125</ele>
        <time>2010-08-26T18:59:04Z</time>
      </trkpt>
      <trkpt lat="45.6857" lon="4.83396">
        <ele>165.96472167969</ele>
        <time>2010-08-26T18:59:10Z</time>
      </trkpt>
      <trkpt lat="45.68598" lon="4.83419">
        <ele>166.4453125</ele>
        <time>2010-08-26T18:59:18Z</time>
      </trkpt>
      <trkpt lat="45.68619" lon="4.83436">
        <ele>166.4453125</ele>
        <time>2010-08-26T18:59:24Z</time>
      </trkpt>
      <trkpt lat="45.68639" lon="4.8345">
        <ele>165.96472167969</ele>
        <time>2010-08-26T18:59:30Z</time>
      </trkpt>
      <trkpt lat="45.68664" lon="4.83461">
        <ele>167.40673828125</ele>
        <time>2010-08-26T18:59:37Z</time>
      </trkpt>
      <trkpt lat="45.68694" lon="4.83473">
        <ele>167.88732910156</ele>
        <time>2010-08-26T18:59:45Z</time>
      </trkpt>
      <trkpt lat="45.68726" lon="4.83486">
        <ele>167.40673828125</ele>
        <time>2010-08-26T18:59:54Z</time>
      </trkpt>
      <trkpt lat="45.68752" lon="4.83495">
        <ele>166.92602539062</ele>
        <time>2010-08-26T19:00:01Z</time>
      </trkpt>
      <trkpt lat="45.68781" lon="4.83508">
        <ele>166.92602539062</ele>
        <time>2010-08-26T19:00:09Z</time>
      </trkpt>
      <trkpt lat="45.6881" lon="4.8352">
        <ele>167.40673828125</ele>
        <time>2010-08-26T19:00:16Z</time>
      </trkpt>
      <trkpt lat="45.68844" lon="4.83533">
        <ele>166.92602539062</ele>
        <time>2010-08-26T19:00:23Z</time>
      </trkpt>
      <trkpt lat="45.68892" lon="4.83551">
        <ele>166.92602539062</ele>
        <time>2010-08-26T19:00:33Z</time>
      </trkpt>
      <trkpt lat="45.68916" lon="4.83559">
        <ele>166.92602539062</ele>
        <time>2010-08-26T19:00:39Z</time>
      </trkpt>
      <trkpt lat="45.68924" lon="4.83564">
        <ele>167.40673828125</ele>
        <time>2010-08-26T19:00:43Z</time>
      </trkpt>
      <trkpt lat="45.68924" lon="4.83564">
        <ele>167.88732910156</ele>
        <time>2010-08-26T19:00:47Z</time>
      </trkpt>
      <trkpt lat="45.68924" lon="4.83564">
        <ele>168.36804199219</ele>
        <time>2010-08-26T19:00:48Z</time>
      </trkpt>
      <trkpt lat="45.68924" lon="4.8356">
        <ele>168.36804199219</ele>
        <time>2010-08-26T19:00:54Z</time>
      </trkpt>
      <trkpt lat="45.68927" lon="4.83559">
        <ele>167.88732910156</ele>
        <time>2010-08-26T19:00:59Z</time>
      </trkpt>
      <trkpt lat="45.68937" lon="4.83559">
        <ele>167.88732910156</ele>
        <time>2010-08-26T19:01:05Z</time>
      </trkpt>
      <trkpt lat="45.68947" lon="4.83563">
        <ele>168.36804199219</ele>
        <time>2010-08-26T19:01:10Z</time>
      </trkpt>
      <trkpt lat="45.68958" lon="4.83569">
        <ele>168.36804199219</ele>
        <time>2010-08-26T19:01:15Z</time>
      </trkpt>
      <trkpt lat="45.6897" lon="4.83574">
        <ele>168.36804199219</ele>
        <time>2010-08-26T19:01:21Z</time>
      </trkpt>
      <trkpt lat="45.68986" lon="4.83578">
        <ele>168.36804199219</ele>
        <time>2010-08-26T19:01:29Z</time>
      </trkpt>
      <trkpt lat="45.68993" lon="4.83581">
        <ele>168.84875488281</ele>
        <time>2010-08-26T19:01:35Z</time>
      </trkpt>
      <trkpt lat="45.69006" lon="4.83585">
        <ele>168.84875488281</ele>
        <time>2010-08-26T19:01:41Z</time>
      </trkpt>
      <trkpt lat="45.69018" lon="4.8359">
        <ele>169.32946777344</ele>
        <time>2010-08-26T19:01:47Z</time>
      </trkpt>
      <trkpt lat="45.6903" lon="4.83593">
        <ele>169.32946777344</ele>
        <time>2010-08-26T19:01:55Z</time>
      </trkpt>
      <trkpt lat="45.69046" lon="4.83593">
        <ele>168.84875488281</ele>
        <time>2010-08-26T19:02:03Z</time>
      </trkpt>
      <trkpt lat="45.69046" lon="4.83593">
        <ele>169.32946777344</ele>
        <time>2010-08-26T19:02:07Z</time>
      </trkpt>
      <trkpt lat="45.69046" lon="4.83593">
        <ele>168.84875488281</ele>
        <time>2010-08-26T19:02:16Z</time>
      </trkpt>
      <trkpt lat="45.69046" lon="4.83593">
        <ele>169.81005859375</ele>
        <time>2010-08-26T19:10:41Z</time>
      </trkpt>
      <trkpt lat="45.69046" lon="4.83593">
        <ele>170.77136230469</ele>
        <time>2010-08-26T19:10:59Z</time>
      </trkpt>
      <trkpt lat="45.69046" lon="4.83594">
        <ele>169.81005859375</ele>
        <time>2010-08-26T19:11:59Z</time>
      </trkpt>
      <trkpt lat="45.69046" lon="4.83593">
        <ele>168.84875488281</ele>
        <time>2010-08-26T19:14:07Z</time>
      </trkpt>
      <trkpt lat="45.69046" lon="4.83593">
        <ele>168.84875488281</ele>
        <time>2010-08-26T19:14:19Z</time>
      </trkpt>
      <trkpt lat="45.69046" lon="4.83593">
        <ele>167.88732910156</ele>
        <time>2010-08-26T19:15:33Z</time>
      </trkpt>
      <trkpt lat="45.69046" lon="4.83593">
        <ele>166.92602539062</ele>
        <time>2010-08-26T19:15:44Z</time>
      </trkpt>
      <trkpt lat="45.69046" lon="4.83593">
        <ele>166.92602539062</ele>
        <time>2010-08-26T19:15:57Z</time>
      </trkpt>
      <trkpt lat="45.69045" lon="4.83593">
        <ele>167.40673828125</ele>
        <time>2010-08-26T19:16:29Z</time>
      </trkpt>
      <trkpt lat="45.69044" lon="4.83593">
        <ele>166.92602539062</ele>
        <time>2010-08-26T19:16:40Z</time>
      </trkpt>
      <trkpt lat="45.69043" lon="4.83592">
        <ele>167.40673828125</ele>
        <time>2010-08-26T19:17:00Z</time>
      </trkpt>
      <trkpt lat="45.69042" lon="4.83591">
        <ele>166.92602539062</ele>
        <time>2010-08-26T19:17:18Z</time>
      </trkpt>
      <trkpt lat="45.69041" lon="4.83591">
        <ele>167.40673828125</ele>
        <time>2010-08-26T19:17:47Z</time>
      </trkpt>
      <trkpt lat="45.69042" lon="4.83591">
        <ele>166.92602539062</ele>
        <time>2010-08-26T19:18:03Z</time>
      </trkpt>
      <trkpt lat="45.69043" lon="4.83591">
        <ele>167.40673828125</ele>
        <time>2010-08-26T19:18:19Z</time>
      </trkpt>
      <trkpt lat="45.69044" lon="4.83591">
        <ele>167.40673828125</ele>
        <time>2010-08-26T19:18:28Z</time>
      </trkpt>
      <trkpt lat="45.69044" lon="4.83592">
        <ele>167.88732910156</ele>
        <time>2010-08-26T19:18:46Z</time>
      </trkpt>
      <trkpt lat="45.69046" lon="4.83593">
        <ele>167.88732910156</ele>
        <time>2010-08-26T19:18:55Z</time>
      </trkpt>
      <trkpt lat="45.69046" lon="4.83593">
        <ele>167.88732910156</ele>
        <time>2010-08-26T19:19:03Z</time>
      </trkpt>
      <trkpt lat="45.69057" lon="4.83601">
        <ele>167.88732910156</ele>
        <time>2010-08-26T19:19:10Z</time>
      </trkpt>
      <trkpt lat="45.69075" lon="4.8361">
        <ele>167.88732910156</ele>
        <time>2010-08-26T19:19:17Z</time>
      </trkpt>
      <trkpt lat="45.69091" lon="4.83617">
        <ele>167.40673828125</ele>
        <time>2010-08-26T19:19:23Z</time>
      </trkpt>
      <trkpt lat="45.69112" lon="4.83626">
        <ele>167.40673828125</ele>
        <time>2010-08-26T19:19:30Z</time>
      </trkpt>
      <trkpt lat="45.69137" lon="4.83635">
        <ele>168.36804199219</ele>
        <time>2010-08-26T19:19:38Z</time>
      </trkpt>
      <trkpt lat="45.6916" lon="4.83645">
        <ele>167.88732910156</ele>
        <time>2010-08-26T19:19:45Z</time>
      </trkpt>
      <trkpt lat="45.69184" lon="4.83654">
        <ele>167.88732910156</ele>
        <time>2010-08-26T19:19:52Z</time>
      </trkpt>
      <trkpt lat="45.69204" lon="4.83663">
        <ele>167.88732910156</ele>
        <time>2010-08-26T19:19:58Z</time>
      </trkpt>
      <trkpt lat="45.69234" lon="4.83675">
        <ele>168.36804199219</ele>
        <time>2010-08-26T19:20:05Z</time>
      </trkpt>
      <trkpt lat="45.69258" lon="4.83675">
        <ele>168.36804199219</ele>
        <time>2010-08-26T19:20:10Z</time>
      </trkpt>
      <trkpt lat="45.69281" lon="4.83669">
        <ele>168.84875488281</ele>
        <time>2010-08-26T19:20:15Z</time>
      </trkpt>
      <trkpt lat="45.6932" lon="4.8366">
        <ele>168.84875488281</ele>
        <time>2010-08-26T19:20:23Z</time>
      </trkpt>
      <trkpt lat="45.69347" lon="4.83656">
        <ele>168.36804199219</ele>
        <time>2010-08-26T19:20:30Z</time>
      </trkpt>
      <trkpt lat="45.69383" lon="4.83651">
        <ele>168.36804199219</ele>
        <time>2010-08-26T19:20:39Z</time>
      </trkpt>
      <trkpt lat="45.69408" lon="4.83656">
        <ele>168.36804199219</ele>
        <time>2010-08-26T19:20:46Z</time>
      </trkpt>
      <trkpt lat="45.69415" lon="4.83657">
        <ele>168.84875488281</ele>
        <time>2010-08-26T19:20:48Z</time>
      </trkpt>
      <trkpt lat="45.69426" lon="4.83679">
        <ele>169.32946777344</ele>
        <time>2010-08-26T19:20:54Z</time>
      </trkpt>
      <trkpt lat="45.69429" lon="4.837">
        <ele>168.36804199219</ele>
        <time>2010-08-26T19:20:58Z</time>
      </trkpt>
      <trkpt lat="45.69428" lon="4.83705">
        <ele>169.32946777344</ele>
        <time>2010-08-26T19:20:59Z</time>
      </trkpt>
      <trkpt lat="45.69428" lon="4.83733">
        <ele>167.88732910156</ele>
        <time>2010-08-26T19:21:05Z</time>
      </trkpt>
      <trkpt lat="45.69431" lon="4.83754">
        <ele>170.29064941406</ele>
        <time>2010-08-26T19:21:10Z</time>
      </trkpt>
      <trkpt lat="45.69439" lon="4.83763">
        <ele>167.88732910156</ele>
        <time>2010-08-26T19:21:14Z</time>
      </trkpt>
      <trkpt lat="45.6945" lon="4.8377">
        <ele>168.36804199219</ele>
        <time>2010-08-26T19:21:17Z</time>
      </trkpt>
      <trkpt lat="45.69479" lon="4.83781">
        <ele>168.84875488281</ele>
        <time>2010-08-26T19:21:24Z</time>
      </trkpt>
      <trkpt lat="45.69516" lon="4.83792">
        <ele>168.84875488281</ele>
        <time>2010-08-26T19:21:34Z</time>
      </trkpt>
      <trkpt lat="45.6955" lon="4.838">
        <ele>168.36804199219</ele>
        <time>2010-08-26T19:21:43Z</time>
      </trkpt>
      <trkpt lat="45.69583" lon="4.83807">
        <ele>168.84875488281</ele>
        <time>2010-08-26T19:21:52Z</time>
      </trkpt>
      <trkpt lat="45.69611" lon="4.83813">
        <ele>168.36804199219</ele>
        <time>2010-08-26T19:22:00Z</time>
      </trkpt>
      <trkpt lat="45.69635" lon="4.83815">
        <ele>168.84875488281</ele>
        <time>2010-08-26T19:22:07Z</time>
      </trkpt>
      <trkpt lat="45.69661" lon="4.8382">
        <ele>168.36804199219</ele>
        <time>2010-08-26T19:22:14Z</time>
      </trkpt>
      <trkpt lat="45.69663" lon="4.83821">
        <ele>168.36804199219</ele>
        <time>2010-08-26T19:22:15Z</time>
      </trkpt>
      <trkpt lat="45.6968" lon="4.83828">
        <ele>168.36804199219</ele>
        <time>2010-08-26T19:22:20Z</time>
      </trkpt>
      <trkpt lat="45.69687" lon="4.83841">
        <ele>168.84875488281</ele>
        <time>2010-08-26T19:22:22Z</time>
      </trkpt>
      <trkpt lat="45.69732" lon="4.83831">
        <ele>168.84875488281</ele>
        <time>2010-08-26T19:22:30Z</time>
      </trkpt>
      <trkpt lat="45.69765" lon="4.83832">
        <ele>167.88732910156</ele>
        <time>2010-08-26T19:22:37Z</time>
      </trkpt>
      <trkpt lat="45.6977" lon="4.83833">
        <ele>168.36804199219</ele>
        <time>2010-08-26T19:22:38Z</time>
      </trkpt>
      <trkpt lat="45.69798" lon="4.83833">
        <ele>168.84875488281</ele>
        <time>2010-08-26T19:22:45Z</time>
      </trkpt>
      <trkpt lat="45.69819" lon="4.83832">
        <ele>169.32946777344</ele>
        <time>2010-08-26T19:22:51Z</time>
      </trkpt>
      <trkpt lat="45.69842" lon="4.83831">
        <ele>169.32946777344</ele>
        <time>2010-08-26T19:22:58Z</time>
      </trkpt>
      <trkpt lat="45.69866" lon="4.8383">
        <ele>168.84875488281</ele>
        <time>2010-08-26T19:23:05Z</time>
      </trkpt>
      <trkpt lat="45.69889" lon="4.83828">
        <ele>169.32946777344</ele>
        <time>2010-08-26T19:23:12Z</time>
      </trkpt>
      <trkpt lat="45.69904" lon="4.83828">
        <ele>169.32946777344</ele>
        <time>2010-08-26T19:23:19Z</time>
      </trkpt>
      <trkpt lat="45.69913" lon="4.83829">
        <ele>168.84875488281</ele>
        <time>2010-08-26T19:23:24Z</time>
      </trkpt>
      <trkpt lat="45.69931" lon="4.83827">
        <ele>169.81005859375</ele>
        <time>2010-08-26T19:23:30Z</time>
      </trkpt>
      <trkpt lat="45.69956" lon="4.83824">
        <ele>168.84875488281</ele>
        <time>2010-08-26T19:23:37Z</time>
      </trkpt>
      <trkpt lat="45.69987" lon="4.8382">
        <ele>168.36804199219</ele>
        <time>2010-08-26T19:23:45Z</time>
      </trkpt>
      <trkpt lat="45.70015" lon="4.83815">
        <ele>168.84875488281</ele>
        <time>2010-08-26T19:23:52Z</time>
      </trkpt>
      <trkpt lat="45.70058" lon="4.83807">
        <ele>168.36804199219</ele>
        <time>2010-08-26T19:24:03Z</time>
      </trkpt>
      <trkpt lat="45.70087" lon="4.83801">
        <ele>168.84875488281</ele>
        <time>2010-08-26T19:24:11Z</time>
      </trkpt>
      <trkpt lat="45.70118" lon="4.83794">
        <ele>168.84875488281</ele>
        <time>2010-08-26T19:24:19Z</time>
      </trkpt>
      <trkpt lat="45.7014" lon="4.83788">
        <ele>168.84875488281</ele>
        <time>2010-08-26T19:24:25Z</time>
      </trkpt>
      <trkpt lat="45.70172" lon="4.8378">
        <ele>169.32946777344</ele>
        <time>2010-08-26T19:24:33Z</time>
      </trkpt>
      <trkpt lat="45.70205" lon="4.8377">
        <ele>169.81005859375</ele>
        <time>2010-08-26T19:24:42Z</time>
      </trkpt>
      <trkpt lat="45.70234" lon="4.83761">
        <ele>168.84875488281</ele>
        <time>2010-08-26T19:24:50Z</time>
      </trkpt>
      <trkpt lat="45.70268" lon="4.83748">
        <ele>169.32946777344</ele>
        <time>2010-08-26T19:25:00Z</time>
      </trkpt>
      <trkpt lat="45.70304" lon="4.83732">
        <ele>169.81005859375</ele>
        <time>2010-08-26T19:25:10Z</time>
      </trkpt>
      <trkpt lat="45.70333" lon="4.8372">
        <ele>169.32946777344</ele>
        <time>2010-08-26T19:25:18Z</time>
      </trkpt>
      <trkpt lat="45.70361" lon="4.83707">
        <ele>168.84875488281</ele>
        <time>2010-08-26T19:25:26Z</time>
      </trkpt>
      <trkpt lat="45.70387" lon="4.83694">
        <ele>168.84875488281</ele>
        <time>2010-08-26T19:25:33Z</time>
      </trkpt>
      <trkpt lat="45.70408" lon="4.83685">
        <ele>168.84875488281</ele>
        <time>2010-08-26T19:25:40Z</time>
      </trkpt>
      <trkpt lat="45.70425" lon="4.83677">
        <ele>168.84875488281</ele>
        <time>2010-08-26T19:25:45Z</time>
      </trkpt>
      <trkpt lat="45.70461" lon="4.83658">
        <ele>168.36804199219</ele>
        <time>2010-08-26T19:25:54Z</time>
      </trkpt>
      <trkpt lat="45.70485" lon="4.83646">
        <ele>168.36804199219</ele>
        <time>2010-08-26T19:26:01Z</time>
      </trkpt>
      <trkpt lat="45.70512" lon="4.83635">
        <ele>168.36804199219</ele>
        <time>2010-08-26T19:26:08Z</time>
      </trkpt>
      <trkpt lat="45.70528" lon="4.83629">
        <ele>168.36804199219</ele>
        <time>2010-08-26T19:26:12Z</time>
      </trkpt>
      <trkpt lat="45.70565" lon="4.83609">
        <ele>168.36804199219</ele>
        <time>2010-08-26T19:26:21Z</time>
      </trkpt>
      <trkpt lat="45.706" lon="4.83587">
        <ele>167.88732910156</ele>
        <time>2010-08-26T19:26:30Z</time>
      </trkpt>
      <trkpt lat="45.70647" lon="4.83551">
        <ele>168.36804199219</ele>
        <time>2010-08-26T19:26:42Z</time>
      </trkpt>
      <trkpt lat="45.70689" lon="4.83512">
        <ele>167.88732910156</ele>
        <time>2010-08-26T19:26:53Z</time>
      </trkpt>
      <trkpt lat="45.70718" lon="4.83482">
        <ele>167.88732910156</ele>
        <time>2010-08-26T19:27:01Z</time>
      </trkpt>
      <trkpt lat="45.70744" lon="4.83449">
        <ele>167.88732910156</ele>
        <time>2010-08-26T19:27:09Z</time>
      </trkpt>
      <trkpt lat="45.7078" lon="4.834">
        <ele>168.36804199219</ele>
        <time>2010-08-26T19:27:20Z</time>
      </trkpt>
      <trkpt lat="45.70789" lon="4.83386">
        <ele>168.36804199219</ele>
        <time>2010-08-26T19:27:23Z</time>
      </trkpt>
      <trkpt lat="45.70819" lon="4.83335">
        <ele>168.84875488281</ele>
        <time>2010-08-26T19:27:34Z</time>
      </trkpt>
      <trkpt lat="45.70836" lon="4.83301">
        <ele>168.84875488281</ele>
        <time>2010-08-26T19:27:41Z</time>
      </trkpt>
      <trkpt lat="45.70852" lon="4.83265">
        <ele>168.84875488281</ele>
        <time>2010-08-26T19:27:48Z</time>
      </trkpt>
      <trkpt lat="45.70863" lon="4.83238">
        <ele>168.84875488281</ele>
        <time>2010-08-26T19:27:54Z</time>
      </trkpt>
      <trkpt lat="45.70864" lon="4.83236">
        <ele>168.36804199219</ele>
        <time>2010-08-26T19:27:55Z</time>
      </trkpt>
      <trkpt lat="45.70872" lon="4.83227">
        <ele>167.88732910156</ele>
        <time>2010-08-26T19:28:01Z</time>
      </trkpt>
      <trkpt lat="45.70876" lon="4.83206">
        <ele>168.36804199219</ele>
        <time>2010-08-26T19:28:08Z</time>
      </trkpt>
      <trkpt lat="45.7087" lon="4.83195">
        <ele>168.84875488281</ele>
        <time>2010-08-26T19:28:13Z</time>
      </trkpt>
      <trkpt lat="45.70858" lon="4.83188">
        <ele>167.88732910156</ele>
        <time>2010-08-26T19:28:19Z</time>
      </trkpt>
      <trkpt lat="45.70846" lon="4.83188">
        <ele>168.84875488281</ele>
        <time>2010-08-26T19:28:24Z</time>
      </trkpt>
      <trkpt lat="45.70823" lon="4.83194">
        <ele>168.36804199219</ele>
        <time>2010-08-26T19:28:31Z</time>
      </trkpt>
      <trkpt lat="45.70788" lon="4.83206">
        <ele>169.81005859375</ele>
        <time>2010-08-26T19:28:41Z</time>
      </trkpt>
      <trkpt lat="45.70771" lon="4.83208">
        <ele>170.29064941406</ele>
        <time>2010-08-26T19:28:46Z</time>
      </trkpt>
      <trkpt lat="45.70748" lon="4.83214">
        <ele>172.21325683594</ele>
        <time>2010-08-26T19:28:53Z</time>
      </trkpt>
      <trkpt lat="45.70723" lon="4.83218">
        <ele>173.17468261719</ele>
        <time>2010-08-26T19:29:00Z</time>
      </trkpt>
      <trkpt lat="45.70702" lon="4.83209">
        <ele>174.61657714844</ele>
        <time>2010-08-26T19:29:06Z</time>
      </trkpt>
      <trkpt lat="45.70683" lon="4.8318">
        <ele>175.09729003906</ele>
        <time>2010-08-26T19:29:13Z</time>
      </trkpt>
      <trkpt lat="45.70657" lon="4.83125">
        <ele>173.17468261719</ele>
        <time>2010-08-26T19:29:23Z</time>
      </trkpt>
      <trkpt lat="45.7065" lon="4.83113">
        <ele>172.69396972656</ele>
        <time>2010-08-26T19:29:25Z</time>
      </trkpt>
      <trkpt lat="45.70635" lon="4.83092">
        <ele>171.73266601562</ele>
        <time>2010-08-26T19:29:29Z</time>
      </trkpt>
      <trkpt lat="45.70614" lon="4.83077">
        <ele>168.84875488281</ele>
        <time>2010-08-26T19:29:33Z</time>
      </trkpt>
      <trkpt lat="45.7059" lon="4.83072">
        <ele>169.81005859375</ele>
        <time>2010-08-26T19:29:37Z</time>
      </trkpt>
      <trkpt lat="45.70566" lon="4.83077">
        <ele>167.88732910156</ele>
        <time>2010-08-26T19:29:41Z</time>
      </trkpt>
      <trkpt lat="45.70548" lon="4.83068">
        <ele>167.40673828125</ele>
        <time>2010-08-26T19:29:45Z</time>
      </trkpt>
      <trkpt lat="45.70538" lon="4.83056">
        <ele>166.92602539062</ele>
        <time>2010-08-26T19:29:48Z</time>
      </trkpt>
      <trkpt lat="45.70534" lon="4.83054">
        <ele>167.40673828125</ele>
        <time>2010-08-26T19:29:49Z</time>
      </trkpt>
      <trkpt lat="45.70515" lon="4.83036">
        <ele>167.40673828125</ele>
        <time>2010-08-26T19:29:55Z</time>
      </trkpt>
      <trkpt lat="45.70498" lon="4.8301">
        <ele>166.92602539062</ele>
        <time>2010-08-26T19:30:02Z</time>
      </trkpt>
      <trkpt lat="45.70473" lon="4.8297">
        <ele>167.40673828125</ele>
        <time>2010-08-26T19:30:11Z</time>
      </trkpt>
      <trkpt lat="45.70461" lon="4.8295">
        <ele>166.92602539062</ele>
        <time>2010-08-26T19:30:15Z</time>
      </trkpt>
      <trkpt lat="45.70453" lon="4.82928">
        <ele>166.92602539062</ele>
        <time>2010-08-26T19:30:19Z</time>
      </trkpt>
      <trkpt lat="45.70452" lon="4.82904">
        <ele>166.92602539062</ele>
        <time>2010-08-26T19:30:23Z</time>
      </trkpt>
      <trkpt lat="45.70454" lon="4.82885">
        <ele>166.92602539062</ele>
        <time>2010-08-26T19:30:27Z</time>
      </trkpt>
      <trkpt lat="45.70453" lon="4.82874">
        <ele>166.92602539062</ele>
        <time>2010-08-26T19:30:29Z</time>
      </trkpt>
      <trkpt lat="45.70462" lon="4.82858">
        <ele>166.92602539062</ele>
        <time>2010-08-26T19:30:31Z</time>
      </trkpt>
      <trkpt lat="45.70473" lon="4.82845">
        <ele>166.92602539062</ele>
        <time>2010-08-26T19:30:33Z</time>
      </trkpt>
      <trkpt lat="45.70506" lon="4.82794">
        <ele>166.92602539062</ele>
        <time>2010-08-26T19:30:40Z</time>
      </trkpt>
      <trkpt lat="45.70523" lon="4.82765">
        <ele>166.4453125</ele>
        <time>2010-08-26T19:30:44Z</time>
      </trkpt>
      <trkpt lat="45.70532" lon="4.82753">
        <ele>166.4453125</ele>
        <time>2010-08-26T19:30:48Z</time>
      </trkpt>
      <trkpt lat="45.70533" lon="4.82752">
        <ele>166.92602539062</ele>
        <time>2010-08-26T19:30:53Z</time>
      </trkpt>
      <trkpt lat="45.70534" lon="4.8275">
        <ele>166.4453125</ele>
        <time>2010-08-26T19:31:12Z</time>
      </trkpt>
      <trkpt lat="45.70541" lon="4.82733">
        <ele>166.4453125</ele>
        <time>2010-08-26T19:31:16Z</time>
      </trkpt>
      <trkpt lat="45.70553" lon="4.82713">
        <ele>166.4453125</ele>
        <time>2010-08-26T19:31:21Z</time>
      </trkpt>
      <trkpt lat="45.70577" lon="4.82673">
        <ele>166.4453125</ele>
        <time>2010-08-26T19:31:29Z</time>
      </trkpt>
      <trkpt lat="45.70604" lon="4.82626">
        <ele>166.4453125</ele>
        <time>2010-08-26T19:31:37Z</time>
      </trkpt>
      <trkpt lat="45.70634" lon="4.82571">
        <ele>166.92602539062</ele>
        <time>2010-08-26T19:31:45Z</time>
      </trkpt>
      <trkpt lat="45.70675" lon="4.82497">
        <ele>166.92602539062</ele>
        <time>2010-08-26T19:31:55Z</time>
      </trkpt>
      <trkpt lat="45.70716" lon="4.82418">
        <ele>167.40673828125</ele>
        <time>2010-08-26T19:32:05Z</time>
      </trkpt>
      <trkpt lat="45.7075" lon="4.8236">
        <ele>166.92602539062</ele>
        <time>2010-08-26T19:32:13Z</time>
      </trkpt>
      <trkpt lat="45.7079" lon="4.82288">
        <ele>166.92602539062</ele>
        <time>2010-08-26T19:32:23Z</time>
      </trkpt>
      <trkpt lat="45.70814" lon="4.82244">
        <ele>166.4453125</ele>
        <time>2010-08-26T19:32:29Z</time>
      </trkpt>
      <trkpt lat="45.70841" lon="4.82198">
        <ele>167.40673828125</ele>
        <time>2010-08-26T19:32:35Z</time>
      </trkpt>
      <trkpt lat="45.70864" lon="4.82176">
        <ele>167.40673828125</ele>
        <time>2010-08-26T19:32:39Z</time>
      </trkpt>
      <trkpt lat="45.70928" lon="4.82143">
        <ele>166.4453125</ele>
        <time>2010-08-26T19:32:49Z</time>
      </trkpt>
      <trkpt lat="45.70953" lon="4.82125">
        <ele>166.92602539062</ele>
        <time>2010-08-26T19:32:54Z</time>
      </trkpt>
      <trkpt lat="45.70956" lon="4.82121">
        <ele>166.92602539062</ele>
        <time>2010-08-26T19:32:55Z</time>
      </trkpt>
      <trkpt lat="45.70967" lon="4.821">
        <ele>168.36804199219</ele>
        <time>2010-08-26T19:32:59Z</time>
      </trkpt>
      <trkpt lat="45.70985" lon="4.82068">
        <ele>167.88732910156</ele>
        <time>2010-08-26T19:33:05Z</time>
      </trkpt>
      <trkpt lat="45.71026" lon="4.8204">
        <ele>166.4453125</ele>
        <time>2010-08-26T19:33:12Z</time>
      </trkpt>
      <trkpt lat="45.71061" lon="4.82024">
        <ele>165.96472167969</ele>
        <time>2010-08-26T19:33:17Z</time>
      </trkpt>
      <trkpt lat="45.71102" lon="4.82014">
        <ele>165.96472167969</ele>
        <time>2010-08-26T19:33:23Z</time>
      </trkpt>
      <trkpt lat="45.71144" lon="4.82007">
        <ele>165.96472167969</ele>
        <time>2010-08-26T19:33:29Z</time>
      </trkpt>
      <trkpt lat="45.71175" lon="4.82001">
        <ele>166.4453125</ele>
        <time>2010-08-26T19:33:33Z</time>
      </trkpt>
      <trkpt lat="45.71244" lon="4.81987">
        <ele>166.4453125</ele>
        <time>2010-08-26T19:33:42Z</time>
      </trkpt>
      <trkpt lat="45.71308" lon="4.81971">
        <ele>165.96472167969</ele>
        <time>2010-08-26T19:33:50Z</time>
      </trkpt>
      <trkpt lat="45.71357" lon="4.81959">
        <ele>166.4453125</ele>
        <time>2010-08-26T19:33:57Z</time>
      </trkpt>
      <trkpt lat="45.71395" lon="4.81945">
        <ele>165.96472167969</ele>
        <time>2010-08-26T19:34:03Z</time>
      </trkpt>
      <trkpt lat="45.7141" lon="4.81939">
        <ele>166.4453125</ele>
        <time>2010-08-26T19:34:06Z</time>
      </trkpt>
      <trkpt lat="45.71418" lon="4.81935">
        <ele>167.88732910156</ele>
        <time>2010-08-26T19:34:09Z</time>
      </trkpt>
      <trkpt lat="45.71424" lon="4.81934">
        <ele>168.36804199219</ele>
        <time>2010-08-26T19:34:10Z</time>
      </trkpt>
      <trkpt lat="45.71431" lon="4.81934">
        <ele>166.4453125</ele>
        <time>2010-08-26T19:34:11Z</time>
      </trkpt>
      <trkpt lat="45.71469" lon="4.81929">
        <ele>166.4453125</ele>
        <time>2010-08-26T19:34:18Z</time>
      </trkpt>
      <trkpt lat="45.71504" lon="4.81923">
        <ele>166.4453125</ele>
        <time>2010-08-26T19:34:23Z</time>
      </trkpt>
      <trkpt lat="45.71555" lon="4.8191">
        <ele>166.92602539062</ele>
        <time>2010-08-26T19:34:30Z</time>
      </trkpt>
      <trkpt lat="45.71603" lon="4.81903">
        <ele>166.92602539062</ele>
        <time>2010-08-26T19:34:36Z</time>
      </trkpt>
      <trkpt lat="45.71647" lon="4.81889">
        <ele>167.40673828125</ele>
        <time>2010-08-26T19:34:42Z</time>
      </trkpt>
      <trkpt lat="45.71681" lon="4.81877">
        <ele>167.40673828125</ele>
        <time>2010-08-26T19:34:47Z</time>
      </trkpt>
      <trkpt lat="45.71709" lon="4.81867">
        <ele>167.88732910156</ele>
        <time>2010-08-26T19:34:52Z</time>
      </trkpt>
      <trkpt lat="45.7174" lon="4.81864">
        <ele>167.88732910156</ele>
        <time>2010-08-26T19:34:58Z</time>
      </trkpt>
      <trkpt lat="45.7175" lon="4.81862">
        <ele>167.40673828125</ele>
        <time>2010-08-26T19:35:01Z</time>
      </trkpt>
      <trkpt lat="45.71767" lon="4.8186">
        <ele>167.40673828125</ele>
        <time>2010-08-26T19:35:07Z</time>
      </trkpt>
      <trkpt lat="45.7179" lon="4.81851">
        <ele>168.84875488281</ele>
        <time>2010-08-26T19:35:13Z</time>
      </trkpt>
      <trkpt lat="45.71819" lon="4.81845">
        <ele>168.84875488281</ele>
        <time>2010-08-26T19:35:18Z</time>
      </trkpt>
      <trkpt lat="45.71867" lon="4.81839">
        <ele>168.84875488281</ele>
        <time>2010-08-26T19:35:25Z</time>
      </trkpt>
      <trkpt lat="45.71935" lon="4.81831">
        <ele>168.84875488281</ele>
        <time>2010-08-26T19:35:34Z</time>
      </trkpt>
      <trkpt lat="45.7201" lon="4.81813">
        <ele>168.84875488281</ele>
        <time>2010-08-26T19:35:44Z</time>
      </trkpt>
      <trkpt lat="45.72071" lon="4.81799">
        <ele>169.32946777344</ele>
        <time>2010-08-26T19:35:52Z</time>
      </trkpt>
      <trkpt lat="45.72147" lon="4.81783">
        <ele>169.32946777344</ele>
        <time>2010-08-26T19:36:02Z</time>
      </trkpt>
      <trkpt lat="45.7222" lon="4.81767">
        <ele>168.84875488281</ele>
        <time>2010-08-26T19:36:11Z</time>
      </trkpt>
      <trkpt lat="45.72298" lon="4.8175">
        <ele>169.32946777344</ele>
        <time>2010-08-26T19:36:20Z</time>
      </trkpt>
      <trkpt lat="45.72388" lon="4.81728">
        <ele>169.81005859375</ele>
        <time>2010-08-26T19:36:30Z</time>
      </trkpt>
      <trkpt lat="45.72467" lon="4.8171">
        <ele>170.29064941406</ele>
        <time>2010-08-26T19:36:38Z</time>
      </trkpt>
      <trkpt lat="45.72529" lon="4.81693">
        <ele>170.29064941406</ele>
        <time>2010-08-26T19:36:45Z</time>
      </trkpt>
      <trkpt lat="45.72582" lon="4.81673">
        <ele>172.21325683594</ele>
        <time>2010-08-26T19:36:52Z</time>
      </trkpt>
      <trkpt lat="45.72606" lon="4.81652">
        <ele>170.77136230469</ele>
        <time>2010-08-26T19:36:55Z</time>
      </trkpt>
      <trkpt lat="45.72612" lon="4.81643">
        <ele>170.77136230469</ele>
        <time>2010-08-26T19:36:56Z</time>
      </trkpt>
      <trkpt lat="45.7264" lon="4.81609">
        <ele>171.25207519531</ele>
        <time>2010-08-26T19:37:01Z</time>
      </trkpt>
      <trkpt lat="45.72694" lon="4.81595">
        <ele>170.77136230469</ele>
        <time>2010-08-26T19:37:08Z</time>
      </trkpt>
      <trkpt lat="45.72717" lon="4.81607">
        <ele>171.25207519531</ele>
        <time>2010-08-26T19:37:11Z</time>
      </trkpt>
      <trkpt lat="45.72726" lon="4.81614">
        <ele>171.25207519531</ele>
        <time>2010-08-26T19:37:12Z</time>
      </trkpt>
      <trkpt lat="45.72766" lon="4.81625">
        <ele>170.77136230469</ele>
        <time>2010-08-26T19:37:17Z</time>
      </trkpt>
      <trkpt lat="45.7282" lon="4.81612">
        <ele>173.17468261719</ele>
        <time>2010-08-26T19:37:24Z</time>
      </trkpt>
      <trkpt lat="45.7285" lon="4.81604">
        <ele>174.13586425781</ele>
        <time>2010-08-26T19:37:29Z</time>
      </trkpt>
      <trkpt lat="45.72884" lon="4.81594">
        <ele>177.02001953125</ele>
        <time>2010-08-26T19:37:35Z</time>
      </trkpt>
      <trkpt lat="45.72889" lon="4.81592">
        <ele>177.02001953125</ele>
        <time>2010-08-26T19:37:36Z</time>
      </trkpt>
      <trkpt lat="45.72916" lon="4.81582">
        <ele>177.98120117188</ele>
        <time>2010-08-26T19:37:42Z</time>
      </trkpt>
      <trkpt lat="45.72936" lon="4.81576">
        <ele>177.98120117188</ele>
        <time>2010-08-26T19:37:47Z</time>
      </trkpt>
      <trkpt lat="45.72949" lon="4.81591">
        <ele>177.98120117188</ele>
        <time>2010-08-26T19:37:52Z</time>
      </trkpt>
      <trkpt lat="45.72967" lon="4.81601">
        <ele>177.50061035156</ele>
        <time>2010-08-26T19:37:57Z</time>
      </trkpt>
      <trkpt lat="45.7297" lon="4.816">
        <ele>176.53930664062</ele>
        <time>2010-08-26T19:37:58Z</time>
      </trkpt>
      <trkpt lat="45.72995" lon="4.81587">
        <ele>175.09729003906</ele>
        <time>2010-08-26T19:38:04Z</time>
      </trkpt>
      <trkpt lat="45.73012" lon="4.81579">
        <ele>175.09729003906</ele>
        <time>2010-08-26T19:38:08Z</time>
      </trkpt>
      <trkpt lat="45.73025" lon="4.81575">
        <ele>175.57788085938</ele>
        <time>2010-08-26T19:38:13Z</time>
      </trkpt>
      <trkpt lat="45.73039" lon="4.81566">
        <ele>175.09729003906</ele>
        <time>2010-08-26T19:38:19Z</time>
      </trkpt>
      <trkpt lat="45.73064" lon="4.81565">
        <ele>177.50061035156</ele>
        <time>2010-08-26T19:38:25Z</time>
      </trkpt>
      <trkpt lat="45.7308" lon="4.81572">
        <ele>178.4619140625</ele>
        <time>2010-08-26T19:38:29Z</time>
      </trkpt>
      <trkpt lat="45.73105" lon="4.81593">
        <ele>177.98120117188</ele>
        <time>2010-08-26T19:38:36Z</time>
      </trkpt>
      <trkpt lat="45.73109" lon="4.81596">
        <ele>177.98120117188</ele>
        <time>2010-08-26T19:38:37Z</time>
      </trkpt>
      <trkpt lat="45.73136" lon="4.81619">
        <ele>177.50061035156</ele>
        <time>2010-08-26T19:38:44Z</time>
      </trkpt>
      <trkpt lat="45.73169" lon="4.81646">
        <ele>177.02001953125</ele>
        <time>2010-08-26T19:38:52Z</time>
      </trkpt>
      <trkpt lat="45.73201" lon="4.81674">
        <ele>177.02001953125</ele>
        <time>2010-08-26T19:38:59Z</time>
      </trkpt>
      <trkpt lat="45.73227" lon="4.81706">
        <ele>175.09729003906</ele>
        <time>2010-08-26T19:39:05Z</time>
      </trkpt>
      <trkpt lat="45.73258" lon="4.81735">
        <ele>174.13586425781</ele>
        <time>2010-08-26T19:39:11Z</time>
      </trkpt>
      <trkpt lat="45.7328" lon="4.81759">
        <ele>174.13586425781</ele>
        <time>2010-08-26T19:39:15Z</time>
      </trkpt>
      <trkpt lat="45.73325" lon="4.81797">
        <ele>173.17468261719</ele>
        <time>2010-08-26T19:39:22Z</time>
      </trkpt>
      <trkpt lat="45.73368" lon="4.81841">
        <ele>173.6552734375</ele>
        <time>2010-08-26T19:39:29Z</time>
      </trkpt>
      <trkpt lat="45.7338" lon="4.81853">
        <ele>175.09729003906</ele>
        <time>2010-08-26T19:39:31Z</time>
      </trkpt>
      <trkpt lat="45.73386" lon="4.81877">
        <ele>174.61657714844</ele>
        <time>2010-08-26T19:39:34Z</time>
      </trkpt>
      <trkpt lat="45.73383" lon="4.81885">
        <ele>175.57788085938</ele>
        <time>2010-08-26T19:39:35Z</time>
      </trkpt>
      <trkpt lat="45.73365" lon="4.81938">
        <ele>176.53930664062</ele>
        <time>2010-08-26T19:39:42Z</time>
      </trkpt>
      <trkpt lat="45.73342" lon="4.82022">
        <ele>177.98120117188</ele>
        <time>2010-08-26T19:39:53Z</time>
      </trkpt>
      <trkpt lat="45.73318" lon="4.82106">
        <ele>178.4619140625</ele>
        <time>2010-08-26T19:40:04Z</time>
      </trkpt>
      <trkpt lat="45.73301" lon="4.82167">
        <ele>175.09729003906</ele>
        <time>2010-08-26T19:40:11Z</time>
      </trkpt>
      <trkpt lat="45.73281" lon="4.82241">
        <ele>174.13586425781</ele>
        <time>2010-08-26T19:40:19Z</time>
      </trkpt>
      <trkpt lat="45.73273" lon="4.82277">
        <ele>173.6552734375</ele>
        <time>2010-08-26T19:40:23Z</time>
      </trkpt>
      <trkpt lat="45.73265" lon="4.8232">
        <ele>172.69396972656</ele>
        <time>2010-08-26T19:40:28Z</time>
      </trkpt>
      <trkpt lat="45.7326" lon="4.82337">
        <ele>172.69396972656</ele>
        <time>2010-08-26T19:40:31Z</time>
      </trkpt>
      <trkpt lat="45.7326" lon="4.82358">
        <ele>172.21325683594</ele>
        <time>2010-08-26T19:40:36Z</time>
      </trkpt>
      <trkpt lat="45.73268" lon="4.82371">
        <ele>171.25207519531</ele>
        <time>2010-08-26T19:40:40Z</time>
      </trkpt>
      <trkpt lat="45.73275" lon="4.82375">
        <ele>170.77136230469</ele>
        <time>2010-08-26T19:40:42Z</time>
      </trkpt>
      <trkpt lat="45.7329" lon="4.82386">
        <ele>169.81005859375</ele>
        <time>2010-08-26T19:40:46Z</time>
      </trkpt>
      <trkpt lat="45.73293" lon="4.82406">
        <ele>169.32946777344</ele>
        <time>2010-08-26T19:40:50Z</time>
      </trkpt>
      <trkpt lat="45.73292" lon="4.8243">
        <ele>169.81005859375</ele>
        <time>2010-08-26T19:40:54Z</time>
      </trkpt>
      <trkpt lat="45.7329" lon="4.82472">
        <ele>170.29064941406</ele>
        <time>2010-08-26T19:41:01Z</time>
      </trkpt>
      <trkpt lat="45.73289" lon="4.82502">
        <ele>170.77136230469</ele>
        <time>2010-08-26T19:41:07Z</time>
      </trkpt>
      <trkpt lat="45.73294" lon="4.82511">
        <ele>169.81005859375</ele>
        <time>2010-08-26T19:41:12Z</time>
      </trkpt>
      <trkpt lat="45.73293" lon="4.8251">
        <ele>170.29064941406</ele>
        <time>2010-08-26T19:41:17Z</time>
      </trkpt>
      <trkpt lat="45.73291" lon="4.82508">
        <ele>172.21325683594</ele>
        <time>2010-08-26T19:41:25Z</time>
      </trkpt>
      <trkpt lat="45.73291" lon="4.82508">
        <ele>170.29064941406</ele>
        <time>2010-08-26T19:41:34Z</time>
      </trkpt>
      <trkpt lat="45.73293" lon="4.82509">
        <ele>170.29064941406</ele>
        <time>2010-08-26T19:41:56Z</time>
      </trkpt>
      <trkpt lat="45.73293" lon="4.8251">
        <ele>170.29064941406</ele>
        <time>2010-08-26T19:42:04Z</time>
      </trkpt>
      <trkpt lat="45.73292" lon="4.82509">
        <ele>171.25207519531</ele>
        <time>2010-08-26T19:42:14Z</time>
      </trkpt>
      <trkpt lat="45.73292" lon="4.82507">
        <ele>170.77136230469</ele>
        <time>2010-08-26T19:42:51Z</time>
      </trkpt>
      <trkpt lat="45.73296" lon="4.82511">
        <ele>170.77136230469</ele>
        <time>2010-08-26T19:42:54Z</time>
      </trkpt>
      <trkpt lat="45.73303" lon="4.82527">
        <ele>171.25207519531</ele>
        <time>2010-08-26T19:42:59Z</time>
      </trkpt>
      <trkpt lat="45.73305" lon="4.82531">
        <ele>171.25207519531</ele>
        <time>2010-08-26T19:43:00Z</time>
      </trkpt>
      <trkpt lat="45.73323" lon="4.82551">
        <ele>170.77136230469</ele>
        <time>2010-08-26T19:43:06Z</time>
      </trkpt>
      <trkpt lat="45.73344" lon="4.82567">
        <ele>171.25207519531</ele>
        <time>2010-08-26T19:43:12Z</time>
      </trkpt>
      <trkpt lat="45.73375" lon="4.82594">
        <ele>171.25207519531</ele>
        <time>2010-08-26T19:43:19Z</time>
      </trkpt>
      <trkpt lat="45.73413" lon="4.82626">
        <ele>171.25207519531</ele>
        <time>2010-08-26T19:43:27Z</time>
      </trkpt>
      <trkpt lat="45.73436" lon="4.82645">
        <ele>171.73266601562</ele>
        <time>2010-08-26T19:43:33Z</time>
      </trkpt>
      <trkpt lat="45.73464" lon="4.82669">
        <ele>172.21325683594</ele>
        <time>2010-08-26T19:43:40Z</time>
      </trkpt>
      <trkpt lat="45.73494" lon="4.82695">
        <ele>172.21325683594</ele>
        <time>2010-08-26T19:43:47Z</time>
      </trkpt>
      <trkpt lat="45.73513" lon="4.82713">
        <ele>172.21325683594</ele>
        <time>2010-08-26T19:43:51Z</time>
      </trkpt>
      <trkpt lat="45.73538" lon="4.82738">
        <ele>172.69396972656</ele>
        <time>2010-08-26T19:43:57Z</time>
      </trkpt>
      <trkpt lat="45.73547" lon="4.82746">
        <ele>172.21325683594</ele>
        <time>2010-08-26T19:43:59Z</time>
      </trkpt>
      <trkpt lat="45.73568" lon="4.82763">
        <ele>171.25207519531</ele>
        <time>2010-08-26T19:44:04Z</time>
      </trkpt>
      <trkpt lat="45.73604" lon="4.82792">
        <ele>172.21325683594</ele>
        <time>2010-08-26T19:44:12Z</time>
      </trkpt>
      <trkpt lat="45.73624" lon="4.82811">
        <ele>172.21325683594</ele>
        <time>2010-08-26T19:44:17Z</time>
      </trkpt>
      <trkpt lat="45.73647" lon="4.82832">
        <ele>172.21325683594</ele>
        <time>2010-08-26T19:44:23Z</time>
      </trkpt>
      <trkpt lat="45.73668" lon="4.82852">
        <ele>172.21325683594</ele>
        <time>2010-08-26T19:44:29Z</time>
      </trkpt>
      <trkpt lat="45.73695" lon="4.82879">
        <ele>172.69396972656</ele>
        <time>2010-08-26T19:44:36Z</time>
      </trkpt>
      <trkpt lat="45.73734" lon="4.82911">
        <ele>171.73266601562</ele>
        <time>2010-08-26T19:44:44Z</time>
      </trkpt>
      <trkpt lat="45.73764" lon="4.82943">
        <ele>172.69396972656</ele>
        <time>2010-08-26T19:44:52Z</time>
      </trkpt>
      <trkpt lat="45.7379" lon="4.82968">
        <ele>172.21325683594</ele>
        <time>2010-08-26T19:45:00Z</time>
      </trkpt>
      <trkpt lat="45.73811" lon="4.82984">
        <ele>172.69396972656</ele>
        <time>2010-08-26T19:45:06Z</time>
      </trkpt>
      <trkpt lat="45.73844" lon="4.8301">
        <ele>173.17468261719</ele>
        <time>2010-08-26T19:45:14Z</time>
      </trkpt>
      <trkpt lat="45.7387" lon="4.83034">
        <ele>172.69396972656</ele>
        <time>2010-08-26T19:45:21Z</time>
      </trkpt>
      <trkpt lat="45.73883" lon="4.83047">
        <ele>172.69396972656</ele>
        <time>2010-08-26T19:45:26Z</time>
      </trkpt>
      <trkpt lat="45.739" lon="4.83062">
        <ele>174.13586425781</ele>
        <time>2010-08-26T19:45:33Z</time>
      </trkpt>
      <trkpt lat="45.73922" lon="4.8308">
        <ele>174.13586425781</ele>
        <time>2010-08-26T19:45:39Z</time>
      </trkpt>
      <trkpt lat="45.73945" lon="4.83099">
        <ele>173.17468261719</ele>
        <time>2010-08-26T19:45:45Z</time>
      </trkpt>
      <trkpt lat="45.73974" lon="4.8312">
        <ele>173.6552734375</ele>
        <time>2010-08-26T19:45:52Z</time>
      </trkpt>
      <trkpt lat="45.73997" lon="4.8314">
        <ele>174.13586425781</ele>
        <time>2010-08-26T19:45:58Z</time>
      </trkpt>
      <trkpt lat="45.74025" lon="4.83163">
        <ele>174.13586425781</ele>
        <time>2010-08-26T19:46:04Z</time>
      </trkpt>
      <trkpt lat="45.74051" lon="4.83187">
        <ele>175.09729003906</ele>
        <time>2010-08-26T19:46:11Z</time>
      </trkpt>
      <trkpt lat="45.74078" lon="4.83213">
        <ele>175.09729003906</ele>
        <time>2010-08-26T19:46:18Z</time>
      </trkpt>
      <trkpt lat="45.74105" lon="4.83238">
        <ele>175.09729003906</ele>
        <time>2010-08-26T19:46:25Z</time>
      </trkpt>
      <trkpt lat="45.74132" lon="4.83263">
        <ele>174.61657714844</ele>
        <time>2010-08-26T19:46:31Z</time>
      </trkpt>
      <trkpt lat="45.74164" lon="4.83292">
        <ele>174.13586425781</ele>
        <time>2010-08-26T19:46:38Z</time>
      </trkpt>
      <trkpt lat="45.74197" lon="4.83319">
        <ele>173.6552734375</ele>
        <time>2010-08-26T19:46:45Z</time>
      </trkpt>
      <trkpt lat="45.74228" lon="4.83347">
        <ele>173.6552734375</ele>
        <time>2010-08-26T19:46:51Z</time>
      </trkpt>
      <trkpt lat="45.74269" lon="4.8338">
        <ele>174.13586425781</ele>
        <time>2010-08-26T19:46:59Z</time>
      </trkpt>
      <trkpt lat="45.74301" lon="4.83403">
        <ele>173.6552734375</ele>
        <time>2010-08-26T19:47:05Z</time>
      </trkpt>
      <trkpt lat="45.74335" lon="4.83429">
        <ele>174.13586425781</ele>
        <time>2010-08-26T19:47:12Z</time>
      </trkpt>
      <trkpt lat="45.74368" lon="4.83457">
        <ele>174.13586425781</ele>
        <time>2010-08-26T19:47:19Z</time>
      </trkpt>
      <trkpt lat="45.74394" lon="4.83482">
        <ele>174.61657714844</ele>
        <time>2010-08-26T19:47:25Z</time>
      </trkpt>
      <trkpt lat="45.74426" lon="4.8351">
        <ele>174.13586425781</ele>
        <time>2010-08-26T19:47:32Z</time>
      </trkpt>
      <trkpt lat="45.74448" lon="4.83529">
        <ele>173.6552734375</ele>
        <time>2010-08-26T19:47:38Z</time>
      </trkpt>
      <trkpt lat="45.74451" lon="4.83532">
        <ele>173.6552734375</ele>
        <time>2010-08-26T19:47:41Z</time>
      </trkpt>
      <trkpt lat="45.74468" lon="4.83546">
        <ele>173.6552734375</ele>
        <time>2010-08-26T19:47:45Z</time>
      </trkpt>
      <trkpt lat="45.74475" lon="4.83564">
        <ele>174.61657714844</ele>
        <time>2010-08-26T19:47:47Z</time>
      </trkpt>
      <trkpt lat="45.74484" lon="4.83575">
        <ele>174.13586425781</ele>
        <time>2010-08-26T19:47:52Z</time>
      </trkpt>
      <trkpt lat="45.74487" lon="4.83601">
        <ele>174.13586425781</ele>
        <time>2010-08-26T19:47:57Z</time>
      </trkpt>
      <trkpt lat="45.74487" lon="4.836">
        <ele>174.13586425781</ele>
        <time>2010-08-26T19:47:58Z</time>
      </trkpt>
      <trkpt lat="45.745" lon="4.83615">
        <ele>173.6552734375</ele>
        <time>2010-08-26T19:48:02Z</time>
      </trkpt>
      <trkpt lat="45.74495" lon="4.83655">
        <ele>173.6552734375</ele>
        <time>2010-08-26T19:48:05Z</time>
      </trkpt>
      <trkpt lat="45.74542" lon="4.83728">
        <ele>175.09729003906</ele>
        <time>2010-08-26T19:48:17Z</time>
      </trkpt>
      <trkpt lat="45.7455" lon="4.83779">
        <ele>174.13586425781</ele>
        <time>2010-08-26T19:48:25Z</time>
      </trkpt>
      <trkpt lat="45.74552" lon="4.83812">
        <ele>174.13586425781</ele>
        <time>2010-08-26T19:48:30Z</time>
      </trkpt>
      <trkpt lat="45.74565" lon="4.83856">
        <ele>174.13586425781</ele>
        <time>2010-08-26T19:48:37Z</time>
      </trkpt>
      <trkpt lat="45.74569" lon="4.83884">
        <ele>174.13586425781</ele>
        <time>2010-08-26T19:48:41Z</time>
      </trkpt>
      <trkpt lat="45.74567" lon="4.83917">
        <ele>174.61657714844</ele>
        <time>2010-08-26T19:48:47Z</time>
      </trkpt>
      <trkpt lat="45.74569" lon="4.83927">
        <ele>174.13586425781</ele>
        <time>2010-08-26T19:48:49Z</time>
      </trkpt>
      <trkpt lat="45.74574" lon="4.8395">
        <ele>174.61657714844</ele>
        <time>2010-08-26T19:48:53Z</time>
      </trkpt>
      <trkpt lat="45.74579" lon="4.83968">
        <ele>174.13586425781</ele>
        <time>2010-08-26T19:48:56Z</time>
      </trkpt>
      <trkpt lat="45.74584" lon="4.84003">
        <ele>174.13586425781</ele>
        <time>2010-08-26T19:49:02Z</time>
      </trkpt>
      <trkpt lat="45.74573" lon="4.84035">
        <ele>174.61657714844</ele>
        <time>2010-08-26T19:49:07Z</time>
      </trkpt>
      <trkpt lat="45.74572" lon="4.8404">
        <ele>174.13586425781</ele>
        <time>2010-08-26T19:49:08Z</time>
      </trkpt>
      <trkpt lat="45.74559" lon="4.84072">
        <ele>174.13586425781</ele>
        <time>2010-08-26T19:49:13Z</time>
      </trkpt>
      <trkpt lat="45.74543" lon="4.84114">
        <ele>174.13586425781</ele>
        <time>2010-08-26T19:49:20Z</time>
      </trkpt>
      <trkpt lat="45.74533" lon="4.84149">
        <ele>174.13586425781</ele>
        <time>2010-08-26T19:49:26Z</time>
      </trkpt>
      <trkpt lat="45.74522" lon="4.84185">
        <ele>174.61657714844</ele>
        <time>2010-08-26T19:49:32Z</time>
      </trkpt>
      <trkpt lat="45.74517" lon="4.84198">
        <ele>173.6552734375</ele>
        <time>2010-08-26T19:49:34Z</time>
      </trkpt>
      <trkpt lat="45.74508" lon="4.84216">
        <ele>174.13586425781</ele>
        <time>2010-08-26T19:49:37Z</time>
      </trkpt>
      <trkpt lat="45.74504" lon="4.84234">
        <ele>174.13586425781</ele>
        <time>2010-08-26T19:49:40Z</time>
      </trkpt>
      <trkpt lat="45.74495" lon="4.84254">
        <ele>174.13586425781</ele>
        <time>2010-08-26T19:49:44Z</time>
      </trkpt>
      <trkpt lat="45.74484" lon="4.84297">
        <ele>173.6552734375</ele>
        <time>2010-08-26T19:49:51Z</time>
      </trkpt>
      <trkpt lat="45.74475" lon="4.84327">
        <ele>174.13586425781</ele>
        <time>2010-08-26T19:49:56Z</time>
      </trkpt>
      <trkpt lat="45.74466" lon="4.84362">
        <ele>174.61657714844</ele>
        <time>2010-08-26T19:50:02Z</time>
      </trkpt>
      <trkpt lat="45.74463" lon="4.84374">
        <ele>174.61657714844</ele>
        <time>2010-08-26T19:50:04Z</time>
      </trkpt>
      <trkpt lat="45.74449" lon="4.84419">
        <ele>174.61657714844</ele>
        <time>2010-08-26T19:50:12Z</time>
      </trkpt>
      <trkpt lat="45.74445" lon="4.84443">
        <ele>173.17468261719</ele>
        <time>2010-08-26T19:50:16Z</time>
      </trkpt>
      <trkpt lat="45.74435" lon="4.84483">
        <ele>174.13586425781</ele>
        <time>2010-08-26T19:50:23Z</time>
      </trkpt>
      <trkpt lat="45.74433" lon="4.84489">
        <ele>174.61657714844</ele>
        <time>2010-08-26T19:50:24Z</time>
      </trkpt>
      <trkpt lat="45.7442" lon="4.84515">
        <ele>174.13586425781</ele>
        <time>2010-08-26T19:50:28Z</time>
      </trkpt>
      <trkpt lat="45.74411" lon="4.84539">
        <ele>175.09729003906</ele>
        <time>2010-08-26T19:50:32Z</time>
      </trkpt>
      <trkpt lat="45.74394" lon="4.84588">
        <ele>174.13586425781</ele>
        <time>2010-08-26T19:50:40Z</time>
      </trkpt>
      <trkpt lat="45.74389" lon="4.84606">
        <ele>175.57788085938</ele>
        <time>2010-08-26T19:50:43Z</time>
      </trkpt>
      <trkpt lat="45.74386" lon="4.84612">
        <ele>175.09729003906</ele>
        <time>2010-08-26T19:50:44Z</time>
      </trkpt>
      <trkpt lat="45.74372" lon="4.84655">
        <ele>175.57788085938</ele>
        <time>2010-08-26T19:50:52Z</time>
      </trkpt>
      <trkpt lat="45.74357" lon="4.847">
        <ele>176.53930664062</ele>
        <time>2010-08-26T19:51:00Z</time>
      </trkpt>
      <trkpt lat="45.74349" lon="4.84722">
        <ele>176.53930664062</ele>
        <time>2010-08-26T19:51:05Z</time>
      </trkpt>
      <trkpt lat="45.74345" lon="4.8474">
        <ele>177.02001953125</ele>
        <time>2010-08-26T19:51:11Z</time>
      </trkpt>
      <trkpt lat="45.74344" lon="4.8474">
        <ele>177.02001953125</ele>
        <time>2010-08-26T19:51:15Z</time>
      </trkpt>
      <trkpt lat="45.74348" lon="4.84752">
        <ele>177.50061035156</ele>
        <time>2010-08-26T19:51:20Z</time>
      </trkpt>
      <trkpt lat="45.74348" lon="4.84764">
        <ele>177.50061035156</ele>
        <time>2010-08-26T19:51:23Z</time>
      </trkpt>
      <trkpt lat="45.74338" lon="4.84785">
        <ele>177.98120117188</ele>
        <time>2010-08-26T19:51:29Z</time>
      </trkpt>
      <trkpt lat="45.74319" lon="4.84813">
        <ele>177.98120117188</ele>
        <time>2010-08-26T19:51:37Z</time>
      </trkpt>
      <trkpt lat="45.74305" lon="4.84839">
        <ele>178.4619140625</ele>
        <time>2010-08-26T19:51:43Z</time>
      </trkpt>
      <trkpt lat="45.74293" lon="4.8489">
        <ele>178.4619140625</ele>
        <time>2010-08-26T19:51:53Z</time>
      </trkpt>
      <trkpt lat="45.74278" lon="4.84927">
        <ele>179.42321777344</ele>
        <time>2010-08-26T19:52:01Z</time>
      </trkpt>
      <trkpt lat="45.74266" lon="4.84956">
        <ele>179.90380859375</ele>
        <time>2010-08-26T19:52:08Z</time>
      </trkpt>
      <trkpt lat="45.74251" lon="4.84989">
        <ele>180.38452148438</ele>
        <time>2010-08-26T19:52:15Z</time>
      </trkpt>
      <trkpt lat="45.74251" lon="4.85016">
        <ele>180.38452148438</ele>
        <time>2010-08-26T19:52:20Z</time>
      </trkpt>
      <trkpt lat="45.74247" lon="4.85046">
        <ele>181.82641601562</ele>
        <time>2010-08-26T19:52:25Z</time>
      </trkpt>
      <trkpt lat="45.74237" lon="4.8507">
        <ele>181.34582519531</ele>
        <time>2010-08-26T19:52:30Z</time>
      </trkpt>
      <trkpt lat="45.74237" lon="4.85074">
        <ele>181.34582519531</ele>
        <time>2010-08-26T19:52:31Z</time>
      </trkpt>
      <trkpt lat="45.74228" lon="4.851">
        <ele>181.34582519531</ele>
        <time>2010-08-26T19:52:38Z</time>
      </trkpt>
      <trkpt lat="45.74213" lon="4.85126">
        <ele>181.34582519531</ele>
        <time>2010-08-26T19:52:44Z</time>
      </trkpt>
      <trkpt lat="45.7421" lon="4.85131">
        <ele>180.865234375</ele>
        <time>2010-08-26T19:52:45Z</time>
      </trkpt>
      <trkpt lat="45.74199" lon="4.85178">
        <ele>180.865234375</ele>
        <time>2010-08-26T19:52:52Z</time>
      </trkpt>
      <trkpt lat="45.74183" lon="4.85235">
        <ele>181.34582519531</ele>
        <time>2010-08-26T19:53:00Z</time>
      </trkpt>
      <trkpt lat="45.7417" lon="4.85296">
        <ele>180.865234375</ele>
        <time>2010-08-26T19:53:07Z</time>
      </trkpt>
      <trkpt lat="45.74164" lon="4.85313">
        <ele>180.865234375</ele>
        <time>2010-08-26T19:53:09Z</time>
      </trkpt>
      <trkpt lat="45.74141" lon="4.85367">
        <ele>180.38452148438</ele>
        <time>2010-08-26T19:53:15Z</time>
      </trkpt>
      <trkpt lat="45.74132" lon="4.85401">
        <ele>180.865234375</ele>
        <time>2010-08-26T19:53:20Z</time>
      </trkpt>
      <trkpt lat="45.74129" lon="4.85414">
        <ele>179.90380859375</ele>
        <time>2010-08-26T19:53:22Z</time>
      </trkpt>
      <trkpt lat="45.74118" lon="4.85456">
        <ele>180.865234375</ele>
        <time>2010-08-26T19:53:28Z</time>
      </trkpt>
      <trkpt lat="45.74114" lon="4.85475">
        <ele>180.865234375</ele>
        <time>2010-08-26T19:53:31Z</time>
      </trkpt>
      <trkpt lat="45.74105" lon="4.85506">
        <ele>180.38452148438</ele>
        <time>2010-08-26T19:53:36Z</time>
      </trkpt>
      <trkpt lat="45.74081" lon="4.85553">
        <ele>181.34582519531</ele>
        <time>2010-08-26T19:53:44Z</time>
      </trkpt>
      <trkpt lat="45.74077" lon="4.85586">
        <ele>181.34582519531</ele>
        <time>2010-08-26T19:53:50Z</time>
      </trkpt>
      <trkpt lat="45.7408" lon="4.85599">
        <ele>181.34582519531</ele>
        <time>2010-08-26T19:53:53Z</time>
      </trkpt>
      <trkpt lat="45.7408" lon="4.85611">
        <ele>181.82641601562</ele>
        <time>2010-08-26T19:53:56Z</time>
      </trkpt>
      <trkpt lat="45.74074" lon="4.85623">
        <ele>182.78784179688</ele>
        <time>2010-08-26T19:54:00Z</time>
      </trkpt>
      <trkpt lat="45.74064" lon="4.85657">
        <ele>183.26843261719</ele>
        <time>2010-08-26T19:54:09Z</time>
      </trkpt>
      <trkpt lat="45.74057" lon="4.85676">
        <ele>181.82641601562</ele>
        <time>2010-08-26T19:54:14Z</time>
      </trkpt>
      <trkpt lat="45.74045" lon="4.85714">
        <ele>180.865234375</ele>
        <time>2010-08-26T19:54:22Z</time>
      </trkpt>
      <trkpt lat="45.74033" lon="4.85746">
        <ele>182.78784179688</ele>
        <time>2010-08-26T19:54:29Z</time>
      </trkpt>
      <trkpt lat="45.74031" lon="4.85756">
        <ele>183.7490234375</ele>
        <time>2010-08-26T19:54:31Z</time>
      </trkpt>
      <trkpt lat="45.74028" lon="4.85766">
        <ele>181.82641601562</ele>
        <time>2010-08-26T19:54:33Z</time>
      </trkpt>
      <trkpt lat="45.74018" lon="4.85797">
        <ele>183.26843261719</ele>
        <time>2010-08-26T19:54:40Z</time>
      </trkpt>
      <trkpt lat="45.74028" lon="4.85813">
        <ele>183.26843261719</ele>
        <time>2010-08-26T19:54:44Z</time>
      </trkpt>
      <trkpt lat="45.74056" lon="4.85833">
        <ele>184.22985839844</ele>
        <time>2010-08-26T19:54:49Z</time>
      </trkpt>
      <trkpt lat="45.7409" lon="4.85857">
        <ele>184.22985839844</ele>
        <time>2010-08-26T19:54:55Z</time>
      </trkpt>
      <trkpt lat="45.74101" lon="4.85864">
        <ele>184.71057128906</ele>
        <time>2010-08-26T19:54:57Z</time>
      </trkpt>
      <trkpt lat="45.74104" lon="4.85888">
        <ele>185.19116210938</ele>
        <time>2010-08-26T19:55:01Z</time>
      </trkpt>
      <trkpt lat="45.74102" lon="4.85895">
        <ele>185.19116210938</ele>
        <time>2010-08-26T19:55:02Z</time>
      </trkpt>
      <trkpt lat="45.7409" lon="4.85921">
        <ele>185.19116210938</ele>
        <time>2010-08-26T19:55:06Z</time>
      </trkpt>
      <trkpt lat="45.7408" lon="4.85955">
        <ele>184.71057128906</ele>
        <time>2010-08-26T19:55:11Z</time>
      </trkpt>
      <trkpt lat="45.7407" lon="4.85972">
        <ele>183.26843261719</ele>
        <time>2010-08-26T19:55:14Z</time>
      </trkpt>
      <trkpt lat="45.74076" lon="4.85994">
        <ele>184.22985839844</ele>
        <time>2010-08-26T19:55:18Z</time>
      </trkpt>
      <trkpt lat="45.74091" lon="4.86014">
        <ele>183.7490234375</ele>
        <time>2010-08-26T19:55:22Z</time>
      </trkpt>
      <trkpt lat="45.74105" lon="4.86025">
        <ele>183.7490234375</ele>
        <time>2010-08-26T19:55:25Z</time>
      </trkpt>
      <trkpt lat="45.74132" lon="4.86036">
        <ele>183.26843261719</ele>
        <time>2010-08-26T19:55:30Z</time>
      </trkpt>
      <trkpt lat="45.74165" lon="4.86052">
        <ele>183.26843261719</ele>
        <time>2010-08-26T19:55:36Z</time>
      </trkpt>
      <trkpt lat="45.74171" lon="4.86055">
        <ele>184.71057128906</ele>
        <time>2010-08-26T19:55:37Z</time>
      </trkpt>
      <trkpt lat="45.7419" lon="4.86055">
        <ele>182.78784179688</ele>
        <time>2010-08-26T19:55:41Z</time>
      </trkpt>
      <trkpt lat="45.74194" lon="4.86053">
        <ele>183.26843261719</ele>
        <time>2010-08-26T19:55:42Z</time>
      </trkpt>
      <trkpt lat="45.74202" lon="4.86048">
        <ele>182.78784179688</ele>
        <time>2010-08-26T19:55:44Z</time>
      </trkpt>
      <trkpt lat="45.74211" lon="4.86055">
        <ele>183.26843261719</ele>
        <time>2010-08-26T19:55:48Z</time>
      </trkpt>
      <trkpt lat="45.74211" lon="4.86084">
        <ele>183.26843261719</ele>
        <time>2010-08-26T19:55:53Z</time>
      </trkpt>
      <trkpt lat="45.74209" lon="4.86092">
        <ele>183.7490234375</ele>
        <time>2010-08-26T19:55:54Z</time>
      </trkpt>
      <trkpt lat="45.74201" lon="4.8612">
        <ele>182.78784179688</ele>
        <time>2010-08-26T19:55:57Z</time>
      </trkpt>
      <trkpt lat="45.74176" lon="4.8619">
        <ele>182.30712890625</ele>
        <time>2010-08-26T19:56:04Z</time>
      </trkpt>
      <trkpt lat="45.74183" lon="4.86221">
        <ele>182.30712890625</ele>
        <time>2010-08-26T19:56:08Z</time>
      </trkpt>
      <trkpt lat="45.74196" lon="4.86227">
        <ele>182.30712890625</ele>
        <time>2010-08-26T19:56:10Z</time>
      </trkpt>
      <trkpt lat="45.74252" lon="4.86254">
        <ele>182.78784179688</ele>
        <time>2010-08-26T19:56:18Z</time>
      </trkpt>
      <trkpt lat="45.74303" lon="4.86277">
        <ele>182.30712890625</ele>
        <time>2010-08-26T19:56:25Z</time>
      </trkpt>
      <trkpt lat="45.74366" lon="4.86305">
        <ele>182.30712890625</ele>
        <time>2010-08-26T19:56:33Z</time>
      </trkpt>
      <trkpt lat="45.74412" lon="4.86335">
        <ele>182.30712890625</ele>
        <time>2010-08-26T19:56:39Z</time>
      </trkpt>
      <trkpt lat="45.74459" lon="4.86357">
        <ele>182.30712890625</ele>
        <time>2010-08-26T19:56:45Z</time>
      </trkpt>
      <trkpt lat="45.74512" lon="4.86383">
        <ele>181.34582519531</ele>
        <time>2010-08-26T19:56:52Z</time>
      </trkpt>
      <trkpt lat="45.74527" lon="4.86389">
        <ele>181.34582519531</ele>
        <time>2010-08-26T19:56:54Z</time>
      </trkpt>
      <trkpt lat="45.74551" lon="4.86409">
        <ele>180.38452148438</ele>
        <time>2010-08-26T19:56:58Z</time>
      </trkpt>
      <trkpt lat="45.74566" lon="4.86425">
        <ele>180.38452148438</ele>
        <time>2010-08-26T19:57:02Z</time>
      </trkpt>
      <trkpt lat="45.74567" lon="4.86428">
        <ele>180.865234375</ele>
        <time>2010-08-26T19:57:05Z</time>
      </trkpt>
      <trkpt lat="45.74568" lon="4.8642">
        <ele>180.865234375</ele>
        <time>2010-08-26T19:57:09Z</time>
      </trkpt>
      <trkpt lat="45.74568" lon="4.86424">
        <ele>180.38452148438</ele>
        <time>2010-08-26T19:57:12Z</time>
      </trkpt>
      <trkpt lat="45.74579" lon="4.86429">
        <ele>180.865234375</ele>
        <time>2010-08-26T19:57:15Z</time>
      </trkpt>
      <trkpt lat="45.74623" lon="4.86442">
        <ele>180.865234375</ele>
        <time>2010-08-26T19:57:22Z</time>
      </trkpt>
      <trkpt lat="45.74671" lon="4.86462">
        <ele>181.34582519531</ele>
        <time>2010-08-26T19:57:29Z</time>
      </trkpt>
      <trkpt lat="45.74684" lon="4.86473">
        <ele>181.34582519531</ele>
        <time>2010-08-26T19:57:31Z</time>
      </trkpt>
      <trkpt lat="45.74723" lon="4.86496">
        <ele>181.34582519531</ele>
        <time>2010-08-26T19:57:38Z</time>
      </trkpt>
      <trkpt lat="45.74734" lon="4.86503">
        <ele>181.82641601562</ele>
        <time>2010-08-26T19:57:40Z</time>
      </trkpt>
      <trkpt lat="45.74754" lon="4.86517">
        <ele>182.30712890625</ele>
        <time>2010-08-26T19:57:44Z</time>
      </trkpt>
      <trkpt lat="45.74758" lon="4.86521">
        <ele>182.30712890625</ele>
        <time>2010-08-26T19:57:47Z</time>
      </trkpt>
      <trkpt lat="45.74759" lon="4.86525">
        <ele>181.82641601562</ele>
        <time>2010-08-26T19:57:51Z</time>
      </trkpt>
      <trkpt lat="45.74768" lon="4.86528">
        <ele>181.82641601562</ele>
        <time>2010-08-26T19:57:55Z</time>
      </trkpt>
      <trkpt lat="45.74778" lon="4.86531">
        <ele>181.34582519531</ele>
        <time>2010-08-26T19:57:57Z</time>
      </trkpt>
      <trkpt lat="45.74789" lon="4.86539">
        <ele>181.82641601562</ele>
        <time>2010-08-26T19:57:59Z</time>
      </trkpt>
      <trkpt lat="45.74829" lon="4.86559">
        <ele>181.34582519531</ele>
        <time>2010-08-26T19:58:05Z</time>
      </trkpt>
      <trkpt lat="45.74839" lon="4.86563">
        <ele>180.865234375</ele>
        <time>2010-08-26T19:58:06Z</time>
      </trkpt>
      <trkpt lat="45.74835" lon="4.86586">
        <ele>180.865234375</ele>
        <time>2010-08-26T19:58:10Z</time>
      </trkpt>
      <trkpt lat="45.74831" lon="4.86592">
        <ele>181.34582519531</ele>
        <time>2010-08-26T19:58:11Z</time>
      </trkpt>
      <trkpt lat="45.74821" lon="4.86619">
        <ele>181.34582519531</ele>
        <time>2010-08-26T19:58:16Z</time>
      </trkpt>
      <trkpt lat="45.74817" lon="4.86633">
        <ele>180.865234375</ele>
        <time>2010-08-26T19:58:20Z</time>
      </trkpt>
    </trkseg>
  </trk>
</gpx>